<?xml version="1.0" encoding="UTF-8"?>
<gpx version="1.1" creator="https://www.youtrack.es" xsi:schemaLocation="http://www.topografix.com/GPX/1/1 http://www.topografix.com/GPX/1/1/gpx.xsd http://www.garmin.com/xmlschemas/GpxExtensions/v3 http://www.garmin.com/xmlschemas/GpxExtensionsv3.xsd http://www.garmin.com/xmlschemas/TrackPointExtension/v1 http://www.garmin.com/xmlschemas/TrackPointExtensionv1.xsd" xmlns:gpxtpx="http://www.garmin.com/xmlschemas/TrackPointExtension/v1" xmlns:gpxx="http://www.garmin.com/xmlschemas/GpxExtensions/v3" xmlns:xsi="http://www.w3.org/2001/XMLSchema-instance">
  <metadata>
    <link href="https://www.youtrack.es">
      <text>YouTrack.es</text>
    </link>
    <time>2026-05-09T08:03:46Z</time>
  </metadata>
  <trk>
    <src>https://www.youtrack.es</src>
    <link href="https://www.youtrack.es/ruta/14543-transpirenaika">
      <text>YouTrack.es</text>
    </link>
    <trkseg>
      <trkpt lat="42.263230" lon="3.178120">
        <ele>4.768</ele>
        <time>2020-07-13T21:33:28Z</time>
      </trkpt>
      <trkpt lat="42.264670" lon="3.174980">
        <ele>7.742</ele>
        <time>2020-07-13T21:34:28Z</time>
      </trkpt>
      <trkpt lat="42.265670" lon="3.173940">
        <ele>4.226</ele>
        <time>2020-07-13T21:34:48Z</time>
      </trkpt>
      <trkpt lat="42.265310" lon="3.173170">
        <ele>3.008</ele>
        <time>2020-07-13T21:35:08Z</time>
      </trkpt>
      <trkpt lat="42.264620" lon="3.172710">
        <ele>2.041</ele>
        <time>2020-07-13T21:35:28Z</time>
      </trkpt>
      <trkpt lat="42.266810" lon="3.164150">
        <ele>2.088</ele>
        <time>2020-07-13T21:37:08Z</time>
      </trkpt>
      <trkpt lat="42.267120" lon="3.163710">
        <ele>2.243</ele>
        <time>2020-07-13T21:37:28Z</time>
      </trkpt>
      <trkpt lat="42.269200" lon="3.155750">
        <ele>2.046</ele>
        <time>2020-07-13T21:38:08Z</time>
      </trkpt>
      <trkpt lat="42.269480" lon="3.155500">
        <ele>2.063</ele>
        <time>2020-07-13T21:38:28Z</time>
      </trkpt>
      <trkpt lat="42.269460" lon="3.154830">
        <ele>2.041</ele>
        <time>2020-07-13T21:38:48Z</time>
      </trkpt>
      <trkpt lat="42.271040" lon="3.149230">
        <ele>2.082</ele>
        <time>2020-07-13T21:39:08Z</time>
      </trkpt>
      <trkpt lat="42.271580" lon="3.148420">
        <ele>3.794</ele>
        <time>2020-07-13T21:39:28Z</time>
      </trkpt>
      <trkpt lat="42.272000" lon="3.137670">
        <ele>2.251</ele>
        <time>2020-07-13T21:39:48Z</time>
      </trkpt>
      <trkpt lat="42.272530" lon="3.134830">
        <ele>5.401</ele>
        <time>2020-07-13T21:40:08Z</time>
      </trkpt>
      <trkpt lat="42.267490" lon="3.126760">
        <ele>3.011</ele>
        <time>2020-07-13T21:40:48Z</time>
      </trkpt>
      <trkpt lat="42.265240" lon="3.120270">
        <ele>2.908</ele>
        <time>2020-07-13T21:41:28Z</time>
      </trkpt>
      <trkpt lat="42.265100" lon="3.110940">
        <ele>3.550</ele>
        <time>2020-07-13T21:42:08Z</time>
      </trkpt>
      <trkpt lat="42.260600" lon="3.094330">
        <ele>4.857</ele>
        <time>2020-07-13T21:43:48Z</time>
      </trkpt>
      <trkpt lat="42.260650" lon="3.093770">
        <ele>5.222</ele>
        <time>2020-07-13T21:44:08Z</time>
      </trkpt>
      <trkpt lat="42.259410" lon="3.090570">
        <ele>5.975</ele>
        <time>2020-07-13T21:45:08Z</time>
      </trkpt>
      <trkpt lat="42.257680" lon="3.088480">
        <ele>9.132</ele>
        <time>2020-07-13T21:45:48Z</time>
      </trkpt>
      <trkpt lat="42.253710" lon="3.085740">
        <ele>11.660</ele>
        <time>2020-07-13T21:46:08Z</time>
      </trkpt>
      <trkpt lat="42.253030" lon="3.084930">
        <ele>10.221</ele>
        <time>2020-07-13T21:46:28Z</time>
      </trkpt>
      <trkpt lat="42.251640" lon="3.080460">
        <ele>9.483</ele>
        <time>2020-07-13T21:47:08Z</time>
      </trkpt>
      <trkpt lat="42.251450" lon="3.076900">
        <ele>10.617</ele>
        <time>2020-07-13T21:47:28Z</time>
      </trkpt>
      <trkpt lat="42.251710" lon="3.076210">
        <ele>11.487</ele>
        <time>2020-07-13T21:47:48Z</time>
      </trkpt>
      <trkpt lat="42.251370" lon="3.075670">
        <ele>10.315</ele>
        <time>2020-07-13T21:48:28Z</time>
      </trkpt>
      <trkpt lat="42.250770" lon="3.075820">
        <ele>8.508</ele>
        <time>2020-07-13T21:49:08Z</time>
      </trkpt>
      <trkpt lat="42.248160" lon="3.075020">
        <ele>6.046</ele>
        <time>2020-07-13T21:49:48Z</time>
      </trkpt>
      <trkpt lat="42.246910" lon="3.075120">
        <ele>6.033</ele>
        <time>2020-07-13T21:50:08Z</time>
      </trkpt>
      <trkpt lat="42.243000" lon="3.078020">
        <ele>5.088</ele>
        <time>2020-07-13T21:50:28Z</time>
      </trkpt>
      <trkpt lat="42.239460" lon="3.079860">
        <ele>4.081</ele>
        <time>2020-07-13T21:50:48Z</time>
      </trkpt>
      <trkpt lat="42.235570" lon="3.082600">
        <ele>3.078</ele>
        <time>2020-07-13T21:51:08Z</time>
      </trkpt>
      <trkpt lat="42.233700" lon="3.083430">
        <ele>2.036</ele>
        <time>2020-07-13T21:51:28Z</time>
      </trkpt>
      <trkpt lat="42.231870" lon="3.083490">
        <ele>2.047</ele>
        <time>2020-07-13T21:51:48Z</time>
      </trkpt>
      <trkpt lat="42.229600" lon="3.084550">
        <ele>2.039</ele>
        <time>2020-07-13T21:52:28Z</time>
      </trkpt>
      <trkpt lat="42.224790" lon="3.087650">
        <ele>1.777</ele>
        <time>2020-07-13T21:53:28Z</time>
      </trkpt>
      <trkpt lat="42.222390" lon="3.087420">
        <ele>1.061</ele>
        <time>2020-07-13T21:54:08Z</time>
      </trkpt>
      <trkpt lat="42.220040" lon="3.088590">
        <ele>1.027</ele>
        <time>2020-07-13T21:54:48Z</time>
      </trkpt>
      <trkpt lat="42.216310" lon="3.088660">
        <ele>1.208</ele>
        <time>2020-07-13T21:55:48Z</time>
      </trkpt>
      <trkpt lat="42.212080" lon="3.085880">
        <ele>1.442</ele>
        <time>2020-07-13T21:56:08Z</time>
      </trkpt>
      <trkpt lat="42.191480" lon="3.082170">
        <ele>3.099</ele>
        <time>2020-07-13T21:57:08Z</time>
      </trkpt>
      <trkpt lat="42.189400" lon="3.082080">
        <ele>4.264</ele>
        <time>2020-07-13T21:57:48Z</time>
      </trkpt>
      <trkpt lat="42.188900" lon="3.082730">
        <ele>4.217</ele>
        <time>2020-07-13T21:58:08Z</time>
      </trkpt>
      <trkpt lat="42.187930" lon="3.083190">
        <ele>4.254</ele>
        <time>2020-07-13T21:58:28Z</time>
      </trkpt>
      <trkpt lat="42.187700" lon="3.084730">
        <ele>5.192</ele>
        <time>2020-07-13T21:58:48Z</time>
      </trkpt>
      <trkpt lat="42.186630" lon="3.086650">
        <ele>6.723</ele>
        <time>2020-07-13T21:59:28Z</time>
      </trkpt>
      <trkpt lat="42.185110" lon="3.086040">
        <ele>5.085</ele>
        <time>2020-07-13T22:00:08Z</time>
      </trkpt>
      <trkpt lat="42.182740" lon="3.086270">
        <ele>5.142</ele>
        <time>2020-07-13T22:00:28Z</time>
      </trkpt>
      <trkpt lat="42.181050" lon="3.084970">
        <ele>5.022</ele>
        <time>2020-07-13T22:01:28Z</time>
      </trkpt>
      <trkpt lat="42.177080" lon="3.083470">
        <ele>5.014</ele>
        <time>2020-07-13T22:02:08Z</time>
      </trkpt>
      <trkpt lat="42.175880" lon="3.081170">
        <ele>5.808</ele>
        <time>2020-07-13T22:02:48Z</time>
      </trkpt>
      <trkpt lat="42.174970" lon="3.080140">
        <ele>5.689</ele>
        <time>2020-07-13T22:03:08Z</time>
      </trkpt>
      <trkpt lat="42.173500" lon="3.076120">
        <ele>6.036</ele>
        <time>2020-07-13T22:03:28Z</time>
      </trkpt>
      <trkpt lat="42.173820" lon="3.075660">
        <ele>6.061</ele>
        <time>2020-07-13T22:03:48Z</time>
      </trkpt>
      <trkpt lat="42.173750" lon="3.075080">
        <ele>6.014</ele>
        <time>2020-07-13T22:04:08Z</time>
      </trkpt>
      <trkpt lat="42.172450" lon="3.073960">
        <ele>7.041</ele>
        <time>2020-07-13T22:04:28Z</time>
      </trkpt>
      <trkpt lat="42.171620" lon="3.072050">
        <ele>6.689</ele>
        <time>2020-07-13T22:04:48Z</time>
      </trkpt>
      <trkpt lat="42.170750" lon="3.071710">
        <ele>6.080</ele>
        <time>2020-07-13T22:05:08Z</time>
      </trkpt>
      <trkpt lat="42.169960" lon="3.069660">
        <ele>6.072</ele>
        <time>2020-07-13T22:05:48Z</time>
      </trkpt>
      <trkpt lat="42.170710" lon="3.068990">
        <ele>6.626</ele>
        <time>2020-07-13T22:06:08Z</time>
      </trkpt>
      <trkpt lat="42.170960" lon="3.066400">
        <ele>6.547</ele>
        <time>2020-07-13T22:06:48Z</time>
      </trkpt>
      <trkpt lat="42.170480" lon="3.062280">
        <ele>7.011</ele>
        <time>2020-07-13T22:07:28Z</time>
      </trkpt>
      <trkpt lat="42.168770" lon="3.057550">
        <ele>7.608</ele>
        <time>2020-07-13T22:08:08Z</time>
      </trkpt>
      <trkpt lat="42.166750" lon="3.054350">
        <ele>9.397</ele>
        <time>2020-07-13T22:08:28Z</time>
      </trkpt>
      <trkpt lat="42.165970" lon="3.051340">
        <ele>10.034</ele>
        <time>2020-07-13T22:08:48Z</time>
      </trkpt>
      <trkpt lat="42.163840" lon="3.047290">
        <ele>10.039</ele>
        <time>2020-07-13T22:09:08Z</time>
      </trkpt>
      <trkpt lat="42.161570" lon="3.044330">
        <ele>11.072</ele>
        <time>2020-07-13T22:09:28Z</time>
      </trkpt>
      <trkpt lat="42.160420" lon="3.045460">
        <ele>10.039</ele>
        <time>2020-07-13T22:09:48Z</time>
      </trkpt>
      <trkpt lat="42.159950" lon="3.045330">
        <ele>10.817</ele>
        <time>2020-07-13T22:10:28Z</time>
      </trkpt>
      <trkpt lat="42.159250" lon="3.041270">
        <ele>13.158</ele>
        <time>2020-07-13T22:11:08Z</time>
      </trkpt>
      <trkpt lat="42.151510" lon="3.026830">
        <ele>24.770</ele>
        <time>2020-07-13T22:12:08Z</time>
      </trkpt>
      <trkpt lat="42.151260" lon="3.025060">
        <ele>26.133</ele>
        <time>2020-07-13T22:12:28Z</time>
      </trkpt>
      <trkpt lat="42.135890" lon="3.010140">
        <ele>60.423</ele>
        <time>2020-07-13T22:13:48Z</time>
      </trkpt>
      <trkpt lat="42.130860" lon="3.007470">
        <ele>85.415</ele>
        <time>2020-07-13T22:14:48Z</time>
      </trkpt>
      <trkpt lat="42.130190" lon="3.006470">
        <ele>88.408</ele>
        <time>2020-07-13T22:15:08Z</time>
      </trkpt>
      <trkpt lat="42.129820" lon="3.005260">
        <ele>90.138</ele>
        <time>2020-07-13T22:15:28Z</time>
      </trkpt>
      <trkpt lat="42.130390" lon="2.997660">
        <ele>107.095</ele>
        <time>2020-07-13T22:16:08Z</time>
      </trkpt>
      <trkpt lat="42.130770" lon="2.997080">
        <ele>106.190</ele>
        <time>2020-07-13T22:16:28Z</time>
      </trkpt>
      <trkpt lat="42.130680" lon="2.996240">
        <ele>106.163</ele>
        <time>2020-07-13T22:16:48Z</time>
      </trkpt>
      <trkpt lat="42.131680" lon="2.991910">
        <ele>112.970</ele>
        <time>2020-07-13T22:17:08Z</time>
      </trkpt>
      <trkpt lat="42.131550" lon="2.986440">
        <ele>125.638</ele>
        <time>2020-07-13T22:17:28Z</time>
      </trkpt>
      <trkpt lat="42.126020" lon="2.962030">
        <ele>97.969</ele>
        <time>2020-07-13T22:18:08Z</time>
      </trkpt>
      <trkpt lat="42.126130" lon="2.961740">
        <ele>98.751</ele>
        <time>2020-07-13T22:18:28Z</time>
      </trkpt>
      <trkpt lat="42.125760" lon="2.961070">
        <ele>101.579</ele>
        <time>2020-07-13T22:18:48Z</time>
      </trkpt>
      <trkpt lat="42.124150" lon="2.953930">
        <ele>105.805</ele>
        <time>2020-07-13T22:19:08Z</time>
      </trkpt>
      <trkpt lat="42.124040" lon="2.949900">
        <ele>110.525</ele>
        <time>2020-07-13T22:19:28Z</time>
      </trkpt>
      <trkpt lat="42.124510" lon="2.946620">
        <ele>108.308</ele>
        <time>2020-07-13T22:19:48Z</time>
      </trkpt>
      <trkpt lat="42.123940" lon="2.939900">
        <ele>120.832</ele>
        <time>2020-07-13T22:20:08Z</time>
      </trkpt>
      <trkpt lat="42.125660" lon="2.932730">
        <ele>123.879</ele>
        <time>2020-07-13T22:21:08Z</time>
      </trkpt>
      <trkpt lat="42.126490" lon="2.918670">
        <ele>157.194</ele>
        <time>2020-07-13T22:21:28Z</time>
      </trkpt>
      <trkpt lat="42.127600" lon="2.907850">
        <ele>152.367</ele>
        <time>2020-07-13T22:21:48Z</time>
      </trkpt>
      <trkpt lat="42.128130" lon="2.906440">
        <ele>153.054</ele>
        <time>2020-07-13T22:22:08Z</time>
      </trkpt>
      <trkpt lat="42.130190" lon="2.904760">
        <ele>155.462</ele>
        <time>2020-07-13T22:22:48Z</time>
      </trkpt>
      <trkpt lat="42.130950" lon="2.904750">
        <ele>158.463</ele>
        <time>2020-07-13T22:23:28Z</time>
      </trkpt>
      <trkpt lat="42.130870" lon="2.903810">
        <ele>155.095</ele>
        <time>2020-07-13T22:23:48Z</time>
      </trkpt>
      <trkpt lat="42.131600" lon="2.901700">
        <ele>162.732</ele>
        <time>2020-07-13T22:24:48Z</time>
      </trkpt>
      <trkpt lat="42.127670" lon="2.897410">
        <ele>157.792</ele>
        <time>2020-07-13T22:25:08Z</time>
      </trkpt>
      <trkpt lat="42.123960" lon="2.894420">
        <ele>136.511</ele>
        <time>2020-07-13T22:25:28Z</time>
      </trkpt>
      <trkpt lat="42.123530" lon="2.893240">
        <ele>131.308</ele>
        <time>2020-07-13T22:25:48Z</time>
      </trkpt>
      <trkpt lat="42.123870" lon="2.890730">
        <ele>120.988</ele>
        <time>2020-07-13T22:26:28Z</time>
      </trkpt>
      <trkpt lat="42.123430" lon="2.889440">
        <ele>119.085</ele>
        <time>2020-07-13T22:27:08Z</time>
      </trkpt>
      <trkpt lat="42.122380" lon="2.888410">
        <ele>125.590</ele>
        <time>2020-07-13T22:27:28Z</time>
      </trkpt>
      <trkpt lat="42.121740" lon="2.885360">
        <ele>122.063</ele>
        <time>2020-07-13T22:28:48Z</time>
      </trkpt>
      <trkpt lat="42.120370" lon="2.883010">
        <ele>105.770</ele>
        <time>2020-07-13T22:29:28Z</time>
      </trkpt>
      <trkpt lat="42.120330" lon="2.880840">
        <ele>97.968</ele>
        <time>2020-07-13T22:29:48Z</time>
      </trkpt>
      <trkpt lat="42.119970" lon="2.879960">
        <ele>97.939</ele>
        <time>2020-07-13T22:30:08Z</time>
      </trkpt>
      <trkpt lat="42.120230" lon="2.876600">
        <ele>102.461</ele>
        <time>2020-07-13T22:30:28Z</time>
      </trkpt>
      <trkpt lat="42.119890" lon="2.874330">
        <ele>112.897</ele>
        <time>2020-07-13T22:30:48Z</time>
      </trkpt>
      <trkpt lat="42.120190" lon="2.873830">
        <ele>111.923</ele>
        <time>2020-07-13T22:31:08Z</time>
      </trkpt>
      <trkpt lat="42.118940" lon="2.871730">
        <ele>131.225</ele>
        <time>2020-07-13T22:32:28Z</time>
      </trkpt>
      <trkpt lat="42.119130" lon="2.871310">
        <ele>131.808</ele>
        <time>2020-07-13T22:32:48Z</time>
      </trkpt>
      <trkpt lat="42.118800" lon="2.869230">
        <ele>140.184</ele>
        <time>2020-07-13T22:33:28Z</time>
      </trkpt>
      <trkpt lat="42.119000" lon="2.866520">
        <ele>146.471</ele>
        <time>2020-07-13T22:33:48Z</time>
      </trkpt>
      <trkpt lat="42.118200" lon="2.865780">
        <ele>151.616</ele>
        <time>2020-07-13T22:34:28Z</time>
      </trkpt>
      <trkpt lat="42.117850" lon="2.864570">
        <ele>156.939</ele>
        <time>2020-07-13T22:34:48Z</time>
      </trkpt>
      <trkpt lat="42.117010" lon="2.863620">
        <ele>159.566</ele>
        <time>2020-07-13T22:35:08Z</time>
      </trkpt>
      <trkpt lat="42.114960" lon="2.858750">
        <ele>137.184</ele>
        <time>2020-07-13T22:35:28Z</time>
      </trkpt>
      <trkpt lat="42.115120" lon="2.858170">
        <ele>131.955</ele>
        <time>2020-07-13T22:35:48Z</time>
      </trkpt>
      <trkpt lat="42.117450" lon="2.856540">
        <ele>113.997</ele>
        <time>2020-07-13T22:36:08Z</time>
      </trkpt>
      <trkpt lat="42.118050" lon="2.855570">
        <ele>105.945</ele>
        <time>2020-07-13T22:36:28Z</time>
      </trkpt>
      <trkpt lat="42.117710" lon="2.854500">
        <ele>103.647</ele>
        <time>2020-07-13T22:37:08Z</time>
      </trkpt>
      <trkpt lat="42.116270" lon="2.854280">
        <ele>107.911</ele>
        <time>2020-07-13T22:37:28Z</time>
      </trkpt>
      <trkpt lat="42.115750" lon="2.853780">
        <ele>113.008</ele>
        <time>2020-07-13T22:37:48Z</time>
      </trkpt>
      <trkpt lat="42.115270" lon="2.853840">
        <ele>115.679</ele>
        <time>2020-07-13T22:38:08Z</time>
      </trkpt>
      <trkpt lat="42.111390" lon="2.852080">
        <ele>129.026</ele>
        <time>2020-07-13T22:39:08Z</time>
      </trkpt>
      <trkpt lat="42.111610" lon="2.851240">
        <ele>125.741</ele>
        <time>2020-07-13T22:39:28Z</time>
      </trkpt>
      <trkpt lat="42.114280" lon="2.847880">
        <ele>103.664</ele>
        <time>2020-07-13T22:39:48Z</time>
      </trkpt>
      <trkpt lat="42.114020" lon="2.847040">
        <ele>100.161</ele>
        <time>2020-07-13T22:40:28Z</time>
      </trkpt>
      <trkpt lat="42.110810" lon="2.846350">
        <ele>109.499</ele>
        <time>2020-07-13T22:40:48Z</time>
      </trkpt>
      <trkpt lat="42.107560" lon="2.844770">
        <ele>104.370</ele>
        <time>2020-07-13T22:41:28Z</time>
      </trkpt>
      <trkpt lat="42.107880" lon="2.842510">
        <ele>93.632</ele>
        <time>2020-07-13T22:41:48Z</time>
      </trkpt>
      <trkpt lat="42.109400" lon="2.839900">
        <ele>85.925</ele>
        <time>2020-07-13T22:42:08Z</time>
      </trkpt>
      <trkpt lat="42.109140" lon="2.838540">
        <ele>89.926</ele>
        <time>2020-07-13T22:42:28Z</time>
      </trkpt>
      <trkpt lat="42.109780" lon="2.837680">
        <ele>95.608</ele>
        <time>2020-07-13T22:42:48Z</time>
      </trkpt>
      <trkpt lat="42.109950" lon="2.834940">
        <ele>109.708</ele>
        <time>2020-07-13T22:44:08Z</time>
      </trkpt>
      <trkpt lat="42.110620" lon="2.834930">
        <ele>113.317</ele>
        <time>2020-07-13T22:44:48Z</time>
      </trkpt>
      <trkpt lat="42.111880" lon="2.834040">
        <ele>122.774</ele>
        <time>2020-07-13T22:45:28Z</time>
      </trkpt>
      <trkpt lat="42.112080" lon="2.833140">
        <ele>128.819</ele>
        <time>2020-07-13T22:45:48Z</time>
      </trkpt>
      <trkpt lat="42.112820" lon="2.832720">
        <ele>130.972</ele>
        <time>2020-07-13T22:46:08Z</time>
      </trkpt>
      <trkpt lat="42.113040" lon="2.832020">
        <ele>135.619</ele>
        <time>2020-07-13T22:46:28Z</time>
      </trkpt>
      <trkpt lat="42.113060" lon="2.827690">
        <ele>135.667</ele>
        <time>2020-07-13T22:46:48Z</time>
      </trkpt>
      <trkpt lat="42.110980" lon="2.825340">
        <ele>149.238</ele>
        <time>2020-07-13T22:47:08Z</time>
      </trkpt>
      <trkpt lat="42.111030" lon="2.823550">
        <ele>148.670</ele>
        <time>2020-07-13T22:47:28Z</time>
      </trkpt>
      <trkpt lat="42.112440" lon="2.822540">
        <ele>141.015</ele>
        <time>2020-07-13T22:48:08Z</time>
      </trkpt>
      <trkpt lat="42.112370" lon="2.821240">
        <ele>142.165</ele>
        <time>2020-07-13T22:48:28Z</time>
      </trkpt>
      <trkpt lat="42.111100" lon="2.819960">
        <ele>142.911</ele>
        <time>2020-07-13T22:48:48Z</time>
      </trkpt>
      <trkpt lat="42.111090" lon="2.819430">
        <ele>142.608</ele>
        <time>2020-07-13T22:49:08Z</time>
      </trkpt>
      <trkpt lat="42.111850" lon="2.817870">
        <ele>144.726</ele>
        <time>2020-07-13T22:49:28Z</time>
      </trkpt>
      <trkpt lat="42.113700" lon="2.817360">
        <ele>140.563</ele>
        <time>2020-07-13T22:50:08Z</time>
      </trkpt>
      <trkpt lat="42.114530" lon="2.816320">
        <ele>133.318</ele>
        <time>2020-07-13T22:50:28Z</time>
      </trkpt>
      <trkpt lat="42.112700" lon="2.807510">
        <ele>114.051</ele>
        <time>2020-07-13T22:51:08Z</time>
      </trkpt>
      <trkpt lat="42.112150" lon="2.806370">
        <ele>115.158</ele>
        <time>2020-07-13T22:51:28Z</time>
      </trkpt>
      <trkpt lat="42.112200" lon="2.804920">
        <ele>122.376</ele>
        <time>2020-07-13T22:51:48Z</time>
      </trkpt>
      <trkpt lat="42.110380" lon="2.800940">
        <ele>143.087</ele>
        <time>2020-07-13T22:52:08Z</time>
      </trkpt>
      <trkpt lat="42.109760" lon="2.800560">
        <ele>147.799</ele>
        <time>2020-07-13T22:52:28Z</time>
      </trkpt>
      <trkpt lat="42.108810" lon="2.801330">
        <ele>152.276</ele>
        <time>2020-07-13T22:52:48Z</time>
      </trkpt>
      <trkpt lat="42.107620" lon="2.801270">
        <ele>153.590</ele>
        <time>2020-07-13T22:53:28Z</time>
      </trkpt>
      <trkpt lat="42.107520" lon="2.799670">
        <ele>148.019</ele>
        <time>2020-07-13T22:53:48Z</time>
      </trkpt>
      <trkpt lat="42.105780" lon="2.797010">
        <ele>129.308</ele>
        <time>2020-07-13T22:54:28Z</time>
      </trkpt>
      <trkpt lat="42.104510" lon="2.796030">
        <ele>126.152</ele>
        <time>2020-07-13T22:54:48Z</time>
      </trkpt>
      <trkpt lat="42.103740" lon="2.794540">
        <ele>120.459</ele>
        <time>2020-07-13T22:55:08Z</time>
      </trkpt>
      <trkpt lat="42.100830" lon="2.791570">
        <ele>119.074</ele>
        <time>2020-07-13T22:55:28Z</time>
      </trkpt>
      <trkpt lat="42.107150" lon="2.781120">
        <ele>132.747</ele>
        <time>2020-07-13T22:57:08Z</time>
      </trkpt>
      <trkpt lat="42.105950" lon="2.779370">
        <ele>134.054</ele>
        <time>2020-07-13T22:57:28Z</time>
      </trkpt>
      <trkpt lat="42.105200" lon="2.777140">
        <ele>136.512</ele>
        <time>2020-07-13T22:57:48Z</time>
      </trkpt>
      <trkpt lat="42.104530" lon="2.776060">
        <ele>138.223</ele>
        <time>2020-07-13T22:58:08Z</time>
      </trkpt>
      <trkpt lat="42.107560" lon="2.759770">
        <ele>173.275</ele>
        <time>2020-07-13T22:59:08Z</time>
      </trkpt>
      <trkpt lat="42.108790" lon="2.755990">
        <ele>178.441</ele>
        <time>2020-07-13T22:59:28Z</time>
      </trkpt>
      <trkpt lat="42.109090" lon="2.752370">
        <ele>177.381</ele>
        <time>2020-07-13T22:59:48Z</time>
      </trkpt>
      <trkpt lat="42.109680" lon="2.750490">
        <ele>178.009</ele>
        <time>2020-07-13T23:00:08Z</time>
      </trkpt>
      <trkpt lat="42.110500" lon="2.749130">
        <ele>179.008</ele>
        <time>2020-07-13T23:00:28Z</time>
      </trkpt>
      <trkpt lat="42.111260" lon="2.749360">
        <ele>177.629</ele>
        <time>2020-07-13T23:00:48Z</time>
      </trkpt>
      <trkpt lat="42.123290" lon="2.737320">
        <ele>194.156</ele>
        <time>2020-07-13T23:01:28Z</time>
      </trkpt>
      <trkpt lat="42.123890" lon="2.737480">
        <ele>197.241</ele>
        <time>2020-07-13T23:01:48Z</time>
      </trkpt>
      <trkpt lat="42.124820" lon="2.738380">
        <ele>204.674</ele>
        <time>2020-07-13T23:02:08Z</time>
      </trkpt>
      <trkpt lat="42.125400" lon="2.738300">
        <ele>208.671</ele>
        <time>2020-07-13T23:02:48Z</time>
      </trkpt>
      <trkpt lat="42.125970" lon="2.737090">
        <ele>213.879</ele>
        <time>2020-07-13T23:03:08Z</time>
      </trkpt>
      <trkpt lat="42.126000" lon="2.736200">
        <ele>218.870</ele>
        <time>2020-07-13T23:03:28Z</time>
      </trkpt>
      <trkpt lat="42.126940" lon="2.735690">
        <ele>223.782</ele>
        <time>2020-07-13T23:04:28Z</time>
      </trkpt>
      <trkpt lat="42.126580" lon="2.733410">
        <ele>233.185</ele>
        <time>2020-07-13T23:04:48Z</time>
      </trkpt>
      <trkpt lat="42.127800" lon="2.732270">
        <ele>233.889</ele>
        <time>2020-07-13T23:05:48Z</time>
      </trkpt>
      <trkpt lat="42.128200" lon="2.730390">
        <ele>235.217</ele>
        <time>2020-07-13T23:06:08Z</time>
      </trkpt>
      <trkpt lat="42.127940" lon="2.729030">
        <ele>234.808</ele>
        <time>2020-07-13T23:06:28Z</time>
      </trkpt>
      <trkpt lat="42.128430" lon="2.728230">
        <ele>231.943</ele>
        <time>2020-07-13T23:06:48Z</time>
      </trkpt>
      <trkpt lat="42.129250" lon="2.728530">
        <ele>237.090</ele>
        <time>2020-07-13T23:07:28Z</time>
      </trkpt>
      <trkpt lat="42.130320" lon="2.726730">
        <ele>251.585</ele>
        <time>2020-07-13T23:08:08Z</time>
      </trkpt>
      <trkpt lat="42.130670" lon="2.724980">
        <ele>254.398</ele>
        <time>2020-07-13T23:08:28Z</time>
      </trkpt>
      <trkpt lat="42.130790" lon="2.721430">
        <ele>246.625</ele>
        <time>2020-07-13T23:08:48Z</time>
      </trkpt>
      <trkpt lat="42.129480" lon="2.719490">
        <ele>243.413</ele>
        <time>2020-07-13T23:09:28Z</time>
      </trkpt>
      <trkpt lat="42.129570" lon="2.718380">
        <ele>248.124</ele>
        <time>2020-07-13T23:09:48Z</time>
      </trkpt>
      <trkpt lat="42.129010" lon="2.715950">
        <ele>261.376</ele>
        <time>2020-07-13T23:10:48Z</time>
      </trkpt>
      <trkpt lat="42.128360" lon="2.715030">
        <ele>265.822</ele>
        <time>2020-07-13T23:11:08Z</time>
      </trkpt>
      <trkpt lat="42.128120" lon="2.712790">
        <ele>275.662</ele>
        <time>2020-07-13T23:11:28Z</time>
      </trkpt>
      <trkpt lat="42.127380" lon="2.710730">
        <ele>284.308</ele>
        <time>2020-07-13T23:12:28Z</time>
      </trkpt>
      <trkpt lat="42.126870" lon="2.710610">
        <ele>285.108</ele>
        <time>2020-07-13T23:12:48Z</time>
      </trkpt>
      <trkpt lat="42.125590" lon="2.709080">
        <ele>288.497</ele>
        <time>2020-07-13T23:13:28Z</time>
      </trkpt>
      <trkpt lat="42.125200" lon="2.708120">
        <ele>284.944</ele>
        <time>2020-07-13T23:13:48Z</time>
      </trkpt>
      <trkpt lat="42.125200" lon="2.707120">
        <ele>278.279</ele>
        <time>2020-07-13T23:14:08Z</time>
      </trkpt>
      <trkpt lat="42.125590" lon="2.706370">
        <ele>274.972</ele>
        <time>2020-07-13T23:14:28Z</time>
      </trkpt>
      <trkpt lat="42.125130" lon="2.705800">
        <ele>269.269</ele>
        <time>2020-07-13T23:14:48Z</time>
      </trkpt>
      <trkpt lat="42.125010" lon="2.705110">
        <ele>266.637</ele>
        <time>2020-07-13T23:15:08Z</time>
      </trkpt>
      <trkpt lat="42.125570" lon="2.702620">
        <ele>256.648</ele>
        <time>2020-07-13T23:16:08Z</time>
      </trkpt>
      <trkpt lat="42.125560" lon="2.700430">
        <ele>250.730</ele>
        <time>2020-07-13T23:16:28Z</time>
      </trkpt>
      <trkpt lat="42.124710" lon="2.697050">
        <ele>241.316</ele>
        <time>2020-07-13T23:16:48Z</time>
      </trkpt>
      <trkpt lat="42.125910" lon="2.678060">
        <ele>219.776</ele>
        <time>2020-07-13T23:17:08Z</time>
      </trkpt>
      <trkpt lat="42.125480" lon="2.675640">
        <ele>226.013</ele>
        <time>2020-07-13T23:17:28Z</time>
      </trkpt>
      <trkpt lat="42.124440" lon="2.675070">
        <ele>230.908</ele>
        <time>2020-07-13T23:18:08Z</time>
      </trkpt>
      <trkpt lat="42.124670" lon="2.673190">
        <ele>244.116</ele>
        <time>2020-07-13T23:18:48Z</time>
      </trkpt>
      <trkpt lat="42.124360" lon="2.672630">
        <ele>242.493</ele>
        <time>2020-07-13T23:19:08Z</time>
      </trkpt>
      <trkpt lat="42.124620" lon="2.671310">
        <ele>247.978</ele>
        <time>2020-07-13T23:19:28Z</time>
      </trkpt>
      <trkpt lat="42.125210" lon="2.670890">
        <ele>254.081</ele>
        <time>2020-07-13T23:19:48Z</time>
      </trkpt>
      <trkpt lat="42.125350" lon="2.670330">
        <ele>254.948</ele>
        <time>2020-07-13T23:20:08Z</time>
      </trkpt>
      <trkpt lat="42.126400" lon="2.670750">
        <ele>264.176</ele>
        <time>2020-07-13T23:20:48Z</time>
      </trkpt>
      <trkpt lat="42.126640" lon="2.670130">
        <ele>265.147</ele>
        <time>2020-07-13T23:21:08Z</time>
      </trkpt>
      <trkpt lat="42.127410" lon="2.669900">
        <ele>268.479</ele>
        <time>2020-07-13T23:21:48Z</time>
      </trkpt>
      <trkpt lat="42.128860" lon="2.670220">
        <ele>277.428</ele>
        <time>2020-07-13T23:22:28Z</time>
      </trkpt>
      <trkpt lat="42.129280" lon="2.669260">
        <ele>284.389</ele>
        <time>2020-07-13T23:22:48Z</time>
      </trkpt>
      <trkpt lat="42.128520" lon="2.668980">
        <ele>284.417</ele>
        <time>2020-07-13T23:23:28Z</time>
      </trkpt>
      <trkpt lat="42.128620" lon="2.667760">
        <ele>285.908</ele>
        <time>2020-07-13T23:23:48Z</time>
      </trkpt>
      <trkpt lat="42.129060" lon="2.667550">
        <ele>285.037</ele>
        <time>2020-07-13T23:24:08Z</time>
      </trkpt>
      <trkpt lat="42.129720" lon="2.668090">
        <ele>286.964</ele>
        <time>2020-07-13T23:24:48Z</time>
      </trkpt>
      <trkpt lat="42.129870" lon="2.667410">
        <ele>284.139</ele>
        <time>2020-07-13T23:25:08Z</time>
      </trkpt>
      <trkpt lat="42.130480" lon="2.667510">
        <ele>287.982</ele>
        <time>2020-07-13T23:25:48Z</time>
      </trkpt>
      <trkpt lat="42.130590" lon="2.666700">
        <ele>285.049</ele>
        <time>2020-07-13T23:26:08Z</time>
      </trkpt>
      <trkpt lat="42.131570" lon="2.666120">
        <ele>287.137</ele>
        <time>2020-07-13T23:26:48Z</time>
      </trkpt>
      <trkpt lat="42.131910" lon="2.664490">
        <ele>292.748</ele>
        <time>2020-07-13T23:27:08Z</time>
      </trkpt>
      <trkpt lat="42.133260" lon="2.662250">
        <ele>290.380</ele>
        <time>2020-07-13T23:28:08Z</time>
      </trkpt>
      <trkpt lat="42.133110" lon="2.661140">
        <ele>289.082</ele>
        <time>2020-07-13T23:28:28Z</time>
      </trkpt>
      <trkpt lat="42.133540" lon="2.659720">
        <ele>290.643</ele>
        <time>2020-07-13T23:28:48Z</time>
      </trkpt>
      <trkpt lat="42.134150" lon="2.658800">
        <ele>292.217</ele>
        <time>2020-07-13T23:29:08Z</time>
      </trkpt>
      <trkpt lat="42.134280" lon="2.657590">
        <ele>291.008</ele>
        <time>2020-07-13T23:29:28Z</time>
      </trkpt>
      <trkpt lat="42.135090" lon="2.655750">
        <ele>291.553</ele>
        <time>2020-07-13T23:29:48Z</time>
      </trkpt>
      <trkpt lat="42.135380" lon="2.653730">
        <ele>291.940</ele>
        <time>2020-07-13T23:30:08Z</time>
      </trkpt>
      <trkpt lat="42.134020" lon="2.648390">
        <ele>287.615</ele>
        <time>2020-07-13T23:30:28Z</time>
      </trkpt>
      <trkpt lat="42.133470" lon="2.647720">
        <ele>282.148</ele>
        <time>2020-07-13T23:30:48Z</time>
      </trkpt>
      <trkpt lat="42.132590" lon="2.647510">
        <ele>277.555</ele>
        <time>2020-07-13T23:31:28Z</time>
      </trkpt>
      <trkpt lat="42.132150" lon="2.647890">
        <ele>275.473</ele>
        <time>2020-07-13T23:31:48Z</time>
      </trkpt>
      <trkpt lat="42.131380" lon="2.647410">
        <ele>269.694</ele>
        <time>2020-07-13T23:32:08Z</time>
      </trkpt>
      <trkpt lat="42.126750" lon="2.641980">
        <ele>270.876</ele>
        <time>2020-07-13T23:32:28Z</time>
      </trkpt>
      <trkpt lat="42.126650" lon="2.641350">
        <ele>270.071</ele>
        <time>2020-07-13T23:32:48Z</time>
      </trkpt>
      <trkpt lat="42.127560" lon="2.639090">
        <ele>272.041</ele>
        <time>2020-07-13T23:33:08Z</time>
      </trkpt>
      <trkpt lat="42.130570" lon="2.635160">
        <ele>282.915</ele>
        <time>2020-07-13T23:33:28Z</time>
      </trkpt>
      <trkpt lat="42.135090" lon="2.632890">
        <ele>276.208</ele>
        <time>2020-07-13T23:34:08Z</time>
      </trkpt>
      <trkpt lat="42.136370" lon="2.631170">
        <ele>283.612</ele>
        <time>2020-07-13T23:34:28Z</time>
      </trkpt>
      <trkpt lat="42.136840" lon="2.629540">
        <ele>292.159</ele>
        <time>2020-07-13T23:34:48Z</time>
      </trkpt>
      <trkpt lat="42.137970" lon="2.629240">
        <ele>303.054</ele>
        <time>2020-07-13T23:35:48Z</time>
      </trkpt>
      <trkpt lat="42.137420" lon="2.627470">
        <ele>312.827</ele>
        <time>2020-07-13T23:36:28Z</time>
      </trkpt>
      <trkpt lat="42.137610" lon="2.626430">
        <ele>314.984</ele>
        <time>2020-07-13T23:36:48Z</time>
      </trkpt>
      <trkpt lat="42.137200" lon="2.623880">
        <ele>331.412</ele>
        <time>2020-07-13T23:37:08Z</time>
      </trkpt>
      <trkpt lat="42.137820" lon="2.622030">
        <ele>340.263</ele>
        <time>2020-07-13T23:37:48Z</time>
      </trkpt>
      <trkpt lat="42.138180" lon="2.622040">
        <ele>340.915</ele>
        <time>2020-07-13T23:38:08Z</time>
      </trkpt>
      <trkpt lat="42.138600" lon="2.622640">
        <ele>347.845</ele>
        <time>2020-07-13T23:38:48Z</time>
      </trkpt>
      <trkpt lat="42.140340" lon="2.621930">
        <ele>358.447</ele>
        <time>2020-07-13T23:39:28Z</time>
      </trkpt>
      <trkpt lat="42.140770" lon="2.622650">
        <ele>366.211</ele>
        <time>2020-07-13T23:40:08Z</time>
      </trkpt>
      <trkpt lat="42.141640" lon="2.621650">
        <ele>371.508</ele>
        <time>2020-07-13T23:41:08Z</time>
      </trkpt>
      <trkpt lat="42.142450" lon="2.622100">
        <ele>374.069</ele>
        <time>2020-07-13T23:41:28Z</time>
      </trkpt>
      <trkpt lat="42.143690" lon="2.619140">
        <ele>389.846</ele>
        <time>2020-07-13T23:42:28Z</time>
      </trkpt>
      <trkpt lat="42.144710" lon="2.618710">
        <ele>389.541</ele>
        <time>2020-07-13T23:42:48Z</time>
      </trkpt>
      <trkpt lat="42.145460" lon="2.617710">
        <ele>391.294</ele>
        <time>2020-07-13T23:43:08Z</time>
      </trkpt>
      <trkpt lat="42.145360" lon="2.616520">
        <ele>389.351</ele>
        <time>2020-07-13T23:43:48Z</time>
      </trkpt>
      <trkpt lat="42.144420" lon="2.614660">
        <ele>380.379</ele>
        <time>2020-07-13T23:44:48Z</time>
      </trkpt>
      <trkpt lat="42.145410" lon="2.612350">
        <ele>359.290</ele>
        <time>2020-07-13T23:45:28Z</time>
      </trkpt>
      <trkpt lat="42.145090" lon="2.610420">
        <ele>350.862</ele>
        <time>2020-07-13T23:45:48Z</time>
      </trkpt>
      <trkpt lat="42.145490" lon="2.608790">
        <ele>340.161</ele>
        <time>2020-07-13T23:46:28Z</time>
      </trkpt>
      <trkpt lat="42.146110" lon="2.608700">
        <ele>342.421</ele>
        <time>2020-07-13T23:47:08Z</time>
      </trkpt>
      <trkpt lat="42.146490" lon="2.610070">
        <ele>341.713</ele>
        <time>2020-07-13T23:47:28Z</time>
      </trkpt>
      <trkpt lat="42.146950" lon="2.610500">
        <ele>341.408</ele>
        <time>2020-07-13T23:47:48Z</time>
      </trkpt>
      <trkpt lat="42.148710" lon="2.610680">
        <ele>344.911</ele>
        <time>2020-07-13T23:48:28Z</time>
      </trkpt>
      <trkpt lat="42.151000" lon="2.611690">
        <ele>346.898</ele>
        <time>2020-07-13T23:48:48Z</time>
      </trkpt>
      <trkpt lat="42.152830" lon="2.613650">
        <ele>344.133</ele>
        <time>2020-07-13T23:49:48Z</time>
      </trkpt>
      <trkpt lat="42.153690" lon="2.613430">
        <ele>346.686</ele>
        <time>2020-07-13T23:50:28Z</time>
      </trkpt>
      <trkpt lat="42.153990" lon="2.612110">
        <ele>351.853</ele>
        <time>2020-07-13T23:50:48Z</time>
      </trkpt>
      <trkpt lat="42.153320" lon="2.606710">
        <ele>365.481</ele>
        <time>2020-07-13T23:51:08Z</time>
      </trkpt>
      <trkpt lat="42.152250" lon="2.602970">
        <ele>372.272</ele>
        <time>2020-07-13T23:51:48Z</time>
      </trkpt>
      <trkpt lat="42.152220" lon="2.601310">
        <ele>374.174</ele>
        <time>2020-07-13T23:52:08Z</time>
      </trkpt>
      <trkpt lat="42.151590" lon="2.599470">
        <ele>384.574</ele>
        <time>2020-07-13T23:52:28Z</time>
      </trkpt>
      <trkpt lat="42.151510" lon="2.598300">
        <ele>390.656</ele>
        <time>2020-07-13T23:52:48Z</time>
      </trkpt>
      <trkpt lat="42.150510" lon="2.596990">
        <ele>397.021</ele>
        <time>2020-07-13T23:53:28Z</time>
      </trkpt>
      <trkpt lat="42.150460" lon="2.595560">
        <ele>403.208</ele>
        <time>2020-07-13T23:53:48Z</time>
      </trkpt>
      <trkpt lat="42.150070" lon="2.594680">
        <ele>407.872</ele>
        <time>2020-07-13T23:54:08Z</time>
      </trkpt>
      <trkpt lat="42.150160" lon="2.593570">
        <ele>408.929</ele>
        <time>2020-07-13T23:54:28Z</time>
      </trkpt>
      <trkpt lat="42.149300" lon="2.584280">
        <ele>430.664</ele>
        <time>2020-07-13T23:54:48Z</time>
      </trkpt>
      <trkpt lat="42.148190" lon="2.582460">
        <ele>440.827</ele>
        <time>2020-07-13T23:55:28Z</time>
      </trkpt>
      <trkpt lat="42.147770" lon="2.579680">
        <ele>450.134</ele>
        <time>2020-07-13T23:56:08Z</time>
      </trkpt>
      <trkpt lat="42.148490" lon="2.577760">
        <ele>456.422</ele>
        <time>2020-07-13T23:57:08Z</time>
      </trkpt>
      <trkpt lat="42.144970" lon="2.563610">
        <ele>516.023</ele>
        <time>2020-07-13T23:57:28Z</time>
      </trkpt>
      <trkpt lat="42.145980" lon="2.562570">
        <ele>524.885</ele>
        <time>2020-07-13T23:58:28Z</time>
      </trkpt>
      <trkpt lat="42.145990" lon="2.561830">
        <ele>531.518</ele>
        <time>2020-07-13T23:58:48Z</time>
      </trkpt>
      <trkpt lat="42.145380" lon="2.560980">
        <ele>539.598</ele>
        <time>2020-07-13T23:59:08Z</time>
      </trkpt>
      <trkpt lat="42.145380" lon="2.560560">
        <ele>541.517</ele>
        <time>2020-07-13T23:59:28Z</time>
      </trkpt>
      <trkpt lat="42.146690" lon="2.559520">
        <ele>552.208</ele>
        <time>2020-07-14T00:00:28Z</time>
      </trkpt>
      <trkpt lat="42.146610" lon="2.556560">
        <ele>567.416</ele>
        <time>2020-07-14T00:00:48Z</time>
      </trkpt>
      <trkpt lat="42.147700" lon="2.554530">
        <ele>582.563</ele>
        <time>2020-07-14T00:01:48Z</time>
      </trkpt>
      <trkpt lat="42.147560" lon="2.552140">
        <ele>592.188</ele>
        <time>2020-07-14T00:02:08Z</time>
      </trkpt>
      <trkpt lat="42.147940" lon="2.550800">
        <ele>599.741</ele>
        <time>2020-07-14T00:02:28Z</time>
      </trkpt>
      <trkpt lat="42.148090" lon="2.547780">
        <ele>610.538</ele>
        <time>2020-07-14T00:03:08Z</time>
      </trkpt>
      <trkpt lat="42.147330" lon="2.544890">
        <ele>623.716</ele>
        <time>2020-07-14T00:03:48Z</time>
      </trkpt>
      <trkpt lat="42.149530" lon="2.543090">
        <ele>620.617</ele>
        <time>2020-07-14T00:04:28Z</time>
      </trkpt>
      <trkpt lat="42.149860" lon="2.542410">
        <ele>620.099</ele>
        <time>2020-07-14T00:04:48Z</time>
      </trkpt>
      <trkpt lat="42.148570" lon="2.537020">
        <ele>616.975</ele>
        <time>2020-07-14T00:05:28Z</time>
      </trkpt>
      <trkpt lat="42.148720" lon="2.534230">
        <ele>615.528</ele>
        <time>2020-07-14T00:05:48Z</time>
      </trkpt>
      <trkpt lat="42.148410" lon="2.533360">
        <ele>617.320</ele>
        <time>2020-07-14T00:06:08Z</time>
      </trkpt>
      <trkpt lat="42.148350" lon="2.530670">
        <ele>615.108</ele>
        <time>2020-07-14T00:06:28Z</time>
      </trkpt>
      <trkpt lat="42.149530" lon="2.529690">
        <ele>615.092</ele>
        <time>2020-07-14T00:06:48Z</time>
      </trkpt>
      <trkpt lat="42.151840" lon="2.525080">
        <ele>591.519</ele>
        <time>2020-07-14T00:07:28Z</time>
      </trkpt>
      <trkpt lat="42.153120" lon="2.523210">
        <ele>589.494</ele>
        <time>2020-07-14T00:08:08Z</time>
      </trkpt>
      <trkpt lat="42.152780" lon="2.521960">
        <ele>586.037</ele>
        <time>2020-07-14T00:08:28Z</time>
      </trkpt>
      <trkpt lat="42.152770" lon="2.519510">
        <ele>576.454</ele>
        <time>2020-07-14T00:08:48Z</time>
      </trkpt>
      <trkpt lat="42.154200" lon="2.516390">
        <ele>567.452</ele>
        <time>2020-07-14T00:09:28Z</time>
      </trkpt>
      <trkpt lat="42.155200" lon="2.515600">
        <ele>562.373</ele>
        <time>2020-07-14T00:10:08Z</time>
      </trkpt>
      <trkpt lat="42.156930" lon="2.515320">
        <ele>554.575</ele>
        <time>2020-07-14T00:10:28Z</time>
      </trkpt>
      <trkpt lat="42.165520" lon="2.507570">
        <ele>515.057</ele>
        <time>2020-07-14T00:11:08Z</time>
      </trkpt>
      <trkpt lat="42.176000" lon="2.491570">
        <ele>442.300</ele>
        <time>2020-07-14T00:11:28Z</time>
      </trkpt>
      <trkpt lat="42.177100" lon="2.492980">
        <ele>447.520</ele>
        <time>2020-07-14T00:12:08Z</time>
      </trkpt>
      <trkpt lat="42.181060" lon="2.496560">
        <ele>446.008</ele>
        <time>2020-07-14T00:12:28Z</time>
      </trkpt>
      <trkpt lat="42.182530" lon="2.498730">
        <ele>442.710</ele>
        <time>2020-07-14T00:12:48Z</time>
      </trkpt>
      <trkpt lat="42.188210" lon="2.499300">
        <ele>417.577</ele>
        <time>2020-07-14T00:13:28Z</time>
      </trkpt>
      <trkpt lat="42.189000" lon="2.498640">
        <ele>418.082</ele>
        <time>2020-07-14T00:14:08Z</time>
      </trkpt>
      <trkpt lat="42.191340" lon="2.500200">
        <ele>413.485</ele>
        <time>2020-07-14T00:14:28Z</time>
      </trkpt>
      <trkpt lat="42.192300" lon="2.500380">
        <ele>411.852</ele>
        <time>2020-07-14T00:14:48Z</time>
      </trkpt>
      <trkpt lat="42.195900" lon="2.499610">
        <ele>403.040</ele>
        <time>2020-07-14T00:15:08Z</time>
      </trkpt>
      <trkpt lat="42.196580" lon="2.499770">
        <ele>402.521</ele>
        <time>2020-07-14T00:15:28Z</time>
      </trkpt>
      <trkpt lat="42.196930" lon="2.499420">
        <ele>402.133</ele>
        <time>2020-07-14T00:15:48Z</time>
      </trkpt>
      <trkpt lat="42.196830" lon="2.494560">
        <ele>406.218</ele>
        <time>2020-07-14T00:16:28Z</time>
      </trkpt>
      <trkpt lat="42.196480" lon="2.491670">
        <ele>408.798</ele>
        <time>2020-07-14T00:16:48Z</time>
      </trkpt>
      <trkpt lat="42.193940" lon="2.482730">
        <ele>419.617</ele>
        <time>2020-07-14T00:17:08Z</time>
      </trkpt>
      <trkpt lat="42.192230" lon="2.479570">
        <ele>422.508</ele>
        <time>2020-07-14T00:17:48Z</time>
      </trkpt>
      <trkpt lat="42.191790" lon="2.477850">
        <ele>422.626</ele>
        <time>2020-07-14T00:18:08Z</time>
      </trkpt>
      <trkpt lat="42.191990" lon="2.475840">
        <ele>417.113</ele>
        <time>2020-07-14T00:18:28Z</time>
      </trkpt>
      <trkpt lat="42.193380" lon="2.471990">
        <ele>446.768</ele>
        <time>2020-07-14T00:19:08Z</time>
      </trkpt>
      <trkpt lat="42.193360" lon="2.468940">
        <ele>461.131</ele>
        <time>2020-07-14T00:19:28Z</time>
      </trkpt>
      <trkpt lat="42.193980" lon="2.467220">
        <ele>466.938</ele>
        <time>2020-07-14T00:19:48Z</time>
      </trkpt>
      <trkpt lat="42.194860" lon="2.466790">
        <ele>474.626</ele>
        <time>2020-07-14T00:20:28Z</time>
      </trkpt>
      <trkpt lat="42.195040" lon="2.466290">
        <ele>477.057</ele>
        <time>2020-07-14T00:20:48Z</time>
      </trkpt>
      <trkpt lat="42.194420" lon="2.463870">
        <ele>488.969</ele>
        <time>2020-07-14T00:21:08Z</time>
      </trkpt>
      <trkpt lat="42.194490" lon="2.461710">
        <ele>494.133</ele>
        <time>2020-07-14T00:21:48Z</time>
      </trkpt>
      <trkpt lat="42.194960" lon="2.460370">
        <ele>498.723</ele>
        <time>2020-07-14T00:22:08Z</time>
      </trkpt>
      <trkpt lat="42.194550" lon="2.459490">
        <ele>499.615</ele>
        <time>2020-07-14T00:22:28Z</time>
      </trkpt>
      <trkpt lat="42.194690" lon="2.458170">
        <ele>502.608</ele>
        <time>2020-07-14T00:22:48Z</time>
      </trkpt>
      <trkpt lat="42.194430" lon="2.457510">
        <ele>506.798</ele>
        <time>2020-07-14T00:23:08Z</time>
      </trkpt>
      <trkpt lat="42.193370" lon="2.456920">
        <ele>513.915</ele>
        <time>2020-07-14T00:23:28Z</time>
      </trkpt>
      <trkpt lat="42.193080" lon="2.454970">
        <ele>521.750</ele>
        <time>2020-07-14T00:24:08Z</time>
      </trkpt>
      <trkpt lat="42.193600" lon="2.454220">
        <ele>526.753</ele>
        <time>2020-07-14T00:24:28Z</time>
      </trkpt>
      <trkpt lat="42.193450" lon="2.451010">
        <ele>538.980</ele>
        <time>2020-07-14T00:24:48Z</time>
      </trkpt>
      <trkpt lat="42.193160" lon="2.450020">
        <ele>542.578</ele>
        <time>2020-07-14T00:25:08Z</time>
      </trkpt>
      <trkpt lat="42.193430" lon="2.449230">
        <ele>546.699</ele>
        <time>2020-07-14T00:25:28Z</time>
      </trkpt>
      <trkpt lat="42.192960" lon="2.446960">
        <ele>560.861</ele>
        <time>2020-07-14T00:25:48Z</time>
      </trkpt>
      <trkpt lat="42.193750" lon="2.444710">
        <ele>574.998</ele>
        <time>2020-07-14T00:26:08Z</time>
      </trkpt>
      <trkpt lat="42.195060" lon="2.443460">
        <ele>587.615</ele>
        <time>2020-07-14T00:26:28Z</time>
      </trkpt>
      <trkpt lat="42.195890" lon="2.438220">
        <ele>607.026</ele>
        <time>2020-07-14T00:26:48Z</time>
      </trkpt>
      <trkpt lat="42.195240" lon="2.433970">
        <ele>619.408</ele>
        <time>2020-07-14T00:27:08Z</time>
      </trkpt>
      <trkpt lat="42.195580" lon="2.431370">
        <ele>632.684</ele>
        <time>2020-07-14T00:27:48Z</time>
      </trkpt>
      <trkpt lat="42.195780" lon="2.422590">
        <ele>673.471</ele>
        <time>2020-07-14T00:28:28Z</time>
      </trkpt>
      <trkpt lat="42.196720" lon="2.418100">
        <ele>693.396</ele>
        <time>2020-07-14T00:28:48Z</time>
      </trkpt>
      <trkpt lat="42.196820" lon="2.416220">
        <ele>702.459</ele>
        <time>2020-07-14T00:29:08Z</time>
      </trkpt>
      <trkpt lat="42.197160" lon="2.418270">
        <ele>713.526</ele>
        <time>2020-07-14T00:29:48Z</time>
      </trkpt>
      <trkpt lat="42.196770" lon="2.422340">
        <ele>728.194</ele>
        <time>2020-07-14T00:30:28Z</time>
      </trkpt>
      <trkpt lat="42.197000" lon="2.422410">
        <ele>734.365</ele>
        <time>2020-07-14T00:31:08Z</time>
      </trkpt>
      <trkpt lat="42.198020" lon="2.415700">
        <ele>765.027</ele>
        <time>2020-07-14T00:32:08Z</time>
      </trkpt>
      <trkpt lat="42.197670" lon="2.412970">
        <ele>779.732</ele>
        <time>2020-07-14T00:32:28Z</time>
      </trkpt>
      <trkpt lat="42.197780" lon="2.408570">
        <ele>800.192</ele>
        <time>2020-07-14T00:32:48Z</time>
      </trkpt>
      <trkpt lat="42.198150" lon="2.406210">
        <ele>817.911</ele>
        <time>2020-07-14T00:33:08Z</time>
      </trkpt>
      <trkpt lat="42.199410" lon="2.404430">
        <ele>833.208</ele>
        <time>2020-07-14T00:33:28Z</time>
      </trkpt>
      <trkpt lat="42.198410" lon="2.401270">
        <ele>853.048</ele>
        <time>2020-07-14T00:34:08Z</time>
      </trkpt>
      <trkpt lat="42.198590" lon="2.398900">
        <ele>866.115</ele>
        <time>2020-07-14T00:34:48Z</time>
      </trkpt>
      <trkpt lat="42.199870" lon="2.397090">
        <ele>880.030</ele>
        <time>2020-07-14T00:35:08Z</time>
      </trkpt>
      <trkpt lat="42.199890" lon="2.395170">
        <ele>889.783</ele>
        <time>2020-07-14T00:35:28Z</time>
      </trkpt>
      <trkpt lat="42.199430" lon="2.393240">
        <ele>898.290</ele>
        <time>2020-07-14T00:35:48Z</time>
      </trkpt>
      <trkpt lat="42.199560" lon="2.391890">
        <ele>905.098</ele>
        <time>2020-07-14T00:36:08Z</time>
      </trkpt>
      <trkpt lat="42.201110" lon="2.389480">
        <ele>921.669</ele>
        <time>2020-07-14T00:36:28Z</time>
      </trkpt>
      <trkpt lat="42.201460" lon="2.386980">
        <ele>934.841</ele>
        <time>2020-07-14T00:37:08Z</time>
      </trkpt>
      <trkpt lat="42.202750" lon="2.382990">
        <ele>956.491</ele>
        <time>2020-07-14T00:37:28Z</time>
      </trkpt>
      <trkpt lat="42.202820" lon="2.379910">
        <ele>966.581</ele>
        <time>2020-07-14T00:37:48Z</time>
      </trkpt>
      <trkpt lat="42.203900" lon="2.377430">
        <ele>973.219</ele>
        <time>2020-07-14T00:38:28Z</time>
      </trkpt>
      <trkpt lat="42.203740" lon="2.372580">
        <ele>996.508</ele>
        <time>2020-07-14T00:39:08Z</time>
      </trkpt>
      <trkpt lat="42.203310" lon="2.369050">
        <ele>1012.024</ele>
        <time>2020-07-14T00:39:28Z</time>
      </trkpt>
      <trkpt lat="42.202690" lon="2.367630">
        <ele>1015.131</ele>
        <time>2020-07-14T00:39:48Z</time>
      </trkpt>
      <trkpt lat="42.202510" lon="2.365940">
        <ele>1027.846</ele>
        <time>2020-07-14T00:40:08Z</time>
      </trkpt>
      <trkpt lat="42.201650" lon="2.364910">
        <ele>1032.499</ele>
        <time>2020-07-14T00:40:28Z</time>
      </trkpt>
      <trkpt lat="42.201180" lon="2.362970">
        <ele>1043.816</ele>
        <time>2020-07-14T00:41:08Z</time>
      </trkpt>
      <trkpt lat="42.201440" lon="2.361470">
        <ele>1052.264</ele>
        <time>2020-07-14T00:41:48Z</time>
      </trkpt>
      <trkpt lat="42.201020" lon="2.360420">
        <ele>1053.645</ele>
        <time>2020-07-14T00:42:08Z</time>
      </trkpt>
      <trkpt lat="42.201550" lon="2.358780">
        <ele>1064.477</ele>
        <time>2020-07-14T00:42:28Z</time>
      </trkpt>
      <trkpt lat="42.201310" lon="2.358040">
        <ele>1066.144</ele>
        <time>2020-07-14T00:42:48Z</time>
      </trkpt>
      <trkpt lat="42.201480" lon="2.357260">
        <ele>1071.805</ele>
        <time>2020-07-14T00:43:08Z</time>
      </trkpt>
      <trkpt lat="42.201090" lon="2.356240">
        <ele>1072.215</ele>
        <time>2020-07-14T00:43:28Z</time>
      </trkpt>
      <trkpt lat="42.201580" lon="2.355050">
        <ele>1082.108</ele>
        <time>2020-07-14T00:43:48Z</time>
      </trkpt>
      <trkpt lat="42.201290" lon="2.353860">
        <ele>1087.079</ele>
        <time>2020-07-14T00:44:08Z</time>
      </trkpt>
      <trkpt lat="42.200380" lon="2.353100">
        <ele>1088.076</ele>
        <time>2020-07-14T00:44:48Z</time>
      </trkpt>
      <trkpt lat="42.200410" lon="2.352080">
        <ele>1094.891</ele>
        <time>2020-07-14T00:45:08Z</time>
      </trkpt>
      <trkpt lat="42.200030" lon="2.351290">
        <ele>1098.614</ele>
        <time>2020-07-14T00:45:48Z</time>
      </trkpt>
      <trkpt lat="42.199430" lon="2.351100">
        <ele>1099.741</ele>
        <time>2020-07-14T00:46:08Z</time>
      </trkpt>
      <trkpt lat="42.199060" lon="2.349850">
        <ele>1107.149</ele>
        <time>2020-07-14T00:46:28Z</time>
      </trkpt>
      <trkpt lat="42.198440" lon="2.349410">
        <ele>1108.410</ele>
        <time>2020-07-14T00:46:48Z</time>
      </trkpt>
      <trkpt lat="42.197140" lon="2.345940">
        <ele>1120.832</ele>
        <time>2020-07-14T00:47:48Z</time>
      </trkpt>
      <trkpt lat="42.197550" lon="2.344630">
        <ele>1117.028</ele>
        <time>2020-07-14T00:48:28Z</time>
      </trkpt>
      <trkpt lat="42.197780" lon="2.341420">
        <ele>1105.289</ele>
        <time>2020-07-14T00:49:08Z</time>
      </trkpt>
      <trkpt lat="42.197270" lon="2.339910">
        <ele>1098.217</ele>
        <time>2020-07-14T00:49:28Z</time>
      </trkpt>
      <trkpt lat="42.197910" lon="2.336120">
        <ele>1080.508</ele>
        <time>2020-07-14T00:50:28Z</time>
      </trkpt>
      <trkpt lat="42.198790" lon="2.335080">
        <ele>1076.097</ele>
        <time>2020-07-14T00:51:28Z</time>
      </trkpt>
      <trkpt lat="42.197540" lon="2.334360">
        <ele>1072.044</ele>
        <time>2020-07-14T00:52:08Z</time>
      </trkpt>
      <trkpt lat="42.196860" lon="2.332170">
        <ele>1065.259</ele>
        <time>2020-07-14T00:52:48Z</time>
      </trkpt>
      <trkpt lat="42.196800" lon="2.330320">
        <ele>1060.262</ele>
        <time>2020-07-14T00:53:08Z</time>
      </trkpt>
      <trkpt lat="42.197460" lon="2.328000">
        <ele>1054.229</ele>
        <time>2020-07-14T00:53:28Z</time>
      </trkpt>
      <trkpt lat="42.198240" lon="2.327180">
        <ele>1041.187</ele>
        <time>2020-07-14T00:54:08Z</time>
      </trkpt>
      <trkpt lat="42.197650" lon="2.323830">
        <ele>1035.718</ele>
        <time>2020-07-14T00:55:08Z</time>
      </trkpt>
      <trkpt lat="42.198790" lon="2.322310">
        <ele>1026.720</ele>
        <time>2020-07-14T00:55:48Z</time>
      </trkpt>
      <trkpt lat="42.198540" lon="2.319010">
        <ele>1021.727</ele>
        <time>2020-07-14T00:57:08Z</time>
      </trkpt>
      <trkpt lat="42.199050" lon="2.317290">
        <ele>1018.368</ele>
        <time>2020-07-14T00:57:48Z</time>
      </trkpt>
      <trkpt lat="42.198350" lon="2.316750">
        <ele>1014.714</ele>
        <time>2020-07-14T00:58:28Z</time>
      </trkpt>
      <trkpt lat="42.198050" lon="2.315990">
        <ele>1010.608</ele>
        <time>2020-07-14T00:58:48Z</time>
      </trkpt>
      <trkpt lat="42.198360" lon="2.314070">
        <ele>1003.427</ele>
        <time>2020-07-14T00:59:08Z</time>
      </trkpt>
      <trkpt lat="42.198840" lon="2.313020">
        <ele>996.854</ele>
        <time>2020-07-14T00:59:28Z</time>
      </trkpt>
      <trkpt lat="42.198230" lon="2.311910">
        <ele>991.689</ele>
        <time>2020-07-14T01:00:08Z</time>
      </trkpt>
      <trkpt lat="42.198950" lon="2.310630">
        <ele>982.212</ele>
        <time>2020-07-14T01:00:28Z</time>
      </trkpt>
      <trkpt lat="42.199060" lon="2.309180">
        <ele>978.349</ele>
        <time>2020-07-14T01:00:48Z</time>
      </trkpt>
      <trkpt lat="42.198200" lon="2.306540">
        <ele>968.997</ele>
        <time>2020-07-14T01:01:08Z</time>
      </trkpt>
      <trkpt lat="42.198630" lon="2.305140">
        <ele>966.328</ele>
        <time>2020-07-14T01:01:48Z</time>
      </trkpt>
      <trkpt lat="42.198050" lon="2.303330">
        <ele>957.940</ele>
        <time>2020-07-14T01:02:08Z</time>
      </trkpt>
      <trkpt lat="42.198090" lon="2.301440">
        <ele>954.387</ele>
        <time>2020-07-14T01:02:48Z</time>
      </trkpt>
      <trkpt lat="42.197060" lon="2.299110">
        <ele>954.442</ele>
        <time>2020-07-14T01:03:08Z</time>
      </trkpt>
      <trkpt lat="42.196880" lon="2.297340">
        <ele>961.426</ele>
        <time>2020-07-14T01:03:28Z</time>
      </trkpt>
      <trkpt lat="42.198090" lon="2.295440">
        <ele>961.508</ele>
        <time>2020-07-14T01:04:08Z</time>
      </trkpt>
      <trkpt lat="42.198060" lon="2.292450">
        <ele>954.853</ele>
        <time>2020-07-14T01:04:48Z</time>
      </trkpt>
      <trkpt lat="42.199080" lon="2.289640">
        <ele>938.010</ele>
        <time>2020-07-14T01:05:28Z</time>
      </trkpt>
      <trkpt lat="42.197940" lon="2.286060">
        <ele>930.375</ele>
        <time>2020-07-14T01:06:08Z</time>
      </trkpt>
      <trkpt lat="42.199040" lon="2.284640">
        <ele>928.528</ele>
        <time>2020-07-14T01:07:08Z</time>
      </trkpt>
      <trkpt lat="42.198340" lon="2.282160">
        <ele>918.885</ele>
        <time>2020-07-14T01:07:48Z</time>
      </trkpt>
      <trkpt lat="42.198680" lon="2.279780">
        <ele>912.673</ele>
        <time>2020-07-14T01:08:28Z</time>
      </trkpt>
      <trkpt lat="42.199230" lon="2.278480">
        <ele>911.214</ele>
        <time>2020-07-14T01:08:48Z</time>
      </trkpt>
      <trkpt lat="42.199260" lon="2.276180">
        <ele>906.886</ele>
        <time>2020-07-14T01:09:28Z</time>
      </trkpt>
      <trkpt lat="42.197870" lon="2.272640">
        <ele>900.892</ele>
        <time>2020-07-14T01:10:48Z</time>
      </trkpt>
      <trkpt lat="42.197110" lon="2.272050">
        <ele>894.673</ele>
        <time>2020-07-14T01:11:08Z</time>
      </trkpt>
      <trkpt lat="42.197120" lon="2.271590">
        <ele>892.720</ele>
        <time>2020-07-14T01:11:28Z</time>
      </trkpt>
      <trkpt lat="42.197780" lon="2.270840">
        <ele>887.108</ele>
        <time>2020-07-14T01:12:08Z</time>
      </trkpt>
      <trkpt lat="42.196830" lon="2.267230">
        <ele>879.764</ele>
        <time>2020-07-14T01:12:48Z</time>
      </trkpt>
      <trkpt lat="42.197310" lon="2.265600">
        <ele>874.881</ele>
        <time>2020-07-14T01:13:28Z</time>
      </trkpt>
      <trkpt lat="42.197310" lon="2.264470">
        <ele>873.546</ele>
        <time>2020-07-14T01:13:48Z</time>
      </trkpt>
      <trkpt lat="42.197950" lon="2.263850">
        <ele>874.969</ele>
        <time>2020-07-14T01:14:08Z</time>
      </trkpt>
      <trkpt lat="42.198040" lon="2.263130">
        <ele>868.896</ele>
        <time>2020-07-14T01:14:28Z</time>
      </trkpt>
      <trkpt lat="42.198560" lon="2.262750">
        <ele>867.014</ele>
        <time>2020-07-14T01:14:48Z</time>
      </trkpt>
      <trkpt lat="42.199010" lon="2.261450">
        <ele>862.045</ele>
        <time>2020-07-14T01:15:08Z</time>
      </trkpt>
      <trkpt lat="42.200240" lon="2.260760">
        <ele>859.487</ele>
        <time>2020-07-14T01:15:28Z</time>
      </trkpt>
      <trkpt lat="42.201060" lon="2.260750">
        <ele>859.857</ele>
        <time>2020-07-14T01:15:48Z</time>
      </trkpt>
      <trkpt lat="42.201700" lon="2.260290">
        <ele>858.100</ele>
        <time>2020-07-14T01:16:08Z</time>
      </trkpt>
      <trkpt lat="42.202780" lon="2.260170">
        <ele>851.720</ele>
        <time>2020-07-14T01:17:08Z</time>
      </trkpt>
      <trkpt lat="42.202830" lon="2.259540">
        <ele>851.908</ele>
        <time>2020-07-14T01:17:28Z</time>
      </trkpt>
      <trkpt lat="42.202560" lon="2.259230">
        <ele>857.410</ele>
        <time>2020-07-14T01:17:48Z</time>
      </trkpt>
      <trkpt lat="42.201200" lon="2.259330">
        <ele>856.997</ele>
        <time>2020-07-14T01:18:08Z</time>
      </trkpt>
      <trkpt lat="42.199680" lon="2.258590">
        <ele>862.452</ele>
        <time>2020-07-14T01:19:08Z</time>
      </trkpt>
      <trkpt lat="42.199130" lon="2.257880">
        <ele>864.025</ele>
        <time>2020-07-14T01:19:28Z</time>
      </trkpt>
      <trkpt lat="42.199000" lon="2.255710">
        <ele>868.462</ele>
        <time>2020-07-14T01:20:08Z</time>
      </trkpt>
      <trkpt lat="42.199430" lon="2.254390">
        <ele>871.590</ele>
        <time>2020-07-14T01:20:48Z</time>
      </trkpt>
      <trkpt lat="42.198380" lon="2.253550">
        <ele>870.541</ele>
        <time>2020-07-14T01:21:28Z</time>
      </trkpt>
      <trkpt lat="42.198210" lon="2.252820">
        <ele>876.513</ele>
        <time>2020-07-14T01:21:48Z</time>
      </trkpt>
      <trkpt lat="42.197720" lon="2.252750">
        <ele>874.033</ele>
        <time>2020-07-14T01:22:08Z</time>
      </trkpt>
      <trkpt lat="42.197520" lon="2.251880">
        <ele>879.923</ele>
        <time>2020-07-14T01:22:28Z</time>
      </trkpt>
      <trkpt lat="42.196570" lon="2.250930">
        <ele>880.515</ele>
        <time>2020-07-14T01:23:08Z</time>
      </trkpt>
      <trkpt lat="42.196500" lon="2.249860">
        <ele>885.308</ele>
        <time>2020-07-14T01:23:48Z</time>
      </trkpt>
      <trkpt lat="42.195110" lon="2.249970">
        <ele>880.278</ele>
        <time>2020-07-14T01:24:28Z</time>
      </trkpt>
      <trkpt lat="42.194570" lon="2.249450">
        <ele>880.545</ele>
        <time>2020-07-14T01:24:48Z</time>
      </trkpt>
      <trkpt lat="42.195120" lon="2.248230">
        <ele>882.850</ele>
        <time>2020-07-14T01:25:08Z</time>
      </trkpt>
      <trkpt lat="42.195190" lon="2.246350">
        <ele>881.613</ele>
        <time>2020-07-14T01:25:28Z</time>
      </trkpt>
      <trkpt lat="42.195750" lon="2.243930">
        <ele>879.940</ele>
        <time>2020-07-14T01:26:08Z</time>
      </trkpt>
      <trkpt lat="42.195650" lon="2.241620">
        <ele>882.898</ele>
        <time>2020-07-14T01:26:28Z</time>
      </trkpt>
      <trkpt lat="42.196090" lon="2.240020">
        <ele>880.699</ele>
        <time>2020-07-14T01:26:48Z</time>
      </trkpt>
      <trkpt lat="42.195980" lon="2.238850">
        <ele>881.181</ele>
        <time>2020-07-14T01:27:08Z</time>
      </trkpt>
      <trkpt lat="42.196890" lon="2.236910">
        <ele>880.612</ele>
        <time>2020-07-14T01:27:48Z</time>
      </trkpt>
      <trkpt lat="42.197070" lon="2.234770">
        <ele>881.332</ele>
        <time>2020-07-14T01:28:08Z</time>
      </trkpt>
      <trkpt lat="42.196870" lon="2.234190">
        <ele>880.405</ele>
        <time>2020-07-14T01:28:28Z</time>
      </trkpt>
      <trkpt lat="42.195660" lon="2.234120">
        <ele>879.308</ele>
        <time>2020-07-14T01:29:08Z</time>
      </trkpt>
      <trkpt lat="42.194980" lon="2.233580">
        <ele>879.186</ele>
        <time>2020-07-14T01:29:28Z</time>
      </trkpt>
      <trkpt lat="42.194040" lon="2.231450">
        <ele>877.353</ele>
        <time>2020-07-14T01:30:08Z</time>
      </trkpt>
      <trkpt lat="42.195030" lon="2.226760">
        <ele>847.278</ele>
        <time>2020-07-14T01:31:08Z</time>
      </trkpt>
      <trkpt lat="42.194670" lon="2.224790">
        <ele>836.711</ele>
        <time>2020-07-14T01:31:28Z</time>
      </trkpt>
      <trkpt lat="42.195110" lon="2.221260">
        <ele>816.938</ele>
        <time>2020-07-14T01:32:08Z</time>
      </trkpt>
      <trkpt lat="42.195400" lon="2.220740">
        <ele>812.966</ele>
        <time>2020-07-14T01:32:28Z</time>
      </trkpt>
      <trkpt lat="42.194940" lon="2.218690">
        <ele>804.447</ele>
        <time>2020-07-14T01:33:08Z</time>
      </trkpt>
      <trkpt lat="42.195160" lon="2.216550">
        <ele>793.919</ele>
        <time>2020-07-14T01:33:48Z</time>
      </trkpt>
      <trkpt lat="42.194790" lon="2.215820">
        <ele>789.099</ele>
        <time>2020-07-14T01:34:08Z</time>
      </trkpt>
      <trkpt lat="42.194960" lon="2.214780">
        <ele>784.207</ele>
        <time>2020-07-14T01:34:48Z</time>
      </trkpt>
      <trkpt lat="42.195480" lon="2.214270">
        <ele>781.427</ele>
        <time>2020-07-14T01:35:28Z</time>
      </trkpt>
      <trkpt lat="42.194930" lon="2.213770">
        <ele>776.308</ele>
        <time>2020-07-14T01:36:08Z</time>
      </trkpt>
      <trkpt lat="42.194940" lon="2.212470">
        <ele>771.674</ele>
        <time>2020-07-14T01:36:48Z</time>
      </trkpt>
      <trkpt lat="42.195720" lon="2.211010">
        <ele>768.561</ele>
        <time>2020-07-14T01:37:28Z</time>
      </trkpt>
      <trkpt lat="42.195270" lon="2.209620">
        <ele>765.736</ele>
        <time>2020-07-14T01:37:48Z</time>
      </trkpt>
      <trkpt lat="42.195440" lon="2.208410">
        <ele>759.649</ele>
        <time>2020-07-14T01:38:08Z</time>
      </trkpt>
      <trkpt lat="42.194980" lon="2.207370">
        <ele>751.056</ele>
        <time>2020-07-14T01:38:28Z</time>
      </trkpt>
      <trkpt lat="42.195000" lon="2.205690">
        <ele>744.594</ele>
        <time>2020-07-14T01:38:48Z</time>
      </trkpt>
      <trkpt lat="42.194690" lon="2.204970">
        <ele>738.125</ele>
        <time>2020-07-14T01:39:08Z</time>
      </trkpt>
      <trkpt lat="42.195480" lon="2.203220">
        <ele>730.027</ele>
        <time>2020-07-14T01:40:08Z</time>
      </trkpt>
      <trkpt lat="42.194920" lon="2.202340">
        <ele>725.889</ele>
        <time>2020-07-14T01:40:28Z</time>
      </trkpt>
      <trkpt lat="42.194430" lon="2.200070">
        <ele>713.406</ele>
        <time>2020-07-14T01:40:48Z</time>
      </trkpt>
      <trkpt lat="42.197210" lon="2.197710">
        <ele>694.926</ele>
        <time>2020-07-14T01:42:28Z</time>
      </trkpt>
      <trkpt lat="42.196260" lon="2.196240">
        <ele>681.008</ele>
        <time>2020-07-14T01:42:48Z</time>
      </trkpt>
      <trkpt lat="42.199770" lon="2.192620">
        <ele>684.533</ele>
        <time>2020-07-14T01:43:28Z</time>
      </trkpt>
      <trkpt lat="42.200080" lon="2.191770">
        <ele>680.520</ele>
        <time>2020-07-14T01:43:48Z</time>
      </trkpt>
      <trkpt lat="42.199380" lon="2.191100">
        <ele>683.085</ele>
        <time>2020-07-14T01:44:08Z</time>
      </trkpt>
      <trkpt lat="42.199380" lon="2.190650">
        <ele>684.048</ele>
        <time>2020-07-14T01:44:48Z</time>
      </trkpt>
      <trkpt lat="42.195280" lon="2.203870">
        <ele>730.828</ele>
        <time>2020-07-13T21:18:31Z</time>
      </trkpt>
      <trkpt lat="42.195480" lon="2.203220">
        <ele>730.089</ele>
        <time>2020-07-13T21:18:51Z</time>
      </trkpt>
      <trkpt lat="42.194920" lon="2.202340">
        <ele>725.817</ele>
        <time>2020-07-13T21:19:11Z</time>
      </trkpt>
      <trkpt lat="42.194470" lon="2.199910">
        <ele>712.408</ele>
        <time>2020-07-13T21:19:31Z</time>
      </trkpt>
      <trkpt lat="42.197210" lon="2.197710">
        <ele>694.917</ele>
        <time>2020-07-13T21:20:51Z</time>
      </trkpt>
      <trkpt lat="42.196260" lon="2.196240">
        <ele>681.014</ele>
        <time>2020-07-13T21:21:11Z</time>
      </trkpt>
      <trkpt lat="42.199770" lon="2.192620">
        <ele>684.589</ele>
        <time>2020-07-13T21:21:51Z</time>
      </trkpt>
      <trkpt lat="42.200710" lon="2.190740">
        <ele>687.312</ele>
        <time>2020-07-13T21:22:31Z</time>
      </trkpt>
      <trkpt lat="42.200840" lon="2.189110">
        <ele>691.057</ele>
        <time>2020-07-13T21:23:11Z</time>
      </trkpt>
      <trkpt lat="42.202710" lon="2.183550">
        <ele>697.568</ele>
        <time>2020-07-13T21:23:31Z</time>
      </trkpt>
      <trkpt lat="42.204290" lon="2.180990">
        <ele>699.664</ele>
        <time>2020-07-13T21:24:31Z</time>
      </trkpt>
      <trkpt lat="42.204520" lon="2.177840">
        <ele>698.590</ele>
        <time>2020-07-13T21:24:51Z</time>
      </trkpt>
      <trkpt lat="42.207050" lon="2.172020">
        <ele>705.047</ele>
        <time>2020-07-13T21:25:11Z</time>
      </trkpt>
      <trkpt lat="42.209760" lon="2.169970">
        <ele>711.829</ele>
        <time>2020-07-13T21:25:31Z</time>
      </trkpt>
      <trkpt lat="42.215540" lon="2.168560">
        <ele>717.021</ele>
        <time>2020-07-13T21:25:51Z</time>
      </trkpt>
      <trkpt lat="42.219450" lon="2.169630">
        <ele>725.708</ele>
        <time>2020-07-13T21:26:31Z</time>
      </trkpt>
      <trkpt lat="42.221180" lon="2.170500">
        <ele>730.829</ele>
        <time>2020-07-13T21:26:51Z</time>
      </trkpt>
      <trkpt lat="42.221910" lon="2.170540">
        <ele>728.746</ele>
        <time>2020-07-13T21:27:31Z</time>
      </trkpt>
      <trkpt lat="42.222000" lon="2.168310">
        <ele>730.011</ele>
        <time>2020-07-13T21:27:51Z</time>
      </trkpt>
      <trkpt lat="42.224230" lon="2.158540">
        <ele>742.924</ele>
        <time>2020-07-13T21:28:11Z</time>
      </trkpt>
      <trkpt lat="42.228000" lon="2.146180">
        <ele>760.839</ele>
        <time>2020-07-13T21:28:31Z</time>
      </trkpt>
      <trkpt lat="42.228240" lon="2.142550">
        <ele>764.310</ele>
        <time>2020-07-13T21:28:51Z</time>
      </trkpt>
      <trkpt lat="42.227550" lon="2.139480">
        <ele>769.186</ele>
        <time>2020-07-13T21:29:11Z</time>
      </trkpt>
      <trkpt lat="42.228270" lon="2.137670">
        <ele>774.512</ele>
        <time>2020-07-13T21:29:51Z</time>
      </trkpt>
      <trkpt lat="42.229340" lon="2.137080">
        <ele>785.715</ele>
        <time>2020-07-13T21:30:11Z</time>
      </trkpt>
      <trkpt lat="42.229940" lon="2.135890">
        <ele>791.265</ele>
        <time>2020-07-13T21:30:51Z</time>
      </trkpt>
      <trkpt lat="42.229980" lon="2.134950">
        <ele>790.911</ele>
        <time>2020-07-13T21:31:11Z</time>
      </trkpt>
      <trkpt lat="42.230400" lon="2.134100">
        <ele>793.308</ele>
        <time>2020-07-13T21:31:31Z</time>
      </trkpt>
      <trkpt lat="42.231040" lon="2.131000">
        <ele>801.936</ele>
        <time>2020-07-13T21:31:51Z</time>
      </trkpt>
      <trkpt lat="42.233260" lon="2.125420">
        <ele>806.143</ele>
        <time>2020-07-13T21:32:51Z</time>
      </trkpt>
      <trkpt lat="42.235530" lon="2.122550">
        <ele>820.328</ele>
        <time>2020-07-13T21:33:11Z</time>
      </trkpt>
      <trkpt lat="42.236470" lon="2.119720">
        <ele>823.141</ele>
        <time>2020-07-13T21:33:31Z</time>
      </trkpt>
      <trkpt lat="42.237270" lon="2.119030">
        <ele>824.796</ele>
        <time>2020-07-13T21:33:51Z</time>
      </trkpt>
      <trkpt lat="42.238520" lon="2.118790">
        <ele>824.757</ele>
        <time>2020-07-13T21:34:11Z</time>
      </trkpt>
      <trkpt lat="42.238670" lon="2.118490">
        <ele>821.463</ele>
        <time>2020-07-13T21:34:31Z</time>
      </trkpt>
      <trkpt lat="42.238390" lon="2.117410">
        <ele>829.189</ele>
        <time>2020-07-13T21:35:11Z</time>
      </trkpt>
      <trkpt lat="42.240760" lon="2.115700">
        <ele>842.356</ele>
        <time>2020-07-13T21:35:51Z</time>
      </trkpt>
      <trkpt lat="42.242840" lon="2.113030">
        <ele>851.959</ele>
        <time>2020-07-13T21:36:11Z</time>
      </trkpt>
      <trkpt lat="42.243930" lon="2.112260">
        <ele>851.814</ele>
        <time>2020-07-13T21:37:31Z</time>
      </trkpt>
      <trkpt lat="42.243670" lon="2.111810">
        <ele>854.308</ele>
        <time>2020-07-13T21:38:11Z</time>
      </trkpt>
      <trkpt lat="42.243110" lon="2.111710">
        <ele>858.170</ele>
        <time>2020-07-13T21:38:51Z</time>
      </trkpt>
      <trkpt lat="42.243710" lon="2.109730">
        <ele>868.967</ele>
        <time>2020-07-13T21:39:31Z</time>
      </trkpt>
      <trkpt lat="42.244400" lon="2.108790">
        <ele>876.092</ele>
        <time>2020-07-13T21:39:51Z</time>
      </trkpt>
      <trkpt lat="42.244650" lon="2.107690">
        <ele>879.835</ele>
        <time>2020-07-13T21:40:11Z</time>
      </trkpt>
      <trkpt lat="42.245150" lon="2.107440">
        <ele>882.450</ele>
        <time>2020-07-13T21:40:31Z</time>
      </trkpt>
      <trkpt lat="42.246000" lon="2.108150">
        <ele>891.391</ele>
        <time>2020-07-13T21:40:51Z</time>
      </trkpt>
      <trkpt lat="42.247120" lon="2.107880">
        <ele>893.937</ele>
        <time>2020-07-13T21:41:11Z</time>
      </trkpt>
      <trkpt lat="42.246840" lon="2.106260">
        <ele>900.423</ele>
        <time>2020-07-13T21:42:31Z</time>
      </trkpt>
      <trkpt lat="42.247820" lon="2.104800">
        <ele>903.449</ele>
        <time>2020-07-13T21:42:51Z</time>
      </trkpt>
      <trkpt lat="42.248230" lon="2.102960">
        <ele>905.102</ele>
        <time>2020-07-13T21:43:31Z</time>
      </trkpt>
      <trkpt lat="42.248040" lon="2.102380">
        <ele>904.822</ele>
        <time>2020-07-13T21:43:51Z</time>
      </trkpt>
      <trkpt lat="42.248420" lon="2.100500">
        <ele>905.508</ele>
        <time>2020-07-13T21:44:31Z</time>
      </trkpt>
      <trkpt lat="42.248320" lon="2.099730">
        <ele>905.289</ele>
        <time>2020-07-13T21:44:51Z</time>
      </trkpt>
      <trkpt lat="42.248840" lon="2.098650">
        <ele>904.236</ele>
        <time>2020-07-13T21:45:31Z</time>
      </trkpt>
      <trkpt lat="42.250150" lon="2.097610">
        <ele>909.551</ele>
        <time>2020-07-13T21:46:51Z</time>
      </trkpt>
      <trkpt lat="42.248470" lon="2.096630">
        <ele>911.234</ele>
        <time>2020-07-13T21:47:51Z</time>
      </trkpt>
      <trkpt lat="42.248630" lon="2.095660">
        <ele>912.579</ele>
        <time>2020-07-13T21:48:11Z</time>
      </trkpt>
      <trkpt lat="42.248210" lon="2.094540">
        <ele>908.130</ele>
        <time>2020-07-13T21:48:31Z</time>
      </trkpt>
      <trkpt lat="42.248410" lon="2.094050">
        <ele>909.986</ele>
        <time>2020-07-13T21:48:51Z</time>
      </trkpt>
      <trkpt lat="42.248170" lon="2.092610">
        <ele>909.482</ele>
        <time>2020-07-13T21:49:31Z</time>
      </trkpt>
      <trkpt lat="42.248350" lon="2.090890">
        <ele>908.069</ele>
        <time>2020-07-13T21:50:11Z</time>
      </trkpt>
      <trkpt lat="42.249720" lon="2.091000">
        <ele>910.604</ele>
        <time>2020-07-13T21:50:31Z</time>
      </trkpt>
      <trkpt lat="42.250520" lon="2.090590">
        <ele>914.924</ele>
        <time>2020-07-13T21:51:11Z</time>
      </trkpt>
      <trkpt lat="42.249260" lon="2.089660">
        <ele>918.808</ele>
        <time>2020-07-13T21:52:11Z</time>
      </trkpt>
      <trkpt lat="42.248730" lon="2.088200">
        <ele>920.721</ele>
        <time>2020-07-13T21:52:31Z</time>
      </trkpt>
      <trkpt lat="42.249020" lon="2.085850">
        <ele>929.438</ele>
        <time>2020-07-13T21:53:11Z</time>
      </trkpt>
      <trkpt lat="42.250240" lon="2.082590">
        <ele>943.743</ele>
        <time>2020-07-13T21:53:31Z</time>
      </trkpt>
      <trkpt lat="42.250750" lon="2.082430">
        <ele>949.216</ele>
        <time>2020-07-13T21:53:51Z</time>
      </trkpt>
      <trkpt lat="42.250760" lon="2.082020">
        <ele>953.041</ele>
        <time>2020-07-13T21:54:31Z</time>
      </trkpt>
      <trkpt lat="42.250440" lon="2.081750">
        <ele>951.112</ele>
        <time>2020-07-13T21:54:51Z</time>
      </trkpt>
      <trkpt lat="42.250580" lon="2.079970">
        <ele>960.798</ele>
        <time>2020-07-13T21:55:31Z</time>
      </trkpt>
      <trkpt lat="42.250110" lon="2.079590">
        <ele>963.954</ele>
        <time>2020-07-13T21:55:51Z</time>
      </trkpt>
      <trkpt lat="42.249460" lon="2.079780">
        <ele>962.438</ele>
        <time>2020-07-13T21:56:31Z</time>
      </trkpt>
      <trkpt lat="42.249690" lon="2.078530">
        <ele>966.170</ele>
        <time>2020-07-13T21:56:51Z</time>
      </trkpt>
      <trkpt lat="42.249110" lon="2.076860">
        <ele>966.317</ele>
        <time>2020-07-13T21:57:31Z</time>
      </trkpt>
      <trkpt lat="42.248610" lon="2.076330">
        <ele>965.408</ele>
        <time>2020-07-13T21:58:11Z</time>
      </trkpt>
      <trkpt lat="42.248840" lon="2.075360">
        <ele>965.658</ele>
        <time>2020-07-13T21:58:31Z</time>
      </trkpt>
      <trkpt lat="42.248710" lon="2.074520">
        <ele>967.235</ele>
        <time>2020-07-13T21:58:51Z</time>
      </trkpt>
      <trkpt lat="42.249040" lon="2.073520">
        <ele>968.470</ele>
        <time>2020-07-13T21:59:11Z</time>
      </trkpt>
      <trkpt lat="42.249500" lon="2.073290">
        <ele>974.553</ele>
        <time>2020-07-13T21:59:31Z</time>
      </trkpt>
      <trkpt lat="42.249880" lon="2.072060">
        <ele>974.598</ele>
        <time>2020-07-13T21:59:51Z</time>
      </trkpt>
      <trkpt lat="42.251390" lon="2.070390">
        <ele>975.439</ele>
        <time>2020-07-13T22:00:51Z</time>
      </trkpt>
      <trkpt lat="42.251820" lon="2.070570">
        <ele>977.475</ele>
        <time>2020-07-13T22:01:11Z</time>
      </trkpt>
      <trkpt lat="42.252480" lon="2.070230">
        <ele>970.491</ele>
        <time>2020-07-13T22:01:31Z</time>
      </trkpt>
      <trkpt lat="42.252700" lon="2.069730">
        <ele>972.069</ele>
        <time>2020-07-13T22:01:51Z</time>
      </trkpt>
      <trkpt lat="42.253720" lon="2.070180">
        <ele>978.904</ele>
        <time>2020-07-13T22:02:11Z</time>
      </trkpt>
      <trkpt lat="42.255470" lon="2.070290">
        <ele>992.024</ele>
        <time>2020-07-13T22:02:31Z</time>
      </trkpt>
      <trkpt lat="42.256560" lon="2.069660">
        <ele>1009.308</ele>
        <time>2020-07-13T22:02:51Z</time>
      </trkpt>
      <trkpt lat="42.257920" lon="2.069680">
        <ele>1017.051</ele>
        <time>2020-07-13T22:03:31Z</time>
      </trkpt>
      <trkpt lat="42.259610" lon="2.070300">
        <ele>1025.438</ele>
        <time>2020-07-13T22:03:51Z</time>
      </trkpt>
      <trkpt lat="42.260480" lon="2.072410">
        <ele>1043.073</ele>
        <time>2020-07-13T22:04:11Z</time>
      </trkpt>
      <trkpt lat="42.261100" lon="2.075730">
        <ele>1068.746</ele>
        <time>2020-07-13T22:05:11Z</time>
      </trkpt>
      <trkpt lat="42.261040" lon="2.074450">
        <ele>1071.721</ele>
        <time>2020-07-13T22:05:31Z</time>
      </trkpt>
      <trkpt lat="42.261620" lon="2.071100">
        <ele>1082.142</ele>
        <time>2020-07-13T22:06:31Z</time>
      </trkpt>
      <trkpt lat="42.262650" lon="2.069860">
        <ele>1093.918</ele>
        <time>2020-07-13T22:07:31Z</time>
      </trkpt>
      <trkpt lat="42.264200" lon="2.069790">
        <ele>1104.154</ele>
        <time>2020-07-13T22:08:51Z</time>
      </trkpt>
      <trkpt lat="42.263500" lon="2.067670">
        <ele>1120.683</ele>
        <time>2020-07-13T22:09:31Z</time>
      </trkpt>
      <trkpt lat="42.263800" lon="2.067160">
        <ele>1128.025</ele>
        <time>2020-07-13T22:09:51Z</time>
      </trkpt>
      <trkpt lat="42.264020" lon="2.064980">
        <ele>1144.917</ele>
        <time>2020-07-13T22:10:11Z</time>
      </trkpt>
      <trkpt lat="42.262980" lon="2.063400">
        <ele>1153.108</ele>
        <time>2020-07-13T22:10:51Z</time>
      </trkpt>
      <trkpt lat="42.262510" lon="2.057810">
        <ele>1178.383</ele>
        <time>2020-07-13T22:11:31Z</time>
      </trkpt>
      <trkpt lat="42.261730" lon="2.058320">
        <ele>1180.010</ele>
        <time>2020-07-13T22:12:31Z</time>
      </trkpt>
      <trkpt lat="42.260270" lon="2.053650">
        <ele>1211.235</ele>
        <time>2020-07-13T22:13:11Z</time>
      </trkpt>
      <trkpt lat="42.259990" lon="2.051750">
        <ele>1220.878</ele>
        <time>2020-07-13T22:13:51Z</time>
      </trkpt>
      <trkpt lat="42.260560" lon="2.051540">
        <ele>1224.173</ele>
        <time>2020-07-13T22:14:11Z</time>
      </trkpt>
      <trkpt lat="42.260940" lon="2.052360">
        <ele>1227.164</ele>
        <time>2020-07-13T22:14:31Z</time>
      </trkpt>
      <trkpt lat="42.261160" lon="2.052340">
        <ele>1232.080</ele>
        <time>2020-07-13T22:14:51Z</time>
      </trkpt>
      <trkpt lat="42.260850" lon="2.050180">
        <ele>1234.016</ele>
        <time>2020-07-13T22:15:11Z</time>
      </trkpt>
      <trkpt lat="42.261350" lon="2.048810">
        <ele>1235.142</ele>
        <time>2020-07-13T22:15:31Z</time>
      </trkpt>
      <trkpt lat="42.261070" lon="2.047440">
        <ele>1230.922</ele>
        <time>2020-07-13T22:16:11Z</time>
      </trkpt>
      <trkpt lat="42.261250" lon="2.047320">
        <ele>1227.914</ele>
        <time>2020-07-13T22:16:31Z</time>
      </trkpt>
      <trkpt lat="42.262060" lon="2.048340">
        <ele>1234.908</ele>
        <time>2020-07-13T22:17:11Z</time>
      </trkpt>
      <trkpt lat="42.262880" lon="2.045990">
        <ele>1245.259</ele>
        <time>2020-07-13T22:17:31Z</time>
      </trkpt>
      <trkpt lat="42.262940" lon="2.044710">
        <ele>1253.176</ele>
        <time>2020-07-13T22:17:51Z</time>
      </trkpt>
      <trkpt lat="42.263590" lon="2.042880">
        <ele>1267.831</ele>
        <time>2020-07-13T22:18:11Z</time>
      </trkpt>
      <trkpt lat="42.264450" lon="2.043150">
        <ele>1263.584</ele>
        <time>2020-07-13T22:18:31Z</time>
      </trkpt>
      <trkpt lat="42.266170" lon="2.045070">
        <ele>1261.829</ele>
        <time>2020-07-13T22:18:51Z</time>
      </trkpt>
      <trkpt lat="42.267060" lon="2.045600">
        <ele>1259.210</ele>
        <time>2020-07-13T22:19:11Z</time>
      </trkpt>
      <trkpt lat="42.267900" lon="2.047260">
        <ele>1261.256</ele>
        <time>2020-07-13T22:19:51Z</time>
      </trkpt>
      <trkpt lat="42.268410" lon="2.047370">
        <ele>1266.222</ele>
        <time>2020-07-13T22:20:31Z</time>
      </trkpt>
      <trkpt lat="42.268350" lon="2.046710">
        <ele>1263.044</ele>
        <time>2020-07-13T22:20:51Z</time>
      </trkpt>
      <trkpt lat="42.268880" lon="2.044610">
        <ele>1261.305</ele>
        <time>2020-07-13T22:21:51Z</time>
      </trkpt>
      <trkpt lat="42.270460" lon="2.044890">
        <ele>1249.315</ele>
        <time>2020-07-13T22:22:11Z</time>
      </trkpt>
      <trkpt lat="42.271690" lon="2.046790">
        <ele>1236.108</ele>
        <time>2020-07-13T22:22:51Z</time>
      </trkpt>
      <trkpt lat="42.272600" lon="2.046790">
        <ele>1231.089</ele>
        <time>2020-07-13T22:23:11Z</time>
      </trkpt>
      <trkpt lat="42.271880" lon="2.045760">
        <ele>1227.746</ele>
        <time>2020-07-13T22:23:51Z</time>
      </trkpt>
      <trkpt lat="42.271420" lon="2.043690">
        <ele>1216.361</ele>
        <time>2020-07-13T22:24:51Z</time>
      </trkpt>
      <trkpt lat="42.271900" lon="2.043220">
        <ele>1214.424</ele>
        <time>2020-07-13T22:25:31Z</time>
      </trkpt>
      <trkpt lat="42.271130" lon="2.042860">
        <ele>1218.339</ele>
        <time>2020-07-13T22:25:51Z</time>
      </trkpt>
      <trkpt lat="42.271760" lon="2.041030">
        <ele>1232.020</ele>
        <time>2020-07-13T22:26:51Z</time>
      </trkpt>
      <trkpt lat="42.271170" lon="2.036910">
        <ele>1241.266</ele>
        <time>2020-07-13T22:27:51Z</time>
      </trkpt>
      <trkpt lat="42.270750" lon="2.037210">
        <ele>1245.562</ele>
        <time>2020-07-13T22:28:11Z</time>
      </trkpt>
      <trkpt lat="42.270300" lon="2.039890">
        <ele>1260.375</ele>
        <time>2020-07-13T22:28:51Z</time>
      </trkpt>
      <trkpt lat="42.269730" lon="2.038630">
        <ele>1271.828</ele>
        <time>2020-07-13T22:29:11Z</time>
      </trkpt>
      <trkpt lat="42.269650" lon="2.036040">
        <ele>1290.120</ele>
        <time>2020-07-13T22:29:51Z</time>
      </trkpt>
      <trkpt lat="42.270050" lon="2.035230">
        <ele>1294.508</ele>
        <time>2020-07-13T22:30:11Z</time>
      </trkpt>
      <trkpt lat="42.270690" lon="2.034950">
        <ele>1297.432</ele>
        <time>2020-07-13T22:30:31Z</time>
      </trkpt>
      <trkpt lat="42.271750" lon="2.033520">
        <ele>1310.479</ele>
        <time>2020-07-13T22:31:11Z</time>
      </trkpt>
      <trkpt lat="42.271830" lon="2.032430">
        <ele>1314.034</ele>
        <time>2020-07-13T22:31:31Z</time>
      </trkpt>
      <trkpt lat="42.272720" lon="2.031140">
        <ele>1318.327</ele>
        <time>2020-07-13T22:32:11Z</time>
      </trkpt>
      <trkpt lat="42.272720" lon="2.030300">
        <ele>1324.272</ele>
        <time>2020-07-13T22:32:31Z</time>
      </trkpt>
      <trkpt lat="42.273170" lon="2.030010">
        <ele>1325.853</ele>
        <time>2020-07-13T22:32:51Z</time>
      </trkpt>
      <trkpt lat="42.273490" lon="2.028930">
        <ele>1333.599</ele>
        <time>2020-07-13T22:33:11Z</time>
      </trkpt>
      <trkpt lat="42.274600" lon="2.027690">
        <ele>1342.775</ele>
        <time>2020-07-13T22:34:11Z</time>
      </trkpt>
      <trkpt lat="42.274570" lon="2.026750">
        <ele>1348.888</ele>
        <time>2020-07-13T22:34:31Z</time>
      </trkpt>
      <trkpt lat="42.275110" lon="2.025320">
        <ele>1359.524</ele>
        <time>2020-07-13T22:35:11Z</time>
      </trkpt>
      <trkpt lat="42.275700" lon="2.024650">
        <ele>1364.326</ele>
        <time>2020-07-13T22:35:31Z</time>
      </trkpt>
      <trkpt lat="42.276680" lon="2.024200">
        <ele>1376.508</ele>
        <time>2020-07-13T22:36:11Z</time>
      </trkpt>
      <trkpt lat="42.277820" lon="2.024620">
        <ele>1384.783</ele>
        <time>2020-07-13T22:36:51Z</time>
      </trkpt>
      <trkpt lat="42.278480" lon="2.024120">
        <ele>1390.580</ele>
        <time>2020-07-13T22:37:11Z</time>
      </trkpt>
      <trkpt lat="42.279000" lon="2.022500">
        <ele>1397.485</ele>
        <time>2020-07-13T22:37:51Z</time>
      </trkpt>
      <trkpt lat="42.280000" lon="2.020710">
        <ele>1409.828</ele>
        <time>2020-07-13T22:38:31Z</time>
      </trkpt>
      <trkpt lat="42.279440" lon="2.022480">
        <ele>1421.543</ele>
        <time>2020-07-13T22:38:51Z</time>
      </trkpt>
      <trkpt lat="42.279490" lon="2.023190">
        <ele>1427.814</ele>
        <time>2020-07-13T22:39:11Z</time>
      </trkpt>
      <trkpt lat="42.279190" lon="2.023860">
        <ele>1430.630</ele>
        <time>2020-07-13T22:39:31Z</time>
      </trkpt>
      <trkpt lat="42.279330" lon="2.024860">
        <ele>1435.226</ele>
        <time>2020-07-13T22:39:51Z</time>
      </trkpt>
      <trkpt lat="42.278520" lon="2.025440">
        <ele>1435.938</ele>
        <time>2020-07-13T22:40:11Z</time>
      </trkpt>
      <trkpt lat="42.277700" lon="2.027000">
        <ele>1438.270</ele>
        <time>2020-07-13T22:40:31Z</time>
      </trkpt>
      <trkpt lat="42.277830" lon="2.029310">
        <ele>1445.817</ele>
        <time>2020-07-13T22:41:11Z</time>
      </trkpt>
      <trkpt lat="42.278180" lon="2.029190">
        <ele>1445.408</ele>
        <time>2020-07-13T22:41:31Z</time>
      </trkpt>
      <trkpt lat="42.279060" lon="2.027250">
        <ele>1457.528</ele>
        <time>2020-07-13T22:41:51Z</time>
      </trkpt>
      <trkpt lat="42.280630" lon="2.025880">
        <ele>1473.945</ele>
        <time>2020-07-13T22:42:51Z</time>
      </trkpt>
      <trkpt lat="42.281880" lon="2.026620">
        <ele>1483.760</ele>
        <time>2020-07-13T22:43:31Z</time>
      </trkpt>
      <trkpt lat="42.282460" lon="2.026440">
        <ele>1486.343</ele>
        <time>2020-07-13T22:43:51Z</time>
      </trkpt>
      <trkpt lat="42.283140" lon="2.027380">
        <ele>1489.928</ele>
        <time>2020-07-13T22:44:31Z</time>
      </trkpt>
      <trkpt lat="42.282770" lon="2.029900">
        <ele>1504.319</ele>
        <time>2020-07-13T22:45:11Z</time>
      </trkpt>
      <trkpt lat="42.283580" lon="2.030510">
        <ele>1511.875</ele>
        <time>2020-07-13T22:45:51Z</time>
      </trkpt>
      <trkpt lat="42.283740" lon="2.031120">
        <ele>1515.961</ele>
        <time>2020-07-13T22:46:11Z</time>
      </trkpt>
      <trkpt lat="42.283570" lon="2.032400">
        <ele>1524.043</ele>
        <time>2020-07-13T22:46:31Z</time>
      </trkpt>
      <trkpt lat="42.282480" lon="2.033990">
        <ele>1536.864</ele>
        <time>2020-07-13T22:47:51Z</time>
      </trkpt>
      <trkpt lat="42.282660" lon="2.034840">
        <ele>1541.910</ele>
        <time>2020-07-13T22:48:11Z</time>
      </trkpt>
      <trkpt lat="42.283700" lon="2.033390">
        <ele>1558.008</ele>
        <time>2020-07-13T22:48:51Z</time>
      </trkpt>
      <trkpt lat="42.285110" lon="2.033110">
        <ele>1568.899</ele>
        <time>2020-07-13T22:49:11Z</time>
      </trkpt>
      <trkpt lat="42.286310" lon="2.034670">
        <ele>1588.476</ele>
        <time>2020-07-13T22:49:51Z</time>
      </trkpt>
      <trkpt lat="42.287060" lon="2.034440">
        <ele>1596.111</ele>
        <time>2020-07-13T22:50:31Z</time>
      </trkpt>
      <trkpt lat="42.287520" lon="2.032660">
        <ele>1604.534</ele>
        <time>2020-07-13T22:50:51Z</time>
      </trkpt>
      <trkpt lat="42.287880" lon="2.032350">
        <ele>1606.529</ele>
        <time>2020-07-13T22:51:11Z</time>
      </trkpt>
      <trkpt lat="42.288500" lon="2.032520">
        <ele>1609.450</ele>
        <time>2020-07-13T22:51:31Z</time>
      </trkpt>
      <trkpt lat="42.289070" lon="2.033650">
        <ele>1615.796</ele>
        <time>2020-07-13T22:51:51Z</time>
      </trkpt>
      <trkpt lat="42.289500" lon="2.033840">
        <ele>1618.122</ele>
        <time>2020-07-13T22:52:11Z</time>
      </trkpt>
      <trkpt lat="42.289630" lon="2.031940">
        <ele>1613.013</ele>
        <time>2020-07-13T22:52:51Z</time>
      </trkpt>
      <trkpt lat="42.290060" lon="2.031440">
        <ele>1616.343</ele>
        <time>2020-07-13T22:53:31Z</time>
      </trkpt>
      <trkpt lat="42.292510" lon="2.031760">
        <ele>1634.907</ele>
        <time>2020-07-13T22:54:11Z</time>
      </trkpt>
      <trkpt lat="42.293540" lon="2.031430">
        <ele>1642.808</ele>
        <time>2020-07-13T22:54:31Z</time>
      </trkpt>
      <trkpt lat="42.296970" lon="2.033470">
        <ele>1677.796</ele>
        <time>2020-07-13T22:54:51Z</time>
      </trkpt>
      <trkpt lat="42.296900" lon="2.032170">
        <ele>1685.893</ele>
        <time>2020-07-13T22:55:11Z</time>
      </trkpt>
      <trkpt lat="42.298100" lon="2.031390">
        <ele>1695.788</ele>
        <time>2020-07-13T22:55:31Z</time>
      </trkpt>
      <trkpt lat="42.297770" lon="2.030680">
        <ele>1700.831</ele>
        <time>2020-07-13T22:56:11Z</time>
      </trkpt>
      <trkpt lat="42.295800" lon="2.029750">
        <ele>1718.896</ele>
        <time>2020-07-13T22:56:31Z</time>
      </trkpt>
      <trkpt lat="42.294770" lon="2.027570">
        <ele>1732.987</ele>
        <time>2020-07-13T22:57:11Z</time>
      </trkpt>
      <trkpt lat="42.294880" lon="2.025830">
        <ele>1744.113</ele>
        <time>2020-07-13T22:57:31Z</time>
      </trkpt>
      <trkpt lat="42.296070" lon="2.023470">
        <ele>1765.449</ele>
        <time>2020-07-13T22:57:51Z</time>
      </trkpt>
      <trkpt lat="42.294560" lon="2.022520">
        <ele>1777.734</ele>
        <time>2020-07-13T22:58:51Z</time>
      </trkpt>
      <trkpt lat="42.294180" lon="2.020840">
        <ele>1787.555</ele>
        <time>2020-07-13T22:59:31Z</time>
      </trkpt>
      <trkpt lat="42.294860" lon="2.019820">
        <ele>1796.110</ele>
        <time>2020-07-13T23:00:11Z</time>
      </trkpt>
      <trkpt lat="42.299410" lon="2.020810">
        <ele>1827.308</ele>
        <time>2020-07-13T23:01:11Z</time>
      </trkpt>
      <trkpt lat="42.300670" lon="2.020270">
        <ele>1826.018</ele>
        <time>2020-07-13T23:01:51Z</time>
      </trkpt>
      <trkpt lat="42.300200" lon="2.019460">
        <ele>1832.235</ele>
        <time>2020-07-13T23:02:11Z</time>
      </trkpt>
      <trkpt lat="42.300850" lon="2.018190">
        <ele>1841.570</ele>
        <time>2020-07-13T23:02:51Z</time>
      </trkpt>
      <trkpt lat="42.299370" lon="2.017880">
        <ele>1845.193</ele>
        <time>2020-07-13T23:03:31Z</time>
      </trkpt>
      <trkpt lat="42.298040" lon="2.016530">
        <ele>1851.498</ele>
        <time>2020-07-13T23:04:11Z</time>
      </trkpt>
      <trkpt lat="42.297900" lon="2.015540">
        <ele>1854.249</ele>
        <time>2020-07-13T23:04:31Z</time>
      </trkpt>
      <trkpt lat="42.298110" lon="2.014390">
        <ele>1856.375</ele>
        <time>2020-07-13T23:04:51Z</time>
      </trkpt>
      <trkpt lat="42.298920" lon="2.012540">
        <ele>1860.391</ele>
        <time>2020-07-13T23:05:11Z</time>
      </trkpt>
      <trkpt lat="42.300550" lon="2.012840">
        <ele>1867.533</ele>
        <time>2020-07-13T23:05:51Z</time>
      </trkpt>
      <trkpt lat="42.302080" lon="2.012390">
        <ele>1875.723</ele>
        <time>2020-07-13T23:06:31Z</time>
      </trkpt>
      <trkpt lat="42.300920" lon="2.011760">
        <ele>1880.915</ele>
        <time>2020-07-13T23:07:31Z</time>
      </trkpt>
      <trkpt lat="42.300160" lon="2.010350">
        <ele>1889.808</ele>
        <time>2020-07-13T23:07:51Z</time>
      </trkpt>
      <trkpt lat="42.300190" lon="2.009080">
        <ele>1892.798</ele>
        <time>2020-07-13T23:08:11Z</time>
      </trkpt>
      <trkpt lat="42.300860" lon="2.006900">
        <ele>1902.285</ele>
        <time>2020-07-13T23:08:31Z</time>
      </trkpt>
      <trkpt lat="42.300140" lon="2.006200">
        <ele>1905.430</ele>
        <time>2020-07-13T23:08:51Z</time>
      </trkpt>
      <trkpt lat="42.300230" lon="2.003880">
        <ele>1911.543</ele>
        <time>2020-07-13T23:09:31Z</time>
      </trkpt>
      <trkpt lat="42.299780" lon="2.002280">
        <ele>1919.748</ele>
        <time>2020-07-13T23:09:51Z</time>
      </trkpt>
      <trkpt lat="42.299920" lon="2.000300">
        <ele>1922.769</ele>
        <time>2020-07-13T23:10:11Z</time>
      </trkpt>
      <trkpt lat="42.300690" lon="1.998570">
        <ele>1923.465</ele>
        <time>2020-07-13T23:10:31Z</time>
      </trkpt>
      <trkpt lat="42.301400" lon="1.992950">
        <ele>1921.931</ele>
        <time>2020-07-13T23:11:31Z</time>
      </trkpt>
      <trkpt lat="42.302300" lon="1.990770">
        <ele>1909.043</ele>
        <time>2020-07-13T23:12:11Z</time>
      </trkpt>
      <trkpt lat="42.302230" lon="1.989770">
        <ele>1903.264</ele>
        <time>2020-07-13T23:12:31Z</time>
      </trkpt>
      <trkpt lat="42.303500" lon="1.989530">
        <ele>1891.610</ele>
        <time>2020-07-13T23:13:11Z</time>
      </trkpt>
      <trkpt lat="42.305820" lon="1.988220">
        <ele>1866.808</ele>
        <time>2020-07-13T23:13:31Z</time>
      </trkpt>
      <trkpt lat="42.306670" lon="1.988350">
        <ele>1861.639</ele>
        <time>2020-07-13T23:13:51Z</time>
      </trkpt>
      <trkpt lat="42.307050" lon="1.988000">
        <ele>1856.296</ele>
        <time>2020-07-13T23:14:11Z</time>
      </trkpt>
      <trkpt lat="42.305060" lon="1.983470">
        <ele>1826.511</ele>
        <time>2020-07-13T23:14:51Z</time>
      </trkpt>
      <trkpt lat="42.306910" lon="1.982070">
        <ele>1805.974</ele>
        <time>2020-07-13T23:15:31Z</time>
      </trkpt>
      <trkpt lat="42.307330" lon="1.981150">
        <ele>1799.739</ele>
        <time>2020-07-13T23:15:51Z</time>
      </trkpt>
      <trkpt lat="42.306870" lon="1.979500">
        <ele>1791.350</ele>
        <time>2020-07-13T23:16:31Z</time>
      </trkpt>
      <trkpt lat="42.306840" lon="1.977290">
        <ele>1777.646</ele>
        <time>2020-07-13T23:16:51Z</time>
      </trkpt>
      <trkpt lat="42.305820" lon="1.974860">
        <ele>1759.492</ele>
        <time>2020-07-13T23:17:31Z</time>
      </trkpt>
      <trkpt lat="42.306060" lon="1.974450">
        <ele>1758.533</ele>
        <time>2020-07-13T23:18:11Z</time>
      </trkpt>
      <trkpt lat="42.307300" lon="1.975140">
        <ele>1758.323</ele>
        <time>2020-07-13T23:18:31Z</time>
      </trkpt>
      <trkpt lat="42.308650" lon="1.975310">
        <ele>1760.315</ele>
        <time>2020-07-13T23:18:51Z</time>
      </trkpt>
      <trkpt lat="42.311480" lon="1.971830">
        <ele>1765.408</ele>
        <time>2020-07-13T23:19:31Z</time>
      </trkpt>
      <trkpt lat="42.312480" lon="1.971580">
        <ele>1767.378</ele>
        <time>2020-07-13T23:19:51Z</time>
      </trkpt>
      <trkpt lat="42.313740" lon="1.970020">
        <ele>1771.755</ele>
        <time>2020-07-13T23:20:11Z</time>
      </trkpt>
      <trkpt lat="42.314210" lon="1.971230">
        <ele>1775.760</ele>
        <time>2020-07-13T23:21:11Z</time>
      </trkpt>
      <trkpt lat="42.315320" lon="1.970600">
        <ele>1783.933</ele>
        <time>2020-07-13T23:21:31Z</time>
      </trkpt>
      <trkpt lat="42.317890" lon="1.970400">
        <ele>1793.078</ele>
        <time>2020-07-13T23:22:11Z</time>
      </trkpt>
      <trkpt lat="42.319790" lon="1.968260">
        <ele>1802.189</ele>
        <time>2020-07-13T23:22:31Z</time>
      </trkpt>
      <trkpt lat="42.322840" lon="1.961680">
        <ele>1823.785</ele>
        <time>2020-07-13T23:22:51Z</time>
      </trkpt>
      <trkpt lat="42.325030" lon="1.959970">
        <ele>1828.011</ele>
        <time>2020-07-13T23:23:11Z</time>
      </trkpt>
      <trkpt lat="42.326480" lon="1.959460">
        <ele>1817.524</ele>
        <time>2020-07-13T23:23:31Z</time>
      </trkpt>
      <trkpt lat="42.327670" lon="1.959700">
        <ele>1808.404</ele>
        <time>2020-07-13T23:24:11Z</time>
      </trkpt>
      <trkpt lat="42.326110" lon="1.958510">
        <ele>1798.614</ele>
        <time>2020-07-13T23:24:51Z</time>
      </trkpt>
      <trkpt lat="42.325810" lon="1.956730">
        <ele>1790.008</ele>
        <time>2020-07-13T23:25:11Z</time>
      </trkpt>
      <trkpt lat="42.325290" lon="1.955930">
        <ele>1785.027</ele>
        <time>2020-07-13T23:25:31Z</time>
      </trkpt>
      <trkpt lat="42.325260" lon="1.955420">
        <ele>1783.244</ele>
        <time>2020-07-13T23:25:51Z</time>
      </trkpt>
      <trkpt lat="42.327830" lon="1.953100">
        <ele>1764.639</ele>
        <time>2020-07-13T23:26:51Z</time>
      </trkpt>
      <trkpt lat="42.328680" lon="1.951670">
        <ele>1753.772</ele>
        <time>2020-07-13T23:27:11Z</time>
      </trkpt>
      <trkpt lat="42.328950" lon="1.949810">
        <ele>1745.617</ele>
        <time>2020-07-13T23:27:31Z</time>
      </trkpt>
      <trkpt lat="42.330300" lon="1.948620">
        <ele>1737.888</ele>
        <time>2020-07-13T23:28:11Z</time>
      </trkpt>
      <trkpt lat="42.331630" lon="1.945760">
        <ele>1724.534</ele>
        <time>2020-07-13T23:29:11Z</time>
      </trkpt>
      <trkpt lat="42.332330" lon="1.945600">
        <ele>1718.960</ele>
        <time>2020-07-13T23:29:31Z</time>
      </trkpt>
      <trkpt lat="42.333420" lon="1.946230">
        <ele>1711.764</ele>
        <time>2020-07-13T23:29:51Z</time>
      </trkpt>
      <trkpt lat="42.334930" lon="1.945150">
        <ele>1706.406</ele>
        <time>2020-07-13T23:30:51Z</time>
      </trkpt>
      <trkpt lat="42.335830" lon="1.945440">
        <ele>1701.316</ele>
        <time>2020-07-13T23:31:11Z</time>
      </trkpt>
      <trkpt lat="42.336880" lon="1.947040">
        <ele>1691.808</ele>
        <time>2020-07-13T23:31:31Z</time>
      </trkpt>
      <trkpt lat="42.337280" lon="1.947230">
        <ele>1688.471</ele>
        <time>2020-07-13T23:31:51Z</time>
      </trkpt>
      <trkpt lat="42.338540" lon="1.946850">
        <ele>1680.618</ele>
        <time>2020-07-13T23:32:11Z</time>
      </trkpt>
      <trkpt lat="42.339590" lon="1.946060">
        <ele>1681.413</ele>
        <time>2020-07-13T23:32:31Z</time>
      </trkpt>
      <trkpt lat="42.339840" lon="1.945530">
        <ele>1682.886</ele>
        <time>2020-07-13T23:32:51Z</time>
      </trkpt>
      <trkpt lat="42.339880" lon="1.943840">
        <ele>1668.521</ele>
        <time>2020-07-13T23:33:11Z</time>
      </trkpt>
      <trkpt lat="42.338460" lon="1.942560">
        <ele>1672.392</ele>
        <time>2020-07-13T23:33:31Z</time>
      </trkpt>
      <trkpt lat="42.338670" lon="1.941120">
        <ele>1663.818</ele>
        <time>2020-07-13T23:34:11Z</time>
      </trkpt>
      <trkpt lat="42.336590" lon="1.938850">
        <ele>1650.784</ele>
        <time>2020-07-13T23:34:51Z</time>
      </trkpt>
      <trkpt lat="42.336650" lon="1.938100">
        <ele>1645.313</ele>
        <time>2020-07-13T23:35:31Z</time>
      </trkpt>
      <trkpt lat="42.338350" lon="1.938990">
        <ele>1623.243</ele>
        <time>2020-07-13T23:36:11Z</time>
      </trkpt>
      <trkpt lat="42.339200" lon="1.938970">
        <ele>1614.607</ele>
        <time>2020-07-13T23:36:31Z</time>
      </trkpt>
      <trkpt lat="42.340970" lon="1.940010">
        <ele>1610.108</ele>
        <time>2020-07-13T23:36:51Z</time>
      </trkpt>
      <trkpt lat="42.342360" lon="1.940030">
        <ele>1608.196</ele>
        <time>2020-07-13T23:37:11Z</time>
      </trkpt>
      <trkpt lat="42.343020" lon="1.940580">
        <ele>1606.673</ele>
        <time>2020-07-13T23:37:31Z</time>
      </trkpt>
      <trkpt lat="42.343430" lon="1.941510">
        <ele>1600.068</ele>
        <time>2020-07-13T23:37:51Z</time>
      </trkpt>
      <trkpt lat="42.344360" lon="1.947480">
        <ele>1565.481</ele>
        <time>2020-07-13T23:38:31Z</time>
      </trkpt>
      <trkpt lat="42.343580" lon="1.950230">
        <ele>1550.456</ele>
        <time>2020-07-13T23:39:11Z</time>
      </trkpt>
      <trkpt lat="42.343400" lon="1.952140">
        <ele>1540.077</ele>
        <time>2020-07-13T23:39:31Z</time>
      </trkpt>
      <trkpt lat="42.342810" lon="1.953040">
        <ele>1534.073</ele>
        <time>2020-07-13T23:39:51Z</time>
      </trkpt>
      <trkpt lat="42.342270" lon="1.953310">
        <ele>1527.849</ele>
        <time>2020-07-13T23:40:11Z</time>
      </trkpt>
      <trkpt lat="42.340880" lon="1.953020">
        <ele>1515.765</ele>
        <time>2020-07-13T23:40:51Z</time>
      </trkpt>
      <trkpt lat="42.339760" lon="1.953850">
        <ele>1504.768</ele>
        <time>2020-07-13T23:41:11Z</time>
      </trkpt>
      <trkpt lat="42.338830" lon="1.953280">
        <ele>1496.414</ele>
        <time>2020-07-13T23:41:51Z</time>
      </trkpt>
      <trkpt lat="42.337900" lon="1.955180">
        <ele>1482.408</ele>
        <time>2020-07-13T23:42:51Z</time>
      </trkpt>
      <trkpt lat="42.336800" lon="1.954650">
        <ele>1472.811</ele>
        <time>2020-07-13T23:43:31Z</time>
      </trkpt>
      <trkpt lat="42.336420" lon="1.954820">
        <ele>1469.928</ele>
        <time>2020-07-13T23:43:51Z</time>
      </trkpt>
      <trkpt lat="42.336460" lon="1.956670">
        <ele>1458.743</ele>
        <time>2020-07-13T23:44:31Z</time>
      </trkpt>
      <trkpt lat="42.337800" lon="1.957740">
        <ele>1448.976</ele>
        <time>2020-07-13T23:44:51Z</time>
      </trkpt>
      <trkpt lat="42.339140" lon="1.957980">
        <ele>1440.611</ele>
        <time>2020-07-13T23:45:11Z</time>
      </trkpt>
      <trkpt lat="42.342850" lon="1.957300">
        <ele>1418.572</ele>
        <time>2020-07-13T23:45:31Z</time>
      </trkpt>
      <trkpt lat="42.343600" lon="1.957800">
        <ele>1416.358</ele>
        <time>2020-07-13T23:45:51Z</time>
      </trkpt>
      <trkpt lat="42.346350" lon="1.954680">
        <ele>1407.674</ele>
        <time>2020-07-13T23:46:51Z</time>
      </trkpt>
      <trkpt lat="42.347600" lon="1.951400">
        <ele>1402.942</ele>
        <time>2020-07-13T23:47:11Z</time>
      </trkpt>
      <trkpt lat="42.348020" lon="1.948020">
        <ele>1404.522</ele>
        <time>2020-07-13T23:47:51Z</time>
      </trkpt>
      <trkpt lat="42.347820" lon="1.947360">
        <ele>1396.814</ele>
        <time>2020-07-13T23:48:11Z</time>
      </trkpt>
      <trkpt lat="42.347890" lon="1.945780">
        <ele>1389.508</ele>
        <time>2020-07-13T23:48:31Z</time>
      </trkpt>
      <trkpt lat="42.347390" lon="1.944740">
        <ele>1385.599</ele>
        <time>2020-07-13T23:48:51Z</time>
      </trkpt>
      <trkpt lat="42.348070" lon="1.941820">
        <ele>1363.836</ele>
        <time>2020-07-13T23:49:51Z</time>
      </trkpt>
      <trkpt lat="42.349570" lon="1.939730">
        <ele>1347.181</ele>
        <time>2020-07-13T23:50:31Z</time>
      </trkpt>
      <trkpt lat="42.349550" lon="1.937670">
        <ele>1339.274</ele>
        <time>2020-07-13T23:50:51Z</time>
      </trkpt>
      <trkpt lat="42.350180" lon="1.935880">
        <ele>1329.629</ele>
        <time>2020-07-13T23:51:11Z</time>
      </trkpt>
      <trkpt lat="42.350210" lon="1.932650">
        <ele>1312.210</ele>
        <time>2020-07-13T23:51:31Z</time>
      </trkpt>
      <trkpt lat="42.350410" lon="1.932070">
        <ele>1309.516</ele>
        <time>2020-07-13T23:51:51Z</time>
      </trkpt>
      <trkpt lat="42.352950" lon="1.929120">
        <ele>1282.672</ele>
        <time>2020-07-13T23:52:11Z</time>
      </trkpt>
      <trkpt lat="42.354450" lon="1.928360">
        <ele>1272.476</ele>
        <time>2020-07-13T23:52:31Z</time>
      </trkpt>
      <trkpt lat="42.357360" lon="1.925040">
        <ele>1248.990</ele>
        <time>2020-07-13T23:53:31Z</time>
      </trkpt>
      <trkpt lat="42.358590" lon="1.922010">
        <ele>1236.019</ele>
        <time>2020-07-13T23:53:51Z</time>
      </trkpt>
      <trkpt lat="42.360680" lon="1.918940">
        <ele>1224.908</ele>
        <time>2020-07-13T23:54:11Z</time>
      </trkpt>
      <trkpt lat="42.361300" lon="1.916920">
        <ele>1216.262</ele>
        <time>2020-07-13T23:54:31Z</time>
      </trkpt>
      <trkpt lat="42.364250" lon="1.910680">
        <ele>1192.829</ele>
        <time>2020-07-13T23:54:51Z</time>
      </trkpt>
      <trkpt lat="42.367850" lon="1.906240">
        <ele>1186.784</ele>
        <time>2020-07-13T23:55:31Z</time>
      </trkpt>
      <trkpt lat="42.369530" lon="1.902630">
        <ele>1184.897</ele>
        <time>2020-07-13T23:55:51Z</time>
      </trkpt>
      <trkpt lat="42.370930" lon="1.901290">
        <ele>1179.182</ele>
        <time>2020-07-13T23:56:11Z</time>
      </trkpt>
      <trkpt lat="42.372180" lon="1.899170">
        <ele>1176.843</ele>
        <time>2020-07-13T23:56:31Z</time>
      </trkpt>
      <trkpt lat="42.374870" lon="1.896110">
        <ele>1157.519</ele>
        <time>2020-07-13T23:56:51Z</time>
      </trkpt>
      <trkpt lat="42.377170" lon="1.895400">
        <ele>1147.175</ele>
        <time>2020-07-13T23:57:11Z</time>
      </trkpt>
      <trkpt lat="42.382810" lon="1.892160">
        <ele>1128.938</ele>
        <time>2020-07-13T23:58:31Z</time>
      </trkpt>
      <trkpt lat="42.385670" lon="1.892320">
        <ele>1129.070</ele>
        <time>2020-07-13T23:59:11Z</time>
      </trkpt>
      <trkpt lat="42.387330" lon="1.892830">
        <ele>1125.717</ele>
        <time>2020-07-13T23:59:31Z</time>
      </trkpt>
      <trkpt lat="42.394130" lon="1.896880">
        <ele>1099.508</ele>
        <time>2020-07-14T00:00:11Z</time>
      </trkpt>
      <trkpt lat="42.394660" lon="1.897620">
        <ele>1098.288</ele>
        <time>2020-07-14T00:00:31Z</time>
      </trkpt>
      <trkpt lat="42.395840" lon="1.901070">
        <ele>1103.055</ele>
        <time>2020-07-14T00:00:51Z</time>
      </trkpt>
      <trkpt lat="42.396220" lon="1.906310">
        <ele>1103.510</ele>
        <time>2020-07-14T00:01:31Z</time>
      </trkpt>
      <trkpt lat="42.397010" lon="1.911440">
        <ele>1095.423</ele>
        <time>2020-07-14T00:02:11Z</time>
      </trkpt>
      <trkpt lat="42.398140" lon="1.913440">
        <ele>1098.188</ele>
        <time>2020-07-14T00:02:51Z</time>
      </trkpt>
      <trkpt lat="42.399550" lon="1.914880">
        <ele>1101.579</ele>
        <time>2020-07-14T00:03:11Z</time>
      </trkpt>
      <trkpt lat="42.401320" lon="1.915690">
        <ele>1100.175</ele>
        <time>2020-07-14T00:03:51Z</time>
      </trkpt>
      <trkpt lat="42.403950" lon="1.915180">
        <ele>1103.141</ele>
        <time>2020-07-14T00:04:31Z</time>
      </trkpt>
      <trkpt lat="42.424970" lon="1.923340">
        <ele>1139.025</ele>
        <time>2020-07-14T00:05:11Z</time>
      </trkpt>
      <trkpt lat="42.425620" lon="1.924310">
        <ele>1140.026</ele>
        <time>2020-07-14T00:05:51Z</time>
      </trkpt>
      <trkpt lat="42.425880" lon="1.926270">
        <ele>1140.008</ele>
        <time>2020-07-14T00:06:11Z</time>
      </trkpt>
      <trkpt lat="42.429160" lon="1.932430">
        <ele>1140.508</ele>
        <time>2020-07-14T00:07:31Z</time>
      </trkpt>
      <trkpt lat="42.430230" lon="1.933850">
        <ele>1140.927</ele>
        <time>2020-07-14T00:07:51Z</time>
      </trkpt>
      <trkpt lat="42.432650" lon="1.935980">
        <ele>1141.024</ele>
        <time>2020-07-14T00:08:11Z</time>
      </trkpt>
      <trkpt lat="42.433230" lon="1.937060">
        <ele>1141.289</ele>
        <time>2020-07-14T00:08:31Z</time>
      </trkpt>
      <trkpt lat="42.434740" lon="1.938730">
        <ele>1141.672</ele>
        <time>2020-07-14T00:08:51Z</time>
      </trkpt>
      <trkpt lat="42.439170" lon="1.941620">
        <ele>1146.597</ele>
        <time>2020-07-14T00:09:31Z</time>
      </trkpt>
      <trkpt lat="42.443930" lon="1.941920">
        <ele>1156.258</ele>
        <time>2020-07-14T00:09:51Z</time>
      </trkpt>
      <trkpt lat="42.444690" lon="1.942510">
        <ele>1158.644</ele>
        <time>2020-07-14T00:10:31Z</time>
      </trkpt>
      <trkpt lat="42.445910" lon="1.946400">
        <ele>1160.090</ele>
        <time>2020-07-14T00:11:11Z</time>
      </trkpt>
      <trkpt lat="42.446920" lon="1.944870">
        <ele>1162.411</ele>
        <time>2020-07-14T00:12:11Z</time>
      </trkpt>
      <trkpt lat="42.447600" lon="1.944460">
        <ele>1163.421</ele>
        <time>2020-07-14T00:12:31Z</time>
      </trkpt>
      <trkpt lat="42.451020" lon="1.944300">
        <ele>1169.503</ele>
        <time>2020-07-14T00:12:51Z</time>
      </trkpt>
      <trkpt lat="42.454390" lon="1.943190">
        <ele>1178.408</ele>
        <time>2020-07-14T00:13:11Z</time>
      </trkpt>
      <trkpt lat="42.457060" lon="1.941270">
        <ele>1185.636</ele>
        <time>2020-07-14T00:13:31Z</time>
      </trkpt>
      <trkpt lat="42.459870" lon="1.939840">
        <ele>1191.643</ele>
        <time>2020-07-14T00:13:51Z</time>
      </trkpt>
      <trkpt lat="42.461460" lon="1.937470">
        <ele>1200.538</ele>
        <time>2020-07-14T00:14:11Z</time>
      </trkpt>
      <trkpt lat="42.461430" lon="1.936890">
        <ele>1200.231</ele>
        <time>2020-07-14T00:14:31Z</time>
      </trkpt>
      <trkpt lat="42.460870" lon="1.936170">
        <ele>1207.326</ele>
        <time>2020-07-14T00:14:51Z</time>
      </trkpt>
      <trkpt lat="42.458510" lon="1.935780">
        <ele>1217.467</ele>
        <time>2020-07-14T00:15:31Z</time>
      </trkpt>
      <trkpt lat="42.454590" lon="1.936120">
        <ele>1230.933</ele>
        <time>2020-07-14T00:16:31Z</time>
      </trkpt>
      <trkpt lat="42.454190" lon="1.935460">
        <ele>1233.589</ele>
        <time>2020-07-14T00:17:11Z</time>
      </trkpt>
      <trkpt lat="42.455570" lon="1.933090">
        <ele>1240.322</ele>
        <time>2020-07-14T00:17:31Z</time>
      </trkpt>
      <trkpt lat="42.456580" lon="1.929550">
        <ele>1246.662</ele>
        <time>2020-07-14T00:18:11Z</time>
      </trkpt>
      <trkpt lat="42.458350" lon="1.921110">
        <ele>1254.308</ele>
        <time>2020-07-14T00:18:31Z</time>
      </trkpt>
      <trkpt lat="42.459340" lon="1.918720">
        <ele>1255.008</ele>
        <time>2020-07-14T00:18:51Z</time>
      </trkpt>
      <trkpt lat="42.460930" lon="1.912380">
        <ele>1259.117</ele>
        <time>2020-07-14T00:19:11Z</time>
      </trkpt>
      <trkpt lat="42.461900" lon="1.909880">
        <ele>1264.964</ele>
        <time>2020-07-14T00:19:31Z</time>
      </trkpt>
      <trkpt lat="42.462470" lon="1.906170">
        <ele>1267.439</ele>
        <time>2020-07-14T00:20:11Z</time>
      </trkpt>
      <trkpt lat="42.461810" lon="1.903940">
        <ele>1266.582</ele>
        <time>2020-07-14T00:20:31Z</time>
      </trkpt>
      <trkpt lat="42.461870" lon="1.903090">
        <ele>1265.877</ele>
        <time>2020-07-14T00:20:51Z</time>
      </trkpt>
      <trkpt lat="42.464180" lon="1.896790">
        <ele>1258.488</ele>
        <time>2020-07-14T00:21:31Z</time>
      </trkpt>
      <trkpt lat="42.464510" lon="1.895160">
        <ele>1252.974</ele>
        <time>2020-07-14T00:21:51Z</time>
      </trkpt>
      <trkpt lat="42.465270" lon="1.893620">
        <ele>1251.970</ele>
        <time>2020-07-14T00:22:11Z</time>
      </trkpt>
      <trkpt lat="42.465040" lon="1.890850">
        <ele>1248.747</ele>
        <time>2020-07-14T00:22:51Z</time>
      </trkpt>
      <trkpt lat="42.466510" lon="1.886440">
        <ele>1256.329</ele>
        <time>2020-07-14T00:23:11Z</time>
      </trkpt>
      <trkpt lat="42.467190" lon="1.885160">
        <ele>1259.421</ele>
        <time>2020-07-14T00:23:31Z</time>
      </trkpt>
      <trkpt lat="42.469640" lon="1.882180">
        <ele>1275.008</ele>
        <time>2020-07-14T00:24:11Z</time>
      </trkpt>
      <trkpt lat="42.470860" lon="1.881960">
        <ele>1272.669</ele>
        <time>2020-07-14T00:24:51Z</time>
      </trkpt>
      <trkpt lat="42.472850" lon="1.879110">
        <ele>1271.846</ele>
        <time>2020-07-14T00:25:11Z</time>
      </trkpt>
      <trkpt lat="42.473900" lon="1.876300">
        <ele>1276.471</ele>
        <time>2020-07-14T00:25:31Z</time>
      </trkpt>
      <trkpt lat="42.476790" lon="1.870560">
        <ele>1275.524</ele>
        <time>2020-07-14T00:25:51Z</time>
      </trkpt>
      <trkpt lat="42.477270" lon="1.869000">
        <ele>1277.519</ele>
        <time>2020-07-14T00:26:11Z</time>
      </trkpt>
      <trkpt lat="42.479730" lon="1.864200">
        <ele>1285.130</ele>
        <time>2020-07-14T00:26:51Z</time>
      </trkpt>
      <trkpt lat="42.481990" lon="1.862660">
        <ele>1295.146</ele>
        <time>2020-07-14T00:27:31Z</time>
      </trkpt>
      <trkpt lat="42.483850" lon="1.860080">
        <ele>1300.682</ele>
        <time>2020-07-14T00:28:11Z</time>
      </trkpt>
      <trkpt lat="42.486480" lon="1.857920">
        <ele>1314.376</ele>
        <time>2020-07-14T00:29:11Z</time>
      </trkpt>
      <trkpt lat="42.486760" lon="1.856790">
        <ele>1318.490</ele>
        <time>2020-07-14T00:29:31Z</time>
      </trkpt>
      <trkpt lat="42.488330" lon="1.856310">
        <ele>1325.219</ele>
        <time>2020-07-14T00:29:51Z</time>
      </trkpt>
      <trkpt lat="42.490470" lon="1.853440">
        <ele>1339.208</ele>
        <time>2020-07-14T00:30:31Z</time>
      </trkpt>
      <trkpt lat="42.492320" lon="1.851910">
        <ele>1346.012</ele>
        <time>2020-07-14T00:30:51Z</time>
      </trkpt>
      <trkpt lat="42.494810" lon="1.848240">
        <ele>1358.369</ele>
        <time>2020-07-14T00:31:31Z</time>
      </trkpt>
      <trkpt lat="42.496000" lon="1.847600">
        <ele>1363.384</ele>
        <time>2020-07-14T00:31:51Z</time>
      </trkpt>
      <trkpt lat="42.497800" lon="1.842670">
        <ele>1384.097</ele>
        <time>2020-07-14T00:32:51Z</time>
      </trkpt>
      <trkpt lat="42.498770" lon="1.841180">
        <ele>1392.872</ele>
        <time>2020-07-14T00:33:11Z</time>
      </trkpt>
      <trkpt lat="42.499170" lon="1.838870">
        <ele>1401.223</ele>
        <time>2020-07-14T00:33:31Z</time>
      </trkpt>
      <trkpt lat="42.502930" lon="1.835790">
        <ele>1421.569</ele>
        <time>2020-07-14T00:34:11Z</time>
      </trkpt>
      <trkpt lat="42.503360" lon="1.835880">
        <ele>1422.415</ele>
        <time>2020-07-14T00:34:31Z</time>
      </trkpt>
      <trkpt lat="42.508660" lon="1.831610">
        <ele>1440.035</ele>
        <time>2020-07-14T00:34:51Z</time>
      </trkpt>
      <trkpt lat="42.509590" lon="1.830560">
        <ele>1440.086</ele>
        <time>2020-07-14T00:35:11Z</time>
      </trkpt>
      <trkpt lat="42.510690" lon="1.828560">
        <ele>1444.514</ele>
        <time>2020-07-14T00:35:31Z</time>
      </trkpt>
      <trkpt lat="42.512240" lon="1.827190">
        <ele>1455.508</ele>
        <time>2020-07-14T00:35:51Z</time>
      </trkpt>
      <trkpt lat="42.512480" lon="1.826240">
        <ele>1454.978</ele>
        <time>2020-07-14T00:36:11Z</time>
      </trkpt>
      <trkpt lat="42.514220" lon="1.824200">
        <ele>1465.165</ele>
        <time>2020-07-14T00:37:11Z</time>
      </trkpt>
      <trkpt lat="42.515790" lon="1.824400">
        <ele>1482.130</ele>
        <time>2020-07-14T00:37:31Z</time>
      </trkpt>
      <trkpt lat="42.517670" lon="1.822970">
        <ele>1493.283</ele>
        <time>2020-07-14T00:38:11Z</time>
      </trkpt>
      <trkpt lat="42.520710" lon="1.822270">
        <ele>1503.248</ele>
        <time>2020-07-14T00:39:11Z</time>
      </trkpt>
      <trkpt lat="42.522520" lon="1.822810">
        <ele>1505.149</ele>
        <time>2020-07-14T00:39:31Z</time>
      </trkpt>
      <trkpt lat="42.524170" lon="1.822680">
        <ele>1505.015</ele>
        <time>2020-07-14T00:39:51Z</time>
      </trkpt>
      <trkpt lat="42.526630" lon="1.823400">
        <ele>1511.231</ele>
        <time>2020-07-14T00:40:31Z</time>
      </trkpt>
      <trkpt lat="42.527570" lon="1.824130">
        <ele>1517.236</ele>
        <time>2020-07-14T00:40:51Z</time>
      </trkpt>
      <trkpt lat="42.528430" lon="1.824220">
        <ele>1523.417</ele>
        <time>2020-07-14T00:41:11Z</time>
      </trkpt>
      <trkpt lat="42.531240" lon="1.821750">
        <ele>1545.518</ele>
        <time>2020-07-14T00:41:51Z</time>
      </trkpt>
      <trkpt lat="42.532010" lon="1.821500">
        <ele>1542.308</ele>
        <time>2020-07-14T00:42:11Z</time>
      </trkpt>
      <trkpt lat="42.537790" lon="1.824340">
        <ele>1555.258</ele>
        <time>2020-07-14T00:43:31Z</time>
      </trkpt>
      <trkpt lat="42.540000" lon="1.824040">
        <ele>1557.555</ele>
        <time>2020-07-14T00:43:51Z</time>
      </trkpt>
      <trkpt lat="42.541990" lon="1.822830">
        <ele>1610.590</ele>
        <time>2020-07-14T00:44:31Z</time>
      </trkpt>
      <trkpt lat="42.574260" lon="1.792780">
        <ele>1660.423</ele>
        <time>2020-07-14T00:45:31Z</time>
      </trkpt>
      <trkpt lat="42.576700" lon="1.792270">
        <ele>1552.138</ele>
        <time>2020-07-14T00:46:11Z</time>
      </trkpt>
      <trkpt lat="42.578150" lon="1.792830">
        <ele>1514.669</ele>
        <time>2020-07-14T00:46:51Z</time>
      </trkpt>
      <trkpt lat="42.579130" lon="1.793950">
        <ele>1509.935</ele>
        <time>2020-07-14T00:47:11Z</time>
      </trkpt>
      <trkpt lat="42.581460" lon="1.795260">
        <ele>1489.231</ele>
        <time>2020-07-14T00:47:51Z</time>
      </trkpt>
      <trkpt lat="42.584350" lon="1.796070">
        <ele>1462.471</ele>
        <time>2020-07-14T00:48:31Z</time>
      </trkpt>
      <trkpt lat="42.586050" lon="1.795650">
        <ele>1447.441</ele>
        <time>2020-07-14T00:48:51Z</time>
      </trkpt>
      <trkpt lat="42.586700" lon="1.795850">
        <ele>1441.415</ele>
        <time>2020-07-14T00:49:11Z</time>
      </trkpt>
      <trkpt lat="42.588820" lon="1.798960">
        <ele>1426.208</ele>
        <time>2020-07-14T00:50:31Z</time>
      </trkpt>
      <trkpt lat="42.589880" lon="1.799950">
        <ele>1418.422</ele>
        <time>2020-07-14T00:50:51Z</time>
      </trkpt>
      <trkpt lat="42.591140" lon="1.803060">
        <ele>1405.899</ele>
        <time>2020-07-14T00:51:11Z</time>
      </trkpt>
      <trkpt lat="42.593810" lon="1.804450">
        <ele>1389.784</ele>
        <time>2020-07-14T00:52:51Z</time>
      </trkpt>
      <trkpt lat="42.595010" lon="1.807260">
        <ele>1394.037</ele>
        <time>2020-07-14T00:53:31Z</time>
      </trkpt>
      <trkpt lat="42.599710" lon="1.811010">
        <ele>1356.942</ele>
        <time>2020-07-14T00:54:31Z</time>
      </trkpt>
      <trkpt lat="42.603620" lon="1.812620">
        <ele>1327.633</ele>
        <time>2020-07-14T00:55:11Z</time>
      </trkpt>
      <trkpt lat="42.605890" lon="1.814270">
        <ele>1312.079</ele>
        <time>2020-07-14T00:55:51Z</time>
      </trkpt>
      <trkpt lat="42.606110" lon="1.815130">
        <ele>1315.095</ele>
        <time>2020-07-14T00:56:11Z</time>
      </trkpt>
      <trkpt lat="42.609150" lon="1.818130">
        <ele>1289.973</ele>
        <time>2020-07-14T00:57:31Z</time>
      </trkpt>
      <trkpt lat="42.613140" lon="1.820360">
        <ele>1267.285</ele>
        <time>2020-07-14T00:59:11Z</time>
      </trkpt>
      <trkpt lat="42.613380" lon="1.820100">
        <ele>1260.513</ele>
        <time>2020-07-14T00:59:31Z</time>
      </trkpt>
      <trkpt lat="42.611530" lon="1.819250">
        <ele>1254.508</ele>
        <time>2020-07-14T01:00:11Z</time>
      </trkpt>
      <trkpt lat="42.610140" lon="1.817920">
        <ele>1253.022</ele>
        <time>2020-07-14T01:00:51Z</time>
      </trkpt>
      <trkpt lat="42.610160" lon="1.817460">
        <ele>1247.319</ele>
        <time>2020-07-14T01:01:11Z</time>
      </trkpt>
      <trkpt lat="42.610570" lon="1.817270">
        <ele>1244.364</ele>
        <time>2020-07-14T01:01:31Z</time>
      </trkpt>
      <trkpt lat="42.612480" lon="1.818600">
        <ele>1237.967</ele>
        <time>2020-07-14T01:01:51Z</time>
      </trkpt>
      <trkpt lat="42.614010" lon="1.818420">
        <ele>1231.962</ele>
        <time>2020-07-14T01:02:11Z</time>
      </trkpt>
      <trkpt lat="42.615680" lon="1.819730">
        <ele>1226.333</ele>
        <time>2020-07-14T01:02:31Z</time>
      </trkpt>
      <trkpt lat="42.619350" lon="1.820550">
        <ele>1209.079</ele>
        <time>2020-07-14T01:03:31Z</time>
      </trkpt>
      <trkpt lat="42.621070" lon="1.822370">
        <ele>1198.755</ele>
        <time>2020-07-14T01:03:51Z</time>
      </trkpt>
      <trkpt lat="42.623090" lon="1.822360">
        <ele>1190.456</ele>
        <time>2020-07-14T01:04:11Z</time>
      </trkpt>
      <trkpt lat="42.624190" lon="1.823820">
        <ele>1185.159</ele>
        <time>2020-07-14T01:05:11Z</time>
      </trkpt>
      <trkpt lat="42.626500" lon="1.824650">
        <ele>1170.914</ele>
        <time>2020-07-14T01:05:31Z</time>
      </trkpt>
      <trkpt lat="42.627750" lon="1.825820">
        <ele>1165.208</ele>
        <time>2020-07-14T01:05:51Z</time>
      </trkpt>
      <trkpt lat="42.631760" lon="1.825850">
        <ele>1150.130</ele>
        <time>2020-07-14T01:06:51Z</time>
      </trkpt>
      <trkpt lat="42.633620" lon="1.827820">
        <ele>1137.087</ele>
        <time>2020-07-14T01:07:11Z</time>
      </trkpt>
      <trkpt lat="42.635420" lon="1.828910">
        <ele>1130.062</ele>
        <time>2020-07-14T01:07:31Z</time>
      </trkpt>
      <trkpt lat="42.639550" lon="1.830110">
        <ele>1120.295</ele>
        <time>2020-07-14T01:08:11Z</time>
      </trkpt>
      <trkpt lat="42.642420" lon="1.831840">
        <ele>1107.540</ele>
        <time>2020-07-14T01:08:31Z</time>
      </trkpt>
      <trkpt lat="42.646520" lon="1.832280">
        <ele>1092.481</ele>
        <time>2020-07-14T01:09:31Z</time>
      </trkpt>
      <trkpt lat="42.650690" lon="1.834680">
        <ele>1082.647</ele>
        <time>2020-07-14T01:09:51Z</time>
      </trkpt>
      <trkpt lat="42.652320" lon="1.835050">
        <ele>1080.393</ele>
        <time>2020-07-14T01:10:11Z</time>
      </trkpt>
      <trkpt lat="42.654460" lon="1.834960">
        <ele>1067.028</ele>
        <time>2020-07-14T01:10:31Z</time>
      </trkpt>
      <trkpt lat="42.655360" lon="1.835590">
        <ele>1062.989</ele>
        <time>2020-07-14T01:10:51Z</time>
      </trkpt>
      <trkpt lat="42.658350" lon="1.835750">
        <ele>1045.017</ele>
        <time>2020-07-14T01:11:51Z</time>
      </trkpt>
      <trkpt lat="42.661020" lon="1.836640">
        <ele>1043.608</ele>
        <time>2020-07-14T01:12:31Z</time>
      </trkpt>
      <trkpt lat="42.663470" lon="1.835310">
        <ele>1047.297</ele>
        <time>2020-07-14T01:12:51Z</time>
      </trkpt>
      <trkpt lat="42.663720" lon="1.834350">
        <ele>1031.874</ele>
        <time>2020-07-14T01:13:11Z</time>
      </trkpt>
      <trkpt lat="42.664920" lon="1.833800">
        <ele>1030.419</ele>
        <time>2020-07-14T01:13:51Z</time>
      </trkpt>
      <trkpt lat="42.665590" lon="1.834020">
        <ele>1030.262</ele>
        <time>2020-07-14T01:14:11Z</time>
      </trkpt>
      <trkpt lat="42.666680" lon="1.835240">
        <ele>1020.487</ele>
        <time>2020-07-14T01:14:31Z</time>
      </trkpt>
      <trkpt lat="42.673470" lon="1.835940">
        <ele>982.978</ele>
        <time>2020-07-14T01:16:11Z</time>
      </trkpt>
      <trkpt lat="42.674670" lon="1.835210">
        <ele>979.624</ele>
        <time>2020-07-14T01:16:31Z</time>
      </trkpt>
      <trkpt lat="42.675940" lon="1.835330">
        <ele>973.250</ele>
        <time>2020-07-14T01:16:51Z</time>
      </trkpt>
      <trkpt lat="42.676940" lon="1.834530">
        <ele>969.867</ele>
        <time>2020-07-14T01:17:11Z</time>
      </trkpt>
      <trkpt lat="42.679270" lon="1.830860">
        <ele>954.181</ele>
        <time>2020-07-14T01:17:31Z</time>
      </trkpt>
      <trkpt lat="42.681770" lon="1.828730">
        <ele>940.519</ele>
        <time>2020-07-14T01:17:51Z</time>
      </trkpt>
      <trkpt lat="42.682270" lon="1.827890">
        <ele>939.208</ele>
        <time>2020-07-14T01:18:11Z</time>
      </trkpt>
      <trkpt lat="42.683590" lon="1.826950">
        <ele>928.171</ele>
        <time>2020-07-14T01:18:51Z</time>
      </trkpt>
      <trkpt lat="42.684500" lon="1.824110">
        <ele>920.488</ele>
        <time>2020-07-14T01:19:11Z</time>
      </trkpt>
      <trkpt lat="42.686280" lon="1.823050">
        <ele>908.353</ele>
        <time>2020-07-14T01:19:51Z</time>
      </trkpt>
      <trkpt lat="42.687600" lon="1.824480">
        <ele>903.646</ele>
        <time>2020-07-14T01:20:31Z</time>
      </trkpt>
      <trkpt lat="42.688410" lon="1.824240">
        <ele>888.081</ele>
        <time>2020-07-14T01:20:51Z</time>
      </trkpt>
      <trkpt lat="42.691640" lon="1.825400">
        <ele>873.212</ele>
        <time>2020-07-14T01:21:31Z</time>
      </trkpt>
      <trkpt lat="42.691800" lon="1.826140">
        <ele>878.858</ele>
        <time>2020-07-14T01:21:51Z</time>
      </trkpt>
      <trkpt lat="42.692670" lon="1.827270">
        <ele>873.554</ele>
        <time>2020-07-14T01:22:31Z</time>
      </trkpt>
      <trkpt lat="42.692040" lon="1.829520">
        <ele>861.555</ele>
        <time>2020-07-14T01:22:51Z</time>
      </trkpt>
      <trkpt lat="42.692270" lon="1.831080">
        <ele>858.307</ele>
        <time>2020-07-14T01:23:31Z</time>
      </trkpt>
      <trkpt lat="42.694810" lon="1.833410">
        <ele>847.417</ele>
        <time>2020-07-14T01:23:51Z</time>
      </trkpt>
      <trkpt lat="42.696940" lon="1.834510">
        <ele>837.308</ele>
        <time>2020-07-14T01:24:11Z</time>
      </trkpt>
      <trkpt lat="42.698570" lon="1.834710">
        <ele>839.280</ele>
        <time>2020-07-14T01:24:31Z</time>
      </trkpt>
      <trkpt lat="42.700700" lon="1.834220">
        <ele>836.137</ele>
        <time>2020-07-14T01:25:11Z</time>
      </trkpt>
      <trkpt lat="42.703290" lon="1.835060">
        <ele>814.442</ele>
        <time>2020-07-14T01:25:31Z</time>
      </trkpt>
      <trkpt lat="42.705110" lon="1.836510">
        <ele>806.375</ele>
        <time>2020-07-14T01:25:51Z</time>
      </trkpt>
      <trkpt lat="42.706070" lon="1.836830">
        <ele>798.880</ele>
        <time>2020-07-14T01:26:31Z</time>
      </trkpt>
      <trkpt lat="42.707030" lon="1.836510">
        <ele>797.721</ele>
        <time>2020-07-14T01:26:51Z</time>
      </trkpt>
      <trkpt lat="42.707510" lon="1.836930">
        <ele>798.527</ele>
        <time>2020-07-14T01:27:11Z</time>
      </trkpt>
      <trkpt lat="42.709630" lon="1.837330">
        <ele>788.333</ele>
        <time>2020-07-14T01:27:31Z</time>
      </trkpt>
      <trkpt lat="42.710580" lon="1.838110">
        <ele>777.372</ele>
        <time>2020-07-14T01:27:51Z</time>
      </trkpt>
      <trkpt lat="42.711830" lon="1.838070">
        <ele>771.613</ele>
        <time>2020-07-14T01:28:11Z</time>
      </trkpt>
      <trkpt lat="42.713300" lon="1.838730">
        <ele>770.614</ele>
        <time>2020-07-14T01:28:31Z</time>
      </trkpt>
      <trkpt lat="42.714290" lon="1.840700">
        <ele>752.208</ele>
        <time>2020-07-14T01:28:51Z</time>
      </trkpt>
      <trkpt lat="42.715480" lon="1.840340">
        <ele>747.332</ele>
        <time>2020-07-14T01:29:11Z</time>
      </trkpt>
      <trkpt lat="42.719640" lon="1.840480">
        <ele>723.669</ele>
        <time>2020-07-14T01:29:51Z</time>
      </trkpt>
      <trkpt lat="42.720040" lon="1.839660">
        <ele>717.934</ele>
        <time>2020-07-14T01:30:11Z</time>
      </trkpt>
      <trkpt lat="42.720430" lon="1.839820">
        <ele>719.987</ele>
        <time>2020-07-14T01:30:31Z</time>
      </trkpt>
      <trkpt lat="42.721340" lon="1.837790">
        <ele>715.952</ele>
        <time>2020-07-14T01:30:51Z</time>
      </trkpt>
      <trkpt lat="42.723030" lon="1.835330">
        <ele>703.183</ele>
        <time>2020-07-14T01:31:11Z</time>
      </trkpt>
      <trkpt lat="42.722580" lon="1.834810">
        <ele>700.589</ele>
        <time>2020-07-14T01:31:31Z</time>
      </trkpt>
      <trkpt lat="42.721590" lon="1.836440">
        <ele>708.495</ele>
        <time>2020-07-14T01:31:51Z</time>
      </trkpt>
      <trkpt lat="42.720020" lon="1.836380">
        <ele>709.043</ele>
        <time>2020-07-14T01:32:31Z</time>
      </trkpt>
      <trkpt lat="42.719950" lon="1.836880">
        <ele>709.864</ele>
        <time>2020-07-14T01:32:51Z</time>
      </trkpt>
      <trkpt lat="42.719440" lon="1.836890">
        <ele>709.910</ele>
        <time>2020-07-14T01:33:11Z</time>
      </trkpt>
      <trkpt lat="42.719210" lon="1.837430">
        <ele>714.408</ele>
        <time>2020-07-14T01:33:31Z</time>
      </trkpt>
      <trkpt lat="42.719580" lon="1.837780">
        <ele>714.099</ele>
        <time>2020-07-14T01:33:51Z</time>
      </trkpt>
      <trkpt lat="42.719780" lon="1.837540">
        <ele>711.986</ele>
        <time>2020-07-14T01:34:11Z</time>
      </trkpt>
      <trkpt lat="42.720040" lon="1.838070">
        <ele>713.111</ele>
        <time>2020-07-14T01:34:31Z</time>
      </trkpt>
      <trkpt lat="42.720370" lon="1.837760">
        <ele>712.264</ele>
        <time>2020-07-14T01:34:51Z</time>
      </trkpt>
      <trkpt lat="42.720370" lon="1.837760">
        <ele>712.222</ele>
        <time>2020-07-13T21:18:26Z</time>
      </trkpt>
      <trkpt lat="42.720660" lon="1.837470">
        <ele>711.362</ele>
        <time>2020-07-13T21:18:46Z</time>
      </trkpt>
      <trkpt lat="42.719950" lon="1.836880">
        <ele>709.808</ele>
        <time>2020-07-13T21:19:46Z</time>
      </trkpt>
      <trkpt lat="42.720020" lon="1.836380">
        <ele>709.008</ele>
        <time>2020-07-13T21:20:06Z</time>
      </trkpt>
      <trkpt lat="42.721590" lon="1.836440">
        <ele>708.447</ele>
        <time>2020-07-13T21:20:46Z</time>
      </trkpt>
      <trkpt lat="42.722550" lon="1.834810">
        <ele>700.674</ele>
        <time>2020-07-13T21:21:06Z</time>
      </trkpt>
      <trkpt lat="42.723030" lon="1.835330">
        <ele>703.139</ele>
        <time>2020-07-13T21:21:26Z</time>
      </trkpt>
      <trkpt lat="42.726860" lon="1.829920">
        <ele>696.552</ele>
        <time>2020-07-13T21:22:06Z</time>
      </trkpt>
      <trkpt lat="42.729020" lon="1.825390">
        <ele>695.927</ele>
        <time>2020-07-13T21:22:26Z</time>
      </trkpt>
      <trkpt lat="42.729680" lon="1.821950">
        <ele>690.058</ele>
        <time>2020-07-13T21:23:06Z</time>
      </trkpt>
      <trkpt lat="42.729130" lon="1.816800">
        <ele>680.059</ele>
        <time>2020-07-13T21:24:06Z</time>
      </trkpt>
      <trkpt lat="42.732220" lon="1.807300">
        <ele>670.064</ele>
        <time>2020-07-13T21:24:46Z</time>
      </trkpt>
      <trkpt lat="42.733530" lon="1.805560">
        <ele>670.098</ele>
        <time>2020-07-13T21:25:26Z</time>
      </trkpt>
      <trkpt lat="42.735720" lon="1.799690">
        <ele>669.515</ele>
        <time>2020-07-13T21:25:46Z</time>
      </trkpt>
      <trkpt lat="42.736850" lon="1.797640">
        <ele>667.126</ele>
        <time>2020-07-13T21:26:06Z</time>
      </trkpt>
      <trkpt lat="42.737750" lon="1.794460">
        <ele>660.208</ele>
        <time>2020-07-13T21:26:26Z</time>
      </trkpt>
      <trkpt lat="42.741140" lon="1.789450">
        <ele>643.294</ele>
        <time>2020-07-13T21:26:46Z</time>
      </trkpt>
      <trkpt lat="42.742760" lon="1.784490">
        <ele>628.641</ele>
        <time>2020-07-13T21:27:26Z</time>
      </trkpt>
      <trkpt lat="42.742430" lon="1.783610">
        <ele>634.846</ele>
        <time>2020-07-13T21:28:06Z</time>
      </trkpt>
      <trkpt lat="42.743090" lon="1.782450">
        <ele>636.389</ele>
        <time>2020-07-13T21:28:26Z</time>
      </trkpt>
      <trkpt lat="42.743550" lon="1.779100">
        <ele>647.264</ele>
        <time>2020-07-13T21:29:06Z</time>
      </trkpt>
      <trkpt lat="42.744710" lon="1.778290">
        <ele>659.035</ele>
        <time>2020-07-13T21:29:26Z</time>
      </trkpt>
      <trkpt lat="42.745640" lon="1.776780">
        <ele>655.936</ele>
        <time>2020-07-13T21:29:46Z</time>
      </trkpt>
      <trkpt lat="42.748080" lon="1.774740">
        <ele>658.721</ele>
        <time>2020-07-13T21:30:06Z</time>
      </trkpt>
      <trkpt lat="42.749410" lon="1.772960">
        <ele>663.475</ele>
        <time>2020-07-13T21:30:26Z</time>
      </trkpt>
      <trkpt lat="42.754970" lon="1.770330">
        <ele>630.228</ele>
        <time>2020-07-13T21:30:46Z</time>
      </trkpt>
      <trkpt lat="42.756620" lon="1.770520">
        <ele>619.420</ele>
        <time>2020-07-13T21:31:26Z</time>
      </trkpt>
      <trkpt lat="42.758600" lon="1.768660">
        <ele>615.208</ele>
        <time>2020-07-13T21:31:46Z</time>
      </trkpt>
      <trkpt lat="42.760230" lon="1.764570">
        <ele>612.542</ele>
        <time>2020-07-13T21:32:26Z</time>
      </trkpt>
      <trkpt lat="42.760450" lon="1.762420">
        <ele>608.769</ele>
        <time>2020-07-13T21:32:46Z</time>
      </trkpt>
      <trkpt lat="42.761260" lon="1.761190">
        <ele>604.564</ele>
        <time>2020-07-13T21:33:06Z</time>
      </trkpt>
      <trkpt lat="42.765700" lon="1.749200">
        <ele>582.857</ele>
        <time>2020-07-13T21:34:26Z</time>
      </trkpt>
      <trkpt lat="42.766010" lon="1.746170">
        <ele>580.952</ele>
        <time>2020-07-13T21:35:06Z</time>
      </trkpt>
      <trkpt lat="42.768250" lon="1.741990">
        <ele>588.343</ele>
        <time>2020-07-13T21:35:46Z</time>
      </trkpt>
      <trkpt lat="42.768690" lon="1.739390">
        <ele>598.744</ele>
        <time>2020-07-13T21:36:06Z</time>
      </trkpt>
      <trkpt lat="42.770490" lon="1.736100">
        <ele>617.349</ele>
        <time>2020-07-13T21:36:46Z</time>
      </trkpt>
      <trkpt lat="42.770260" lon="1.733850">
        <ele>599.941</ele>
        <time>2020-07-13T21:37:26Z</time>
      </trkpt>
      <trkpt lat="42.770690" lon="1.732020">
        <ele>593.381</ele>
        <time>2020-07-13T21:37:46Z</time>
      </trkpt>
      <trkpt lat="42.772230" lon="1.708780">
        <ele>559.709</ele>
        <time>2020-07-13T21:38:06Z</time>
      </trkpt>
      <trkpt lat="42.773870" lon="1.700910">
        <ele>564.408</ele>
        <time>2020-07-13T21:38:46Z</time>
      </trkpt>
      <trkpt lat="42.775850" lon="1.696990">
        <ele>556.639</ele>
        <time>2020-07-13T21:39:26Z</time>
      </trkpt>
      <trkpt lat="42.785770" lon="1.694290">
        <ele>533.176</ele>
        <time>2020-07-13T21:40:46Z</time>
      </trkpt>
      <trkpt lat="42.786960" lon="1.693350">
        <ele>531.471</ele>
        <time>2020-07-13T21:41:06Z</time>
      </trkpt>
      <trkpt lat="42.789590" lon="1.689090">
        <ele>530.054</ele>
        <time>2020-07-13T21:41:46Z</time>
      </trkpt>
      <trkpt lat="42.790580" lon="1.684760">
        <ele>531.159</ele>
        <time>2020-07-13T21:42:06Z</time>
      </trkpt>
      <trkpt lat="42.793570" lon="1.679330">
        <ele>523.520</ele>
        <time>2020-07-13T21:42:46Z</time>
      </trkpt>
      <trkpt lat="42.794830" lon="1.674580">
        <ele>519.411</ele>
        <time>2020-07-13T21:43:06Z</time>
      </trkpt>
      <trkpt lat="42.797700" lon="1.668210">
        <ele>511.386</ele>
        <time>2020-07-13T21:43:26Z</time>
      </trkpt>
      <trkpt lat="42.800830" lon="1.651520">
        <ele>505.617</ele>
        <time>2020-07-13T21:44:26Z</time>
      </trkpt>
      <trkpt lat="42.809680" lon="1.640320">
        <ele>499.387</ele>
        <time>2020-07-13T21:44:46Z</time>
      </trkpt>
      <trkpt lat="42.818420" lon="1.623600">
        <ele>490.115</ele>
        <time>2020-07-13T21:45:26Z</time>
      </trkpt>
      <trkpt lat="42.819750" lon="1.622070">
        <ele>490.008</ele>
        <time>2020-07-13T21:46:06Z</time>
      </trkpt>
      <trkpt lat="42.825940" lon="1.617590">
        <ele>483.346</ele>
        <time>2020-07-13T21:46:46Z</time>
      </trkpt>
      <trkpt lat="42.830770" lon="1.610110">
        <ele>490.723</ele>
        <time>2020-07-13T21:47:26Z</time>
      </trkpt>
      <trkpt lat="42.833430" lon="1.607700">
        <ele>492.748</ele>
        <time>2020-07-13T21:48:06Z</time>
      </trkpt>
      <trkpt lat="42.834930" lon="1.607180">
        <ele>492.321</ele>
        <time>2020-07-13T21:48:26Z</time>
      </trkpt>
      <trkpt lat="42.837160" lon="1.605510">
        <ele>486.456</ele>
        <time>2020-07-13T21:49:06Z</time>
      </trkpt>
      <trkpt lat="42.837910" lon="1.604370">
        <ele>484.947</ele>
        <time>2020-07-13T21:49:26Z</time>
      </trkpt>
      <trkpt lat="42.834870" lon="1.600780">
        <ele>500.318</ele>
        <time>2020-07-13T21:50:46Z</time>
      </trkpt>
      <trkpt lat="42.833910" lon="1.598940">
        <ele>504.833</ele>
        <time>2020-07-13T21:51:06Z</time>
      </trkpt>
      <trkpt lat="42.833260" lon="1.596460">
        <ele>505.179</ele>
        <time>2020-07-13T21:51:26Z</time>
      </trkpt>
      <trkpt lat="42.831510" lon="1.593540">
        <ele>512.405</ele>
        <time>2020-07-13T21:52:06Z</time>
      </trkpt>
      <trkpt lat="42.830620" lon="1.593010">
        <ele>513.125</ele>
        <time>2020-07-13T21:52:26Z</time>
      </trkpt>
      <trkpt lat="42.829480" lon="1.591210">
        <ele>514.508</ele>
        <time>2020-07-13T21:53:06Z</time>
      </trkpt>
      <trkpt lat="42.824350" lon="1.591250">
        <ele>528.532</ele>
        <time>2020-07-13T21:54:06Z</time>
      </trkpt>
      <trkpt lat="42.821260" lon="1.590330">
        <ele>539.089</ele>
        <time>2020-07-13T21:54:46Z</time>
      </trkpt>
      <trkpt lat="42.817880" lon="1.591550">
        <ele>540.974</ele>
        <time>2020-07-13T21:55:06Z</time>
      </trkpt>
      <trkpt lat="42.815020" lon="1.591700">
        <ele>547.137</ele>
        <time>2020-07-13T21:55:26Z</time>
      </trkpt>
      <trkpt lat="42.809990" lon="1.590880">
        <ele>550.452</ele>
        <time>2020-07-13T21:55:46Z</time>
      </trkpt>
      <trkpt lat="42.808190" lon="1.590130">
        <ele>550.983</ele>
        <time>2020-07-13T21:56:06Z</time>
      </trkpt>
      <trkpt lat="42.806000" lon="1.590910">
        <ele>558.044</ele>
        <time>2020-07-13T21:56:46Z</time>
      </trkpt>
      <trkpt lat="42.799240" lon="1.588240">
        <ele>572.599</ele>
        <time>2020-07-13T21:57:46Z</time>
      </trkpt>
      <trkpt lat="42.797510" lon="1.586390">
        <ele>585.946</ele>
        <time>2020-07-13T21:58:26Z</time>
      </trkpt>
      <trkpt lat="42.795370" lon="1.585100">
        <ele>590.088</ele>
        <time>2020-07-13T21:58:46Z</time>
      </trkpt>
      <trkpt lat="42.793950" lon="1.583110">
        <ele>593.816</ele>
        <time>2020-07-13T21:59:26Z</time>
      </trkpt>
      <trkpt lat="42.790710" lon="1.574260">
        <ele>592.008</ele>
        <time>2020-07-13T21:59:46Z</time>
      </trkpt>
      <trkpt lat="42.790140" lon="1.573460">
        <ele>600.229</ele>
        <time>2020-07-13T22:00:06Z</time>
      </trkpt>
      <trkpt lat="42.789240" lon="1.569300">
        <ele>603.956</ele>
        <time>2020-07-13T22:00:26Z</time>
      </trkpt>
      <trkpt lat="42.785280" lon="1.560880">
        <ele>623.381</ele>
        <time>2020-07-13T22:00:46Z</time>
      </trkpt>
      <trkpt lat="42.784070" lon="1.559810">
        <ele>631.634</ele>
        <time>2020-07-13T22:01:46Z</time>
      </trkpt>
      <trkpt lat="42.783830" lon="1.556730">
        <ele>635.869</ele>
        <time>2020-07-13T22:02:26Z</time>
      </trkpt>
      <trkpt lat="42.784510" lon="1.547780">
        <ele>649.380</ele>
        <time>2020-07-13T22:02:46Z</time>
      </trkpt>
      <trkpt lat="42.781700" lon="1.541240">
        <ele>675.521</ele>
        <time>2020-07-13T22:04:06Z</time>
      </trkpt>
      <trkpt lat="42.781350" lon="1.538870">
        <ele>666.236</ele>
        <time>2020-07-13T22:04:26Z</time>
      </trkpt>
      <trkpt lat="42.780570" lon="1.537000">
        <ele>673.089</ele>
        <time>2020-07-13T22:04:46Z</time>
      </trkpt>
      <trkpt lat="42.779020" lon="1.529170">
        <ele>680.506</ele>
        <time>2020-07-13T22:05:26Z</time>
      </trkpt>
      <trkpt lat="42.775130" lon="1.519100">
        <ele>694.126</ele>
        <time>2020-07-13T22:06:06Z</time>
      </trkpt>
      <trkpt lat="42.774660" lon="1.513920">
        <ele>698.008</ele>
        <time>2020-07-13T22:06:26Z</time>
      </trkpt>
      <trkpt lat="42.772960" lon="1.511530">
        <ele>704.323</ele>
        <time>2020-07-13T22:07:06Z</time>
      </trkpt>
      <trkpt lat="42.770840" lon="1.505460">
        <ele>700.030</ele>
        <time>2020-07-13T22:07:26Z</time>
      </trkpt>
      <trkpt lat="42.767720" lon="1.501540">
        <ele>707.415</ele>
        <time>2020-07-13T22:08:06Z</time>
      </trkpt>
      <trkpt lat="42.767800" lon="1.500510">
        <ele>706.818</ele>
        <time>2020-07-13T22:08:26Z</time>
      </trkpt>
      <trkpt lat="42.768140" lon="1.500460">
        <ele>702.673</ele>
        <time>2020-07-13T22:08:46Z</time>
      </trkpt>
      <trkpt lat="42.769180" lon="1.497290">
        <ele>705.864</ele>
        <time>2020-07-13T22:09:46Z</time>
      </trkpt>
      <trkpt lat="42.769700" lon="1.493620">
        <ele>709.945</ele>
        <time>2020-07-13T22:11:06Z</time>
      </trkpt>
      <trkpt lat="42.771240" lon="1.492610">
        <ele>721.510</ele>
        <time>2020-07-13T22:11:46Z</time>
      </trkpt>
      <trkpt lat="42.771750" lon="1.491560">
        <ele>727.044</ele>
        <time>2020-07-13T22:12:06Z</time>
      </trkpt>
      <trkpt lat="42.772530" lon="1.492180">
        <ele>735.905</ele>
        <time>2020-07-13T22:13:26Z</time>
      </trkpt>
      <trkpt lat="42.772650" lon="1.490520">
        <ele>750.015</ele>
        <time>2020-07-13T22:13:46Z</time>
      </trkpt>
      <trkpt lat="42.774440" lon="1.486260">
        <ele>774.508</ele>
        <time>2020-07-13T22:14:46Z</time>
      </trkpt>
      <trkpt lat="42.777280" lon="1.482960">
        <ele>812.799</ele>
        <time>2020-07-13T22:15:46Z</time>
      </trkpt>
      <trkpt lat="42.777890" lon="1.481030">
        <ele>827.956</ele>
        <time>2020-07-13T22:16:06Z</time>
      </trkpt>
      <trkpt lat="42.779120" lon="1.479950">
        <ele>850.091</ele>
        <time>2020-07-13T22:16:26Z</time>
      </trkpt>
      <trkpt lat="42.779260" lon="1.477250">
        <ele>861.034</ele>
        <time>2020-07-13T22:17:06Z</time>
      </trkpt>
      <trkpt lat="42.781300" lon="1.470900">
        <ele>909.739</ele>
        <time>2020-07-13T22:18:06Z</time>
      </trkpt>
      <trkpt lat="42.781540" lon="1.469190">
        <ele>921.350</ele>
        <time>2020-07-13T22:18:26Z</time>
      </trkpt>
      <trkpt lat="42.786230" lon="1.463190">
        <ele>953.151</ele>
        <time>2020-07-13T22:20:06Z</time>
      </trkpt>
      <trkpt lat="42.787610" lon="1.458950">
        <ele>965.466</ele>
        <time>2020-07-13T22:21:26Z</time>
      </trkpt>
      <trkpt lat="42.789170" lon="1.456840">
        <ele>982.771</ele>
        <time>2020-07-13T22:22:06Z</time>
      </trkpt>
      <trkpt lat="42.789880" lon="1.454120">
        <ele>997.641</ele>
        <time>2020-07-13T22:22:46Z</time>
      </trkpt>
      <trkpt lat="42.796210" lon="1.447780">
        <ele>1059.115</ele>
        <time>2020-07-13T22:25:26Z</time>
      </trkpt>
      <trkpt lat="42.797460" lon="1.445620">
        <ele>1074.608</ele>
        <time>2020-07-13T22:26:06Z</time>
      </trkpt>
      <trkpt lat="42.800010" lon="1.444400">
        <ele>1098.892</ele>
        <time>2020-07-13T22:27:06Z</time>
      </trkpt>
      <trkpt lat="42.800990" lon="1.442300">
        <ele>1107.729</ele>
        <time>2020-07-13T22:27:26Z</time>
      </trkpt>
      <trkpt lat="42.800980" lon="1.444430">
        <ele>1113.664</ele>
        <time>2020-07-13T22:28:26Z</time>
      </trkpt>
      <trkpt lat="42.799410" lon="1.446800">
        <ele>1128.617</ele>
        <time>2020-07-13T22:29:06Z</time>
      </trkpt>
      <trkpt lat="42.801260" lon="1.446010">
        <ele>1150.112</ele>
        <time>2020-07-13T22:29:46Z</time>
      </trkpt>
      <trkpt lat="42.803040" lon="1.442990">
        <ele>1180.473</ele>
        <time>2020-07-13T22:30:06Z</time>
      </trkpt>
      <trkpt lat="42.803150" lon="1.440730">
        <ele>1188.034</ele>
        <time>2020-07-13T22:30:46Z</time>
      </trkpt>
      <trkpt lat="42.804410" lon="1.437200">
        <ele>1210.819</ele>
        <time>2020-07-13T22:31:46Z</time>
      </trkpt>
      <trkpt lat="42.806350" lon="1.434580">
        <ele>1236.263</ele>
        <time>2020-07-13T22:32:06Z</time>
      </trkpt>
      <trkpt lat="42.808410" lon="1.433300">
        <ele>1255.644</ele>
        <time>2020-07-13T22:32:46Z</time>
      </trkpt>
      <trkpt lat="42.808740" lon="1.431770">
        <ele>1266.318</ele>
        <time>2020-07-13T22:33:06Z</time>
      </trkpt>
      <trkpt lat="42.808320" lon="1.430410">
        <ele>1278.608</ele>
        <time>2020-07-13T22:33:26Z</time>
      </trkpt>
      <trkpt lat="42.807060" lon="1.429780">
        <ele>1285.671</ele>
        <time>2020-07-13T22:33:46Z</time>
      </trkpt>
      <trkpt lat="42.806470" lon="1.427950">
        <ele>1294.678</ele>
        <time>2020-07-13T22:34:06Z</time>
      </trkpt>
      <trkpt lat="42.806790" lon="1.424190">
        <ele>1337.693</ele>
        <time>2020-07-13T22:35:06Z</time>
      </trkpt>
      <trkpt lat="42.806440" lon="1.423990">
        <ele>1342.056</ele>
        <time>2020-07-13T22:35:26Z</time>
      </trkpt>
      <trkpt lat="42.805940" lon="1.424560">
        <ele>1348.881</ele>
        <time>2020-07-13T22:36:06Z</time>
      </trkpt>
      <trkpt lat="42.806390" lon="1.423040">
        <ele>1358.382</ele>
        <time>2020-07-13T22:36:26Z</time>
      </trkpt>
      <trkpt lat="42.805390" lon="1.424970">
        <ele>1356.023</ele>
        <time>2020-07-13T22:37:26Z</time>
      </trkpt>
      <trkpt lat="42.805630" lon="1.420340">
        <ele>1406.288</ele>
        <time>2020-07-13T22:38:26Z</time>
      </trkpt>
      <trkpt lat="42.806470" lon="1.420480">
        <ele>1416.356</ele>
        <time>2020-07-13T22:39:46Z</time>
      </trkpt>
      <trkpt lat="42.805890" lon="1.418800">
        <ele>1423.759</ele>
        <time>2020-07-13T22:40:26Z</time>
      </trkpt>
      <trkpt lat="42.805980" lon="1.416570">
        <ele>1445.614</ele>
        <time>2020-07-13T22:40:46Z</time>
      </trkpt>
      <trkpt lat="42.805490" lon="1.415980">
        <ele>1449.808</ele>
        <time>2020-07-13T22:41:26Z</time>
      </trkpt>
      <trkpt lat="42.805820" lon="1.415970">
        <ele>1451.070</ele>
        <time>2020-07-13T22:41:46Z</time>
      </trkpt>
      <trkpt lat="42.806830" lon="1.417510">
        <ele>1458.987</ele>
        <time>2020-07-13T22:42:26Z</time>
      </trkpt>
      <trkpt lat="42.807230" lon="1.420130">
        <ele>1474.362</ele>
        <time>2020-07-13T22:43:06Z</time>
      </trkpt>
      <trkpt lat="42.807460" lon="1.417660">
        <ele>1489.785</ele>
        <time>2020-07-13T22:43:46Z</time>
      </trkpt>
      <trkpt lat="42.806380" lon="1.412660">
        <ele>1510.830</ele>
        <time>2020-07-13T22:44:06Z</time>
      </trkpt>
      <trkpt lat="42.806690" lon="1.409980">
        <ele>1510.541</ele>
        <time>2020-07-13T22:44:46Z</time>
      </trkpt>
      <trkpt lat="42.805990" lon="1.409200">
        <ele>1502.142</ele>
        <time>2020-07-13T22:45:06Z</time>
      </trkpt>
      <trkpt lat="42.806050" lon="1.407850">
        <ele>1492.287</ele>
        <time>2020-07-13T22:45:26Z</time>
      </trkpt>
      <trkpt lat="42.805610" lon="1.406460">
        <ele>1482.378</ele>
        <time>2020-07-13T22:45:46Z</time>
      </trkpt>
      <trkpt lat="42.805910" lon="1.404380">
        <ele>1466.333</ele>
        <time>2020-07-13T22:46:06Z</time>
      </trkpt>
      <trkpt lat="42.805480" lon="1.400020">
        <ele>1446.326</ele>
        <time>2020-07-13T22:47:06Z</time>
      </trkpt>
      <trkpt lat="42.806090" lon="1.398780">
        <ele>1434.808</ele>
        <time>2020-07-13T22:47:46Z</time>
      </trkpt>
      <trkpt lat="42.807610" lon="1.398900">
        <ele>1431.582</ele>
        <time>2020-07-13T22:48:26Z</time>
      </trkpt>
      <trkpt lat="42.808930" lon="1.397920">
        <ele>1429.319</ele>
        <time>2020-07-13T22:48:46Z</time>
      </trkpt>
      <trkpt lat="42.810900" lon="1.394470">
        <ele>1424.564</ele>
        <time>2020-07-13T22:49:26Z</time>
      </trkpt>
      <trkpt lat="42.811810" lon="1.394070">
        <ele>1423.127</ele>
        <time>2020-07-13T22:49:46Z</time>
      </trkpt>
      <trkpt lat="42.812270" lon="1.393340">
        <ele>1422.882</ele>
        <time>2020-07-13T22:50:26Z</time>
      </trkpt>
      <trkpt lat="42.812000" lon="1.392770">
        <ele>1418.073</ele>
        <time>2020-07-13T22:50:46Z</time>
      </trkpt>
      <trkpt lat="42.811310" lon="1.392540">
        <ele>1410.814</ele>
        <time>2020-07-13T22:51:26Z</time>
      </trkpt>
      <trkpt lat="42.811160" lon="1.390720">
        <ele>1402.149</ele>
        <time>2020-07-13T22:52:06Z</time>
      </trkpt>
      <trkpt lat="42.809270" lon="1.392920">
        <ele>1385.738</ele>
        <time>2020-07-13T22:52:46Z</time>
      </trkpt>
      <trkpt lat="42.808360" lon="1.393160">
        <ele>1376.770</ele>
        <time>2020-07-13T22:53:26Z</time>
      </trkpt>
      <trkpt lat="42.807410" lon="1.392590">
        <ele>1371.417</ele>
        <time>2020-07-13T22:53:46Z</time>
      </trkpt>
      <trkpt lat="42.806850" lon="1.391590">
        <ele>1370.108</ele>
        <time>2020-07-13T22:54:06Z</time>
      </trkpt>
      <trkpt lat="42.807360" lon="1.389190">
        <ele>1351.088</ele>
        <time>2020-07-13T22:55:06Z</time>
      </trkpt>
      <trkpt lat="42.808210" lon="1.387530">
        <ele>1333.165</ele>
        <time>2020-07-13T22:56:06Z</time>
      </trkpt>
      <trkpt lat="42.808190" lon="1.386930">
        <ele>1331.590</ele>
        <time>2020-07-13T22:56:46Z</time>
      </trkpt>
      <trkpt lat="42.807680" lon="1.386550">
        <ele>1324.723</ele>
        <time>2020-07-13T22:57:06Z</time>
      </trkpt>
      <trkpt lat="42.807050" lon="1.384520">
        <ele>1305.168</ele>
        <time>2020-07-13T22:58:06Z</time>
      </trkpt>
      <trkpt lat="42.808240" lon="1.383370">
        <ele>1302.959</ele>
        <time>2020-07-13T22:58:46Z</time>
      </trkpt>
      <trkpt lat="42.808440" lon="1.381340">
        <ele>1306.860</ele>
        <time>2020-07-13T22:59:26Z</time>
      </trkpt>
      <trkpt lat="42.808900" lon="1.380410">
        <ele>1301.315</ele>
        <time>2020-07-13T22:59:46Z</time>
      </trkpt>
      <trkpt lat="42.808900" lon="1.378330">
        <ele>1285.877</ele>
        <time>2020-07-13T23:00:06Z</time>
      </trkpt>
      <trkpt lat="42.809670" lon="1.376940">
        <ele>1284.361</ele>
        <time>2020-07-13T23:00:26Z</time>
      </trkpt>
      <trkpt lat="42.809400" lon="1.374790">
        <ele>1278.227</ele>
        <time>2020-07-13T23:00:46Z</time>
      </trkpt>
      <trkpt lat="42.807190" lon="1.373420">
        <ele>1289.508</ele>
        <time>2020-07-13T23:01:46Z</time>
      </trkpt>
      <trkpt lat="42.807160" lon="1.372480">
        <ele>1293.082</ele>
        <time>2020-07-13T23:02:06Z</time>
      </trkpt>
      <trkpt lat="42.807890" lon="1.371410">
        <ele>1305.839</ele>
        <time>2020-07-13T23:03:06Z</time>
      </trkpt>
      <trkpt lat="42.804900" lon="1.371010">
        <ele>1328.114</ele>
        <time>2020-07-13T23:04:06Z</time>
      </trkpt>
      <trkpt lat="42.802450" lon="1.372700">
        <ele>1357.717</ele>
        <time>2020-07-13T23:05:26Z</time>
      </trkpt>
      <trkpt lat="42.802480" lon="1.373460">
        <ele>1373.452</ele>
        <time>2020-07-13T23:05:46Z</time>
      </trkpt>
      <trkpt lat="42.804530" lon="1.375000">
        <ele>1380.223</ele>
        <time>2020-07-13T23:06:46Z</time>
      </trkpt>
      <trkpt lat="42.803690" lon="1.374870">
        <ele>1386.684</ele>
        <time>2020-07-13T23:07:26Z</time>
      </trkpt>
      <trkpt lat="42.802880" lon="1.376270">
        <ele>1393.129</ele>
        <time>2020-07-13T23:08:06Z</time>
      </trkpt>
      <trkpt lat="42.802390" lon="1.374920">
        <ele>1402.676</ele>
        <time>2020-07-13T23:08:26Z</time>
      </trkpt>
      <trkpt lat="42.801130" lon="1.373260">
        <ele>1416.090</ele>
        <time>2020-07-13T23:08:46Z</time>
      </trkpt>
      <trkpt lat="42.798240" lon="1.372390">
        <ele>1444.719</ele>
        <time>2020-07-13T23:09:26Z</time>
      </trkpt>
      <trkpt lat="42.797950" lon="1.371420">
        <ele>1449.608</ele>
        <time>2020-07-13T23:09:46Z</time>
      </trkpt>
      <trkpt lat="42.798030" lon="1.369600">
        <ele>1463.792</ele>
        <time>2020-07-13T23:10:26Z</time>
      </trkpt>
      <trkpt lat="42.799200" lon="1.369780">
        <ele>1474.699</ele>
        <time>2020-07-13T23:11:06Z</time>
      </trkpt>
      <trkpt lat="42.799810" lon="1.369280">
        <ele>1485.394</ele>
        <time>2020-07-13T23:11:46Z</time>
      </trkpt>
      <trkpt lat="42.798830" lon="1.369070">
        <ele>1489.857</ele>
        <time>2020-07-13T23:12:06Z</time>
      </trkpt>
      <trkpt lat="42.797140" lon="1.367550">
        <ele>1510.842</ele>
        <time>2020-07-13T23:12:46Z</time>
      </trkpt>
      <trkpt lat="42.796650" lon="1.368930">
        <ele>1518.623</ele>
        <time>2020-07-13T23:13:06Z</time>
      </trkpt>
      <trkpt lat="42.795270" lon="1.369450">
        <ele>1531.154</ele>
        <time>2020-07-13T23:13:46Z</time>
      </trkpt>
      <trkpt lat="42.794530" lon="1.370990">
        <ele>1541.079</ele>
        <time>2020-07-13T23:14:26Z</time>
      </trkpt>
      <trkpt lat="42.794740" lon="1.372970">
        <ele>1556.778</ele>
        <time>2020-07-13T23:15:06Z</time>
      </trkpt>
      <trkpt lat="42.795360" lon="1.373200">
        <ele>1565.233</ele>
        <time>2020-07-13T23:15:46Z</time>
      </trkpt>
      <trkpt lat="42.794140" lon="1.373890">
        <ele>1575.726</ele>
        <time>2020-07-13T23:16:46Z</time>
      </trkpt>
      <trkpt lat="42.793540" lon="1.376470">
        <ele>1563.708</ele>
        <time>2020-07-13T23:17:26Z</time>
      </trkpt>
      <trkpt lat="42.793050" lon="1.376920">
        <ele>1555.472</ele>
        <time>2020-07-13T23:17:46Z</time>
      </trkpt>
      <trkpt lat="42.792590" lon="1.378360">
        <ele>1559.889</ele>
        <time>2020-07-13T23:18:26Z</time>
      </trkpt>
      <trkpt lat="42.792930" lon="1.375910">
        <ele>1530.794</ele>
        <time>2020-07-13T23:19:26Z</time>
      </trkpt>
      <trkpt lat="42.792290" lon="1.377780">
        <ele>1523.537</ele>
        <time>2020-07-13T23:19:46Z</time>
      </trkpt>
      <trkpt lat="42.790850" lon="1.378840">
        <ele>1498.792</ele>
        <time>2020-07-13T23:20:06Z</time>
      </trkpt>
      <trkpt lat="42.790040" lon="1.380080">
        <ele>1488.723</ele>
        <time>2020-07-13T23:20:46Z</time>
      </trkpt>
      <trkpt lat="42.790030" lon="1.381460">
        <ele>1483.014</ele>
        <time>2020-07-13T23:21:06Z</time>
      </trkpt>
      <trkpt lat="42.788280" lon="1.384100">
        <ele>1455.869</ele>
        <time>2020-07-13T23:21:46Z</time>
      </trkpt>
      <trkpt lat="42.787010" lon="1.384830">
        <ele>1445.596</ele>
        <time>2020-07-13T23:22:06Z</time>
      </trkpt>
      <trkpt lat="42.786020" lon="1.384800">
        <ele>1438.931</ele>
        <time>2020-07-13T23:22:26Z</time>
      </trkpt>
      <trkpt lat="42.785520" lon="1.385310">
        <ele>1432.724</ele>
        <time>2020-07-13T23:22:46Z</time>
      </trkpt>
      <trkpt lat="42.784830" lon="1.387390">
        <ele>1426.408</ele>
        <time>2020-07-13T23:23:26Z</time>
      </trkpt>
      <trkpt lat="42.783480" lon="1.389720">
        <ele>1417.774</ele>
        <time>2020-07-13T23:24:26Z</time>
      </trkpt>
      <trkpt lat="42.783020" lon="1.388360">
        <ele>1407.871</ele>
        <time>2020-07-13T23:25:26Z</time>
      </trkpt>
      <trkpt lat="42.783360" lon="1.387220">
        <ele>1400.046</ele>
        <time>2020-07-13T23:25:46Z</time>
      </trkpt>
      <trkpt lat="42.781800" lon="1.383080">
        <ele>1374.089</ele>
        <time>2020-07-13T23:27:06Z</time>
      </trkpt>
      <trkpt lat="42.780990" lon="1.382990">
        <ele>1369.044</ele>
        <time>2020-07-13T23:28:06Z</time>
      </trkpt>
      <trkpt lat="42.780910" lon="1.380860">
        <ele>1352.225</ele>
        <time>2020-07-13T23:28:46Z</time>
      </trkpt>
      <trkpt lat="42.778280" lon="1.380910">
        <ele>1338.736</ele>
        <time>2020-07-13T23:30:26Z</time>
      </trkpt>
      <trkpt lat="42.781510" lon="1.379000">
        <ele>1284.421</ele>
        <time>2020-07-13T23:32:26Z</time>
      </trkpt>
      <trkpt lat="42.780490" lon="1.379370">
        <ele>1282.712</ele>
        <time>2020-07-13T23:33:06Z</time>
      </trkpt>
      <trkpt lat="42.779950" lon="1.378910">
        <ele>1274.832</ele>
        <time>2020-07-13T23:33:26Z</time>
      </trkpt>
      <trkpt lat="42.779050" lon="1.379360">
        <ele>1273.705</ele>
        <time>2020-07-13T23:33:46Z</time>
      </trkpt>
      <trkpt lat="42.778290" lon="1.378940">
        <ele>1255.408</ele>
        <time>2020-07-13T23:34:26Z</time>
      </trkpt>
      <trkpt lat="42.779000" lon="1.379000">
        <ele>1258.186</ele>
        <time>2020-07-13T23:34:46Z</time>
      </trkpt>
      <trkpt lat="42.779890" lon="1.378260">
        <ele>1242.463</ele>
        <time>2020-07-13T23:35:46Z</time>
      </trkpt>
      <trkpt lat="42.777580" lon="1.378640">
        <ele>1224.288</ele>
        <time>2020-07-13T23:37:06Z</time>
      </trkpt>
      <trkpt lat="42.779150" lon="1.377740">
        <ele>1206.071</ele>
        <time>2020-07-13T23:38:06Z</time>
      </trkpt>
      <trkpt lat="42.777180" lon="1.377960">
        <ele>1179.496</ele>
        <time>2020-07-13T23:39:46Z</time>
      </trkpt>
      <trkpt lat="42.775050" lon="1.380400">
        <ele>1163.037</ele>
        <time>2020-07-13T23:40:46Z</time>
      </trkpt>
      <trkpt lat="42.774180" lon="1.380660">
        <ele>1152.848</ele>
        <time>2020-07-13T23:41:26Z</time>
      </trkpt>
      <trkpt lat="42.775020" lon="1.380050">
        <ele>1148.633</ele>
        <time>2020-07-13T23:41:46Z</time>
      </trkpt>
      <trkpt lat="42.776800" lon="1.376690">
        <ele>1113.173</ele>
        <time>2020-07-13T23:42:46Z</time>
      </trkpt>
      <trkpt lat="42.779900" lon="1.375420">
        <ele>1082.485</ele>
        <time>2020-07-13T23:44:06Z</time>
      </trkpt>
      <trkpt lat="42.780560" lon="1.374010">
        <ele>1066.213</ele>
        <time>2020-07-13T23:44:26Z</time>
      </trkpt>
      <trkpt lat="42.782240" lon="1.372830">
        <ele>1046.808</ele>
        <time>2020-07-13T23:45:26Z</time>
      </trkpt>
      <trkpt lat="42.783510" lon="1.370580">
        <ele>1032.132</ele>
        <time>2020-07-13T23:45:46Z</time>
      </trkpt>
      <trkpt lat="42.784360" lon="1.360100">
        <ele>938.139</ele>
        <time>2020-07-13T23:48:06Z</time>
      </trkpt>
      <trkpt lat="42.784090" lon="1.358500">
        <ele>919.834</ele>
        <time>2020-07-13T23:48:46Z</time>
      </trkpt>
      <trkpt lat="42.787640" lon="1.351430">
        <ele>847.487</ele>
        <time>2020-07-13T23:49:46Z</time>
      </trkpt>
      <trkpt lat="42.787720" lon="1.350150">
        <ele>829.552</ele>
        <time>2020-07-13T23:50:06Z</time>
      </trkpt>
      <trkpt lat="42.789150" lon="1.348100">
        <ele>812.523</ele>
        <time>2020-07-13T23:51:06Z</time>
      </trkpt>
      <trkpt lat="42.789520" lon="1.346940">
        <ele>799.984</ele>
        <time>2020-07-13T23:51:26Z</time>
      </trkpt>
      <trkpt lat="42.789230" lon="1.343960">
        <ele>775.049</ele>
        <time>2020-07-13T23:51:46Z</time>
      </trkpt>
      <trkpt lat="42.789950" lon="1.341890">
        <ele>765.864</ele>
        <time>2020-07-13T23:52:26Z</time>
      </trkpt>
      <trkpt lat="42.789050" lon="1.340600">
        <ele>753.706</ele>
        <time>2020-07-13T23:52:46Z</time>
      </trkpt>
      <trkpt lat="42.788940" lon="1.338670">
        <ele>746.216</ele>
        <time>2020-07-13T23:53:06Z</time>
      </trkpt>
      <trkpt lat="42.789320" lon="1.337150">
        <ele>743.208</ele>
        <time>2020-07-13T23:53:26Z</time>
      </trkpt>
      <trkpt lat="42.790090" lon="1.336320">
        <ele>740.011</ele>
        <time>2020-07-13T23:54:26Z</time>
      </trkpt>
      <trkpt lat="42.789520" lon="1.335910">
        <ele>740.058</ele>
        <time>2020-07-13T23:54:46Z</time>
      </trkpt>
      <trkpt lat="42.787440" lon="1.338270">
        <ele>776.733</ele>
        <time>2020-07-13T23:56:06Z</time>
      </trkpt>
      <trkpt lat="42.788290" lon="1.335090">
        <ele>799.196</ele>
        <time>2020-07-13T23:56:26Z</time>
      </trkpt>
      <trkpt lat="42.788470" lon="1.332910">
        <ele>822.351</ele>
        <time>2020-07-13T23:56:46Z</time>
      </trkpt>
      <trkpt lat="42.789240" lon="1.329920">
        <ele>839.452</ele>
        <time>2020-07-13T23:57:06Z</time>
      </trkpt>
      <trkpt lat="42.788320" lon="1.327830">
        <ele>855.343</ele>
        <time>2020-07-13T23:57:26Z</time>
      </trkpt>
      <trkpt lat="42.787160" lon="1.326470">
        <ele>863.498</ele>
        <time>2020-07-13T23:58:06Z</time>
      </trkpt>
      <trkpt lat="42.788330" lon="1.326110">
        <ele>869.062</ele>
        <time>2020-07-13T23:58:46Z</time>
      </trkpt>
      <trkpt lat="42.790810" lon="1.323720">
        <ele>901.883</ele>
        <time>2020-07-13T23:59:46Z</time>
      </trkpt>
      <trkpt lat="42.785910" lon="1.325390">
        <ele>942.111</ele>
        <time>2020-07-14T00:01:46Z</time>
      </trkpt>
      <trkpt lat="42.789610" lon="1.322400">
        <ele>974.908</ele>
        <time>2020-07-14T00:03:26Z</time>
      </trkpt>
      <trkpt lat="42.790050" lon="1.321420">
        <ele>981.851</ele>
        <time>2020-07-14T00:03:46Z</time>
      </trkpt>
      <trkpt lat="42.790040" lon="1.319990">
        <ele>989.058</ele>
        <time>2020-07-14T00:04:46Z</time>
      </trkpt>
      <trkpt lat="42.790510" lon="1.319950">
        <ele>991.393</ele>
        <time>2020-07-14T00:05:06Z</time>
      </trkpt>
      <trkpt lat="42.791210" lon="1.321000">
        <ele>988.786</ele>
        <time>2020-07-14T00:06:06Z</time>
      </trkpt>
      <trkpt lat="42.791990" lon="1.320290">
        <ele>1005.751</ele>
        <time>2020-07-14T00:06:26Z</time>
      </trkpt>
      <trkpt lat="42.793000" lon="1.320350">
        <ele>1009.352</ele>
        <time>2020-07-14T00:06:46Z</time>
      </trkpt>
      <trkpt lat="42.794870" lon="1.318890">
        <ele>1039.693</ele>
        <time>2020-07-14T00:07:46Z</time>
      </trkpt>
      <trkpt lat="42.794230" lon="1.319410">
        <ele>1037.958</ele>
        <time>2020-07-14T00:08:06Z</time>
      </trkpt>
      <trkpt lat="42.791160" lon="1.319340">
        <ele>1056.742</ele>
        <time>2020-07-14T00:09:26Z</time>
      </trkpt>
      <trkpt lat="42.793600" lon="1.318490">
        <ele>1086.422</ele>
        <time>2020-07-14T00:10:46Z</time>
      </trkpt>
      <trkpt lat="42.795420" lon="1.315760">
        <ele>1105.714</ele>
        <time>2020-07-14T00:11:26Z</time>
      </trkpt>
      <trkpt lat="42.795660" lon="1.311690">
        <ele>1103.008</ele>
        <time>2020-07-14T00:11:46Z</time>
      </trkpt>
      <trkpt lat="42.796300" lon="1.310700">
        <ele>1101.669</ele>
        <time>2020-07-14T00:12:06Z</time>
      </trkpt>
      <trkpt lat="42.796980" lon="1.308050">
        <ele>1089.126</ele>
        <time>2020-07-14T00:12:26Z</time>
      </trkpt>
      <trkpt lat="42.800580" lon="1.300850">
        <ele>1031.731</ele>
        <time>2020-07-14T00:13:46Z</time>
      </trkpt>
      <trkpt lat="42.801350" lon="1.295870">
        <ele>996.034</ele>
        <time>2020-07-14T00:14:06Z</time>
      </trkpt>
      <trkpt lat="42.801240" lon="1.293360">
        <ele>979.199</ele>
        <time>2020-07-14T00:14:26Z</time>
      </trkpt>
      <trkpt lat="42.802010" lon="1.286230">
        <ele>933.960</ele>
        <time>2020-07-14T00:15:06Z</time>
      </trkpt>
      <trkpt lat="42.802950" lon="1.282960">
        <ele>915.181</ele>
        <time>2020-07-14T00:15:26Z</time>
      </trkpt>
      <trkpt lat="42.803070" lon="1.281130">
        <ele>897.956</ele>
        <time>2020-07-14T00:15:46Z</time>
      </trkpt>
      <trkpt lat="42.804620" lon="1.275620">
        <ele>860.398</ele>
        <time>2020-07-14T00:17:26Z</time>
      </trkpt>
      <trkpt lat="42.805200" lon="1.274630">
        <ele>855.015</ele>
        <time>2020-07-14T00:17:46Z</time>
      </trkpt>
      <trkpt lat="42.803140" lon="1.277500">
        <ele>829.426</ele>
        <time>2020-07-14T00:18:46Z</time>
      </trkpt>
      <trkpt lat="42.803600" lon="1.275170">
        <ele>805.708</ele>
        <time>2020-07-14T00:19:26Z</time>
      </trkpt>
      <trkpt lat="42.807330" lon="1.270000">
        <ele>762.574</ele>
        <time>2020-07-14T00:19:46Z</time>
      </trkpt>
      <trkpt lat="42.801760" lon="1.273900">
        <ele>713.131</ele>
        <time>2020-07-14T00:21:06Z</time>
      </trkpt>
      <trkpt lat="42.802500" lon="1.272310">
        <ele>699.386</ele>
        <time>2020-07-14T00:21:46Z</time>
      </trkpt>
      <trkpt lat="42.802640" lon="1.270840">
        <ele>694.039</ele>
        <time>2020-07-14T00:22:06Z</time>
      </trkpt>
      <trkpt lat="42.803350" lon="1.270130">
        <ele>692.014</ele>
        <time>2020-07-14T00:22:26Z</time>
      </trkpt>
      <trkpt lat="42.804040" lon="1.267040">
        <ele>690.755</ele>
        <time>2020-07-14T00:23:06Z</time>
      </trkpt>
      <trkpt lat="42.808220" lon="1.259200">
        <ele>683.546</ele>
        <time>2020-07-14T00:24:26Z</time>
      </trkpt>
      <trkpt lat="42.809960" lon="1.257600">
        <ele>674.841</ele>
        <time>2020-07-14T00:25:06Z</time>
      </trkpt>
      <trkpt lat="42.812040" lon="1.253860">
        <ele>673.556</ele>
        <time>2020-07-14T00:25:26Z</time>
      </trkpt>
      <trkpt lat="42.813600" lon="1.252810">
        <ele>666.559</ele>
        <time>2020-07-14T00:26:06Z</time>
      </trkpt>
      <trkpt lat="42.814740" lon="1.251440">
        <ele>664.814</ele>
        <time>2020-07-14T00:26:26Z</time>
      </trkpt>
      <trkpt lat="42.815050" lon="1.249200">
        <ele>666.308</ele>
        <time>2020-07-14T00:27:06Z</time>
      </trkpt>
      <trkpt lat="42.815870" lon="1.248290">
        <ele>662.380</ele>
        <time>2020-07-14T00:27:26Z</time>
      </trkpt>
      <trkpt lat="42.816500" lon="1.245500">
        <ele>665.227</ele>
        <time>2020-07-14T00:27:46Z</time>
      </trkpt>
      <trkpt lat="42.820570" lon="1.239750">
        <ele>650.082</ele>
        <time>2020-07-14T00:28:46Z</time>
      </trkpt>
      <trkpt lat="42.822260" lon="1.235940">
        <ele>651.635</ele>
        <time>2020-07-14T00:29:06Z</time>
      </trkpt>
      <trkpt lat="42.823840" lon="1.234260">
        <ele>649.290</ele>
        <time>2020-07-14T00:29:26Z</time>
      </trkpt>
      <trkpt lat="42.824960" lon="1.232150">
        <ele>647.791</ele>
        <time>2020-07-14T00:29:46Z</time>
      </trkpt>
      <trkpt lat="42.825990" lon="1.231830">
        <ele>644.112</ele>
        <time>2020-07-14T00:30:46Z</time>
      </trkpt>
      <trkpt lat="42.827170" lon="1.230330">
        <ele>640.287</ele>
        <time>2020-07-14T00:31:26Z</time>
      </trkpt>
      <trkpt lat="42.827770" lon="1.228340">
        <ele>635.292</ele>
        <time>2020-07-14T00:32:06Z</time>
      </trkpt>
      <trkpt lat="42.829710" lon="1.225720">
        <ele>628.173</ele>
        <time>2020-07-14T00:32:46Z</time>
      </trkpt>
      <trkpt lat="42.830220" lon="1.219650">
        <ele>613.620</ele>
        <time>2020-07-14T00:34:06Z</time>
      </trkpt>
      <trkpt lat="42.830550" lon="1.219140">
        <ele>615.508</ele>
        <time>2020-07-14T00:34:26Z</time>
      </trkpt>
      <trkpt lat="42.831360" lon="1.219130">
        <ele>611.454</ele>
        <time>2020-07-14T00:35:06Z</time>
      </trkpt>
      <trkpt lat="42.832070" lon="1.217420">
        <ele>603.611</ele>
        <time>2020-07-14T00:35:46Z</time>
      </trkpt>
      <trkpt lat="42.831810" lon="1.215190">
        <ele>601.876</ele>
        <time>2020-07-14T00:36:46Z</time>
      </trkpt>
      <trkpt lat="42.832710" lon="1.213320">
        <ele>592.299</ele>
        <time>2020-07-14T00:37:26Z</time>
      </trkpt>
      <trkpt lat="42.832720" lon="1.211210">
        <ele>590.064</ele>
        <time>2020-07-14T00:37:46Z</time>
      </trkpt>
      <trkpt lat="42.833180" lon="1.209430">
        <ele>585.985</ele>
        <time>2020-07-14T00:38:26Z</time>
      </trkpt>
      <trkpt lat="42.834210" lon="1.208060">
        <ele>581.146</ele>
        <time>2020-07-14T00:39:06Z</time>
      </trkpt>
      <trkpt lat="42.832270" lon="1.204980">
        <ele>574.141</ele>
        <time>2020-07-14T00:40:06Z</time>
      </trkpt>
      <trkpt lat="42.832200" lon="1.203220">
        <ele>571.966</ele>
        <time>2020-07-14T00:40:26Z</time>
      </trkpt>
      <trkpt lat="42.832780" lon="1.200470">
        <ele>573.529</ele>
        <time>2020-07-14T00:40:46Z</time>
      </trkpt>
      <trkpt lat="42.832030" lon="1.198480">
        <ele>567.621</ele>
        <time>2020-07-14T00:41:06Z</time>
      </trkpt>
      <trkpt lat="42.833760" lon="1.198020">
        <ele>561.408</ele>
        <time>2020-07-14T00:41:26Z</time>
      </trkpt>
      <trkpt lat="42.834840" lon="1.196240">
        <ele>559.511</ele>
        <time>2020-07-14T00:42:06Z</time>
      </trkpt>
      <trkpt lat="42.835820" lon="1.196290">
        <ele>558.288</ele>
        <time>2020-07-14T00:42:46Z</time>
      </trkpt>
      <trkpt lat="42.835970" lon="1.198220">
        <ele>560.333</ele>
        <time>2020-07-14T00:43:26Z</time>
      </trkpt>
      <trkpt lat="42.838550" lon="1.198380">
        <ele>550.686</ele>
        <time>2020-07-14T00:44:26Z</time>
      </trkpt>
      <trkpt lat="42.839290" lon="1.196080">
        <ele>547.641</ele>
        <time>2020-07-14T00:45:06Z</time>
      </trkpt>
      <trkpt lat="42.841540" lon="1.193220">
        <ele>546.352</ele>
        <time>2020-07-14T00:45:26Z</time>
      </trkpt>
      <trkpt lat="42.842610" lon="1.191070">
        <ele>542.083</ele>
        <time>2020-07-14T00:46:06Z</time>
      </trkpt>
      <trkpt lat="42.847200" lon="1.192670">
        <ele>535.088</ele>
        <time>2020-07-14T00:47:26Z</time>
      </trkpt>
      <trkpt lat="42.848980" lon="1.191400">
        <ele>528.245</ele>
        <time>2020-07-14T00:47:46Z</time>
      </trkpt>
      <trkpt lat="42.849910" lon="1.192680">
        <ele>532.247</ele>
        <time>2020-07-14T00:48:46Z</time>
      </trkpt>
      <trkpt lat="42.852490" lon="1.193030">
        <ele>522.211</ele>
        <time>2020-07-14T00:49:26Z</time>
      </trkpt>
      <trkpt lat="42.853300" lon="1.193870">
        <ele>522.308</ele>
        <time>2020-07-14T00:50:06Z</time>
      </trkpt>
      <trkpt lat="42.854570" lon="1.196480">
        <ele>521.359</ele>
        <time>2020-07-14T00:50:46Z</time>
      </trkpt>
      <trkpt lat="42.859810" lon="1.198120">
        <ele>514.676</ele>
        <time>2020-07-14T00:51:26Z</time>
      </trkpt>
      <trkpt lat="42.863450" lon="1.201640">
        <ele>507.551</ele>
        <time>2020-07-14T00:52:06Z</time>
      </trkpt>
      <trkpt lat="42.864260" lon="1.201350">
        <ele>511.354</ele>
        <time>2020-07-14T00:52:46Z</time>
      </trkpt>
      <trkpt lat="42.865340" lon="1.199510">
        <ele>518.089</ele>
        <time>2020-07-14T00:53:06Z</time>
      </trkpt>
      <trkpt lat="42.865780" lon="1.195930">
        <ele>521.360</ele>
        <time>2020-07-14T00:54:06Z</time>
      </trkpt>
      <trkpt lat="42.868000" lon="1.191100">
        <ele>551.661</ele>
        <time>2020-07-14T00:55:06Z</time>
      </trkpt>
      <trkpt lat="42.868840" lon="1.190020">
        <ele>552.896</ele>
        <time>2020-07-14T00:55:26Z</time>
      </trkpt>
      <trkpt lat="42.870260" lon="1.186470">
        <ele>583.245</ele>
        <time>2020-07-14T00:56:46Z</time>
      </trkpt>
      <trkpt lat="42.871740" lon="1.185330">
        <ele>585.947</ele>
        <time>2020-07-14T00:57:26Z</time>
      </trkpt>
      <trkpt lat="42.871820" lon="1.184180">
        <ele>596.511</ele>
        <time>2020-07-14T00:58:06Z</time>
      </trkpt>
      <trkpt lat="42.872360" lon="1.184130">
        <ele>598.108</ele>
        <time>2020-07-14T00:58:26Z</time>
      </trkpt>
      <trkpt lat="42.873300" lon="1.182000">
        <ele>606.669</ele>
        <time>2020-07-14T00:59:06Z</time>
      </trkpt>
      <trkpt lat="42.873230" lon="1.179760">
        <ele>623.436</ele>
        <time>2020-07-14T00:59:26Z</time>
      </trkpt>
      <trkpt lat="42.874150" lon="1.178280">
        <ele>632.961</ele>
        <time>2020-07-14T01:00:26Z</time>
      </trkpt>
      <trkpt lat="42.874630" lon="1.178470">
        <ele>636.334</ele>
        <time>2020-07-14T01:01:06Z</time>
      </trkpt>
      <trkpt lat="42.875150" lon="1.180370">
        <ele>645.139</ele>
        <time>2020-07-14T01:01:26Z</time>
      </trkpt>
      <trkpt lat="42.875500" lon="1.180340">
        <ele>646.760</ele>
        <time>2020-07-14T01:02:06Z</time>
      </trkpt>
      <trkpt lat="42.875310" lon="1.179190">
        <ele>657.881</ele>
        <time>2020-07-14T01:02:26Z</time>
      </trkpt>
      <trkpt lat="42.875560" lon="1.177440">
        <ele>675.856</ele>
        <time>2020-07-14T01:02:46Z</time>
      </trkpt>
      <trkpt lat="42.874860" lon="1.176900">
        <ele>677.691</ele>
        <time>2020-07-14T01:03:26Z</time>
      </trkpt>
      <trkpt lat="42.875610" lon="1.173250">
        <ele>701.381</ele>
        <time>2020-07-14T01:04:06Z</time>
      </trkpt>
      <trkpt lat="42.875900" lon="1.175480">
        <ele>712.519</ele>
        <time>2020-07-14T01:04:26Z</time>
      </trkpt>
      <trkpt lat="42.876540" lon="1.175930">
        <ele>717.008</ele>
        <time>2020-07-14T01:05:06Z</time>
      </trkpt>
      <trkpt lat="42.876210" lon="1.175320">
        <ele>720.834</ele>
        <time>2020-07-14T01:05:26Z</time>
      </trkpt>
      <trkpt lat="42.876590" lon="1.172750">
        <ele>736.181</ele>
        <time>2020-07-14T01:05:46Z</time>
      </trkpt>
      <trkpt lat="42.876460" lon="1.170750">
        <ele>745.926</ele>
        <time>2020-07-14T01:06:06Z</time>
      </trkpt>
      <trkpt lat="42.876770" lon="1.169310">
        <ele>755.569</ele>
        <time>2020-07-14T01:06:26Z</time>
      </trkpt>
      <trkpt lat="42.876240" lon="1.167820">
        <ele>765.294</ele>
        <time>2020-07-14T01:07:26Z</time>
      </trkpt>
      <trkpt lat="42.877200" lon="1.166290">
        <ele>774.775</ele>
        <time>2020-07-14T01:08:26Z</time>
      </trkpt>
      <trkpt lat="42.877190" lon="1.164510">
        <ele>785.286</ele>
        <time>2020-07-14T01:09:06Z</time>
      </trkpt>
      <trkpt lat="42.876390" lon="1.163720">
        <ele>792.231</ele>
        <time>2020-07-14T01:09:26Z</time>
      </trkpt>
      <trkpt lat="42.875950" lon="1.162060">
        <ele>800.123</ele>
        <time>2020-07-14T01:09:46Z</time>
      </trkpt>
      <trkpt lat="42.875290" lon="1.161730">
        <ele>806.183</ele>
        <time>2020-07-14T01:10:06Z</time>
      </trkpt>
      <trkpt lat="42.874790" lon="1.162020">
        <ele>808.711</ele>
        <time>2020-07-14T01:10:26Z</time>
      </trkpt>
      <trkpt lat="42.873670" lon="1.161150">
        <ele>817.608</ele>
        <time>2020-07-14T01:11:06Z</time>
      </trkpt>
      <trkpt lat="42.872610" lon="1.162390">
        <ele>824.687</ele>
        <time>2020-07-14T01:11:46Z</time>
      </trkpt>
      <trkpt lat="42.871520" lon="1.162220">
        <ele>831.514</ele>
        <time>2020-07-14T01:12:06Z</time>
      </trkpt>
      <trkpt lat="42.870820" lon="1.161480">
        <ele>843.149</ele>
        <time>2020-07-14T01:12:46Z</time>
      </trkpt>
      <trkpt lat="42.870340" lon="1.163270">
        <ele>854.422</ele>
        <time>2020-07-14T01:13:46Z</time>
      </trkpt>
      <trkpt lat="42.867360" lon="1.164550">
        <ele>882.657</ele>
        <time>2020-07-14T01:14:26Z</time>
      </trkpt>
      <trkpt lat="42.869040" lon="1.162930">
        <ele>895.058</ele>
        <time>2020-07-14T01:15:26Z</time>
      </trkpt>
      <trkpt lat="42.869160" lon="1.161390">
        <ele>907.379</ele>
        <time>2020-07-14T01:16:26Z</time>
      </trkpt>
      <trkpt lat="42.868990" lon="1.162260">
        <ele>910.444</ele>
        <time>2020-07-14T01:16:46Z</time>
      </trkpt>
      <trkpt lat="42.865580" lon="1.164710">
        <ele>944.423</ele>
        <time>2020-07-14T01:17:46Z</time>
      </trkpt>
      <trkpt lat="42.864350" lon="1.164960">
        <ele>953.983</ele>
        <time>2020-07-14T01:18:06Z</time>
      </trkpt>
      <trkpt lat="42.863310" lon="1.162660">
        <ele>985.311</ele>
        <time>2020-07-14T01:19:06Z</time>
      </trkpt>
      <trkpt lat="42.862280" lon="1.163030">
        <ele>981.308</ele>
        <time>2020-07-14T01:19:26Z</time>
      </trkpt>
      <trkpt lat="42.861260" lon="1.162590">
        <ele>986.457</ele>
        <time>2020-07-14T01:20:06Z</time>
      </trkpt>
      <trkpt lat="42.860340" lon="1.162770">
        <ele>990.644</ele>
        <time>2020-07-14T01:20:46Z</time>
      </trkpt>
      <trkpt lat="42.859640" lon="1.159230">
        <ele>1016.549</ele>
        <time>2020-07-14T01:21:06Z</time>
      </trkpt>
      <trkpt lat="42.858670" lon="1.158590">
        <ele>1013.862</ele>
        <time>2020-07-14T01:22:06Z</time>
      </trkpt>
      <trkpt lat="42.858550" lon="1.157010">
        <ele>1026.077</ele>
        <time>2020-07-14T01:22:26Z</time>
      </trkpt>
      <trkpt lat="42.857200" lon="1.153860">
        <ele>1025.468</ele>
        <time>2020-07-14T01:23:26Z</time>
      </trkpt>
      <trkpt lat="42.856950" lon="1.150220">
        <ele>1040.519</ele>
        <time>2020-07-14T01:24:06Z</time>
      </trkpt>
      <trkpt lat="42.856620" lon="1.150080">
        <ele>1029.694</ele>
        <time>2020-07-14T01:24:26Z</time>
      </trkpt>
      <trkpt lat="42.856270" lon="1.147570">
        <ele>1049.611</ele>
        <time>2020-07-14T01:25:06Z</time>
      </trkpt>
      <trkpt lat="42.856900" lon="1.144830">
        <ele>1070.521</ele>
        <time>2020-07-14T01:25:26Z</time>
      </trkpt>
      <trkpt lat="42.857690" lon="1.143530">
        <ele>1088.603</ele>
        <time>2020-07-14T01:25:46Z</time>
      </trkpt>
      <trkpt lat="42.857210" lon="1.139920">
        <ele>1102.708</ele>
        <time>2020-07-14T01:26:46Z</time>
      </trkpt>
      <trkpt lat="42.858690" lon="1.136750">
        <ele>1133.026</ele>
        <time>2020-07-14T01:27:26Z</time>
      </trkpt>
      <trkpt lat="42.857930" lon="1.135780">
        <ele>1127.813</ele>
        <time>2020-07-14T01:28:06Z</time>
      </trkpt>
      <trkpt lat="42.858150" lon="1.134750">
        <ele>1141.138</ele>
        <time>2020-07-14T01:28:46Z</time>
      </trkpt>
      <trkpt lat="42.859380" lon="1.133090">
        <ele>1160.621</ele>
        <time>2020-07-14T01:29:06Z</time>
      </trkpt>
      <trkpt lat="42.859560" lon="1.131970">
        <ele>1165.896</ele>
        <time>2020-07-14T01:29:26Z</time>
      </trkpt>
      <trkpt lat="42.860350" lon="1.130880">
        <ele>1190.757</ele>
        <time>2020-07-14T01:29:46Z</time>
      </trkpt>
      <trkpt lat="42.859750" lon="1.128550">
        <ele>1192.418</ele>
        <time>2020-07-14T01:30:26Z</time>
      </trkpt>
      <trkpt lat="42.860270" lon="1.126450">
        <ele>1223.933</ele>
        <time>2020-07-14T01:31:06Z</time>
      </trkpt>
      <trkpt lat="42.859890" lon="1.125640">
        <ele>1220.376</ele>
        <time>2020-07-14T01:31:26Z</time>
      </trkpt>
      <trkpt lat="42.860270" lon="1.124780">
        <ele>1235.590</ele>
        <time>2020-07-14T01:31:46Z</time>
      </trkpt>
      <trkpt lat="42.859330" lon="1.123370">
        <ele>1236.019</ele>
        <time>2020-07-14T01:32:06Z</time>
      </trkpt>
      <trkpt lat="42.859160" lon="1.122400">
        <ele>1244.808</ele>
        <time>2020-07-14T01:32:26Z</time>
      </trkpt>
      <trkpt lat="42.859760" lon="1.120170">
        <ele>1260.992</ele>
        <time>2020-07-14T01:33:06Z</time>
      </trkpt>
      <trkpt lat="42.859200" lon="1.119280">
        <ele>1268.879</ele>
        <time>2020-07-14T01:33:26Z</time>
      </trkpt>
      <trkpt lat="42.860340" lon="1.113710">
        <ele>1306.454</ele>
        <time>2020-07-14T01:34:46Z</time>
      </trkpt>
      <trkpt lat="42.859720" lon="1.112020">
        <ele>1307.367</ele>
        <time>2020-07-14T01:35:26Z</time>
      </trkpt>
      <trkpt lat="42.859880" lon="1.110310">
        <ele>1318.822</ele>
        <time>2020-07-14T01:36:06Z</time>
      </trkpt>
      <trkpt lat="42.858960" lon="1.109380">
        <ele>1320.233</ele>
        <time>2020-07-14T01:36:26Z</time>
      </trkpt>
      <trkpt lat="42.858300" lon="1.107240">
        <ele>1337.114</ele>
        <time>2020-07-14T01:36:46Z</time>
      </trkpt>
      <trkpt lat="42.856610" lon="1.106340">
        <ele>1345.619</ele>
        <time>2020-07-14T01:37:26Z</time>
      </trkpt>
      <trkpt lat="42.855800" lon="1.108450">
        <ele>1359.532</ele>
        <time>2020-07-14T01:38:26Z</time>
      </trkpt>
      <trkpt lat="42.856050" lon="1.106030">
        <ele>1369.092</ele>
        <time>2020-07-14T01:38:46Z</time>
      </trkpt>
      <trkpt lat="42.856390" lon="1.105440">
        <ele>1378.211</ele>
        <time>2020-07-14T01:39:06Z</time>
      </trkpt>
      <trkpt lat="42.859630" lon="1.104670">
        <ele>1399.008</ele>
        <time>2020-07-14T01:39:46Z</time>
      </trkpt>
      <trkpt lat="42.861470" lon="1.106290">
        <ele>1389.268</ele>
        <time>2020-07-14T01:41:06Z</time>
      </trkpt>
      <trkpt lat="42.864700" lon="1.105010">
        <ele>1352.235</ele>
        <time>2020-07-14T01:42:06Z</time>
      </trkpt>
      <trkpt lat="42.865700" lon="1.102370">
        <ele>1334.150</ele>
        <time>2020-07-14T01:42:46Z</time>
      </trkpt>
      <trkpt lat="42.865840" lon="1.100740">
        <ele>1321.913</ele>
        <time>2020-07-14T01:43:06Z</time>
      </trkpt>
      <trkpt lat="42.866220" lon="1.100300">
        <ele>1320.948</ele>
        <time>2020-07-14T01:43:26Z</time>
      </trkpt>
      <trkpt lat="42.865510" lon="1.100950">
        <ele>1311.859</ele>
        <time>2020-07-14T01:44:26Z</time>
      </trkpt>
      <trkpt lat="42.865380" lon="1.101890">
        <ele>1307.870</ele>
        <time>2020-07-14T01:44:46Z</time>
      </trkpt>
      <trkpt lat="42.864340" lon="1.103260">
        <ele>1295.565</ele>
        <time>2020-07-14T01:45:06Z</time>
      </trkpt>
      <trkpt lat="42.862260" lon="1.103420">
        <ele>1283.017</ele>
        <time>2020-07-14T01:45:46Z</time>
      </trkpt>
      <trkpt lat="42.861930" lon="1.101450">
        <ele>1262.487</ele>
        <time>2020-07-14T01:46:46Z</time>
      </trkpt>
      <trkpt lat="42.861260" lon="1.101790">
        <ele>1260.115</ele>
        <time>2020-07-14T01:47:06Z</time>
      </trkpt>
      <trkpt lat="42.860150" lon="1.101290">
        <ele>1254.308</ele>
        <time>2020-07-14T01:47:26Z</time>
      </trkpt>
      <trkpt lat="42.859210" lon="1.099370">
        <ele>1236.196</ele>
        <time>2020-07-14T01:48:06Z</time>
      </trkpt>
      <trkpt lat="42.854570" lon="1.096150">
        <ele>1186.053</ele>
        <time>2020-07-14T01:48:46Z</time>
      </trkpt>
      <trkpt lat="42.854360" lon="1.094150">
        <ele>1171.068</ele>
        <time>2020-07-14T01:49:06Z</time>
      </trkpt>
      <trkpt lat="42.854670" lon="1.093400">
        <ele>1160.971</ele>
        <time>2020-07-14T01:49:26Z</time>
      </trkpt>
      <trkpt lat="42.856160" lon="1.092050">
        <ele>1148.076</ele>
        <time>2020-07-14T01:50:06Z</time>
      </trkpt>
      <trkpt lat="42.858950" lon="1.094060">
        <ele>1120.047</ele>
        <time>2020-07-14T01:50:26Z</time>
      </trkpt>
      <trkpt lat="42.860560" lon="1.094520">
        <ele>1115.268</ele>
        <time>2020-07-14T01:50:46Z</time>
      </trkpt>
      <trkpt lat="42.861720" lon="1.094110">
        <ele>1103.123</ele>
        <time>2020-07-14T01:51:26Z</time>
      </trkpt>
      <trkpt lat="42.864860" lon="1.087690">
        <ele>1063.859</ele>
        <time>2020-07-14T01:52:26Z</time>
      </trkpt>
      <trkpt lat="42.863900" lon="1.085390">
        <ele>1054.903</ele>
        <time>2020-07-14T01:52:46Z</time>
      </trkpt>
      <trkpt lat="42.864820" lon="1.086900">
        <ele>1051.723</ele>
        <time>2020-07-14T01:53:26Z</time>
      </trkpt>
      <trkpt lat="42.865770" lon="1.087420">
        <ele>1034.908</ele>
        <time>2020-07-14T01:53:46Z</time>
      </trkpt>
      <trkpt lat="42.865030" lon="1.088770">
        <ele>1028.160</ele>
        <time>2020-07-14T01:54:06Z</time>
      </trkpt>
      <trkpt lat="42.864700" lon="1.090380">
        <ele>1020.267</ele>
        <time>2020-07-14T01:54:26Z</time>
      </trkpt>
      <trkpt lat="42.865250" lon="1.092710">
        <ele>1004.972</ele>
        <time>2020-07-14T01:55:26Z</time>
      </trkpt>
      <trkpt lat="42.866760" lon="1.091560">
        <ele>992.315</ele>
        <time>2020-07-14T01:56:26Z</time>
      </trkpt>
      <trkpt lat="42.867780" lon="1.089850">
        <ele>971.020</ele>
        <time>2020-07-14T01:56:46Z</time>
      </trkpt>
      <trkpt lat="42.869380" lon="1.088230">
        <ele>956.691</ele>
        <time>2020-07-14T01:57:06Z</time>
      </trkpt>
      <trkpt lat="42.874080" lon="1.078790">
        <ele>883.542</ele>
        <time>2020-07-14T01:59:26Z</time>
      </trkpt>
      <trkpt lat="42.875640" lon="1.076750">
        <ele>868.257</ele>
        <time>2020-07-14T02:00:06Z</time>
      </trkpt>
      <trkpt lat="42.876850" lon="1.075930">
        <ele>855.927</ele>
        <time>2020-07-14T02:00:46Z</time>
      </trkpt>
      <trkpt lat="42.877970" lon="1.076100">
        <ele>846.368</ele>
        <time>2020-07-14T02:01:26Z</time>
      </trkpt>
      <trkpt lat="42.877800" lon="1.075440">
        <ele>843.914</ele>
        <time>2020-07-14T02:01:46Z</time>
      </trkpt>
      <trkpt lat="42.878400" lon="1.072950">
        <ele>838.608</ele>
        <time>2020-07-14T02:02:26Z</time>
      </trkpt>
      <trkpt lat="42.879830" lon="1.070860">
        <ele>818.247</ele>
        <time>2020-07-14T02:03:06Z</time>
      </trkpt>
      <trkpt lat="42.881130" lon="1.071220">
        <ele>806.494</ele>
        <time>2020-07-14T02:03:46Z</time>
      </trkpt>
      <trkpt lat="42.881990" lon="1.070010">
        <ele>798.479</ele>
        <time>2020-07-14T02:04:26Z</time>
      </trkpt>
      <trkpt lat="42.881490" lon="1.069090">
        <ele>795.642</ele>
        <time>2020-07-14T02:05:06Z</time>
      </trkpt>
      <trkpt lat="42.883180" lon="1.068030">
        <ele>788.767</ele>
        <time>2020-07-14T02:05:26Z</time>
      </trkpt>
      <trkpt lat="42.885320" lon="1.063880">
        <ele>777.618</ele>
        <time>2020-07-14T02:06:06Z</time>
      </trkpt>
      <trkpt lat="42.885770" lon="1.063750">
        <ele>771.929</ele>
        <time>2020-07-14T02:06:26Z</time>
      </trkpt>
      <trkpt lat="42.886610" lon="1.064370">
        <ele>780.754</ele>
        <time>2020-07-14T02:07:06Z</time>
      </trkpt>
      <trkpt lat="42.886410" lon="1.061820">
        <ele>776.197</ele>
        <time>2020-07-14T02:07:46Z</time>
      </trkpt>
      <trkpt lat="42.887200" lon="1.060760">
        <ele>779.023</ele>
        <time>2020-07-14T02:08:26Z</time>
      </trkpt>
      <trkpt lat="42.887350" lon="1.059320">
        <ele>763.025</ele>
        <time>2020-07-14T02:09:06Z</time>
      </trkpt>
      <trkpt lat="42.887910" lon="1.058910">
        <ele>761.308</ele>
        <time>2020-07-14T02:09:26Z</time>
      </trkpt>
      <trkpt lat="42.888990" lon="1.059190">
        <ele>762.224</ele>
        <time>2020-07-14T02:09:46Z</time>
      </trkpt>
      <trkpt lat="42.889650" lon="1.056280">
        <ele>755.841</ele>
        <time>2020-07-14T02:10:46Z</time>
      </trkpt>
      <trkpt lat="42.890880" lon="1.056450">
        <ele>748.556</ele>
        <time>2020-07-14T02:11:46Z</time>
      </trkpt>
      <trkpt lat="42.890790" lon="1.053990">
        <ele>747.719</ele>
        <time>2020-07-14T02:12:46Z</time>
      </trkpt>
      <trkpt lat="42.892260" lon="1.052730">
        <ele>749.274</ele>
        <time>2020-07-14T02:13:46Z</time>
      </trkpt>
      <trkpt lat="42.892620" lon="1.051150">
        <ele>742.915</ele>
        <time>2020-07-14T02:14:26Z</time>
      </trkpt>
      <trkpt lat="42.893330" lon="1.050720">
        <ele>732.536</ele>
        <time>2020-07-14T02:14:46Z</time>
      </trkpt>
      <trkpt lat="42.894640" lon="1.050950">
        <ele>732.721</ele>
        <time>2020-07-14T02:15:46Z</time>
      </trkpt>
      <trkpt lat="42.893820" lon="1.048460">
        <ele>715.598</ele>
        <time>2020-07-14T02:16:46Z</time>
      </trkpt>
      <trkpt lat="42.894840" lon="1.047990">
        <ele>714.315</ele>
        <time>2020-07-14T02:17:26Z</time>
      </trkpt>
      <trkpt lat="42.894570" lon="1.046570">
        <ele>711.126</ele>
        <time>2020-07-14T02:17:46Z</time>
      </trkpt>
      <trkpt lat="42.895290" lon="1.044290">
        <ele>699.608</ele>
        <time>2020-07-14T02:18:06Z</time>
      </trkpt>
      <trkpt lat="42.895730" lon="1.044030">
        <ele>678.834</ele>
        <time>2020-07-14T02:18:46Z</time>
      </trkpt>
      <trkpt lat="42.896250" lon="1.044760">
        <ele>684.561</ele>
        <time>2020-07-14T02:19:06Z</time>
      </trkpt>
      <trkpt lat="42.896630" lon="1.044470">
        <ele>685.226</ele>
        <time>2020-07-14T02:19:46Z</time>
      </trkpt>
      <trkpt lat="42.895580" lon="1.041160">
        <ele>658.689</ele>
        <time>2020-07-14T02:20:26Z</time>
      </trkpt>
      <trkpt lat="42.896430" lon="1.040370">
        <ele>655.394</ele>
        <time>2020-07-14T02:21:06Z</time>
      </trkpt>
      <trkpt lat="42.896490" lon="1.038770">
        <ele>654.715</ele>
        <time>2020-07-14T02:21:26Z</time>
      </trkpt>
      <trkpt lat="42.897610" lon="1.037750">
        <ele>651.566</ele>
        <time>2020-07-14T02:21:46Z</time>
      </trkpt>
      <trkpt lat="42.897910" lon="1.036430">
        <ele>642.651</ele>
        <time>2020-07-14T02:22:06Z</time>
      </trkpt>
      <trkpt lat="42.898660" lon="1.035520">
        <ele>640.121</ele>
        <time>2020-07-14T02:22:26Z</time>
      </trkpt>
      <trkpt lat="42.898550" lon="1.034600">
        <ele>637.941</ele>
        <time>2020-07-14T02:22:46Z</time>
      </trkpt>
      <trkpt lat="42.899330" lon="1.030650">
        <ele>605.905</ele>
        <time>2020-07-14T02:23:06Z</time>
      </trkpt>
      <trkpt lat="42.900840" lon="1.031560">
        <ele>594.008</ele>
        <time>2020-07-14T02:23:26Z</time>
      </trkpt>
      <trkpt lat="42.901270" lon="1.032620">
        <ele>591.537</ele>
        <time>2020-07-14T02:24:06Z</time>
      </trkpt>
      <trkpt lat="42.901530" lon="1.030670">
        <ele>578.414</ele>
        <time>2020-07-14T02:24:46Z</time>
      </trkpt>
      <trkpt lat="42.903110" lon="1.029450">
        <ele>559.969</ele>
        <time>2020-07-14T02:25:46Z</time>
      </trkpt>
      <trkpt lat="42.904130" lon="1.029410">
        <ele>558.442</ele>
        <time>2020-07-14T02:26:06Z</time>
      </trkpt>
      <trkpt lat="42.905350" lon="1.028330">
        <ele>551.327</ele>
        <time>2020-07-14T02:26:26Z</time>
      </trkpt>
      <trkpt lat="42.910090" lon="1.029510">
        <ele>562.978</ele>
        <time>2020-07-14T02:27:46Z</time>
      </trkpt>
      <trkpt lat="42.912050" lon="1.028470">
        <ele>552.399</ele>
        <time>2020-07-14T02:28:26Z</time>
      </trkpt>
      <trkpt lat="42.913180" lon="1.028480">
        <ele>552.894</ele>
        <time>2020-07-14T02:29:06Z</time>
      </trkpt>
      <trkpt lat="42.915350" lon="1.029430">
        <ele>549.835</ele>
        <time>2020-07-14T02:30:06Z</time>
      </trkpt>
      <trkpt lat="42.916370" lon="1.030360">
        <ele>544.586</ele>
        <time>2020-07-14T02:30:26Z</time>
      </trkpt>
      <trkpt lat="42.918380" lon="1.031230">
        <ele>546.914</ele>
        <time>2020-07-14T02:31:06Z</time>
      </trkpt>
      <trkpt lat="42.922230" lon="1.031450">
        <ele>539.508</ele>
        <time>2020-07-14T02:31:46Z</time>
      </trkpt>
      <trkpt lat="42.925760" lon="1.029680">
        <ele>536.758</ele>
        <time>2020-07-14T02:32:26Z</time>
      </trkpt>
      <trkpt lat="42.928830" lon="1.029770">
        <ele>528.575</ele>
        <time>2020-07-14T02:33:06Z</time>
      </trkpt>
      <trkpt lat="42.927840" lon="1.025490">
        <ele>510.870</ele>
        <time>2020-07-14T02:33:26Z</time>
      </trkpt>
      <trkpt lat="42.927930" lon="1.024350">
        <ele>519.423</ele>
        <time>2020-07-14T02:34:06Z</time>
      </trkpt>
      <trkpt lat="42.927930" lon="1.024350">
        <ele>519.422</ele>
        <time>2020-07-13T21:18:21Z</time>
      </trkpt>
      <trkpt lat="42.929150" lon="1.022790">
        <ele>507.162</ele>
        <time>2020-07-13T21:18:41Z</time>
      </trkpt>
      <trkpt lat="42.927340" lon="1.020400">
        <ele>514.308</ele>
        <time>2020-07-13T21:19:01Z</time>
      </trkpt>
      <trkpt lat="42.926600" lon="1.019070">
        <ele>520.008</ele>
        <time>2020-07-13T21:19:21Z</time>
      </trkpt>
      <trkpt lat="42.926670" lon="1.018170">
        <ele>520.147</ele>
        <time>2020-07-13T21:19:41Z</time>
      </trkpt>
      <trkpt lat="42.927510" lon="1.015830">
        <ele>520.234</ele>
        <time>2020-07-13T21:20:01Z</time>
      </trkpt>
      <trkpt lat="42.926590" lon="1.013770">
        <ele>520.359</ele>
        <time>2020-07-13T21:20:21Z</time>
      </trkpt>
      <trkpt lat="42.926040" lon="1.012170">
        <ele>520.972</ele>
        <time>2020-07-13T21:20:41Z</time>
      </trkpt>
      <trkpt lat="42.925740" lon="1.010700">
        <ele>522.687</ele>
        <time>2020-07-13T21:21:01Z</time>
      </trkpt>
      <trkpt lat="42.925410" lon="1.006310">
        <ele>527.078</ele>
        <time>2020-07-13T21:21:21Z</time>
      </trkpt>
      <trkpt lat="42.925510" lon="1.004230">
        <ele>529.530</ele>
        <time>2020-07-13T21:21:41Z</time>
      </trkpt>
      <trkpt lat="42.926160" lon="1.001380">
        <ele>533.050</ele>
        <time>2020-07-13T21:22:01Z</time>
      </trkpt>
      <trkpt lat="42.927520" lon="0.999220">
        <ele>536.719</ele>
        <time>2020-07-13T21:22:21Z</time>
      </trkpt>
      <trkpt lat="42.928430" lon="0.997440">
        <ele>537.009</ele>
        <time>2020-07-13T21:22:41Z</time>
      </trkpt>
      <trkpt lat="42.929980" lon="0.995260">
        <ele>540.019</ele>
        <time>2020-07-13T21:23:01Z</time>
      </trkpt>
      <trkpt lat="42.930440" lon="0.993370">
        <ele>540.008</ele>
        <time>2020-07-13T21:23:21Z</time>
      </trkpt>
      <trkpt lat="42.931300" lon="0.992400">
        <ele>544.036</ele>
        <time>2020-07-13T21:23:41Z</time>
      </trkpt>
      <trkpt lat="42.931910" lon="0.992160">
        <ele>547.183</ele>
        <time>2020-07-13T21:24:01Z</time>
      </trkpt>
      <trkpt lat="42.932110" lon="0.991890">
        <ele>548.628</ele>
        <time>2020-07-13T21:24:21Z</time>
      </trkpt>
      <trkpt lat="42.932330" lon="0.990230">
        <ele>550.811</ele>
        <time>2020-07-13T21:24:41Z</time>
      </trkpt>
      <trkpt lat="42.932090" lon="0.988460">
        <ele>549.376</ele>
        <time>2020-07-13T21:25:01Z</time>
      </trkpt>
      <trkpt lat="42.932170" lon="0.987010">
        <ele>547.017</ele>
        <time>2020-07-13T21:25:21Z</time>
      </trkpt>
      <trkpt lat="42.932060" lon="0.985150">
        <ele>549.489</ele>
        <time>2020-07-13T21:25:41Z</time>
      </trkpt>
      <trkpt lat="42.932290" lon="0.983530">
        <ele>550.229</ele>
        <time>2020-07-13T21:26:01Z</time>
      </trkpt>
      <trkpt lat="42.932880" lon="0.981760">
        <ele>551.518</ele>
        <time>2020-07-13T21:26:21Z</time>
      </trkpt>
      <trkpt lat="42.933440" lon="0.978710">
        <ele>551.098</ele>
        <time>2020-07-13T21:26:41Z</time>
      </trkpt>
      <trkpt lat="42.934240" lon="0.977270">
        <ele>550.717</ele>
        <time>2020-07-13T21:27:01Z</time>
      </trkpt>
      <trkpt lat="42.935210" lon="0.976040">
        <ele>553.808</ele>
        <time>2020-07-13T21:27:21Z</time>
      </trkpt>
      <trkpt lat="42.935680" lon="0.974310">
        <ele>550.076</ele>
        <time>2020-07-13T21:27:41Z</time>
      </trkpt>
      <trkpt lat="42.937040" lon="0.967520">
        <ele>560.533</ele>
        <time>2020-07-13T21:28:01Z</time>
      </trkpt>
      <trkpt lat="42.936780" lon="0.964210">
        <ele>561.868</ele>
        <time>2020-07-13T21:28:21Z</time>
      </trkpt>
      <trkpt lat="42.936620" lon="0.963650">
        <ele>562.021</ele>
        <time>2020-07-13T21:28:41Z</time>
      </trkpt>
      <trkpt lat="42.936190" lon="0.962950">
        <ele>569.046</ele>
        <time>2020-07-13T21:29:01Z</time>
      </trkpt>
      <trkpt lat="42.936870" lon="0.962370">
        <ele>562.917</ele>
        <time>2020-07-13T21:29:21Z</time>
      </trkpt>
      <trkpt lat="42.937190" lon="0.961580">
        <ele>569.399</ele>
        <time>2020-07-13T21:29:41Z</time>
      </trkpt>
      <trkpt lat="42.937250" lon="0.957630">
        <ele>577.629</ele>
        <time>2020-07-13T21:30:01Z</time>
      </trkpt>
      <trkpt lat="42.937100" lon="0.956990">
        <ele>582.939</ele>
        <time>2020-07-13T21:30:21Z</time>
      </trkpt>
      <trkpt lat="42.936640" lon="0.956130">
        <ele>581.801</ele>
        <time>2020-07-13T21:30:41Z</time>
      </trkpt>
      <trkpt lat="42.936570" lon="0.955600">
        <ele>582.221</ele>
        <time>2020-07-13T21:31:01Z</time>
      </trkpt>
      <trkpt lat="42.936830" lon="0.954830">
        <ele>584.408</ele>
        <time>2020-07-13T21:31:21Z</time>
      </trkpt>
      <trkpt lat="42.937780" lon="0.953290">
        <ele>574.858</ele>
        <time>2020-07-13T21:31:41Z</time>
      </trkpt>
      <trkpt lat="42.937890" lon="0.952640">
        <ele>579.465</ele>
        <time>2020-07-13T21:32:01Z</time>
      </trkpt>
      <trkpt lat="42.937810" lon="0.952090">
        <ele>580.160</ele>
        <time>2020-07-13T21:32:21Z</time>
      </trkpt>
      <trkpt lat="42.937390" lon="0.951110">
        <ele>582.143</ele>
        <time>2020-07-13T21:32:41Z</time>
      </trkpt>
      <trkpt lat="42.937360" lon="0.949740">
        <ele>591.888</ele>
        <time>2020-07-13T21:33:01Z</time>
      </trkpt>
      <trkpt lat="42.937110" lon="0.948070">
        <ele>598.049</ele>
        <time>2020-07-13T21:33:21Z</time>
      </trkpt>
      <trkpt lat="42.936880" lon="0.947680">
        <ele>600.721</ele>
        <time>2020-07-13T21:33:41Z</time>
      </trkpt>
      <trkpt lat="42.935800" lon="0.946780">
        <ele>609.191</ele>
        <time>2020-07-13T21:34:01Z</time>
      </trkpt>
      <trkpt lat="42.935370" lon="0.945720">
        <ele>615.561</ele>
        <time>2020-07-13T21:34:21Z</time>
      </trkpt>
      <trkpt lat="42.935260" lon="0.943860">
        <ele>619.421</ele>
        <time>2020-07-13T21:34:41Z</time>
      </trkpt>
      <trkpt lat="42.936100" lon="0.941890">
        <ele>623.313</ele>
        <time>2020-07-13T21:35:01Z</time>
      </trkpt>
      <trkpt lat="42.936120" lon="0.941420">
        <ele>623.808</ele>
        <time>2020-07-13T21:35:21Z</time>
      </trkpt>
      <trkpt lat="42.935900" lon="0.941300">
        <ele>626.011</ele>
        <time>2020-07-13T21:35:41Z</time>
      </trkpt>
      <trkpt lat="42.935000" lon="0.941280">
        <ele>631.678</ele>
        <time>2020-07-13T21:36:01Z</time>
      </trkpt>
      <trkpt lat="42.934800" lon="0.941070">
        <ele>633.013</ele>
        <time>2020-07-13T21:36:21Z</time>
      </trkpt>
      <trkpt lat="42.934330" lon="0.939850">
        <ele>640.226</ele>
        <time>2020-07-13T21:36:41Z</time>
      </trkpt>
      <trkpt lat="42.934010" lon="0.936810">
        <ele>653.511</ele>
        <time>2020-07-13T21:37:01Z</time>
      </trkpt>
      <trkpt lat="42.932190" lon="0.933300">
        <ele>644.272</ele>
        <time>2020-07-13T21:37:21Z</time>
      </trkpt>
      <trkpt lat="42.930950" lon="0.931940">
        <ele>647.364</ele>
        <time>2020-07-13T21:37:41Z</time>
      </trkpt>
      <trkpt lat="42.929820" lon="0.929890">
        <ele>643.364</ele>
        <time>2020-07-13T21:38:01Z</time>
      </trkpt>
      <trkpt lat="42.929810" lon="0.929350">
        <ele>643.384</ele>
        <time>2020-07-13T21:38:21Z</time>
      </trkpt>
      <trkpt lat="42.930000" lon="0.929000">
        <ele>642.207</ele>
        <time>2020-07-13T21:38:41Z</time>
      </trkpt>
      <trkpt lat="42.930560" lon="0.928650">
        <ele>636.817</ele>
        <time>2020-07-13T21:39:01Z</time>
      </trkpt>
      <trkpt lat="42.931200" lon="0.928500">
        <ele>634.708</ele>
        <time>2020-07-13T21:39:21Z</time>
      </trkpt>
      <trkpt lat="42.932030" lon="0.927600">
        <ele>631.343</ele>
        <time>2020-07-13T21:39:41Z</time>
      </trkpt>
      <trkpt lat="42.931850" lon="0.926580">
        <ele>631.480</ele>
        <time>2020-07-13T21:40:01Z</time>
      </trkpt>
      <trkpt lat="42.932610" lon="0.922070">
        <ele>630.065</ele>
        <time>2020-07-13T21:40:21Z</time>
      </trkpt>
      <trkpt lat="42.932700" lon="0.920520">
        <ele>632.368</ele>
        <time>2020-07-13T21:40:41Z</time>
      </trkpt>
      <trkpt lat="42.932220" lon="0.918480">
        <ele>630.523</ele>
        <time>2020-07-13T21:41:01Z</time>
      </trkpt>
      <trkpt lat="42.932070" lon="0.916480">
        <ele>633.154</ele>
        <time>2020-07-13T21:41:21Z</time>
      </trkpt>
      <trkpt lat="42.931640" lon="0.916060">
        <ele>630.216</ele>
        <time>2020-07-13T21:41:41Z</time>
      </trkpt>
      <trkpt lat="42.930020" lon="0.915570">
        <ele>640.096</ele>
        <time>2020-07-13T21:42:01Z</time>
      </trkpt>
      <trkpt lat="42.929410" lon="0.914750">
        <ele>649.064</ele>
        <time>2020-07-13T21:42:21Z</time>
      </trkpt>
      <trkpt lat="42.929280" lon="0.914360">
        <ele>651.506</ele>
        <time>2020-07-13T21:42:41Z</time>
      </trkpt>
      <trkpt lat="42.929270" lon="0.913230">
        <ele>663.616</ele>
        <time>2020-07-13T21:43:01Z</time>
      </trkpt>
      <trkpt lat="42.929010" lon="0.912310">
        <ele>664.608</ele>
        <time>2020-07-13T21:43:21Z</time>
      </trkpt>
      <trkpt lat="42.928820" lon="0.910460">
        <ele>679.071</ele>
        <time>2020-07-13T21:43:41Z</time>
      </trkpt>
      <trkpt lat="42.929710" lon="0.908160">
        <ele>672.848</ele>
        <time>2020-07-13T21:44:01Z</time>
      </trkpt>
      <trkpt lat="42.929700" lon="0.907890">
        <ele>672.653</ele>
        <time>2020-07-13T21:44:21Z</time>
      </trkpt>
      <trkpt lat="42.929380" lon="0.907370">
        <ele>672.686</ele>
        <time>2020-07-13T21:44:41Z</time>
      </trkpt>
      <trkpt lat="42.929340" lon="0.906700">
        <ele>676.941</ele>
        <time>2020-07-13T21:45:01Z</time>
      </trkpt>
      <trkpt lat="42.930110" lon="0.905120">
        <ele>668.412</ele>
        <time>2020-07-13T21:45:21Z</time>
      </trkpt>
      <trkpt lat="42.929060" lon="0.903960">
        <ele>670.854</ele>
        <time>2020-07-13T21:45:41Z</time>
      </trkpt>
      <trkpt lat="42.928860" lon="0.903470">
        <ele>671.834</ele>
        <time>2020-07-13T21:46:01Z</time>
      </trkpt>
      <trkpt lat="42.928890" lon="0.902720">
        <ele>674.191</ele>
        <time>2020-07-13T21:46:21Z</time>
      </trkpt>
      <trkpt lat="42.929410" lon="0.901360">
        <ele>685.381</ele>
        <time>2020-07-13T21:46:41Z</time>
      </trkpt>
      <trkpt lat="42.929480" lon="0.899400">
        <ele>683.719</ele>
        <time>2020-07-13T21:47:01Z</time>
      </trkpt>
      <trkpt lat="42.929310" lon="0.898160">
        <ele>681.908</ele>
        <time>2020-07-13T21:47:21Z</time>
      </trkpt>
      <trkpt lat="42.928830" lon="0.897320">
        <ele>680.454</ele>
        <time>2020-07-13T21:47:41Z</time>
      </trkpt>
      <trkpt lat="42.928580" lon="0.896460">
        <ele>680.251</ele>
        <time>2020-07-13T21:48:01Z</time>
      </trkpt>
      <trkpt lat="42.928880" lon="0.895300">
        <ele>680.066</ele>
        <time>2020-07-13T21:48:21Z</time>
      </trkpt>
      <trkpt lat="42.929150" lon="0.894830">
        <ele>680.639</ele>
        <time>2020-07-13T21:48:41Z</time>
      </trkpt>
      <trkpt lat="42.930300" lon="0.894130">
        <ele>680.324</ele>
        <time>2020-07-13T21:49:01Z</time>
      </trkpt>
      <trkpt lat="42.930860" lon="0.893020">
        <ele>695.095</ele>
        <time>2020-07-13T21:49:21Z</time>
      </trkpt>
      <trkpt lat="42.930920" lon="0.892750">
        <ele>696.587</ele>
        <time>2020-07-13T21:49:41Z</time>
      </trkpt>
      <trkpt lat="42.930710" lon="0.891740">
        <ele>707.447</ele>
        <time>2020-07-13T21:50:01Z</time>
      </trkpt>
      <trkpt lat="42.930920" lon="0.891170">
        <ele>707.048</ele>
        <time>2020-07-13T21:50:21Z</time>
      </trkpt>
      <trkpt lat="42.931510" lon="0.890850">
        <ele>711.561</ele>
        <time>2020-07-13T21:50:41Z</time>
      </trkpt>
      <trkpt lat="42.932640" lon="0.889330">
        <ele>716.617</ele>
        <time>2020-07-13T21:51:01Z</time>
      </trkpt>
      <trkpt lat="42.933540" lon="0.889270">
        <ele>715.008</ele>
        <time>2020-07-13T21:51:21Z</time>
      </trkpt>
      <trkpt lat="42.933980" lon="0.888990">
        <ele>721.759</ele>
        <time>2020-07-13T21:51:41Z</time>
      </trkpt>
      <trkpt lat="42.934100" lon="0.888170">
        <ele>722.676</ele>
        <time>2020-07-13T21:52:01Z</time>
      </trkpt>
      <trkpt lat="42.935250" lon="0.887280">
        <ele>730.531</ele>
        <time>2020-07-13T21:52:21Z</time>
      </trkpt>
      <trkpt lat="42.935470" lon="0.885610">
        <ele>731.094</ele>
        <time>2020-07-13T21:52:41Z</time>
      </trkpt>
      <trkpt lat="42.936470" lon="0.885190">
        <ele>744.219</ele>
        <time>2020-07-13T21:53:01Z</time>
      </trkpt>
      <trkpt lat="42.937000" lon="0.884720">
        <ele>756.380</ele>
        <time>2020-07-13T21:53:21Z</time>
      </trkpt>
      <trkpt lat="42.937640" lon="0.884450">
        <ele>752.872</ele>
        <time>2020-07-13T21:53:41Z</time>
      </trkpt>
      <trkpt lat="42.938190" lon="0.883500">
        <ele>768.142</ele>
        <time>2020-07-13T21:54:01Z</time>
      </trkpt>
      <trkpt lat="42.939130" lon="0.883020">
        <ele>770.169</ele>
        <time>2020-07-13T21:54:21Z</time>
      </trkpt>
      <trkpt lat="42.939590" lon="0.882450">
        <ele>776.704</ele>
        <time>2020-07-13T21:54:41Z</time>
      </trkpt>
      <trkpt lat="42.940420" lon="0.880220">
        <ele>795.424</ele>
        <time>2020-07-13T21:55:01Z</time>
      </trkpt>
      <trkpt lat="42.940260" lon="0.877040">
        <ele>812.608</ele>
        <time>2020-07-13T21:55:21Z</time>
      </trkpt>
      <trkpt lat="42.940010" lon="0.876060">
        <ele>811.831</ele>
        <time>2020-07-13T21:55:41Z</time>
      </trkpt>
      <trkpt lat="42.938360" lon="0.874650">
        <ele>816.738</ele>
        <time>2020-07-13T21:56:01Z</time>
      </trkpt>
      <trkpt lat="42.937810" lon="0.873780">
        <ele>818.633</ele>
        <time>2020-07-13T21:56:21Z</time>
      </trkpt>
      <trkpt lat="42.938190" lon="0.870310">
        <ele>831.716</ele>
        <time>2020-07-13T21:56:41Z</time>
      </trkpt>
      <trkpt lat="42.938470" lon="0.869040">
        <ele>838.081</ele>
        <time>2020-07-13T21:57:01Z</time>
      </trkpt>
      <trkpt lat="42.938720" lon="0.868500">
        <ele>840.032</ele>
        <time>2020-07-13T21:57:21Z</time>
      </trkpt>
      <trkpt lat="42.939930" lon="0.866900">
        <ele>853.124</ele>
        <time>2020-07-13T21:57:41Z</time>
      </trkpt>
      <trkpt lat="42.940370" lon="0.865970">
        <ele>859.274</ele>
        <time>2020-07-13T21:58:01Z</time>
      </trkpt>
      <trkpt lat="42.940960" lon="0.865510">
        <ele>864.334</ele>
        <time>2020-07-13T21:58:21Z</time>
      </trkpt>
      <trkpt lat="42.941180" lon="0.864920">
        <ele>872.155</ele>
        <time>2020-07-13T21:58:41Z</time>
      </trkpt>
      <trkpt lat="42.941860" lon="0.864930">
        <ele>870.910</ele>
        <time>2020-07-13T21:59:01Z</time>
      </trkpt>
      <trkpt lat="42.942080" lon="0.865420">
        <ele>873.508</ele>
        <time>2020-07-13T21:59:21Z</time>
      </trkpt>
      <trkpt lat="42.942380" lon="0.865410">
        <ele>876.928</ele>
        <time>2020-07-13T21:59:41Z</time>
      </trkpt>
      <trkpt lat="42.942760" lon="0.864260">
        <ele>890.845</ele>
        <time>2020-07-13T22:00:01Z</time>
      </trkpt>
      <trkpt lat="42.942820" lon="0.863560">
        <ele>899.440</ele>
        <time>2020-07-13T22:00:21Z</time>
      </trkpt>
      <trkpt lat="42.942990" lon="0.863600">
        <ele>898.343</ele>
        <time>2020-07-13T22:00:41Z</time>
      </trkpt>
      <trkpt lat="42.943090" lon="0.864130">
        <ele>896.128</ele>
        <time>2020-07-13T22:01:01Z</time>
      </trkpt>
      <trkpt lat="42.943620" lon="0.865160">
        <ele>903.159</ele>
        <time>2020-07-13T22:01:21Z</time>
      </trkpt>
      <trkpt lat="42.944080" lon="0.865800">
        <ele>910.151</ele>
        <time>2020-07-13T22:01:41Z</time>
      </trkpt>
      <trkpt lat="42.944290" lon="0.865710">
        <ele>916.491</ele>
        <time>2020-07-13T22:02:01Z</time>
      </trkpt>
      <trkpt lat="42.944110" lon="0.865030">
        <ele>916.419</ele>
        <time>2020-07-13T22:02:21Z</time>
      </trkpt>
      <trkpt lat="42.944490" lon="0.862720">
        <ele>935.809</ele>
        <time>2020-07-13T22:03:01Z</time>
      </trkpt>
      <trkpt lat="42.945070" lon="0.861180">
        <ele>952.219</ele>
        <time>2020-07-13T22:03:21Z</time>
      </trkpt>
      <trkpt lat="42.944850" lon="0.859500">
        <ele>967.208</ele>
        <time>2020-07-13T22:03:41Z</time>
      </trkpt>
      <trkpt lat="42.944520" lon="0.858880">
        <ele>969.276</ele>
        <time>2020-07-13T22:04:01Z</time>
      </trkpt>
      <trkpt lat="42.944580" lon="0.857050">
        <ele>992.853</ele>
        <time>2020-07-13T22:04:21Z</time>
      </trkpt>
      <trkpt lat="42.944710" lon="0.857090">
        <ele>992.848</ele>
        <time>2020-07-13T22:04:41Z</time>
      </trkpt>
      <trkpt lat="42.945590" lon="0.858860">
        <ele>1001.781</ele>
        <time>2020-07-13T22:05:01Z</time>
      </trkpt>
      <trkpt lat="42.946010" lon="0.860050">
        <ele>1013.956</ele>
        <time>2020-07-13T22:05:21Z</time>
      </trkpt>
      <trkpt lat="42.946210" lon="0.860010">
        <ele>1023.957</ele>
        <time>2020-07-13T22:05:41Z</time>
      </trkpt>
      <trkpt lat="42.946060" lon="0.859020">
        <ele>1022.179</ele>
        <time>2020-07-13T22:06:01Z</time>
      </trkpt>
      <trkpt lat="42.946310" lon="0.856700">
        <ele>1042.599</ele>
        <time>2020-07-13T22:06:21Z</time>
      </trkpt>
      <trkpt lat="42.946030" lon="0.855930">
        <ele>1042.974</ele>
        <time>2020-07-13T22:06:41Z</time>
      </trkpt>
      <trkpt lat="42.945940" lon="0.854970">
        <ele>1054.556</ele>
        <time>2020-07-13T22:07:01Z</time>
      </trkpt>
      <trkpt lat="42.945080" lon="0.854390">
        <ele>1062.921</ele>
        <time>2020-07-13T22:07:21Z</time>
      </trkpt>
      <trkpt lat="42.943920" lon="0.852380">
        <ele>1056.308</ele>
        <time>2020-07-13T22:07:41Z</time>
      </trkpt>
      <trkpt lat="42.943350" lon="0.851940">
        <ele>1049.972</ele>
        <time>2020-07-13T22:08:01Z</time>
      </trkpt>
      <trkpt lat="42.942540" lon="0.850140">
        <ele>1035.569</ele>
        <time>2020-07-13T22:08:21Z</time>
      </trkpt>
      <trkpt lat="42.942710" lon="0.849910">
        <ele>1033.334</ele>
        <time>2020-07-13T22:08:41Z</time>
      </trkpt>
      <trkpt lat="42.943850" lon="0.850050">
        <ele>1020.287</ele>
        <time>2020-07-13T22:09:01Z</time>
      </trkpt>
      <trkpt lat="42.944300" lon="0.849730">
        <ele>1015.272</ele>
        <time>2020-07-13T22:09:21Z</time>
      </trkpt>
      <trkpt lat="42.944470" lon="0.848750">
        <ele>1007.513</ele>
        <time>2020-07-13T22:09:41Z</time>
      </trkpt>
      <trkpt lat="42.944490" lon="0.846440">
        <ele>989.365</ele>
        <time>2020-07-13T22:10:01Z</time>
      </trkpt>
      <trkpt lat="42.944890" lon="0.844800">
        <ele>973.725</ele>
        <time>2020-07-13T22:10:21Z</time>
      </trkpt>
      <trkpt lat="42.944490" lon="0.843310">
        <ele>963.596</ele>
        <time>2020-07-13T22:10:41Z</time>
      </trkpt>
      <trkpt lat="42.943880" lon="0.842650">
        <ele>954.931</ele>
        <time>2020-07-13T22:11:01Z</time>
      </trkpt>
      <trkpt lat="42.944080" lon="0.841900">
        <ele>944.724</ele>
        <time>2020-07-13T22:11:21Z</time>
      </trkpt>
      <trkpt lat="42.943910" lon="0.841120">
        <ele>941.908</ele>
        <time>2020-07-13T22:11:41Z</time>
      </trkpt>
      <trkpt lat="42.943350" lon="0.840310">
        <ele>938.944</ele>
        <time>2020-07-13T22:12:01Z</time>
      </trkpt>
      <trkpt lat="42.943070" lon="0.839520">
        <ele>923.791</ele>
        <time>2020-07-13T22:12:21Z</time>
      </trkpt>
      <trkpt lat="42.942490" lon="0.839080">
        <ele>917.446</ele>
        <time>2020-07-13T22:12:41Z</time>
      </trkpt>
      <trkpt lat="42.942630" lon="0.838840">
        <ele>912.429</ele>
        <time>2020-07-13T22:13:01Z</time>
      </trkpt>
      <trkpt lat="42.943280" lon="0.838540">
        <ele>902.514</ele>
        <time>2020-07-13T22:13:21Z</time>
      </trkpt>
      <trkpt lat="42.943400" lon="0.838320">
        <ele>903.735</ele>
        <time>2020-07-13T22:13:41Z</time>
      </trkpt>
      <trkpt lat="42.942940" lon="0.836810">
        <ele>895.867</ele>
        <time>2020-07-13T22:14:01Z</time>
      </trkpt>
      <trkpt lat="42.942900" lon="0.835860">
        <ele>884.017</ele>
        <time>2020-07-13T22:14:21Z</time>
      </trkpt>
      <trkpt lat="42.941890" lon="0.835570">
        <ele>874.194</ele>
        <time>2020-07-13T22:14:41Z</time>
      </trkpt>
      <trkpt lat="42.941540" lon="0.835090">
        <ele>876.457</ele>
        <time>2020-07-13T22:15:01Z</time>
      </trkpt>
      <trkpt lat="42.942320" lon="0.835250">
        <ele>860.922</ele>
        <time>2020-07-13T22:15:21Z</time>
      </trkpt>
      <trkpt lat="42.943390" lon="0.834600">
        <ele>845.008</ele>
        <time>2020-07-13T22:15:41Z</time>
      </trkpt>
      <trkpt lat="42.944320" lon="0.832430">
        <ele>822.284</ele>
        <time>2020-07-13T22:16:01Z</time>
      </trkpt>
      <trkpt lat="42.945350" lon="0.831110">
        <ele>809.761</ele>
        <time>2020-07-13T22:16:21Z</time>
      </trkpt>
      <trkpt lat="42.946070" lon="0.827140">
        <ele>781.296</ele>
        <time>2020-07-13T22:16:41Z</time>
      </trkpt>
      <trkpt lat="42.946370" lon="0.826840">
        <ele>771.749</ele>
        <time>2020-07-13T22:17:01Z</time>
      </trkpt>
      <trkpt lat="42.947080" lon="0.825220">
        <ele>760.954</ele>
        <time>2020-07-13T22:17:21Z</time>
      </trkpt>
      <trkpt lat="42.947970" lon="0.824120">
        <ele>744.525</ele>
        <time>2020-07-13T22:17:41Z</time>
      </trkpt>
      <trkpt lat="42.948340" lon="0.823180">
        <ele>741.667</ele>
        <time>2020-07-13T22:18:01Z</time>
      </trkpt>
      <trkpt lat="42.948690" lon="0.822830">
        <ele>734.257</ele>
        <time>2020-07-13T22:18:21Z</time>
      </trkpt>
      <trkpt lat="42.948650" lon="0.819540">
        <ele>708.157</ele>
        <time>2020-07-13T22:18:41Z</time>
      </trkpt>
      <trkpt lat="42.948850" lon="0.819140">
        <ele>704.200</ele>
        <time>2020-07-13T22:19:01Z</time>
      </trkpt>
      <trkpt lat="42.949210" lon="0.818850">
        <ele>699.820</ele>
        <time>2020-07-13T22:19:21Z</time>
      </trkpt>
      <trkpt lat="42.950000" lon="0.818690">
        <ele>688.208</ele>
        <time>2020-07-13T22:19:41Z</time>
      </trkpt>
      <trkpt lat="42.950540" lon="0.818290">
        <ele>675.930</ele>
        <time>2020-07-13T22:20:01Z</time>
      </trkpt>
      <trkpt lat="42.950590" lon="0.818100">
        <ele>673.377</ele>
        <time>2020-07-13T22:20:21Z</time>
      </trkpt>
      <trkpt lat="42.950020" lon="0.816340">
        <ele>647.122</ele>
        <time>2020-07-13T22:20:41Z</time>
      </trkpt>
      <trkpt lat="42.949550" lon="0.816140">
        <ele>637.735</ele>
        <time>2020-07-13T22:21:01Z</time>
      </trkpt>
      <trkpt lat="42.948960" lon="0.816430">
        <ele>640.420</ele>
        <time>2020-07-13T22:21:21Z</time>
      </trkpt>
      <trkpt lat="42.948530" lon="0.816270">
        <ele>641.841</ele>
        <time>2020-07-13T22:21:41Z</time>
      </trkpt>
      <trkpt lat="42.947800" lon="0.814700">
        <ele>637.823</ele>
        <time>2020-07-13T22:22:01Z</time>
      </trkpt>
      <trkpt lat="42.947180" lon="0.814220">
        <ele>637.493</ele>
        <time>2020-07-13T22:22:21Z</time>
      </trkpt>
      <trkpt lat="42.946630" lon="0.814230">
        <ele>652.328</ele>
        <time>2020-07-13T22:22:41Z</time>
      </trkpt>
      <trkpt lat="42.946220" lon="0.813440">
        <ele>646.889</ele>
        <time>2020-07-13T22:23:01Z</time>
      </trkpt>
      <trkpt lat="42.945210" lon="0.813640">
        <ele>659.217</ele>
        <time>2020-07-13T22:23:21Z</time>
      </trkpt>
      <trkpt lat="42.944730" lon="0.813590">
        <ele>671.708</ele>
        <time>2020-07-13T22:23:41Z</time>
      </trkpt>
      <trkpt lat="42.944310" lon="0.813160">
        <ele>670.957</ele>
        <time>2020-07-13T22:24:01Z</time>
      </trkpt>
      <trkpt lat="42.944110" lon="0.812400">
        <ele>671.644</ele>
        <time>2020-07-13T22:24:21Z</time>
      </trkpt>
      <trkpt lat="42.943740" lon="0.811990">
        <ele>672.259</ele>
        <time>2020-07-13T22:24:41Z</time>
      </trkpt>
      <trkpt lat="42.942520" lon="0.811470">
        <ele>674.682</ele>
        <time>2020-07-13T22:25:01Z</time>
      </trkpt>
      <trkpt lat="42.941910" lon="0.810980">
        <ele>670.847</ele>
        <time>2020-07-13T22:25:21Z</time>
      </trkpt>
      <trkpt lat="42.941400" lon="0.811130">
        <ele>674.998</ele>
        <time>2020-07-13T22:25:41Z</time>
      </trkpt>
      <trkpt lat="42.939580" lon="0.810680">
        <ele>700.970</ele>
        <time>2020-07-13T22:26:01Z</time>
      </trkpt>
      <trkpt lat="42.939330" lon="0.810230">
        <ele>701.990</ele>
        <time>2020-07-13T22:26:21Z</time>
      </trkpt>
      <trkpt lat="42.939360" lon="0.809400">
        <ele>677.057</ele>
        <time>2020-07-13T22:26:41Z</time>
      </trkpt>
      <trkpt lat="42.938840" lon="0.809120">
        <ele>693.300</ele>
        <time>2020-07-13T22:27:01Z</time>
      </trkpt>
      <trkpt lat="42.938490" lon="0.808640">
        <ele>697.120</ele>
        <time>2020-07-13T22:27:21Z</time>
      </trkpt>
      <trkpt lat="42.938200" lon="0.807300">
        <ele>679.008</ele>
        <time>2020-07-13T22:27:41Z</time>
      </trkpt>
      <trkpt lat="42.937540" lon="0.807480">
        <ele>690.870</ele>
        <time>2020-07-13T22:28:01Z</time>
      </trkpt>
      <trkpt lat="42.937000" lon="0.807340">
        <ele>707.177</ele>
        <time>2020-07-13T22:28:21Z</time>
      </trkpt>
      <trkpt lat="42.936800" lon="0.807140">
        <ele>711.372</ele>
        <time>2020-07-13T22:28:41Z</time>
      </trkpt>
      <trkpt lat="42.936430" lon="0.806180">
        <ele>690.535</ele>
        <time>2020-07-13T22:29:01Z</time>
      </trkpt>
      <trkpt lat="42.935940" lon="0.806110">
        <ele>683.930</ele>
        <time>2020-07-13T22:29:21Z</time>
      </trkpt>
      <trkpt lat="42.935040" lon="0.806600">
        <ele>687.961</ele>
        <time>2020-07-13T22:29:41Z</time>
      </trkpt>
      <trkpt lat="42.934100" lon="0.805940">
        <ele>692.413</ele>
        <time>2020-07-13T22:30:01Z</time>
      </trkpt>
      <trkpt lat="42.933830" lon="0.805910">
        <ele>692.613</ele>
        <time>2020-07-13T22:30:21Z</time>
      </trkpt>
      <trkpt lat="42.933360" lon="0.807280">
        <ele>705.989</ele>
        <time>2020-07-13T22:30:41Z</time>
      </trkpt>
      <trkpt lat="42.933050" lon="0.807380">
        <ele>712.706</ele>
        <time>2020-07-13T22:31:01Z</time>
      </trkpt>
      <trkpt lat="42.932550" lon="0.807040">
        <ele>706.626</ele>
        <time>2020-07-13T22:31:21Z</time>
      </trkpt>
      <trkpt lat="42.932370" lon="0.807120">
        <ele>709.808</ele>
        <time>2020-07-13T22:31:41Z</time>
      </trkpt>
      <trkpt lat="42.932280" lon="0.808860">
        <ele>725.113</ele>
        <time>2020-07-13T22:32:01Z</time>
      </trkpt>
      <trkpt lat="42.932030" lon="0.808080">
        <ele>727.670</ele>
        <time>2020-07-13T22:32:21Z</time>
      </trkpt>
      <trkpt lat="42.931550" lon="0.807800">
        <ele>739.745</ele>
        <time>2020-07-13T22:32:41Z</time>
      </trkpt>
      <trkpt lat="42.931240" lon="0.807350">
        <ele>740.318</ele>
        <time>2020-07-13T22:33:01Z</time>
      </trkpt>
      <trkpt lat="42.930670" lon="0.807230">
        <ele>750.073</ele>
        <time>2020-07-13T22:33:21Z</time>
      </trkpt>
      <trkpt lat="42.930170" lon="0.806850">
        <ele>750.924</ele>
        <time>2020-07-13T22:33:41Z</time>
      </trkpt>
      <trkpt lat="42.929420" lon="0.806970">
        <ele>766.366</ele>
        <time>2020-07-13T22:34:01Z</time>
      </trkpt>
      <trkpt lat="42.928780" lon="0.806500">
        <ele>765.026</ele>
        <time>2020-07-13T22:34:21Z</time>
      </trkpt>
      <trkpt lat="42.928000" lon="0.807500">
        <ele>778.871</ele>
        <time>2020-07-13T22:34:41Z</time>
      </trkpt>
      <trkpt lat="42.927810" lon="0.807980">
        <ele>783.341</ele>
        <time>2020-07-13T22:35:01Z</time>
      </trkpt>
      <trkpt lat="42.927590" lon="0.807990">
        <ele>784.215</ele>
        <time>2020-07-13T22:35:21Z</time>
      </trkpt>
      <trkpt lat="42.927320" lon="0.807600">
        <ele>786.408</ele>
        <time>2020-07-13T22:35:41Z</time>
      </trkpt>
      <trkpt lat="42.926730" lon="0.807360">
        <ele>793.452</ele>
        <time>2020-07-13T22:36:01Z</time>
      </trkpt>
      <trkpt lat="42.926480" lon="0.806750">
        <ele>796.129</ele>
        <time>2020-07-13T22:36:21Z</time>
      </trkpt>
      <trkpt lat="42.925770" lon="0.805710">
        <ele>814.634</ele>
        <time>2020-07-13T22:36:41Z</time>
      </trkpt>
      <trkpt lat="42.925050" lon="0.805050">
        <ele>815.587</ele>
        <time>2020-07-13T22:37:01Z</time>
      </trkpt>
      <trkpt lat="42.924300" lon="0.805050">
        <ele>804.162</ele>
        <time>2020-07-13T22:37:21Z</time>
      </trkpt>
      <trkpt lat="42.923800" lon="0.805920">
        <ele>804.883</ele>
        <time>2020-07-13T22:37:41Z</time>
      </trkpt>
      <trkpt lat="42.922860" lon="0.806290">
        <ele>795.875</ele>
        <time>2020-07-13T22:38:01Z</time>
      </trkpt>
      <trkpt lat="42.922330" lon="0.806180">
        <ele>785.885</ele>
        <time>2020-07-13T22:38:21Z</time>
      </trkpt>
      <trkpt lat="42.921420" lon="0.805470">
        <ele>780.956</ele>
        <time>2020-07-13T22:38:41Z</time>
      </trkpt>
      <trkpt lat="42.920890" lon="0.804320">
        <ele>784.259</ele>
        <time>2020-07-13T22:39:01Z</time>
      </trkpt>
      <trkpt lat="42.921150" lon="0.803940">
        <ele>792.114</ele>
        <time>2020-07-13T22:39:21Z</time>
      </trkpt>
      <trkpt lat="42.921580" lon="0.804070">
        <ele>794.508</ele>
        <time>2020-07-13T22:39:41Z</time>
      </trkpt>
      <trkpt lat="42.921750" lon="0.803980">
        <ele>794.540</ele>
        <time>2020-07-13T22:40:01Z</time>
      </trkpt>
      <trkpt lat="42.921590" lon="0.803270">
        <ele>806.177</ele>
        <time>2020-07-13T22:40:21Z</time>
      </trkpt>
      <trkpt lat="42.921730" lon="0.803070">
        <ele>801.972</ele>
        <time>2020-07-13T22:40:41Z</time>
      </trkpt>
      <trkpt lat="42.922110" lon="0.803280">
        <ele>807.315</ele>
        <time>2020-07-13T22:41:01Z</time>
      </trkpt>
      <trkpt lat="42.922790" lon="0.804020">
        <ele>807.970</ele>
        <time>2020-07-13T22:41:21Z</time>
      </trkpt>
      <trkpt lat="42.922140" lon="0.802960">
        <ele>818.011</ele>
        <time>2020-07-13T22:41:41Z</time>
      </trkpt>
      <trkpt lat="42.921870" lon="0.802190">
        <ele>829.113</ele>
        <time>2020-07-13T22:42:01Z</time>
      </trkpt>
      <trkpt lat="42.922310" lon="0.802520">
        <ele>835.583</ele>
        <time>2020-07-13T22:42:21Z</time>
      </trkpt>
      <trkpt lat="42.922590" lon="0.803110">
        <ele>837.023</ele>
        <time>2020-07-13T22:42:41Z</time>
      </trkpt>
      <trkpt lat="42.924150" lon="0.802780">
        <ele>851.983</ele>
        <time>2020-07-13T22:43:01Z</time>
      </trkpt>
      <trkpt lat="42.923170" lon="0.802320">
        <ele>862.211</ele>
        <time>2020-07-13T22:43:21Z</time>
      </trkpt>
      <trkpt lat="42.923070" lon="0.801610">
        <ele>871.408</ele>
        <time>2020-07-13T22:43:41Z</time>
      </trkpt>
      <trkpt lat="42.922290" lon="0.799330">
        <ele>890.797</ele>
        <time>2020-07-13T22:44:01Z</time>
      </trkpt>
      <trkpt lat="42.924200" lon="0.801430">
        <ele>909.284</ele>
        <time>2020-07-13T22:44:21Z</time>
      </trkpt>
      <trkpt lat="42.924340" lon="0.801380">
        <ele>918.029</ele>
        <time>2020-07-13T22:44:41Z</time>
      </trkpt>
      <trkpt lat="42.923970" lon="0.800820">
        <ele>920.632</ele>
        <time>2020-07-13T22:45:01Z</time>
      </trkpt>
      <trkpt lat="42.922370" lon="0.797260">
        <ele>956.067</ele>
        <time>2020-07-13T22:45:21Z</time>
      </trkpt>
      <trkpt lat="42.922080" lon="0.794930">
        <ele>974.078</ele>
        <time>2020-07-13T22:45:41Z</time>
      </trkpt>
      <trkpt lat="42.921730" lon="0.794290">
        <ele>971.120</ele>
        <time>2020-07-13T22:46:01Z</time>
      </trkpt>
      <trkpt lat="42.921180" lon="0.792490">
        <ele>986.170</ele>
        <time>2020-07-13T22:46:21Z</time>
      </trkpt>
      <trkpt lat="42.921080" lon="0.791200">
        <ele>1000.616</ele>
        <time>2020-07-13T22:46:41Z</time>
      </trkpt>
      <trkpt lat="42.920370" lon="0.789080">
        <ele>1006.676</ele>
        <time>2020-07-13T22:47:01Z</time>
      </trkpt>
      <trkpt lat="42.920550" lon="0.788410">
        <ele>1018.913</ele>
        <time>2020-07-13T22:47:21Z</time>
      </trkpt>
      <trkpt lat="42.920670" lon="0.788850">
        <ele>1017.408</ele>
        <time>2020-07-13T22:47:41Z</time>
      </trkpt>
      <trkpt lat="42.921000" lon="0.789170">
        <ele>1025.236</ele>
        <time>2020-07-13T22:48:01Z</time>
      </trkpt>
      <trkpt lat="42.921480" lon="0.790900">
        <ele>1028.463</ele>
        <time>2020-07-13T22:48:21Z</time>
      </trkpt>
      <trkpt lat="42.921620" lon="0.790830">
        <ele>1038.238</ele>
        <time>2020-07-13T22:48:41Z</time>
      </trkpt>
      <trkpt lat="42.921020" lon="0.786630">
        <ele>1066.311</ele>
        <time>2020-07-13T22:49:01Z</time>
      </trkpt>
      <trkpt lat="42.920470" lon="0.785380">
        <ele>1070.246</ele>
        <time>2020-07-13T22:49:21Z</time>
      </trkpt>
      <trkpt lat="42.920530" lon="0.785270">
        <ele>1075.917</ele>
        <time>2020-07-13T22:49:41Z</time>
      </trkpt>
      <trkpt lat="42.921080" lon="0.786020">
        <ele>1080.059</ele>
        <time>2020-07-13T22:50:01Z</time>
      </trkpt>
      <trkpt lat="42.921410" lon="0.787080">
        <ele>1085.159</ele>
        <time>2020-07-13T22:50:21Z</time>
      </trkpt>
      <trkpt lat="42.921510" lon="0.786950">
        <ele>1094.118</ele>
        <time>2020-07-13T22:50:41Z</time>
      </trkpt>
      <trkpt lat="42.920960" lon="0.784590">
        <ele>1106.098</ele>
        <time>2020-07-13T22:51:01Z</time>
      </trkpt>
      <trkpt lat="42.920360" lon="0.783090">
        <ele>1113.517</ele>
        <time>2020-07-13T22:51:21Z</time>
      </trkpt>
      <trkpt lat="42.919380" lon="0.781450">
        <ele>1131.308</ele>
        <time>2020-07-13T22:51:41Z</time>
      </trkpt>
      <trkpt lat="42.920360" lon="0.782530">
        <ele>1129.916</ele>
        <time>2020-07-13T22:52:01Z</time>
      </trkpt>
      <trkpt lat="42.920490" lon="0.782440">
        <ele>1142.053</ele>
        <time>2020-07-13T22:52:21Z</time>
      </trkpt>
      <trkpt lat="42.919300" lon="0.780490">
        <ele>1157.468</ele>
        <time>2020-07-13T22:52:41Z</time>
      </trkpt>
      <trkpt lat="42.918910" lon="0.779310">
        <ele>1170.111</ele>
        <time>2020-07-13T22:53:01Z</time>
      </trkpt>
      <trkpt lat="42.918320" lon="0.778880">
        <ele>1177.376</ele>
        <time>2020-07-13T22:53:21Z</time>
      </trkpt>
      <trkpt lat="42.918360" lon="0.778770">
        <ele>1177.827</ele>
        <time>2020-07-13T22:53:41Z</time>
      </trkpt>
      <trkpt lat="42.918720" lon="0.778770">
        <ele>1178.889</ele>
        <time>2020-07-13T22:54:01Z</time>
      </trkpt>
      <trkpt lat="42.918980" lon="0.778940">
        <ele>1180.549</ele>
        <time>2020-07-13T22:54:21Z</time>
      </trkpt>
      <trkpt lat="42.919020" lon="0.778780">
        <ele>1183.717</ele>
        <time>2020-07-13T22:54:41Z</time>
      </trkpt>
      <trkpt lat="42.918180" lon="0.777900">
        <ele>1186.787</ele>
        <time>2020-07-13T22:55:01Z</time>
      </trkpt>
      <trkpt lat="42.918260" lon="0.777810">
        <ele>1188.315</ele>
        <time>2020-07-13T22:55:21Z</time>
      </trkpt>
      <trkpt lat="42.918890" lon="0.777940">
        <ele>1193.508</ele>
        <time>2020-07-13T22:55:41Z</time>
      </trkpt>
      <trkpt lat="42.919490" lon="0.778850">
        <ele>1202.726</ele>
        <time>2020-07-13T22:56:01Z</time>
      </trkpt>
      <trkpt lat="42.919710" lon="0.779440">
        <ele>1203.473</ele>
        <time>2020-07-13T22:56:21Z</time>
      </trkpt>
      <trkpt lat="42.919840" lon="0.779460">
        <ele>1210.478</ele>
        <time>2020-07-13T22:56:41Z</time>
      </trkpt>
      <trkpt lat="42.919150" lon="0.777140">
        <ele>1224.221</ele>
        <time>2020-07-13T22:57:01Z</time>
      </trkpt>
      <trkpt lat="42.918690" lon="0.776230">
        <ele>1231.046</ele>
        <time>2020-07-13T22:57:21Z</time>
      </trkpt>
      <trkpt lat="42.918210" lon="0.775970">
        <ele>1236.987</ele>
        <time>2020-07-13T22:57:41Z</time>
      </trkpt>
      <trkpt lat="42.918300" lon="0.775840">
        <ele>1240.349</ele>
        <time>2020-07-13T22:58:01Z</time>
      </trkpt>
      <trkpt lat="42.919040" lon="0.776040">
        <ele>1239.869</ele>
        <time>2020-07-13T22:58:21Z</time>
      </trkpt>
      <trkpt lat="42.919150" lon="0.775920">
        <ele>1241.675</ele>
        <time>2020-07-13T22:58:41Z</time>
      </trkpt>
      <trkpt lat="42.918870" lon="0.774750">
        <ele>1251.128</ele>
        <time>2020-07-13T22:59:01Z</time>
      </trkpt>
      <trkpt lat="42.919080" lon="0.773270">
        <ele>1260.720</ele>
        <time>2020-07-13T22:59:21Z</time>
      </trkpt>
      <trkpt lat="42.918850" lon="0.772640">
        <ele>1263.608</ele>
        <time>2020-07-13T22:59:41Z</time>
      </trkpt>
      <trkpt lat="42.918280" lon="0.771790">
        <ele>1274.412</ele>
        <time>2020-07-13T23:00:01Z</time>
      </trkpt>
      <trkpt lat="42.918130" lon="0.769750">
        <ele>1289.919</ele>
        <time>2020-07-13T23:00:21Z</time>
      </trkpt>
      <trkpt lat="42.918250" lon="0.769400">
        <ele>1292.974</ele>
        <time>2020-07-13T23:00:41Z</time>
      </trkpt>
      <trkpt lat="42.918950" lon="0.768840">
        <ele>1290.927</ele>
        <time>2020-07-13T23:01:01Z</time>
      </trkpt>
      <trkpt lat="42.919130" lon="0.768100">
        <ele>1297.822</ele>
        <time>2020-07-13T23:01:21Z</time>
      </trkpt>
      <trkpt lat="42.919030" lon="0.766290">
        <ele>1314.273</ele>
        <time>2020-07-13T23:01:41Z</time>
      </trkpt>
      <trkpt lat="42.919420" lon="0.762070">
        <ele>1339.885</ele>
        <time>2020-07-13T23:02:01Z</time>
      </trkpt>
      <trkpt lat="42.919030" lon="0.760540">
        <ele>1328.555</ele>
        <time>2020-07-13T23:02:21Z</time>
      </trkpt>
      <trkpt lat="42.919100" lon="0.759100">
        <ele>1327.954</ele>
        <time>2020-07-13T23:02:41Z</time>
      </trkpt>
      <trkpt lat="42.917740" lon="0.756690">
        <ele>1295.756</ele>
        <time>2020-07-13T23:03:01Z</time>
      </trkpt>
      <trkpt lat="42.917660" lon="0.756910">
        <ele>1288.311</ele>
        <time>2020-07-13T23:03:21Z</time>
      </trkpt>
      <trkpt lat="42.918100" lon="0.757980">
        <ele>1286.508</ele>
        <time>2020-07-13T23:03:41Z</time>
      </trkpt>
      <trkpt lat="42.918210" lon="0.759010">
        <ele>1281.610</ele>
        <time>2020-07-13T23:04:01Z</time>
      </trkpt>
      <trkpt lat="42.918100" lon="0.759180">
        <ele>1280.517</ele>
        <time>2020-07-13T23:04:21Z</time>
      </trkpt>
      <trkpt lat="42.917690" lon="0.757530">
        <ele>1274.262</ele>
        <time>2020-07-13T23:04:41Z</time>
      </trkpt>
      <trkpt lat="42.917550" lon="0.757570">
        <ele>1265.545</ele>
        <time>2020-07-13T23:05:01Z</time>
      </trkpt>
      <trkpt lat="42.917730" lon="0.758300">
        <ele>1263.250</ele>
        <time>2020-07-13T23:05:21Z</time>
      </trkpt>
      <trkpt lat="42.917640" lon="0.758520">
        <ele>1263.091</ele>
        <time>2020-07-13T23:05:41Z</time>
      </trkpt>
      <trkpt lat="42.917480" lon="0.757880">
        <ele>1257.693</ele>
        <time>2020-07-13T23:06:01Z</time>
      </trkpt>
      <trkpt lat="42.917050" lon="0.757180">
        <ele>1245.673</ele>
        <time>2020-07-13T23:06:21Z</time>
      </trkpt>
      <trkpt lat="42.916900" lon="0.756150">
        <ele>1241.346</ele>
        <time>2020-07-13T23:06:41Z</time>
      </trkpt>
      <trkpt lat="42.916770" lon="0.756260">
        <ele>1230.988</ele>
        <time>2020-07-13T23:07:01Z</time>
      </trkpt>
      <trkpt lat="42.916830" lon="0.757480">
        <ele>1232.716</ele>
        <time>2020-07-13T23:07:21Z</time>
      </trkpt>
      <trkpt lat="42.916640" lon="0.757660">
        <ele>1234.208</ele>
        <time>2020-07-13T23:07:41Z</time>
      </trkpt>
      <trkpt lat="42.916070" lon="0.757470">
        <ele>1228.189</ele>
        <time>2020-07-13T23:08:01Z</time>
      </trkpt>
      <trkpt lat="42.915320" lon="0.756580">
        <ele>1214.216</ele>
        <time>2020-07-13T23:08:21Z</time>
      </trkpt>
      <trkpt lat="42.914730" lon="0.757260">
        <ele>1214.011</ele>
        <time>2020-07-13T23:08:41Z</time>
      </trkpt>
      <trkpt lat="42.914840" lon="0.755880">
        <ele>1200.034</ele>
        <time>2020-07-13T23:09:01Z</time>
      </trkpt>
      <trkpt lat="42.914070" lon="0.756780">
        <ele>1192.029</ele>
        <time>2020-07-13T23:09:21Z</time>
      </trkpt>
      <trkpt lat="42.914410" lon="0.755040">
        <ele>1178.970</ele>
        <time>2020-07-13T23:09:41Z</time>
      </trkpt>
      <trkpt lat="42.914650" lon="0.754630">
        <ele>1178.232</ele>
        <time>2020-07-13T23:10:01Z</time>
      </trkpt>
      <trkpt lat="42.914560" lon="0.754470">
        <ele>1174.462</ele>
        <time>2020-07-13T23:10:21Z</time>
      </trkpt>
      <trkpt lat="42.913740" lon="0.755160">
        <ele>1163.621</ele>
        <time>2020-07-13T23:10:41Z</time>
      </trkpt>
      <trkpt lat="42.914070" lon="0.754400">
        <ele>1164.441</ele>
        <time>2020-07-13T23:11:01Z</time>
      </trkpt>
      <trkpt lat="42.914100" lon="0.753680">
        <ele>1156.605</ele>
        <time>2020-07-13T23:11:21Z</time>
      </trkpt>
      <trkpt lat="42.914280" lon="0.753200">
        <ele>1155.308</ele>
        <time>2020-07-13T23:11:41Z</time>
      </trkpt>
      <trkpt lat="42.913940" lon="0.753390">
        <ele>1149.967</ele>
        <time>2020-07-13T23:12:01Z</time>
      </trkpt>
      <trkpt lat="42.913350" lon="0.754140">
        <ele>1140.344</ele>
        <time>2020-07-13T23:12:21Z</time>
      </trkpt>
      <trkpt lat="42.913260" lon="0.754000">
        <ele>1134.989</ele>
        <time>2020-07-13T23:12:41Z</time>
      </trkpt>
      <trkpt lat="42.913640" lon="0.752700">
        <ele>1129.212</ele>
        <time>2020-07-13T23:13:01Z</time>
      </trkpt>
      <trkpt lat="42.913870" lon="0.752360">
        <ele>1127.027</ele>
        <time>2020-07-13T23:13:21Z</time>
      </trkpt>
      <trkpt lat="42.914800" lon="0.751960">
        <ele>1124.478</ele>
        <time>2020-07-13T23:13:41Z</time>
      </trkpt>
      <trkpt lat="42.915300" lon="0.751910">
        <ele>1118.790</ele>
        <time>2020-07-13T23:14:01Z</time>
      </trkpt>
      <trkpt lat="42.915460" lon="0.751690">
        <ele>1110.680</ele>
        <time>2020-07-13T23:14:21Z</time>
      </trkpt>
      <trkpt lat="42.915310" lon="0.749200">
        <ele>1088.573</ele>
        <time>2020-07-13T23:14:41Z</time>
      </trkpt>
      <trkpt lat="42.915650" lon="0.746230">
        <ele>1071.085</ele>
        <time>2020-07-13T23:15:01Z</time>
      </trkpt>
      <trkpt lat="42.915550" lon="0.745490">
        <ele>1058.713</ele>
        <time>2020-07-13T23:15:21Z</time>
      </trkpt>
      <trkpt lat="42.915620" lon="0.743910">
        <ele>1056.608</ele>
        <time>2020-07-13T23:15:41Z</time>
      </trkpt>
      <trkpt lat="42.915490" lon="0.743910">
        <ele>1048.142</ele>
        <time>2020-07-13T23:16:01Z</time>
      </trkpt>
      <trkpt lat="42.914990" lon="0.745750">
        <ele>1037.859</ele>
        <time>2020-07-13T23:16:21Z</time>
      </trkpt>
      <trkpt lat="42.914900" lon="0.745040">
        <ele>1029.174</ele>
        <time>2020-07-13T23:16:41Z</time>
      </trkpt>
      <trkpt lat="42.915070" lon="0.743540">
        <ele>1019.617</ele>
        <time>2020-07-13T23:17:01Z</time>
      </trkpt>
      <trkpt lat="42.915480" lon="0.741860">
        <ele>1007.152</ele>
        <time>2020-07-13T23:17:21Z</time>
      </trkpt>
      <trkpt lat="42.915920" lon="0.741470">
        <ele>1004.233</ele>
        <time>2020-07-13T23:17:41Z</time>
      </trkpt>
      <trkpt lat="42.915730" lon="0.740010">
        <ele>983.475</ele>
        <time>2020-07-13T23:18:01Z</time>
      </trkpt>
      <trkpt lat="42.916020" lon="0.739120">
        <ele>984.115</ele>
        <time>2020-07-13T23:18:21Z</time>
      </trkpt>
      <trkpt lat="42.916280" lon="0.738810">
        <ele>978.076</ele>
        <time>2020-07-13T23:18:41Z</time>
      </trkpt>
      <trkpt lat="42.917000" lon="0.738980">
        <ele>970.490</ele>
        <time>2020-07-13T23:19:01Z</time>
      </trkpt>
      <trkpt lat="42.917230" lon="0.738800">
        <ele>965.419</ele>
        <time>2020-07-13T23:19:21Z</time>
      </trkpt>
      <trkpt lat="42.916660" lon="0.737150">
        <ele>947.108</ele>
        <time>2020-07-13T23:19:41Z</time>
      </trkpt>
      <trkpt lat="42.917070" lon="0.736380">
        <ele>942.932</ele>
        <time>2020-07-13T23:20:01Z</time>
      </trkpt>
      <trkpt lat="42.917670" lon="0.733290">
        <ele>912.589</ele>
        <time>2020-07-13T23:20:21Z</time>
      </trkpt>
      <trkpt lat="42.917960" lon="0.732510">
        <ele>911.364</ele>
        <time>2020-07-13T23:20:41Z</time>
      </trkpt>
      <trkpt lat="42.918470" lon="0.729580">
        <ele>883.837</ele>
        <time>2020-07-13T23:21:01Z</time>
      </trkpt>
      <trkpt lat="42.919090" lon="0.727810">
        <ele>875.372</ele>
        <time>2020-07-13T23:21:21Z</time>
      </trkpt>
      <trkpt lat="42.919140" lon="0.726300">
        <ele>861.863</ele>
        <time>2020-07-13T23:21:41Z</time>
      </trkpt>
      <trkpt lat="42.919680" lon="0.725160">
        <ele>852.085</ele>
        <time>2020-07-13T23:22:01Z</time>
      </trkpt>
      <trkpt lat="42.921070" lon="0.723970">
        <ele>836.615</ele>
        <time>2020-07-13T23:22:21Z</time>
      </trkpt>
      <trkpt lat="42.921730" lon="0.722600">
        <ele>823.154</ele>
        <time>2020-07-13T23:22:41Z</time>
      </trkpt>
      <trkpt lat="42.922710" lon="0.721370">
        <ele>815.356</ele>
        <time>2020-07-13T23:23:01Z</time>
      </trkpt>
      <trkpt lat="42.922790" lon="0.720960">
        <ele>811.211</ele>
        <time>2020-07-13T23:23:21Z</time>
      </trkpt>
      <trkpt lat="42.922690" lon="0.720120">
        <ele>799.508</ele>
        <time>2020-07-13T23:23:41Z</time>
      </trkpt>
      <trkpt lat="42.922480" lon="0.719950">
        <ele>796.550</ele>
        <time>2020-07-13T23:24:01Z</time>
      </trkpt>
      <trkpt lat="42.922210" lon="0.720260">
        <ele>791.927</ele>
        <time>2020-07-13T23:24:21Z</time>
      </trkpt>
      <trkpt lat="42.922190" lon="0.720870">
        <ele>792.662</ele>
        <time>2020-07-13T23:24:41Z</time>
      </trkpt>
      <trkpt lat="42.921940" lon="0.721250">
        <ele>785.975</ele>
        <time>2020-07-13T23:25:01Z</time>
      </trkpt>
      <trkpt lat="42.921250" lon="0.721730">
        <ele>781.440</ele>
        <time>2020-07-13T23:25:21Z</time>
      </trkpt>
      <trkpt lat="42.920300" lon="0.721870">
        <ele>766.791</ele>
        <time>2020-07-13T23:25:41Z</time>
      </trkpt>
      <trkpt lat="42.920240" lon="0.721650">
        <ele>761.573</ele>
        <time>2020-07-13T23:26:01Z</time>
      </trkpt>
      <trkpt lat="42.920700" lon="0.721040">
        <ele>760.033</ele>
        <time>2020-07-13T23:26:21Z</time>
      </trkpt>
      <trkpt lat="42.920830" lon="0.720350">
        <ele>756.528</ele>
        <time>2020-07-13T23:26:41Z</time>
      </trkpt>
      <trkpt lat="42.920100" lon="0.718630">
        <ele>737.589</ele>
        <time>2020-07-13T23:27:01Z</time>
      </trkpt>
      <trkpt lat="42.919260" lon="0.717990">
        <ele>724.317</ele>
        <time>2020-07-13T23:27:21Z</time>
      </trkpt>
      <trkpt lat="42.918600" lon="0.717860">
        <ele>714.808</ele>
        <time>2020-07-13T23:27:41Z</time>
      </trkpt>
      <trkpt lat="42.918180" lon="0.718040">
        <ele>712.687</ele>
        <time>2020-07-13T23:28:01Z</time>
      </trkpt>
      <trkpt lat="42.917730" lon="0.718030">
        <ele>708.574</ele>
        <time>2020-07-13T23:28:21Z</time>
      </trkpt>
      <trkpt lat="42.917340" lon="0.717860">
        <ele>704.279</ele>
        <time>2020-07-13T23:28:41Z</time>
      </trkpt>
      <trkpt lat="42.916350" lon="0.715550">
        <ele>689.782</ele>
        <time>2020-07-13T23:29:01Z</time>
      </trkpt>
      <trkpt lat="42.916160" lon="0.714610">
        <ele>690.547</ele>
        <time>2020-07-13T23:29:21Z</time>
      </trkpt>
      <trkpt lat="42.915440" lon="0.713960">
        <ele>676.988</ele>
        <time>2020-07-13T23:29:41Z</time>
      </trkpt>
      <trkpt lat="42.914130" lon="0.713250">
        <ele>656.810</ele>
        <time>2020-07-13T23:30:01Z</time>
      </trkpt>
      <trkpt lat="42.913560" lon="0.712290">
        <ele>653.930</ele>
        <time>2020-07-13T23:30:21Z</time>
      </trkpt>
      <trkpt lat="42.912670" lon="0.711190">
        <ele>649.192</ele>
        <time>2020-07-13T23:30:41Z</time>
      </trkpt>
      <trkpt lat="42.912480" lon="0.709690">
        <ele>640.073</ele>
        <time>2020-07-13T23:31:01Z</time>
      </trkpt>
      <trkpt lat="42.912680" lon="0.708640">
        <ele>628.820</ele>
        <time>2020-07-13T23:31:21Z</time>
      </trkpt>
      <trkpt lat="42.912010" lon="0.708060">
        <ele>613.308</ele>
        <time>2020-07-13T23:31:41Z</time>
      </trkpt>
      <trkpt lat="42.911800" lon="0.707230">
        <ele>611.844</ele>
        <time>2020-07-13T23:32:01Z</time>
      </trkpt>
      <trkpt lat="42.911330" lon="0.706260">
        <ele>599.851</ele>
        <time>2020-07-13T23:32:21Z</time>
      </trkpt>
      <trkpt lat="42.911000" lon="0.703900">
        <ele>583.896</ele>
        <time>2020-07-13T23:32:41Z</time>
      </trkpt>
      <trkpt lat="42.910630" lon="0.703060">
        <ele>562.359</ele>
        <time>2020-07-13T23:33:01Z</time>
      </trkpt>
      <trkpt lat="42.910380" lon="0.701810">
        <ele>558.774</ele>
        <time>2020-07-13T23:33:21Z</time>
      </trkpt>
      <trkpt lat="42.910870" lon="0.700280">
        <ele>555.855</ele>
        <time>2020-07-13T23:33:41Z</time>
      </trkpt>
      <trkpt lat="42.911120" lon="0.698270">
        <ele>542.467</ele>
        <time>2020-07-13T23:34:01Z</time>
      </trkpt>
      <trkpt lat="42.911440" lon="0.697340">
        <ele>538.887</ele>
        <time>2020-07-13T23:34:21Z</time>
      </trkpt>
      <trkpt lat="42.911300" lon="0.695560">
        <ele>507.718</ele>
        <time>2020-07-13T23:34:41Z</time>
      </trkpt>
      <trkpt lat="42.912520" lon="0.691840">
        <ele>500.498</ele>
        <time>2020-07-13T23:35:01Z</time>
      </trkpt>
      <trkpt lat="42.909600" lon="0.690340">
        <ele>505.817</ele>
        <time>2020-07-13T23:35:21Z</time>
      </trkpt>
      <trkpt lat="42.908280" lon="0.690010">
        <ele>508.008</ele>
        <time>2020-07-13T23:35:41Z</time>
      </trkpt>
      <trkpt lat="42.907950" lon="0.690060">
        <ele>508.286</ele>
        <time>2020-07-13T23:36:01Z</time>
      </trkpt>
      <trkpt lat="42.905460" lon="0.691460">
        <ele>507.363</ele>
        <time>2020-07-13T23:36:21Z</time>
      </trkpt>
      <trkpt lat="42.904340" lon="0.691830">
        <ele>509.038</ele>
        <time>2020-07-13T23:36:41Z</time>
      </trkpt>
      <trkpt lat="42.903310" lon="0.693320">
        <ele>510.281</ele>
        <time>2020-07-13T23:37:01Z</time>
      </trkpt>
      <trkpt lat="42.902210" lon="0.696050">
        <ele>510.346</ele>
        <time>2020-07-13T23:37:21Z</time>
      </trkpt>
      <trkpt lat="42.901810" lon="0.696540">
        <ele>511.467</ele>
        <time>2020-07-13T23:37:41Z</time>
      </trkpt>
      <trkpt lat="42.899480" lon="0.698470">
        <ele>520.929</ele>
        <time>2020-07-13T23:38:01Z</time>
      </trkpt>
      <trkpt lat="42.896280" lon="0.699420">
        <ele>525.579</ele>
        <time>2020-07-13T23:38:21Z</time>
      </trkpt>
      <trkpt lat="42.891640" lon="0.703390">
        <ele>520.015</ele>
        <time>2020-07-13T23:38:41Z</time>
      </trkpt>
      <trkpt lat="42.888670" lon="0.706340">
        <ele>522.865</ele>
        <time>2020-07-13T23:39:01Z</time>
      </trkpt>
      <trkpt lat="42.884410" lon="0.714070">
        <ele>537.811</ele>
        <time>2020-07-13T23:39:21Z</time>
      </trkpt>
      <trkpt lat="42.874110" lon="0.727000">
        <ele>540.008</ele>
        <time>2020-07-13T23:39:41Z</time>
      </trkpt>
      <trkpt lat="42.873670" lon="0.727220">
        <ele>540.026</ele>
        <time>2020-07-13T23:40:01Z</time>
      </trkpt>
      <trkpt lat="42.873490" lon="0.727780">
        <ele>540.033</ele>
        <time>2020-07-13T23:40:21Z</time>
      </trkpt>
      <trkpt lat="42.872270" lon="0.729620">
        <ele>540.038</ele>
        <time>2020-07-13T23:40:41Z</time>
      </trkpt>
      <trkpt lat="42.868130" lon="0.738500">
        <ele>553.241</ele>
        <time>2020-07-13T23:41:01Z</time>
      </trkpt>
      <trkpt lat="42.867500" lon="0.740440">
        <ele>549.096</ele>
        <time>2020-07-13T23:41:21Z</time>
      </trkpt>
      <trkpt lat="42.867140" lon="0.744210">
        <ele>551.427</ele>
        <time>2020-07-13T23:41:41Z</time>
      </trkpt>
      <trkpt lat="42.866700" lon="0.746130">
        <ele>555.659</ele>
        <time>2020-07-13T23:42:01Z</time>
      </trkpt>
      <trkpt lat="42.865960" lon="0.748520">
        <ele>551.579</ele>
        <time>2020-07-13T23:42:21Z</time>
      </trkpt>
      <trkpt lat="42.864950" lon="0.749600">
        <ele>559.014</ele>
        <time>2020-07-13T23:42:41Z</time>
      </trkpt>
      <trkpt lat="42.863910" lon="0.749420">
        <ele>553.554</ele>
        <time>2020-07-13T23:43:01Z</time>
      </trkpt>
      <trkpt lat="42.863080" lon="0.748430">
        <ele>557.909</ele>
        <time>2020-07-13T23:43:21Z</time>
      </trkpt>
      <trkpt lat="42.862760" lon="0.748250">
        <ele>560.008</ele>
        <time>2020-07-13T23:43:41Z</time>
      </trkpt>
      <trkpt lat="42.862090" lon="0.748080">
        <ele>560.056</ele>
        <time>2020-07-13T23:44:01Z</time>
      </trkpt>
      <trkpt lat="42.860340" lon="0.748160">
        <ele>560.043</ele>
        <time>2020-07-13T23:44:21Z</time>
      </trkpt>
      <trkpt lat="42.859610" lon="0.747810">
        <ele>560.218</ele>
        <time>2020-07-13T23:44:41Z</time>
      </trkpt>
      <trkpt lat="42.859140" lon="0.747300">
        <ele>561.811</ele>
        <time>2020-07-13T23:45:01Z</time>
      </trkpt>
      <trkpt lat="42.857080" lon="0.743080">
        <ele>565.996</ele>
        <time>2020-07-13T23:45:21Z</time>
      </trkpt>
      <trkpt lat="42.856480" lon="0.739100">
        <ele>584.527</ele>
        <time>2020-07-13T23:45:41Z</time>
      </trkpt>
      <trkpt lat="42.856390" lon="0.737400">
        <ele>569.349</ele>
        <time>2020-07-13T23:46:01Z</time>
      </trkpt>
      <trkpt lat="42.856170" lon="0.736790">
        <ele>567.499</ele>
        <time>2020-07-13T23:46:21Z</time>
      </trkpt>
      <trkpt lat="42.855740" lon="0.736270">
        <ele>568.014</ele>
        <time>2020-07-13T23:46:41Z</time>
      </trkpt>
      <trkpt lat="42.854910" lon="0.735850">
        <ele>570.254</ele>
        <time>2020-07-13T23:47:01Z</time>
      </trkpt>
      <trkpt lat="42.854310" lon="0.735750">
        <ele>577.309</ele>
        <time>2020-07-13T23:47:21Z</time>
      </trkpt>
      <trkpt lat="42.849400" lon="0.736140">
        <ele>581.408</ele>
        <time>2020-07-13T23:47:41Z</time>
      </trkpt>
      <trkpt lat="42.848040" lon="0.735150">
        <ele>585.976</ele>
        <time>2020-07-13T23:48:01Z</time>
      </trkpt>
      <trkpt lat="42.846820" lon="0.733710">
        <ele>586.533</ele>
        <time>2020-07-13T23:48:21Z</time>
      </trkpt>
      <trkpt lat="42.844850" lon="0.732440">
        <ele>589.018</ele>
        <time>2020-07-13T23:48:41Z</time>
      </trkpt>
      <trkpt lat="42.844100" lon="0.731700">
        <ele>590.061</ele>
        <time>2020-07-13T23:49:01Z</time>
      </trkpt>
      <trkpt lat="42.843670" lon="0.731480">
        <ele>589.966</ele>
        <time>2020-07-13T23:49:21Z</time>
      </trkpt>
      <trkpt lat="42.842710" lon="0.731350">
        <ele>592.367</ele>
        <time>2020-07-13T23:49:41Z</time>
      </trkpt>
      <trkpt lat="42.841710" lon="0.730710">
        <ele>592.699</ele>
        <time>2020-07-13T23:50:01Z</time>
      </trkpt>
      <trkpt lat="42.840970" lon="0.730670">
        <ele>593.219</ele>
        <time>2020-07-13T23:50:21Z</time>
      </trkpt>
      <trkpt lat="42.839320" lon="0.731630">
        <ele>595.885</ele>
        <time>2020-07-13T23:50:41Z</time>
      </trkpt>
      <trkpt lat="42.838730" lon="0.731720">
        <ele>597.589</ele>
        <time>2020-07-13T23:51:01Z</time>
      </trkpt>
      <trkpt lat="42.836330" lon="0.730330">
        <ele>610.417</ele>
        <time>2020-07-13T23:51:21Z</time>
      </trkpt>
      <trkpt lat="42.834710" lon="0.730250">
        <ele>611.508</ele>
        <time>2020-07-13T23:51:41Z</time>
      </trkpt>
      <trkpt lat="42.833240" lon="0.729660">
        <ele>605.823</ele>
        <time>2020-07-13T23:52:01Z</time>
      </trkpt>
      <trkpt lat="42.831830" lon="0.729550">
        <ele>605.720</ele>
        <time>2020-07-13T23:52:21Z</time>
      </trkpt>
      <trkpt lat="42.831300" lon="0.729340">
        <ele>606.485</ele>
        <time>2020-07-13T23:52:41Z</time>
      </trkpt>
      <trkpt lat="42.830180" lon="0.728130">
        <ele>605.038</ele>
        <time>2020-07-13T23:53:01Z</time>
      </trkpt>
      <trkpt lat="42.828390" lon="0.727330">
        <ele>609.223</ele>
        <time>2020-07-13T23:53:21Z</time>
      </trkpt>
      <trkpt lat="42.827100" lon="0.725600">
        <ele>614.474</ele>
        <time>2020-07-13T23:53:41Z</time>
      </trkpt>
      <trkpt lat="42.825770" lon="0.725040">
        <ele>618.826</ele>
        <time>2020-07-13T23:54:01Z</time>
      </trkpt>
      <trkpt lat="42.825200" lon="0.724550">
        <ele>623.026</ele>
        <time>2020-07-13T23:54:21Z</time>
      </trkpt>
      <trkpt lat="42.824950" lon="0.724060">
        <ele>622.738</ele>
        <time>2020-07-13T23:54:41Z</time>
      </trkpt>
      <trkpt lat="42.824530" lon="0.722000">
        <ele>621.270</ele>
        <time>2020-07-13T23:55:01Z</time>
      </trkpt>
      <trkpt lat="42.823040" lon="0.719900">
        <ele>621.117</ele>
        <time>2020-07-13T23:55:21Z</time>
      </trkpt>
      <trkpt lat="42.821960" lon="0.716490">
        <ele>623.908</ele>
        <time>2020-07-13T23:55:41Z</time>
      </trkpt>
      <trkpt lat="42.820720" lon="0.713900">
        <ele>626.188</ele>
        <time>2020-07-13T23:56:01Z</time>
      </trkpt>
      <trkpt lat="42.820070" lon="0.713030">
        <ele>625.715</ele>
        <time>2020-07-13T23:56:21Z</time>
      </trkpt>
      <trkpt lat="42.816770" lon="0.711070">
        <ele>628.440</ele>
        <time>2020-07-13T23:56:41Z</time>
      </trkpt>
      <trkpt lat="42.815970" lon="0.710310">
        <ele>629.953</ele>
        <time>2020-07-13T23:57:01Z</time>
      </trkpt>
      <trkpt lat="42.815570" lon="0.710110">
        <ele>630.048</ele>
        <time>2020-07-13T23:57:21Z</time>
      </trkpt>
      <trkpt lat="42.810540" lon="0.709890">
        <ele>638.279</ele>
        <time>2020-07-13T23:57:41Z</time>
      </trkpt>
      <trkpt lat="42.810130" lon="0.709730">
        <ele>638.431</ele>
        <time>2020-07-13T23:58:01Z</time>
      </trkpt>
      <trkpt lat="42.809670" lon="0.709250">
        <ele>639.491</ele>
        <time>2020-07-13T23:58:21Z</time>
      </trkpt>
      <trkpt lat="42.808410" lon="0.707080">
        <ele>642.026</ele>
        <time>2020-07-13T23:58:41Z</time>
      </trkpt>
      <trkpt lat="42.806870" lon="0.706100">
        <ele>642.047</ele>
        <time>2020-07-13T23:59:01Z</time>
      </trkpt>
      <trkpt lat="42.806590" lon="0.705700">
        <ele>642.711</ele>
        <time>2020-07-13T23:59:21Z</time>
      </trkpt>
      <trkpt lat="42.806120" lon="0.705570">
        <ele>642.008</ele>
        <time>2020-07-13T23:59:41Z</time>
      </trkpt>
      <trkpt lat="42.803920" lon="0.703760">
        <ele>647.027</ele>
        <time>2020-07-14T00:00:01Z</time>
      </trkpt>
      <trkpt lat="42.803280" lon="0.703450">
        <ele>651.254</ele>
        <time>2020-07-14T00:00:21Z</time>
      </trkpt>
      <trkpt lat="42.801280" lon="0.703070">
        <ele>656.369</ele>
        <time>2020-07-14T00:00:41Z</time>
      </trkpt>
      <trkpt lat="42.800830" lon="0.702870">
        <ele>656.312</ele>
        <time>2020-07-14T00:01:01Z</time>
      </trkpt>
      <trkpt lat="42.796480" lon="0.699800">
        <ele>671.777</ele>
        <time>2020-07-14T00:01:21Z</time>
      </trkpt>
      <trkpt lat="42.794620" lon="0.698080">
        <ele>679.958</ele>
        <time>2020-07-14T00:01:41Z</time>
      </trkpt>
      <trkpt lat="42.794120" lon="0.697970">
        <ele>683.130</ele>
        <time>2020-07-14T00:02:01Z</time>
      </trkpt>
      <trkpt lat="42.791820" lon="0.698050">
        <ele>696.150</ele>
        <time>2020-07-14T00:02:21Z</time>
      </trkpt>
      <trkpt lat="42.790520" lon="0.697150">
        <ele>699.619</ele>
        <time>2020-07-14T00:02:41Z</time>
      </trkpt>
      <trkpt lat="42.789620" lon="0.696790">
        <ele>702.509</ele>
        <time>2020-07-14T00:03:01Z</time>
      </trkpt>
      <trkpt lat="42.789240" lon="0.696420">
        <ele>702.619</ele>
        <time>2020-07-14T00:03:21Z</time>
      </trkpt>
      <trkpt lat="42.788690" lon="0.695240">
        <ele>702.808</ele>
        <time>2020-07-14T00:03:41Z</time>
      </trkpt>
      <trkpt lat="42.788320" lon="0.694760">
        <ele>702.726</ele>
        <time>2020-07-14T00:04:01Z</time>
      </trkpt>
      <trkpt lat="42.786970" lon="0.693660">
        <ele>704.633</ele>
        <time>2020-07-14T00:04:21Z</time>
      </trkpt>
      <trkpt lat="42.785310" lon="0.692800">
        <ele>706.948</ele>
        <time>2020-07-14T00:04:41Z</time>
      </trkpt>
      <trkpt lat="42.785530" lon="0.692150">
        <ele>710.171</ele>
        <time>2020-07-14T00:05:01Z</time>
      </trkpt>
      <trkpt lat="42.785530" lon="0.692150">
        <ele>710.174</ele>
        <time>2020-07-13T21:18:16Z</time>
      </trkpt>
      <trkpt lat="42.785310" lon="0.692800">
        <ele>706.956</ele>
        <time>2020-07-13T21:18:36Z</time>
      </trkpt>
      <trkpt lat="42.783960" lon="0.692410">
        <ele>708.221</ele>
        <time>2020-07-13T21:18:56Z</time>
      </trkpt>
      <trkpt lat="42.780950" lon="0.690130">
        <ele>717.208</ele>
        <time>2020-07-13T21:19:16Z</time>
      </trkpt>
      <trkpt lat="42.780590" lon="0.689290">
        <ele>722.892</ele>
        <time>2020-07-13T21:19:36Z</time>
      </trkpt>
      <trkpt lat="42.779830" lon="0.689050">
        <ele>727.159</ele>
        <time>2020-07-13T21:19:56Z</time>
      </trkpt>
      <trkpt lat="42.779150" lon="0.688360">
        <ele>731.714</ele>
        <time>2020-07-13T21:20:36Z</time>
      </trkpt>
      <trkpt lat="42.778770" lon="0.685820">
        <ele>744.717</ele>
        <time>2020-07-13T21:21:16Z</time>
      </trkpt>
      <trkpt lat="42.777850" lon="0.684950">
        <ele>754.162</ele>
        <time>2020-07-13T21:21:36Z</time>
      </trkpt>
      <trkpt lat="42.775990" lon="0.684070">
        <ele>767.743</ele>
        <time>2020-07-13T21:22:16Z</time>
      </trkpt>
      <trkpt lat="42.771630" lon="0.683610">
        <ele>799.186</ele>
        <time>2020-07-13T21:23:36Z</time>
      </trkpt>
      <trkpt lat="42.772020" lon="0.683090">
        <ele>806.324</ele>
        <time>2020-07-13T21:24:16Z</time>
      </trkpt>
      <trkpt lat="42.773280" lon="0.683500">
        <ele>810.154</ele>
        <time>2020-07-13T21:24:36Z</time>
      </trkpt>
      <trkpt lat="42.774160" lon="0.682950">
        <ele>817.056</ele>
        <time>2020-07-13T21:25:16Z</time>
      </trkpt>
      <trkpt lat="42.776020" lon="0.682670">
        <ele>832.311</ele>
        <time>2020-07-13T21:25:56Z</time>
      </trkpt>
      <trkpt lat="42.778200" lon="0.683630">
        <ele>843.608</ele>
        <time>2020-07-13T21:26:56Z</time>
      </trkpt>
      <trkpt lat="42.779670" lon="0.683380">
        <ele>845.390</ele>
        <time>2020-07-13T21:27:16Z</time>
      </trkpt>
      <trkpt lat="42.779730" lon="0.682900">
        <ele>856.037</ele>
        <time>2020-07-13T21:27:56Z</time>
      </trkpt>
      <trkpt lat="42.778220" lon="0.683190">
        <ele>861.442</ele>
        <time>2020-07-13T21:28:56Z</time>
      </trkpt>
      <trkpt lat="42.776650" lon="0.682400">
        <ele>874.885</ele>
        <time>2020-07-13T21:30:16Z</time>
      </trkpt>
      <trkpt lat="42.776210" lon="0.681800">
        <ele>882.050</ele>
        <time>2020-07-13T21:30:36Z</time>
      </trkpt>
      <trkpt lat="42.774560" lon="0.681040">
        <ele>895.711</ele>
        <time>2020-07-13T21:31:16Z</time>
      </trkpt>
      <trkpt lat="42.773260" lon="0.681040">
        <ele>902.694</ele>
        <time>2020-07-13T21:31:36Z</time>
      </trkpt>
      <trkpt lat="42.773120" lon="0.680760">
        <ele>911.242</ele>
        <time>2020-07-13T21:31:56Z</time>
      </trkpt>
      <trkpt lat="42.775790" lon="0.680380">
        <ele>930.329</ele>
        <time>2020-07-13T21:32:56Z</time>
      </trkpt>
      <trkpt lat="42.776560" lon="0.680600">
        <ele>937.700</ele>
        <time>2020-07-13T21:33:16Z</time>
      </trkpt>
      <trkpt lat="42.777490" lon="0.681690">
        <ele>944.120</ele>
        <time>2020-07-13T21:33:36Z</time>
      </trkpt>
      <trkpt lat="42.779580" lon="0.680760">
        <ele>962.608</ele>
        <time>2020-07-13T21:34:16Z</time>
      </trkpt>
      <trkpt lat="42.780930" lon="0.679180">
        <ele>976.317</ele>
        <time>2020-07-13T21:34:56Z</time>
      </trkpt>
      <trkpt lat="42.781230" lon="0.678340">
        <ele>981.074</ele>
        <time>2020-07-13T21:35:16Z</time>
      </trkpt>
      <trkpt lat="42.780970" lon="0.678320">
        <ele>990.519</ele>
        <time>2020-07-13T21:35:56Z</time>
      </trkpt>
      <trkpt lat="42.780610" lon="0.679100">
        <ele>991.052</ele>
        <time>2020-07-13T21:36:16Z</time>
      </trkpt>
      <trkpt lat="42.778170" lon="0.680370">
        <ele>1015.127</ele>
        <time>2020-07-13T21:36:36Z</time>
      </trkpt>
      <trkpt lat="42.777960" lon="0.679700">
        <ele>1024.758</ele>
        <time>2020-07-13T21:37:16Z</time>
      </trkpt>
      <trkpt lat="42.776250" lon="0.678080">
        <ele>1045.341</ele>
        <time>2020-07-13T21:37:56Z</time>
      </trkpt>
      <trkpt lat="42.774810" lon="0.677640">
        <ele>1059.729</ele>
        <time>2020-07-13T21:38:16Z</time>
      </trkpt>
      <trkpt lat="42.772440" lon="0.677600">
        <ele>1080.318</ele>
        <time>2020-07-13T21:38:36Z</time>
      </trkpt>
      <trkpt lat="42.771050" lon="0.676780">
        <ele>1096.198</ele>
        <time>2020-07-13T21:38:56Z</time>
      </trkpt>
      <trkpt lat="42.770590" lon="0.676150">
        <ele>1106.217</ele>
        <time>2020-07-13T21:39:16Z</time>
      </trkpt>
      <trkpt lat="42.769240" lon="0.672220">
        <ele>1128.208</ele>
        <time>2020-07-13T21:39:36Z</time>
      </trkpt>
      <trkpt lat="42.768350" lon="0.671350">
        <ele>1132.116</ele>
        <time>2020-07-13T21:39:56Z</time>
      </trkpt>
      <trkpt lat="42.767980" lon="0.669880">
        <ele>1139.973</ele>
        <time>2020-07-13T21:40:36Z</time>
      </trkpt>
      <trkpt lat="42.768450" lon="0.668750">
        <ele>1147.888</ele>
        <time>2020-07-13T21:40:56Z</time>
      </trkpt>
      <trkpt lat="42.768180" lon="0.667480">
        <ele>1159.661</ele>
        <time>2020-07-13T21:41:16Z</time>
      </trkpt>
      <trkpt lat="42.767400" lon="0.666620">
        <ele>1170.856</ele>
        <time>2020-07-13T21:41:36Z</time>
      </trkpt>
      <trkpt lat="42.766980" lon="0.666880">
        <ele>1173.787</ele>
        <time>2020-07-13T21:41:56Z</time>
      </trkpt>
      <trkpt lat="42.766560" lon="0.666630">
        <ele>1174.360</ele>
        <time>2020-07-13T21:42:36Z</time>
      </trkpt>
      <trkpt lat="42.765720" lon="0.663230">
        <ele>1199.478</ele>
        <time>2020-07-13T21:43:36Z</time>
      </trkpt>
      <trkpt lat="42.765150" lon="0.662860">
        <ele>1205.285</ele>
        <time>2020-07-13T21:43:56Z</time>
      </trkpt>
      <trkpt lat="42.764620" lon="0.663900">
        <ele>1210.889</ele>
        <time>2020-07-13T21:44:16Z</time>
      </trkpt>
      <trkpt lat="42.764440" lon="0.663800">
        <ele>1214.817</ele>
        <time>2020-07-13T21:44:36Z</time>
      </trkpt>
      <trkpt lat="42.764780" lon="0.662410">
        <ele>1221.508</ele>
        <time>2020-07-13T21:45:16Z</time>
      </trkpt>
      <trkpt lat="42.765300" lon="0.661690">
        <ele>1226.743</ele>
        <time>2020-07-13T21:45:36Z</time>
      </trkpt>
      <trkpt lat="42.765630" lon="0.661740">
        <ele>1229.640</ele>
        <time>2020-07-13T21:45:56Z</time>
      </trkpt>
      <trkpt lat="42.766500" lon="0.662800">
        <ele>1239.015</ele>
        <time>2020-07-13T21:46:16Z</time>
      </trkpt>
      <trkpt lat="42.767170" lon="0.661560">
        <ele>1255.488</ele>
        <time>2020-07-13T21:46:56Z</time>
      </trkpt>
      <trkpt lat="42.767800" lon="0.661340">
        <ele>1260.833</ele>
        <time>2020-07-13T21:47:16Z</time>
      </trkpt>
      <trkpt lat="42.767730" lon="0.660840">
        <ele>1263.154</ele>
        <time>2020-07-13T21:47:56Z</time>
      </trkpt>
      <trkpt lat="42.766660" lon="0.660300">
        <ele>1272.997</ele>
        <time>2020-07-13T21:48:36Z</time>
      </trkpt>
      <trkpt lat="42.767400" lon="0.659260">
        <ele>1278.825</ele>
        <time>2020-07-13T21:49:16Z</time>
      </trkpt>
      <trkpt lat="42.768160" lon="0.659260">
        <ele>1284.018</ele>
        <time>2020-07-13T21:49:36Z</time>
      </trkpt>
      <trkpt lat="42.768600" lon="0.659960">
        <ele>1288.598</ele>
        <time>2020-07-13T21:49:56Z</time>
      </trkpt>
      <trkpt lat="42.769650" lon="0.660250">
        <ele>1298.017</ele>
        <time>2020-07-13T21:50:16Z</time>
      </trkpt>
      <trkpt lat="42.770160" lon="0.661410">
        <ele>1296.908</ele>
        <time>2020-07-13T21:50:36Z</time>
      </trkpt>
      <trkpt lat="42.770300" lon="0.661290">
        <ele>1290.146</ele>
        <time>2020-07-13T21:50:56Z</time>
      </trkpt>
      <trkpt lat="42.770090" lon="0.660730">
        <ele>1290.363</ele>
        <time>2020-07-13T21:51:16Z</time>
      </trkpt>
      <trkpt lat="42.770610" lon="0.660390">
        <ele>1264.448</ele>
        <time>2020-07-13T21:51:56Z</time>
      </trkpt>
      <trkpt lat="42.770800" lon="0.661220">
        <ele>1268.931</ele>
        <time>2020-07-13T21:52:16Z</time>
      </trkpt>
      <trkpt lat="42.771240" lon="0.661680">
        <ele>1271.226</ele>
        <time>2020-07-13T21:52:36Z</time>
      </trkpt>
      <trkpt lat="42.772500" lon="0.661120">
        <ele>1242.247</ele>
        <time>2020-07-13T21:53:56Z</time>
      </trkpt>
      <trkpt lat="42.772310" lon="0.657610">
        <ele>1209.230</ele>
        <time>2020-07-13T21:54:16Z</time>
      </trkpt>
      <trkpt lat="42.771500" lon="0.656140">
        <ele>1187.358</ele>
        <time>2020-07-13T21:55:16Z</time>
      </trkpt>
      <trkpt lat="42.771400" lon="0.652230">
        <ele>1155.462</ele>
        <time>2020-07-13T21:55:36Z</time>
      </trkpt>
      <trkpt lat="42.771790" lon="0.649530">
        <ele>1126.283</ele>
        <time>2020-07-13T21:55:56Z</time>
      </trkpt>
      <trkpt lat="42.771750" lon="0.646710">
        <ele>1108.811</ele>
        <time>2020-07-13T21:56:16Z</time>
      </trkpt>
      <trkpt lat="42.771590" lon="0.646700">
        <ele>1102.908</ele>
        <time>2020-07-13T21:56:36Z</time>
      </trkpt>
      <trkpt lat="42.771500" lon="0.648110">
        <ele>1091.981</ele>
        <time>2020-07-13T21:56:56Z</time>
      </trkpt>
      <trkpt lat="42.770310" lon="0.652320">
        <ele>1068.368</ele>
        <time>2020-07-13T21:57:36Z</time>
      </trkpt>
      <trkpt lat="42.770560" lon="0.650200">
        <ele>1041.753</ele>
        <time>2020-07-13T21:57:56Z</time>
      </trkpt>
      <trkpt lat="42.770400" lon="0.648740">
        <ele>1030.416</ele>
        <time>2020-07-13T21:58:16Z</time>
      </trkpt>
      <trkpt lat="42.769580" lon="0.648010">
        <ele>1022.121</ele>
        <time>2020-07-13T21:58:56Z</time>
      </trkpt>
      <trkpt lat="42.768570" lon="0.645950">
        <ele>1006.432</ele>
        <time>2020-07-13T21:59:16Z</time>
      </trkpt>
      <trkpt lat="42.768760" lon="0.642780">
        <ele>982.785</ele>
        <time>2020-07-13T21:59:56Z</time>
      </trkpt>
      <trkpt lat="42.769190" lon="0.641900">
        <ele>978.963</ele>
        <time>2020-07-13T22:00:16Z</time>
      </trkpt>
      <trkpt lat="42.768230" lon="0.642260">
        <ele>972.526</ele>
        <time>2020-07-13T22:00:56Z</time>
      </trkpt>
      <trkpt lat="42.768120" lon="0.642070">
        <ele>969.447</ele>
        <time>2020-07-13T22:01:16Z</time>
      </trkpt>
      <trkpt lat="42.769070" lon="0.639760">
        <ele>950.411</ele>
        <time>2020-07-13T22:01:36Z</time>
      </trkpt>
      <trkpt lat="42.769700" lon="0.636300">
        <ele>926.008</ele>
        <time>2020-07-13T22:02:16Z</time>
      </trkpt>
      <trkpt lat="42.769160" lon="0.635470">
        <ele>916.937</ele>
        <time>2020-07-13T22:02:36Z</time>
      </trkpt>
      <trkpt lat="42.769050" lon="0.634670">
        <ele>914.134</ele>
        <time>2020-07-13T22:02:56Z</time>
      </trkpt>
      <trkpt lat="42.770220" lon="0.626540">
        <ele>893.489</ele>
        <time>2020-07-13T22:03:16Z</time>
      </trkpt>
      <trkpt lat="42.770140" lon="0.625580">
        <ele>896.142</ele>
        <time>2020-07-13T22:03:36Z</time>
      </trkpt>
      <trkpt lat="42.769780" lon="0.624880">
        <ele>880.437</ele>
        <time>2020-07-13T22:03:56Z</time>
      </trkpt>
      <trkpt lat="42.770160" lon="0.620680">
        <ele>829.198</ele>
        <time>2020-07-13T22:05:16Z</time>
      </trkpt>
      <trkpt lat="42.769550" lon="0.622310">
        <ele>833.611</ele>
        <time>2020-07-13T22:06:16Z</time>
      </trkpt>
      <trkpt lat="42.768250" lon="0.620420">
        <ele>838.049</ele>
        <time>2020-07-13T22:06:56Z</time>
      </trkpt>
      <trkpt lat="42.768380" lon="0.620270">
        <ele>827.363</ele>
        <time>2020-07-13T22:07:16Z</time>
      </trkpt>
      <trkpt lat="42.768670" lon="0.620780">
        <ele>823.344</ele>
        <time>2020-07-13T22:07:36Z</time>
      </trkpt>
      <trkpt lat="42.769450" lon="0.620970">
        <ele>810.018</ele>
        <time>2020-07-13T22:08:16Z</time>
      </trkpt>
      <trkpt lat="42.768930" lon="0.619490">
        <ele>784.108</ele>
        <time>2020-07-13T22:08:56Z</time>
      </trkpt>
      <trkpt lat="42.768860" lon="0.618500">
        <ele>779.741</ele>
        <time>2020-07-13T22:09:16Z</time>
      </trkpt>
      <trkpt lat="42.768790" lon="0.619550">
        <ele>787.218</ele>
        <time>2020-07-13T22:09:56Z</time>
      </trkpt>
      <trkpt lat="42.768600" lon="0.619470">
        <ele>792.593</ele>
        <time>2020-07-13T22:10:16Z</time>
      </trkpt>
      <trkpt lat="42.768620" lon="0.617520">
        <ele>768.336</ele>
        <time>2020-07-13T22:10:36Z</time>
      </trkpt>
      <trkpt lat="42.768150" lon="0.613480">
        <ele>735.721</ele>
        <time>2020-07-13T22:11:16Z</time>
      </trkpt>
      <trkpt lat="42.768960" lon="0.608870">
        <ele>698.092</ele>
        <time>2020-07-13T22:11:56Z</time>
      </trkpt>
      <trkpt lat="42.771510" lon="0.606550">
        <ele>693.555</ele>
        <time>2020-07-13T22:12:36Z</time>
      </trkpt>
      <trkpt lat="42.772150" lon="0.605640">
        <ele>689.743</ele>
        <time>2020-07-13T22:12:56Z</time>
      </trkpt>
      <trkpt lat="42.773090" lon="0.606460">
        <ele>684.979</ele>
        <time>2020-07-13T22:13:56Z</time>
      </trkpt>
      <trkpt lat="42.774190" lon="0.605460">
        <ele>672.705</ele>
        <time>2020-07-13T22:14:16Z</time>
      </trkpt>
      <trkpt lat="42.781430" lon="0.602020">
        <ele>640.225</ele>
        <time>2020-07-13T22:14:56Z</time>
      </trkpt>
      <trkpt lat="42.782620" lon="0.601780">
        <ele>638.708</ele>
        <time>2020-07-13T22:15:16Z</time>
      </trkpt>
      <trkpt lat="42.782730" lon="0.597090">
        <ele>639.392</ele>
        <time>2020-07-13T22:15:36Z</time>
      </trkpt>
      <trkpt lat="42.785490" lon="0.595340">
        <ele>635.299</ele>
        <time>2020-07-13T22:16:16Z</time>
      </trkpt>
      <trkpt lat="42.786380" lon="0.598040">
        <ele>630.074</ele>
        <time>2020-07-13T22:16:56Z</time>
      </trkpt>
      <trkpt lat="42.788320" lon="0.597190">
        <ele>630.047</ele>
        <time>2020-07-13T22:17:36Z</time>
      </trkpt>
      <trkpt lat="42.791120" lon="0.597820">
        <ele>630.052</ele>
        <time>2020-07-13T22:18:16Z</time>
      </trkpt>
      <trkpt lat="42.792390" lon="0.597790">
        <ele>622.413</ele>
        <time>2020-07-13T22:18:56Z</time>
      </trkpt>
      <trkpt lat="42.795270" lon="0.596140">
        <ele>624.996</ele>
        <time>2020-07-13T22:19:36Z</time>
      </trkpt>
      <trkpt lat="42.795190" lon="0.594340">
        <ele>627.834</ele>
        <time>2020-07-13T22:19:56Z</time>
      </trkpt>
      <trkpt lat="42.793760" lon="0.591520">
        <ele>629.537</ele>
        <time>2020-07-13T22:20:16Z</time>
      </trkpt>
      <trkpt lat="42.793370" lon="0.586530">
        <ele>638.449</ele>
        <time>2020-07-13T22:20:56Z</time>
      </trkpt>
      <trkpt lat="42.794240" lon="0.582810">
        <ele>672.713</ele>
        <time>2020-07-13T22:21:36Z</time>
      </trkpt>
      <trkpt lat="42.794480" lon="0.579490">
        <ele>685.508</ele>
        <time>2020-07-13T22:22:16Z</time>
      </trkpt>
      <trkpt lat="42.795790" lon="0.577110">
        <ele>706.878</ele>
        <time>2020-07-13T22:22:36Z</time>
      </trkpt>
      <trkpt lat="42.795840" lon="0.575650">
        <ele>708.435</ele>
        <time>2020-07-13T22:22:56Z</time>
      </trkpt>
      <trkpt lat="42.796570" lon="0.572250">
        <ele>734.920</ele>
        <time>2020-07-13T22:23:16Z</time>
      </trkpt>
      <trkpt lat="42.796200" lon="0.570460">
        <ele>733.953</ele>
        <time>2020-07-13T22:23:36Z</time>
      </trkpt>
      <trkpt lat="42.796720" lon="0.568650">
        <ele>754.828</ele>
        <time>2020-07-13T22:24:16Z</time>
      </trkpt>
      <trkpt lat="42.797620" lon="0.566750">
        <ele>756.729</ele>
        <time>2020-07-13T22:24:36Z</time>
      </trkpt>
      <trkpt lat="42.799120" lon="0.566450">
        <ele>768.182</ele>
        <time>2020-07-13T22:25:16Z</time>
      </trkpt>
      <trkpt lat="42.801220" lon="0.564920">
        <ele>759.180</ele>
        <time>2020-07-13T22:25:56Z</time>
      </trkpt>
      <trkpt lat="42.803280" lon="0.562020">
        <ele>770.751</ele>
        <time>2020-07-13T22:26:36Z</time>
      </trkpt>
      <trkpt lat="42.806290" lon="0.560930">
        <ele>801.401</ele>
        <time>2020-07-13T22:27:36Z</time>
      </trkpt>
      <trkpt lat="42.806330" lon="0.560540">
        <ele>797.011</ele>
        <time>2020-07-13T22:27:56Z</time>
      </trkpt>
      <trkpt lat="42.805270" lon="0.560010">
        <ele>799.008</ele>
        <time>2020-07-13T22:28:36Z</time>
      </trkpt>
      <trkpt lat="42.804710" lon="0.560280">
        <ele>799.620</ele>
        <time>2020-07-13T22:28:56Z</time>
      </trkpt>
      <trkpt lat="42.804660" lon="0.560000">
        <ele>805.487</ele>
        <time>2020-07-13T22:29:16Z</time>
      </trkpt>
      <trkpt lat="42.805390" lon="0.559670">
        <ele>814.432</ele>
        <time>2020-07-13T22:29:36Z</time>
      </trkpt>
      <trkpt lat="42.806610" lon="0.559740">
        <ele>823.455</ele>
        <time>2020-07-13T22:30:36Z</time>
      </trkpt>
      <trkpt lat="42.805680" lon="0.559110">
        <ele>834.360</ele>
        <time>2020-07-13T22:31:16Z</time>
      </trkpt>
      <trkpt lat="42.805460" lon="0.558560">
        <ele>842.191</ele>
        <time>2020-07-13T22:31:36Z</time>
      </trkpt>
      <trkpt lat="42.806120" lon="0.555460">
        <ele>870.164</ele>
        <time>2020-07-13T22:32:16Z</time>
      </trkpt>
      <trkpt lat="42.805960" lon="0.552350">
        <ele>886.452</ele>
        <time>2020-07-13T22:32:36Z</time>
      </trkpt>
      <trkpt lat="42.806580" lon="0.547220">
        <ele>929.016</ele>
        <time>2020-07-13T22:33:36Z</time>
      </trkpt>
      <trkpt lat="42.806200" lon="0.541010">
        <ele>946.676</ele>
        <time>2020-07-13T22:34:36Z</time>
      </trkpt>
      <trkpt lat="42.806810" lon="0.533370">
        <ele>971.913</ele>
        <time>2020-07-13T22:35:56Z</time>
      </trkpt>
      <trkpt lat="42.807390" lon="0.530170">
        <ele>996.608</ele>
        <time>2020-07-13T22:36:16Z</time>
      </trkpt>
      <trkpt lat="42.806160" lon="0.525330">
        <ele>1036.546</ele>
        <time>2020-07-13T22:37:16Z</time>
      </trkpt>
      <trkpt lat="42.805970" lon="0.522130">
        <ele>1062.953</ele>
        <time>2020-07-13T22:37:36Z</time>
      </trkpt>
      <trkpt lat="42.806760" lon="0.519830">
        <ele>1085.168</ele>
        <time>2020-07-13T22:37:56Z</time>
      </trkpt>
      <trkpt lat="42.808230" lon="0.519450">
        <ele>1100.641</ele>
        <time>2020-07-13T22:38:36Z</time>
      </trkpt>
      <trkpt lat="42.808610" lon="0.518970">
        <ele>1104.346</ele>
        <time>2020-07-13T22:38:56Z</time>
      </trkpt>
      <trkpt lat="42.808840" lon="0.517710">
        <ele>1111.677</ele>
        <time>2020-07-13T22:39:16Z</time>
      </trkpt>
      <trkpt lat="42.808630" lon="0.515190">
        <ele>1112.040</ele>
        <time>2020-07-13T22:39:56Z</time>
      </trkpt>
      <trkpt lat="42.808070" lon="0.514510">
        <ele>1126.228</ele>
        <time>2020-07-13T22:40:36Z</time>
      </trkpt>
      <trkpt lat="42.808250" lon="0.512080">
        <ele>1134.428</ele>
        <time>2020-07-13T22:40:56Z</time>
      </trkpt>
      <trkpt lat="42.806660" lon="0.504760">
        <ele>1182.789</ele>
        <time>2020-07-13T22:42:16Z</time>
      </trkpt>
      <trkpt lat="42.805760" lon="0.504630">
        <ele>1191.117</ele>
        <time>2020-07-13T22:42:56Z</time>
      </trkpt>
      <trkpt lat="42.804730" lon="0.503050">
        <ele>1205.208</ele>
        <time>2020-07-13T22:43:16Z</time>
      </trkpt>
      <trkpt lat="42.802340" lon="0.501280">
        <ele>1223.587</ele>
        <time>2020-07-13T22:43:56Z</time>
      </trkpt>
      <trkpt lat="42.802890" lon="0.501340">
        <ele>1226.424</ele>
        <time>2020-07-13T22:44:16Z</time>
      </trkpt>
      <trkpt lat="42.805680" lon="0.503090">
        <ele>1201.779</ele>
        <time>2020-07-13T22:45:16Z</time>
      </trkpt>
      <trkpt lat="42.805390" lon="0.502230">
        <ele>1202.652</ele>
        <time>2020-07-13T22:45:36Z</time>
      </trkpt>
      <trkpt lat="42.806610" lon="0.499010">
        <ele>1228.117</ele>
        <time>2020-07-13T22:45:56Z</time>
      </trkpt>
      <trkpt lat="42.806630" lon="0.497910">
        <ele>1231.928</ele>
        <time>2020-07-13T22:46:16Z</time>
      </trkpt>
      <trkpt lat="42.806270" lon="0.496680">
        <ele>1242.211</ele>
        <time>2020-07-13T22:46:36Z</time>
      </trkpt>
      <trkpt lat="42.807580" lon="0.488350">
        <ele>1301.219</ele>
        <time>2020-07-13T22:47:16Z</time>
      </trkpt>
      <trkpt lat="42.807650" lon="0.484560">
        <ele>1328.119</ele>
        <time>2020-07-13T22:47:36Z</time>
      </trkpt>
      <trkpt lat="42.807250" lon="0.483020">
        <ele>1333.209</ele>
        <time>2020-07-13T22:47:56Z</time>
      </trkpt>
      <trkpt lat="42.805270" lon="0.480180">
        <ele>1357.519</ele>
        <time>2020-07-13T22:48:16Z</time>
      </trkpt>
      <trkpt lat="42.804550" lon="0.477470">
        <ele>1377.808</ele>
        <time>2020-07-13T22:48:36Z</time>
      </trkpt>
      <trkpt lat="42.803740" lon="0.475630">
        <ele>1391.596</ele>
        <time>2020-07-13T22:49:16Z</time>
      </trkpt>
      <trkpt lat="42.802690" lon="0.474390">
        <ele>1403.823</ele>
        <time>2020-07-13T22:49:36Z</time>
      </trkpt>
      <trkpt lat="42.801460" lon="0.471830">
        <ele>1423.478</ele>
        <time>2020-07-13T22:50:36Z</time>
      </trkpt>
      <trkpt lat="42.801930" lon="0.469090">
        <ele>1448.081</ele>
        <time>2020-07-13T22:51:16Z</time>
      </trkpt>
      <trkpt lat="42.802550" lon="0.468890">
        <ele>1450.336</ele>
        <time>2020-07-13T22:51:36Z</time>
      </trkpt>
      <trkpt lat="42.803920" lon="0.469490">
        <ele>1465.197</ele>
        <time>2020-07-13T22:52:56Z</time>
      </trkpt>
      <trkpt lat="42.802140" lon="0.467340">
        <ele>1483.470</ele>
        <time>2020-07-13T22:53:36Z</time>
      </trkpt>
      <trkpt lat="42.801650" lon="0.467280">
        <ele>1486.398</ele>
        <time>2020-07-13T22:53:56Z</time>
      </trkpt>
      <trkpt lat="42.801690" lon="0.466990">
        <ele>1491.165</ele>
        <time>2020-07-13T22:54:16Z</time>
      </trkpt>
      <trkpt lat="42.802510" lon="0.467200">
        <ele>1496.268</ele>
        <time>2020-07-13T22:54:36Z</time>
      </trkpt>
      <trkpt lat="42.804780" lon="0.468690">
        <ele>1521.414</ele>
        <time>2020-07-13T22:55:16Z</time>
      </trkpt>
      <trkpt lat="42.802970" lon="0.466190">
        <ele>1542.608</ele>
        <time>2020-07-13T22:55:56Z</time>
      </trkpt>
      <trkpt lat="42.802350" lon="0.463820">
        <ele>1562.451</ele>
        <time>2020-07-13T22:56:16Z</time>
      </trkpt>
      <trkpt lat="42.801730" lon="0.457410">
        <ele>1539.338</ele>
        <time>2020-07-13T22:56:36Z</time>
      </trkpt>
      <trkpt lat="42.802050" lon="0.453500">
        <ele>1511.163</ele>
        <time>2020-07-13T22:56:56Z</time>
      </trkpt>
      <trkpt lat="42.802360" lon="0.452510">
        <ele>1501.636</ele>
        <time>2020-07-13T22:57:16Z</time>
      </trkpt>
      <trkpt lat="42.802220" lon="0.450620">
        <ele>1487.251</ele>
        <time>2020-07-13T22:57:36Z</time>
      </trkpt>
      <trkpt lat="42.801830" lon="0.449240">
        <ele>1478.582</ele>
        <time>2020-07-13T22:57:56Z</time>
      </trkpt>
      <trkpt lat="42.802150" lon="0.444070">
        <ele>1445.575</ele>
        <time>2020-07-13T22:58:16Z</time>
      </trkpt>
      <trkpt lat="42.801130" lon="0.441130">
        <ele>1422.493</ele>
        <time>2020-07-13T22:59:16Z</time>
      </trkpt>
      <trkpt lat="42.800870" lon="0.436410">
        <ele>1396.946</ele>
        <time>2020-07-13T22:59:56Z</time>
      </trkpt>
      <trkpt lat="42.801400" lon="0.431620">
        <ele>1376.488</ele>
        <time>2020-07-13T23:00:36Z</time>
      </trkpt>
      <trkpt lat="42.801790" lon="0.430420">
        <ele>1362.616</ele>
        <time>2020-07-13T23:00:56Z</time>
      </trkpt>
      <trkpt lat="42.801920" lon="0.428510">
        <ele>1358.508</ele>
        <time>2020-07-13T23:01:16Z</time>
      </trkpt>
      <trkpt lat="42.802590" lon="0.425650">
        <ele>1340.289</ele>
        <time>2020-07-13T23:01:36Z</time>
      </trkpt>
      <trkpt lat="42.804100" lon="0.424570">
        <ele>1325.526</ele>
        <time>2020-07-13T23:02:16Z</time>
      </trkpt>
      <trkpt lat="42.807010" lon="0.424890">
        <ele>1291.021</ele>
        <time>2020-07-13T23:02:36Z</time>
      </trkpt>
      <trkpt lat="42.808820" lon="0.425670">
        <ele>1277.534</ele>
        <time>2020-07-13T23:03:16Z</time>
      </trkpt>
      <trkpt lat="42.809370" lon="0.426450">
        <ele>1269.739</ele>
        <time>2020-07-13T23:03:36Z</time>
      </trkpt>
      <trkpt lat="42.812500" lon="0.428350">
        <ele>1237.490</ele>
        <time>2020-07-13T23:04:16Z</time>
      </trkpt>
      <trkpt lat="42.813040" lon="0.428370">
        <ele>1234.833</ele>
        <time>2020-07-13T23:04:36Z</time>
      </trkpt>
      <trkpt lat="42.813140" lon="0.428120">
        <ele>1226.781</ele>
        <time>2020-07-13T23:04:56Z</time>
      </trkpt>
      <trkpt lat="42.812070" lon="0.427170">
        <ele>1216.846</ele>
        <time>2020-07-13T23:05:56Z</time>
      </trkpt>
      <trkpt lat="42.811500" lon="0.425400">
        <ele>1203.488</ele>
        <time>2020-07-13T23:06:16Z</time>
      </trkpt>
      <trkpt lat="42.810800" lon="0.425050">
        <ele>1198.516</ele>
        <time>2020-07-13T23:06:36Z</time>
      </trkpt>
      <trkpt lat="42.809850" lon="0.422570">
        <ele>1176.508</ele>
        <time>2020-07-13T23:07:36Z</time>
      </trkpt>
      <trkpt lat="42.808810" lon="0.421570">
        <ele>1172.779</ele>
        <time>2020-07-13T23:07:56Z</time>
      </trkpt>
      <trkpt lat="42.808950" lon="0.421310">
        <ele>1162.356</ele>
        <time>2020-07-13T23:08:36Z</time>
      </trkpt>
      <trkpt lat="42.809180" lon="0.421690">
        <ele>1166.561</ele>
        <time>2020-07-13T23:08:56Z</time>
      </trkpt>
      <trkpt lat="42.810160" lon="0.421890">
        <ele>1151.524</ele>
        <time>2020-07-13T23:09:16Z</time>
      </trkpt>
      <trkpt lat="42.811410" lon="0.422800">
        <ele>1137.999</ele>
        <time>2020-07-13T23:09:36Z</time>
      </trkpt>
      <trkpt lat="42.813270" lon="0.423580">
        <ele>1117.220</ele>
        <time>2020-07-13T23:09:56Z</time>
      </trkpt>
      <trkpt lat="42.814680" lon="0.421400">
        <ele>1096.193</ele>
        <time>2020-07-13T23:10:56Z</time>
      </trkpt>
      <trkpt lat="42.815940" lon="0.420840">
        <ele>1087.851</ele>
        <time>2020-07-13T23:11:16Z</time>
      </trkpt>
      <trkpt lat="42.817100" lon="0.419740">
        <ele>1070.151</ele>
        <time>2020-07-13T23:11:36Z</time>
      </trkpt>
      <trkpt lat="42.819090" lon="0.418770">
        <ele>1049.101</ele>
        <time>2020-07-13T23:11:56Z</time>
      </trkpt>
      <trkpt lat="42.823170" lon="0.415850">
        <ele>1003.111</ele>
        <time>2020-07-13T23:12:36Z</time>
      </trkpt>
      <trkpt lat="42.824040" lon="0.414650">
        <ele>987.508</ele>
        <time>2020-07-13T23:13:36Z</time>
      </trkpt>
      <trkpt lat="42.821880" lon="0.415990">
        <ele>997.120</ele>
        <time>2020-07-13T23:14:36Z</time>
      </trkpt>
      <trkpt lat="42.820680" lon="0.415370">
        <ele>984.277</ele>
        <time>2020-07-13T23:14:56Z</time>
      </trkpt>
      <trkpt lat="42.818900" lon="0.415530">
        <ele>974.612</ele>
        <time>2020-07-13T23:15:16Z</time>
      </trkpt>
      <trkpt lat="42.818590" lon="0.414700">
        <ele>963.665</ele>
        <time>2020-07-13T23:15:36Z</time>
      </trkpt>
      <trkpt lat="42.817290" lon="0.415210">
        <ele>958.220</ele>
        <time>2020-07-13T23:15:56Z</time>
      </trkpt>
      <trkpt lat="42.817200" lon="0.413700">
        <ele>944.441</ele>
        <time>2020-07-13T23:16:16Z</time>
      </trkpt>
      <trkpt lat="42.816470" lon="0.413710">
        <ele>946.664</ele>
        <time>2020-07-13T23:16:36Z</time>
      </trkpt>
      <trkpt lat="42.816170" lon="0.413180">
        <ele>940.592</ele>
        <time>2020-07-13T23:16:56Z</time>
      </trkpt>
      <trkpt lat="42.815550" lon="0.413260">
        <ele>938.771</ele>
        <time>2020-07-13T23:17:16Z</time>
      </trkpt>
      <trkpt lat="42.814880" lon="0.413940">
        <ele>943.341</ele>
        <time>2020-07-13T23:17:36Z</time>
      </trkpt>
      <trkpt lat="42.813680" lon="0.413720">
        <ele>943.915</ele>
        <time>2020-07-13T23:18:16Z</time>
      </trkpt>
      <trkpt lat="42.813130" lon="0.409730">
        <ele>935.808</ele>
        <time>2020-07-13T23:18:56Z</time>
      </trkpt>
      <trkpt lat="42.811910" lon="0.409160">
        <ele>941.242</ele>
        <time>2020-07-13T23:19:36Z</time>
      </trkpt>
      <trkpt lat="42.811520" lon="0.408630">
        <ele>940.159</ele>
        <time>2020-07-13T23:19:56Z</time>
      </trkpt>
      <trkpt lat="42.813880" lon="0.405080">
        <ele>952.414</ele>
        <time>2020-07-13T23:20:16Z</time>
      </trkpt>
      <trkpt lat="42.813200" lon="0.404680">
        <ele>956.357</ele>
        <time>2020-07-13T23:20:36Z</time>
      </trkpt>
      <trkpt lat="42.812390" lon="0.405150">
        <ele>964.442</ele>
        <time>2020-07-13T23:21:16Z</time>
      </trkpt>
      <trkpt lat="42.810890" lon="0.402900">
        <ele>969.073</ele>
        <time>2020-07-13T23:21:56Z</time>
      </trkpt>
      <trkpt lat="42.807950" lon="0.401030">
        <ele>966.666</ele>
        <time>2020-07-13T23:22:36Z</time>
      </trkpt>
      <trkpt lat="42.806790" lon="0.399810">
        <ele>985.174</ele>
        <time>2020-07-13T23:23:16Z</time>
      </trkpt>
      <trkpt lat="42.805990" lon="0.399780">
        <ele>995.619</ele>
        <time>2020-07-13T23:23:36Z</time>
      </trkpt>
      <trkpt lat="42.804240" lon="0.400900">
        <ele>1004.809</ele>
        <time>2020-07-13T23:24:16Z</time>
      </trkpt>
      <trkpt lat="42.801760" lon="0.401060">
        <ele>1036.119</ele>
        <time>2020-07-13T23:24:56Z</time>
      </trkpt>
      <trkpt lat="42.804420" lon="0.399250">
        <ele>1067.008</ele>
        <time>2020-07-13T23:25:56Z</time>
      </trkpt>
      <trkpt lat="42.801930" lon="0.399880">
        <ele>1091.996</ele>
        <time>2020-07-13T23:26:56Z</time>
      </trkpt>
      <trkpt lat="42.801920" lon="0.399570">
        <ele>1108.163</ele>
        <time>2020-07-13T23:27:16Z</time>
      </trkpt>
      <trkpt lat="42.803650" lon="0.398460">
        <ele>1116.518</ele>
        <time>2020-07-13T23:27:56Z</time>
      </trkpt>
      <trkpt lat="42.801730" lon="0.398880">
        <ele>1144.641</ele>
        <time>2020-07-13T23:28:36Z</time>
      </trkpt>
      <trkpt lat="42.802700" lon="0.398240">
        <ele>1154.866</ele>
        <time>2020-07-13T23:28:56Z</time>
      </trkpt>
      <trkpt lat="42.804250" lon="0.395980">
        <ele>1180.437</ele>
        <time>2020-07-13T23:29:36Z</time>
      </trkpt>
      <trkpt lat="42.801340" lon="0.397670">
        <ele>1215.070</ele>
        <time>2020-07-13T23:30:16Z</time>
      </trkpt>
      <trkpt lat="42.801230" lon="0.397350">
        <ele>1226.378</ele>
        <time>2020-07-13T23:30:36Z</time>
      </trkpt>
      <trkpt lat="42.802240" lon="0.395490">
        <ele>1244.899</ele>
        <time>2020-07-13T23:31:16Z</time>
      </trkpt>
      <trkpt lat="42.800690" lon="0.396580">
        <ele>1254.707</ele>
        <time>2020-07-13T23:31:36Z</time>
      </trkpt>
      <trkpt lat="42.800500" lon="0.396430">
        <ele>1262.527</ele>
        <time>2020-07-13T23:31:56Z</time>
      </trkpt>
      <trkpt lat="42.802160" lon="0.394130">
        <ele>1287.008</ele>
        <time>2020-07-13T23:32:36Z</time>
      </trkpt>
      <trkpt lat="42.800380" lon="0.395130">
        <ele>1302.394</ele>
        <time>2020-07-13T23:32:56Z</time>
      </trkpt>
      <trkpt lat="42.798880" lon="0.395110">
        <ele>1321.821</ele>
        <time>2020-07-13T23:33:36Z</time>
      </trkpt>
      <trkpt lat="42.798500" lon="0.394500">
        <ele>1327.326</ele>
        <time>2020-07-13T23:33:56Z</time>
      </trkpt>
      <trkpt lat="42.797340" lon="0.394100">
        <ele>1339.849</ele>
        <time>2020-07-13T23:34:36Z</time>
      </trkpt>
      <trkpt lat="42.797970" lon="0.393800">
        <ele>1341.274</ele>
        <time>2020-07-13T23:35:16Z</time>
      </trkpt>
      <trkpt lat="42.798230" lon="0.392900">
        <ele>1351.415</ele>
        <time>2020-07-13T23:35:36Z</time>
      </trkpt>
      <trkpt lat="42.800890" lon="0.391490">
        <ele>1371.968</ele>
        <time>2020-07-13T23:36:36Z</time>
      </trkpt>
      <trkpt lat="42.802510" lon="0.388690">
        <ele>1397.156</ele>
        <time>2020-07-13T23:37:36Z</time>
      </trkpt>
      <trkpt lat="42.803540" lon="0.388130">
        <ele>1394.636</ele>
        <time>2020-07-13T23:38:16Z</time>
      </trkpt>
      <trkpt lat="42.799640" lon="0.390090">
        <ele>1434.017</ele>
        <time>2020-07-13T23:40:16Z</time>
      </trkpt>
      <trkpt lat="42.798740" lon="0.389840">
        <ele>1440.818</ele>
        <time>2020-07-13T23:40:36Z</time>
      </trkpt>
      <trkpt lat="42.797930" lon="0.388330">
        <ele>1450.208</ele>
        <time>2020-07-13T23:41:16Z</time>
      </trkpt>
      <trkpt lat="42.799120" lon="0.389030">
        <ele>1457.398</ele>
        <time>2020-07-13T23:41:56Z</time>
      </trkpt>
      <trkpt lat="42.799720" lon="0.388360">
        <ele>1466.255</ele>
        <time>2020-07-13T23:42:16Z</time>
      </trkpt>
      <trkpt lat="42.801160" lon="0.387800">
        <ele>1482.360</ele>
        <time>2020-07-13T23:42:56Z</time>
      </trkpt>
      <trkpt lat="42.800410" lon="0.387940">
        <ele>1481.193</ele>
        <time>2020-07-13T23:43:16Z</time>
      </trkpt>
      <trkpt lat="42.799020" lon="0.387310">
        <ele>1496.478</ele>
        <time>2020-07-13T23:43:56Z</time>
      </trkpt>
      <trkpt lat="42.796460" lon="0.384380">
        <ele>1526.299</ele>
        <time>2020-07-13T23:44:36Z</time>
      </trkpt>
      <trkpt lat="42.795360" lon="0.384660">
        <ele>1532.922</ele>
        <time>2020-07-13T23:44:56Z</time>
      </trkpt>
      <trkpt lat="42.794590" lon="0.383420">
        <ele>1545.920</ele>
        <time>2020-07-13T23:45:16Z</time>
      </trkpt>
      <trkpt lat="42.793270" lon="0.382930">
        <ele>1545.022</ele>
        <time>2020-07-13T23:45:56Z</time>
      </trkpt>
      <trkpt lat="42.792680" lon="0.381710">
        <ele>1562.762</ele>
        <time>2020-07-13T23:46:16Z</time>
      </trkpt>
      <trkpt lat="42.791850" lon="0.380860">
        <ele>1579.908</ele>
        <time>2020-07-13T23:46:56Z</time>
      </trkpt>
      <trkpt lat="42.794070" lon="0.381640">
        <ele>1567.308</ele>
        <time>2020-07-13T23:48:16Z</time>
      </trkpt>
      <trkpt lat="42.795360" lon="0.380960">
        <ele>1546.787</ele>
        <time>2020-07-13T23:48:56Z</time>
      </trkpt>
      <trkpt lat="42.796760" lon="0.380730">
        <ele>1537.654</ele>
        <time>2020-07-13T23:49:36Z</time>
      </trkpt>
      <trkpt lat="42.797050" lon="0.379900">
        <ele>1520.729</ele>
        <time>2020-07-13T23:49:56Z</time>
      </trkpt>
      <trkpt lat="42.796880" lon="0.378480">
        <ele>1511.662</ele>
        <time>2020-07-13T23:50:16Z</time>
      </trkpt>
      <trkpt lat="42.797040" lon="0.376390">
        <ele>1492.297</ele>
        <time>2020-07-13T23:50:36Z</time>
      </trkpt>
      <trkpt lat="42.797680" lon="0.375680">
        <ele>1493.788</ele>
        <time>2020-07-13T23:50:56Z</time>
      </trkpt>
      <trkpt lat="42.798360" lon="0.374160">
        <ele>1484.221</ele>
        <time>2020-07-13T23:51:16Z</time>
      </trkpt>
      <trkpt lat="42.800310" lon="0.373400">
        <ele>1472.749</ele>
        <time>2020-07-13T23:52:16Z</time>
      </trkpt>
      <trkpt lat="42.800640" lon="0.370950">
        <ele>1459.434</ele>
        <time>2020-07-13T23:52:56Z</time>
      </trkpt>
      <trkpt lat="42.800980" lon="0.370420">
        <ele>1457.555</ele>
        <time>2020-07-13T23:53:36Z</time>
      </trkpt>
      <trkpt lat="42.801750" lon="0.371470">
        <ele>1465.510</ele>
        <time>2020-07-13T23:54:16Z</time>
      </trkpt>
      <trkpt lat="42.802430" lon="0.371120">
        <ele>1451.208</ele>
        <time>2020-07-13T23:54:56Z</time>
      </trkpt>
      <trkpt lat="42.803620" lon="0.369240">
        <ele>1433.858</ele>
        <time>2020-07-13T23:55:36Z</time>
      </trkpt>
      <trkpt lat="42.805700" lon="0.368020">
        <ele>1411.775</ele>
        <time>2020-07-13T23:56:16Z</time>
      </trkpt>
      <trkpt lat="42.806170" lon="0.364180">
        <ele>1382.260</ele>
        <time>2020-07-13T23:56:56Z</time>
      </trkpt>
      <trkpt lat="42.809030" lon="0.362530">
        <ele>1359.413</ele>
        <time>2020-07-13T23:57:16Z</time>
      </trkpt>
      <trkpt lat="42.811060" lon="0.360200">
        <ele>1329.848</ele>
        <time>2020-07-13T23:57:36Z</time>
      </trkpt>
      <trkpt lat="42.812400" lon="0.357160">
        <ele>1303.889</ele>
        <time>2020-07-13T23:57:56Z</time>
      </trkpt>
      <trkpt lat="42.814080" lon="0.357330">
        <ele>1290.632</ele>
        <time>2020-07-13T23:58:56Z</time>
      </trkpt>
      <trkpt lat="42.814340" lon="0.355640">
        <ele>1261.670</ele>
        <time>2020-07-13T23:59:16Z</time>
      </trkpt>
      <trkpt lat="42.815350" lon="0.354510">
        <ele>1262.266</ele>
        <time>2020-07-13T23:59:36Z</time>
      </trkpt>
      <trkpt lat="42.816160" lon="0.353000">
        <ele>1247.429</ele>
        <time>2020-07-13T23:59:56Z</time>
      </trkpt>
      <trkpt lat="42.816760" lon="0.352660">
        <ele>1246.221</ele>
        <time>2020-07-14T00:00:16Z</time>
      </trkpt>
      <trkpt lat="42.817400" lon="0.352950">
        <ele>1247.008</ele>
        <time>2020-07-14T00:00:36Z</time>
      </trkpt>
      <trkpt lat="42.816300" lon="0.352400">
        <ele>1229.091</ele>
        <time>2020-07-14T00:01:16Z</time>
      </trkpt>
      <trkpt lat="42.813160" lon="0.354830">
        <ele>1205.928</ele>
        <time>2020-07-14T00:01:56Z</time>
      </trkpt>
      <trkpt lat="42.811020" lon="0.352610">
        <ele>1169.873</ele>
        <time>2020-07-14T00:02:16Z</time>
      </trkpt>
      <trkpt lat="42.810620" lon="0.352550">
        <ele>1164.266</ele>
        <time>2020-07-14T00:02:36Z</time>
      </trkpt>
      <trkpt lat="42.810420" lon="0.352140">
        <ele>1160.191</ele>
        <time>2020-07-14T00:02:56Z</time>
      </trkpt>
      <trkpt lat="42.811100" lon="0.351450">
        <ele>1154.272</ele>
        <time>2020-07-14T00:03:36Z</time>
      </trkpt>
      <trkpt lat="42.811680" lon="0.351620">
        <ele>1152.485</ele>
        <time>2020-07-14T00:03:56Z</time>
      </trkpt>
      <trkpt lat="42.812070" lon="0.350970">
        <ele>1140.553</ele>
        <time>2020-07-14T00:04:16Z</time>
      </trkpt>
      <trkpt lat="42.811040" lon="0.349420">
        <ele>1128.837</ele>
        <time>2020-07-14T00:05:16Z</time>
      </trkpt>
      <trkpt lat="42.812930" lon="0.350420">
        <ele>1113.649</ele>
        <time>2020-07-14T00:05:36Z</time>
      </trkpt>
      <trkpt lat="42.811380" lon="0.348170">
        <ele>1096.213</ele>
        <time>2020-07-14T00:05:56Z</time>
      </trkpt>
      <trkpt lat="42.811140" lon="0.347220">
        <ele>1075.808</ele>
        <time>2020-07-14T00:06:36Z</time>
      </trkpt>
      <trkpt lat="42.812200" lon="0.347940">
        <ele>1074.328</ele>
        <time>2020-07-14T00:06:56Z</time>
      </trkpt>
      <trkpt lat="42.813920" lon="0.347960">
        <ele>1054.675</ele>
        <time>2020-07-14T00:07:16Z</time>
      </trkpt>
      <trkpt lat="42.814910" lon="0.347590">
        <ele>1042.930</ele>
        <time>2020-07-14T00:07:36Z</time>
      </trkpt>
      <trkpt lat="42.815560" lon="0.346930">
        <ele>1034.723</ele>
        <time>2020-07-14T00:07:56Z</time>
      </trkpt>
      <trkpt lat="42.817480" lon="0.346050">
        <ele>1012.668</ele>
        <time>2020-07-14T00:08:16Z</time>
      </trkpt>
      <trkpt lat="42.818420" lon="0.343440">
        <ele>987.339</ele>
        <time>2020-07-14T00:08:56Z</time>
      </trkpt>
      <trkpt lat="42.818730" lon="0.343130">
        <ele>987.062</ele>
        <time>2020-07-14T00:09:36Z</time>
      </trkpt>
      <trkpt lat="42.818400" lon="0.343200">
        <ele>981.470</ele>
        <time>2020-07-14T00:09:56Z</time>
      </trkpt>
      <trkpt lat="42.817740" lon="0.344320">
        <ele>972.064</ele>
        <time>2020-07-14T00:10:16Z</time>
      </trkpt>
      <trkpt lat="42.817230" lon="0.344560">
        <ele>968.206</ele>
        <time>2020-07-14T00:10:36Z</time>
      </trkpt>
      <trkpt lat="42.816280" lon="0.343830">
        <ele>953.016</ele>
        <time>2020-07-14T00:11:16Z</time>
      </trkpt>
      <trkpt lat="42.816820" lon="0.343910">
        <ele>952.008</ele>
        <time>2020-07-14T00:11:56Z</time>
      </trkpt>
      <trkpt lat="42.817110" lon="0.343590">
        <ele>943.721</ele>
        <time>2020-07-14T00:12:36Z</time>
      </trkpt>
      <trkpt lat="42.816140" lon="0.343200">
        <ele>954.018</ele>
        <time>2020-07-14T00:13:16Z</time>
      </trkpt>
      <trkpt lat="42.817850" lon="0.340060">
        <ele>927.743</ele>
        <time>2020-07-14T00:13:56Z</time>
      </trkpt>
      <trkpt lat="42.818520" lon="0.339490">
        <ele>911.896</ele>
        <time>2020-07-14T00:14:16Z</time>
      </trkpt>
      <trkpt lat="42.818570" lon="0.337360">
        <ele>912.871</ele>
        <time>2020-07-14T00:14:36Z</time>
      </trkpt>
      <trkpt lat="42.819360" lon="0.334290">
        <ele>913.792</ele>
        <time>2020-07-14T00:15:16Z</time>
      </trkpt>
      <trkpt lat="42.819210" lon="0.331520">
        <ele>904.385</ele>
        <time>2020-07-14T00:15:56Z</time>
      </trkpt>
      <trkpt lat="42.818820" lon="0.331170">
        <ele>897.123</ele>
        <time>2020-07-14T00:16:16Z</time>
      </trkpt>
      <trkpt lat="42.817830" lon="0.331220">
        <ele>898.086</ele>
        <time>2020-07-14T00:16:36Z</time>
      </trkpt>
      <trkpt lat="42.816690" lon="0.330740">
        <ele>893.760</ele>
        <time>2020-07-14T00:16:56Z</time>
      </trkpt>
      <trkpt lat="42.816300" lon="0.329910">
        <ele>893.226</ele>
        <time>2020-07-14T00:17:16Z</time>
      </trkpt>
      <trkpt lat="42.816280" lon="0.328910">
        <ele>886.208</ele>
        <time>2020-07-14T00:17:36Z</time>
      </trkpt>
      <trkpt lat="42.815880" lon="0.327680">
        <ele>880.883</ele>
        <time>2020-07-14T00:17:56Z</time>
      </trkpt>
      <trkpt lat="42.814890" lon="0.326730">
        <ele>877.240</ele>
        <time>2020-07-14T00:18:16Z</time>
      </trkpt>
      <trkpt lat="42.814120" lon="0.326500">
        <ele>880.515</ele>
        <time>2020-07-14T00:18:36Z</time>
      </trkpt>
      <trkpt lat="42.812750" lon="0.323620">
        <ele>884.298</ele>
        <time>2020-07-14T00:18:56Z</time>
      </trkpt>
      <trkpt lat="42.812890" lon="0.322200">
        <ele>859.213</ele>
        <time>2020-07-14T00:19:16Z</time>
      </trkpt>
      <trkpt lat="42.812690" lon="0.321280">
        <ele>856.234</ele>
        <time>2020-07-14T00:19:36Z</time>
      </trkpt>
      <trkpt lat="42.812700" lon="0.318360">
        <ele>849.737</ele>
        <time>2020-07-14T00:19:56Z</time>
      </trkpt>
      <trkpt lat="42.812080" lon="0.317010">
        <ele>842.155</ele>
        <time>2020-07-14T00:20:16Z</time>
      </trkpt>
      <trkpt lat="42.813120" lon="0.318180">
        <ele>832.347</ele>
        <time>2020-07-14T00:20:36Z</time>
      </trkpt>
      <trkpt lat="42.813270" lon="0.317970">
        <ele>828.529</ele>
        <time>2020-07-14T00:21:16Z</time>
      </trkpt>
      <trkpt lat="42.816200" lon="0.319640">
        <ele>818.721</ele>
        <time>2020-07-14T00:22:16Z</time>
      </trkpt>
      <trkpt lat="42.817280" lon="0.321310">
        <ele>814.808</ele>
        <time>2020-07-14T00:22:56Z</time>
      </trkpt>
      <trkpt lat="42.818650" lon="0.322520">
        <ele>813.969</ele>
        <time>2020-07-14T00:23:36Z</time>
      </trkpt>
      <trkpt lat="42.819340" lon="0.322760">
        <ele>812.496</ele>
        <time>2020-07-14T00:23:56Z</time>
      </trkpt>
      <trkpt lat="42.821150" lon="0.322520">
        <ele>809.821</ele>
        <time>2020-07-14T00:25:16Z</time>
      </trkpt>
      <trkpt lat="42.823120" lon="0.323780">
        <ele>802.394</ele>
        <time>2020-07-14T00:25:56Z</time>
      </trkpt>
      <trkpt lat="42.822740" lon="0.325410">
        <ele>803.149</ele>
        <time>2020-07-14T00:26:36Z</time>
      </trkpt>
      <trkpt lat="42.821450" lon="0.328070">
        <ele>809.060</ele>
        <time>2020-07-14T00:27:36Z</time>
      </trkpt>
      <trkpt lat="42.830910" lon="0.338370">
        <ele>787.053</ele>
        <time>2020-07-14T00:28:36Z</time>
      </trkpt>
      <trkpt lat="42.836560" lon="0.341790">
        <ele>772.411</ele>
        <time>2020-07-14T00:28:56Z</time>
      </trkpt>
      <trkpt lat="42.848100" lon="0.346700">
        <ele>763.194</ele>
        <time>2020-07-14T00:29:16Z</time>
      </trkpt>
      <trkpt lat="42.849600" lon="0.346880">
        <ele>762.257</ele>
        <time>2020-07-14T00:29:36Z</time>
      </trkpt>
      <trkpt lat="42.850750" lon="0.346600">
        <ele>760.022</ele>
        <time>2020-07-14T00:29:56Z</time>
      </trkpt>
      <trkpt lat="42.853410" lon="0.344790">
        <ele>761.308</ele>
        <time>2020-07-14T00:30:36Z</time>
      </trkpt>
      <trkpt lat="42.854800" lon="0.343080">
        <ele>761.144</ele>
        <time>2020-07-14T00:30:56Z</time>
      </trkpt>
      <trkpt lat="42.856000" lon="0.342840">
        <ele>762.061</ele>
        <time>2020-07-14T00:31:16Z</time>
      </trkpt>
      <trkpt lat="42.856270" lon="0.341550">
        <ele>760.056</ele>
        <time>2020-07-14T00:31:36Z</time>
      </trkpt>
      <trkpt lat="42.861430" lon="0.338880">
        <ele>768.029</ele>
        <time>2020-07-14T00:32:16Z</time>
      </trkpt>
      <trkpt lat="42.863420" lon="0.338450">
        <ele>769.934</ele>
        <time>2020-07-14T00:32:36Z</time>
      </trkpt>
      <trkpt lat="42.863850" lon="0.336810">
        <ele>777.555</ele>
        <time>2020-07-14T00:32:56Z</time>
      </trkpt>
      <trkpt lat="42.863850" lon="0.334540">
        <ele>789.158</ele>
        <time>2020-07-14T00:33:36Z</time>
      </trkpt>
      <trkpt lat="42.864730" lon="0.332430">
        <ele>802.976</ele>
        <time>2020-07-14T00:33:56Z</time>
      </trkpt>
      <trkpt lat="42.864860" lon="0.330670">
        <ele>818.584</ele>
        <time>2020-07-14T00:34:36Z</time>
      </trkpt>
      <trkpt lat="42.863860" lon="0.329780">
        <ele>845.507</ele>
        <time>2020-07-14T00:34:56Z</time>
      </trkpt>
      <trkpt lat="42.864070" lon="0.329460">
        <ele>831.517</ele>
        <time>2020-07-14T00:35:16Z</time>
      </trkpt>
      <trkpt lat="42.865420" lon="0.330470">
        <ele>830.508</ele>
        <time>2020-07-14T00:36:16Z</time>
      </trkpt>
      <trkpt lat="42.865870" lon="0.330500">
        <ele>844.653</ele>
        <time>2020-07-14T00:36:36Z</time>
      </trkpt>
      <trkpt lat="42.865690" lon="0.331510">
        <ele>843.810</ele>
        <time>2020-07-14T00:36:56Z</time>
      </trkpt>
      <trkpt lat="42.866140" lon="0.332940">
        <ele>851.115</ele>
        <time>2020-07-14T00:37:16Z</time>
      </trkpt>
      <trkpt lat="42.867050" lon="0.333820">
        <ele>863.728</ele>
        <time>2020-07-14T00:37:36Z</time>
      </trkpt>
      <trkpt lat="42.867860" lon="0.334020">
        <ele>875.423</ele>
        <time>2020-07-14T00:38:16Z</time>
      </trkpt>
      <trkpt lat="42.868400" lon="0.334640">
        <ele>879.134</ele>
        <time>2020-07-14T00:38:36Z</time>
      </trkpt>
      <trkpt lat="42.869350" lon="0.334010">
        <ele>898.577</ele>
        <time>2020-07-14T00:39:16Z</time>
      </trkpt>
      <trkpt lat="42.869750" lon="0.332700">
        <ele>910.625</ele>
        <time>2020-07-14T00:39:36Z</time>
      </trkpt>
      <trkpt lat="42.874700" lon="0.331590">
        <ele>957.425</ele>
        <time>2020-07-14T00:40:56Z</time>
      </trkpt>
      <trkpt lat="42.876000" lon="0.330130">
        <ele>972.726</ele>
        <time>2020-07-14T00:41:36Z</time>
      </trkpt>
      <trkpt lat="42.876390" lon="0.329270">
        <ele>985.308</ele>
        <time>2020-07-14T00:41:56Z</time>
      </trkpt>
      <trkpt lat="42.876810" lon="0.326870">
        <ele>1012.808</ele>
        <time>2020-07-14T00:42:36Z</time>
      </trkpt>
      <trkpt lat="42.878190" lon="0.325180">
        <ele>1022.637</ele>
        <time>2020-07-14T00:43:16Z</time>
      </trkpt>
      <trkpt lat="42.878580" lon="0.324130">
        <ele>1041.784</ele>
        <time>2020-07-14T00:43:36Z</time>
      </trkpt>
      <trkpt lat="42.879080" lon="0.323590">
        <ele>1039.989</ele>
        <time>2020-07-14T00:43:56Z</time>
      </trkpt>
      <trkpt lat="42.879180" lon="0.322810">
        <ele>1055.052</ele>
        <time>2020-07-14T00:44:16Z</time>
      </trkpt>
      <trkpt lat="42.880560" lon="0.321180">
        <ele>1067.917</ele>
        <time>2020-07-14T00:44:36Z</time>
      </trkpt>
      <trkpt lat="42.882000" lon="0.320400">
        <ele>1081.068</ele>
        <time>2020-07-14T00:45:16Z</time>
      </trkpt>
      <trkpt lat="42.882090" lon="0.321190">
        <ele>1089.081</ele>
        <time>2020-07-14T00:45:56Z</time>
      </trkpt>
      <trkpt lat="42.881470" lon="0.323130">
        <ele>1101.269</ele>
        <time>2020-07-14T00:46:16Z</time>
      </trkpt>
      <trkpt lat="42.880130" lon="0.330300">
        <ele>1139.057</ele>
        <time>2020-07-14T00:46:36Z</time>
      </trkpt>
      <trkpt lat="42.880090" lon="0.332170">
        <ele>1155.600</ele>
        <time>2020-07-14T00:46:56Z</time>
      </trkpt>
      <trkpt lat="42.879530" lon="0.333310">
        <ele>1154.520</ele>
        <time>2020-07-14T00:47:16Z</time>
      </trkpt>
      <trkpt lat="42.879320" lon="0.335120">
        <ele>1151.808</ele>
        <time>2020-07-14T00:47:36Z</time>
      </trkpt>
      <trkpt lat="42.881170" lon="0.338790">
        <ele>1183.020</ele>
        <time>2020-07-14T00:47:56Z</time>
      </trkpt>
      <trkpt lat="42.882210" lon="0.338740">
        <ele>1178.947</ele>
        <time>2020-07-14T00:48:16Z</time>
      </trkpt>
      <trkpt lat="42.883250" lon="0.337500">
        <ele>1195.152</ele>
        <time>2020-07-14T00:48:56Z</time>
      </trkpt>
      <trkpt lat="42.883720" lon="0.337700">
        <ele>1190.545</ele>
        <time>2020-07-14T00:49:16Z</time>
      </trkpt>
      <trkpt lat="42.884920" lon="0.337470">
        <ele>1211.670</ele>
        <time>2020-07-14T00:49:36Z</time>
      </trkpt>
      <trkpt lat="42.886120" lon="0.335190">
        <ele>1235.451</ele>
        <time>2020-07-14T00:50:36Z</time>
      </trkpt>
      <trkpt lat="42.886980" lon="0.329090">
        <ele>1277.614</ele>
        <time>2020-07-14T00:51:16Z</time>
      </trkpt>
      <trkpt lat="42.887200" lon="0.323730">
        <ele>1316.962</ele>
        <time>2020-07-14T00:51:56Z</time>
      </trkpt>
      <trkpt lat="42.888530" lon="0.318190">
        <ele>1349.653</ele>
        <time>2020-07-14T00:52:16Z</time>
      </trkpt>
      <trkpt lat="42.889560" lon="0.315670">
        <ele>1368.504</ele>
        <time>2020-07-14T00:52:36Z</time>
      </trkpt>
      <trkpt lat="42.890220" lon="0.316440">
        <ele>1373.414</ele>
        <time>2020-07-14T00:53:16Z</time>
      </trkpt>
      <trkpt lat="42.891040" lon="0.319160">
        <ele>1391.308</ele>
        <time>2020-07-14T00:53:36Z</time>
      </trkpt>
      <trkpt lat="42.891720" lon="0.320040">
        <ele>1404.620</ele>
        <time>2020-07-14T00:53:56Z</time>
      </trkpt>
      <trkpt lat="42.891690" lon="0.321120">
        <ele>1409.917</ele>
        <time>2020-07-14T00:54:16Z</time>
      </trkpt>
      <trkpt lat="42.892180" lon="0.322820">
        <ele>1414.832</ele>
        <time>2020-07-14T00:54:36Z</time>
      </trkpt>
      <trkpt lat="42.893320" lon="0.323230">
        <ele>1435.835</ele>
        <time>2020-07-14T00:55:16Z</time>
      </trkpt>
      <trkpt lat="42.894090" lon="0.324270">
        <ele>1437.030</ele>
        <time>2020-07-14T00:55:36Z</time>
      </trkpt>
      <trkpt lat="42.895140" lon="0.322970">
        <ele>1446.211</ele>
        <time>2020-07-14T00:55:56Z</time>
      </trkpt>
      <trkpt lat="42.897900" lon="0.315850">
        <ele>1495.034</ele>
        <time>2020-07-14T00:56:56Z</time>
      </trkpt>
      <trkpt lat="42.898030" lon="0.311950">
        <ele>1521.132</ele>
        <time>2020-07-14T00:57:36Z</time>
      </trkpt>
      <trkpt lat="42.898630" lon="0.307190">
        <ele>1556.477</ele>
        <time>2020-07-14T00:58:16Z</time>
      </trkpt>
      <trkpt lat="42.899310" lon="0.305970">
        <ele>1561.561</ele>
        <time>2020-07-14T00:58:56Z</time>
      </trkpt>
      <trkpt lat="42.900480" lon="0.305880">
        <ele>1558.627</ele>
        <time>2020-07-14T00:59:56Z</time>
      </trkpt>
      <trkpt lat="42.899910" lon="0.304230">
        <ele>1562.508</ele>
        <time>2020-07-14T01:00:16Z</time>
      </trkpt>
      <trkpt lat="42.900110" lon="0.304190">
        <ele>1554.022</ele>
        <time>2020-07-14T01:00:36Z</time>
      </trkpt>
      <trkpt lat="42.900660" lon="0.305200">
        <ele>1550.669</ele>
        <time>2020-07-14T01:00:56Z</time>
      </trkpt>
      <trkpt lat="42.901370" lon="0.305720">
        <ele>1541.534</ele>
        <time>2020-07-14T01:01:16Z</time>
      </trkpt>
      <trkpt lat="42.902120" lon="0.304780">
        <ele>1532.337</ele>
        <time>2020-07-14T01:01:36Z</time>
      </trkpt>
      <trkpt lat="42.903820" lon="0.303640">
        <ele>1517.762</ele>
        <time>2020-07-14T01:01:56Z</time>
      </trkpt>
      <trkpt lat="42.906360" lon="0.301250">
        <ele>1486.473</ele>
        <time>2020-07-14T01:02:56Z</time>
      </trkpt>
      <trkpt lat="42.905070" lon="0.301410">
        <ele>1482.896</ele>
        <time>2020-07-14T01:03:36Z</time>
      </trkpt>
      <trkpt lat="42.905000" lon="0.301190">
        <ele>1478.494</ele>
        <time>2020-07-14T01:03:56Z</time>
      </trkpt>
      <trkpt lat="42.909240" lon="0.299320">
        <ele>1440.897</ele>
        <time>2020-07-14T01:04:56Z</time>
      </trkpt>
      <trkpt lat="42.910480" lon="0.298260">
        <ele>1428.523</ele>
        <time>2020-07-14T01:05:36Z</time>
      </trkpt>
      <trkpt lat="42.910480" lon="0.297660">
        <ele>1422.025</ele>
        <time>2020-07-14T01:05:56Z</time>
      </trkpt>
      <trkpt lat="42.907980" lon="0.293320">
        <ele>1414.508</ele>
        <time>2020-07-14T01:06:36Z</time>
      </trkpt>
      <trkpt lat="42.907030" lon="0.292170">
        <ele>1404.164</ele>
        <time>2020-07-14T01:06:56Z</time>
      </trkpt>
      <trkpt lat="42.906680" lon="0.291080">
        <ele>1391.311</ele>
        <time>2020-07-14T01:07:16Z</time>
      </trkpt>
      <trkpt lat="42.905050" lon="0.289520">
        <ele>1381.746</ele>
        <time>2020-07-14T01:07:56Z</time>
      </trkpt>
      <trkpt lat="42.905030" lon="0.288440">
        <ele>1376.239</ele>
        <time>2020-07-14T01:08:16Z</time>
      </trkpt>
      <trkpt lat="42.905320" lon="0.287870">
        <ele>1377.714</ele>
        <time>2020-07-14T01:08:56Z</time>
      </trkpt>
      <trkpt lat="42.904130" lon="0.287410">
        <ele>1392.145</ele>
        <time>2020-07-14T01:09:56Z</time>
      </trkpt>
      <trkpt lat="42.904300" lon="0.287140">
        <ele>1393.438</ele>
        <time>2020-07-14T01:10:16Z</time>
      </trkpt>
      <trkpt lat="42.907180" lon="0.286410">
        <ele>1406.916</ele>
        <time>2020-07-14T01:10:36Z</time>
      </trkpt>
      <trkpt lat="42.909860" lon="0.286910">
        <ele>1424.415</ele>
        <time>2020-07-14T01:10:56Z</time>
      </trkpt>
      <trkpt lat="42.911370" lon="0.286760">
        <ele>1444.365</ele>
        <time>2020-07-14T01:11:16Z</time>
      </trkpt>
      <trkpt lat="42.909360" lon="0.283940">
        <ele>1433.511</ele>
        <time>2020-07-14T01:12:16Z</time>
      </trkpt>
      <trkpt lat="42.908320" lon="0.280940">
        <ele>1419.808</ele>
        <time>2020-07-14T01:13:16Z</time>
      </trkpt>
      <trkpt lat="42.910730" lon="0.283580">
        <ele>1386.276</ele>
        <time>2020-07-14T01:13:56Z</time>
      </trkpt>
      <trkpt lat="42.913760" lon="0.285490">
        <ele>1364.693</ele>
        <time>2020-07-14T01:14:16Z</time>
      </trkpt>
      <trkpt lat="42.914180" lon="0.286020">
        <ele>1361.188</ele>
        <time>2020-07-14T01:14:36Z</time>
      </trkpt>
      <trkpt lat="42.916140" lon="0.286630">
        <ele>1343.891</ele>
        <time>2020-07-14T01:14:56Z</time>
      </trkpt>
      <trkpt lat="42.918340" lon="0.286110">
        <ele>1317.916</ele>
        <time>2020-07-14T01:15:36Z</time>
      </trkpt>
      <trkpt lat="42.920580" lon="0.287010">
        <ele>1302.467</ele>
        <time>2020-07-14T01:15:56Z</time>
      </trkpt>
      <trkpt lat="42.922700" lon="0.288600">
        <ele>1292.320</ele>
        <time>2020-07-14T01:16:16Z</time>
      </trkpt>
      <trkpt lat="42.923880" lon="0.290340">
        <ele>1268.728</ele>
        <time>2020-07-14T01:16:56Z</time>
      </trkpt>
      <trkpt lat="42.921340" lon="0.292410">
        <ele>1240.363</ele>
        <time>2020-07-14T01:17:36Z</time>
      </trkpt>
      <trkpt lat="42.922190" lon="0.293440">
        <ele>1234.844</ele>
        <time>2020-07-14T01:17:56Z</time>
      </trkpt>
      <trkpt lat="42.925000" lon="0.292810">
        <ele>1210.618</ele>
        <time>2020-07-14T01:18:36Z</time>
      </trkpt>
      <trkpt lat="42.927880" lon="0.293630">
        <ele>1185.008</ele>
        <time>2020-07-14T01:19:16Z</time>
      </trkpt>
      <trkpt lat="42.931580" lon="0.293800">
        <ele>1163.391</ele>
        <time>2020-07-14T01:20:16Z</time>
      </trkpt>
      <trkpt lat="42.932910" lon="0.293010">
        <ele>1143.448</ele>
        <time>2020-07-14T01:20:56Z</time>
      </trkpt>
      <trkpt lat="42.933680" lon="0.292050">
        <ele>1137.673</ele>
        <time>2020-07-14T01:21:16Z</time>
      </trkpt>
      <trkpt lat="42.935480" lon="0.290880">
        <ele>1127.746</ele>
        <time>2020-07-14T01:21:36Z</time>
      </trkpt>
      <trkpt lat="42.941160" lon="0.281310">
        <ele>1101.461</ele>
        <time>2020-07-14T01:22:56Z</time>
      </trkpt>
      <trkpt lat="42.942240" lon="0.280290">
        <ele>1092.892</ele>
        <time>2020-07-14T01:23:16Z</time>
      </trkpt>
      <trkpt lat="42.943330" lon="0.278110">
        <ele>1090.035</ele>
        <time>2020-07-14T01:23:56Z</time>
      </trkpt>
      <trkpt lat="42.943600" lon="0.278020">
        <ele>1090.013</ele>
        <time>2020-07-14T01:24:16Z</time>
      </trkpt>
      <trkpt lat="42.944590" lon="0.275860">
        <ele>1087.525</ele>
        <time>2020-07-14T01:24:56Z</time>
      </trkpt>
      <trkpt lat="42.945630" lon="0.272400">
        <ele>1083.026</ele>
        <time>2020-07-14T01:25:16Z</time>
      </trkpt>
      <trkpt lat="42.947290" lon="0.270920">
        <ele>1073.508</ele>
        <time>2020-07-14T01:25:36Z</time>
      </trkpt>
      <trkpt lat="42.948880" lon="0.270510">
        <ele>1070.608</ele>
        <time>2020-07-14T01:26:16Z</time>
      </trkpt>
      <trkpt lat="42.949810" lon="0.268980">
        <ele>1064.067</ele>
        <time>2020-07-14T01:26:56Z</time>
      </trkpt>
      <trkpt lat="42.949880" lon="0.267860">
        <ele>1057.244</ele>
        <time>2020-07-14T01:27:16Z</time>
      </trkpt>
      <trkpt lat="42.951270" lon="0.266570">
        <ele>1041.389</ele>
        <time>2020-07-14T01:27:36Z</time>
      </trkpt>
      <trkpt lat="42.951520" lon="0.264970">
        <ele>1039.862</ele>
        <time>2020-07-14T01:27:56Z</time>
      </trkpt>
      <trkpt lat="42.952080" lon="0.264190">
        <ele>1031.927</ele>
        <time>2020-07-14T01:28:16Z</time>
      </trkpt>
      <trkpt lat="42.953570" lon="0.260570">
        <ele>1010.678</ele>
        <time>2020-07-14T01:28:56Z</time>
      </trkpt>
      <trkpt lat="42.955540" lon="0.259460">
        <ele>999.061</ele>
        <time>2020-07-14T01:29:56Z</time>
      </trkpt>
      <trkpt lat="42.955910" lon="0.258440">
        <ele>995.779</ele>
        <time>2020-07-14T01:30:16Z</time>
      </trkpt>
      <trkpt lat="42.957900" lon="0.255930">
        <ele>989.093</ele>
        <time>2020-07-14T01:31:16Z</time>
      </trkpt>
      <trkpt lat="42.959950" lon="0.253970">
        <ele>978.765</ele>
        <time>2020-07-14T01:31:36Z</time>
      </trkpt>
      <trkpt lat="42.961840" lon="0.251440">
        <ele>964.921</ele>
        <time>2020-07-14T01:31:56Z</time>
      </trkpt>
      <trkpt lat="42.964140" lon="0.247000">
        <ele>951.108</ele>
        <time>2020-07-14T01:32:16Z</time>
      </trkpt>
      <trkpt lat="42.966210" lon="0.245090">
        <ele>942.574</ele>
        <time>2020-07-14T01:32:56Z</time>
      </trkpt>
      <trkpt lat="42.967600" lon="0.244890">
        <ele>938.781</ele>
        <time>2020-07-14T01:33:16Z</time>
      </trkpt>
      <trkpt lat="42.969080" lon="0.244210">
        <ele>933.256</ele>
        <time>2020-07-14T01:33:36Z</time>
      </trkpt>
      <trkpt lat="42.971620" lon="0.244010">
        <ele>916.589</ele>
        <time>2020-07-14T01:33:56Z</time>
      </trkpt>
      <trkpt lat="42.973820" lon="0.243170">
        <ele>910.034</ele>
        <time>2020-07-14T01:34:16Z</time>
      </trkpt>
      <trkpt lat="42.975130" lon="0.243140">
        <ele>903.915</ele>
        <time>2020-07-14T01:34:36Z</time>
      </trkpt>
      <trkpt lat="42.977370" lon="0.242420">
        <ele>893.958</ele>
        <time>2020-07-14T01:34:56Z</time>
      </trkpt>
      <trkpt lat="42.978350" lon="0.240390">
        <ele>893.086</ele>
        <time>2020-07-14T01:35:36Z</time>
      </trkpt>
      <trkpt lat="42.979610" lon="0.239910">
        <ele>880.864</ele>
        <time>2020-07-14T01:36:16Z</time>
      </trkpt>
      <trkpt lat="42.980110" lon="0.239220">
        <ele>874.606</ele>
        <time>2020-07-14T01:36:36Z</time>
      </trkpt>
      <trkpt lat="42.980780" lon="0.239310">
        <ele>871.016</ele>
        <time>2020-07-14T01:36:56Z</time>
      </trkpt>
      <trkpt lat="42.982620" lon="0.238750">
        <ele>863.208</ele>
        <time>2020-07-14T01:37:36Z</time>
      </trkpt>
      <trkpt lat="42.982910" lon="0.237510">
        <ele>852.661</ele>
        <time>2020-07-14T01:37:56Z</time>
      </trkpt>
      <trkpt lat="42.984680" lon="0.234410">
        <ele>831.788</ele>
        <time>2020-07-14T01:38:36Z</time>
      </trkpt>
      <trkpt lat="42.985670" lon="0.234000">
        <ele>824.973</ele>
        <time>2020-07-14T01:39:16Z</time>
      </trkpt>
      <trkpt lat="42.986830" lon="0.232450">
        <ele>818.216</ele>
        <time>2020-07-14T01:39:36Z</time>
      </trkpt>
      <trkpt lat="42.986830" lon="0.232450">
        <ele>818.286</ele>
        <time>2020-07-13T21:18:11Z</time>
      </trkpt>
      <trkpt lat="42.989340" lon="0.229600">
        <ele>802.760</ele>
        <time>2020-07-13T21:19:11Z</time>
      </trkpt>
      <trkpt lat="42.991430" lon="0.227960">
        <ele>803.626</ele>
        <time>2020-07-13T21:19:51Z</time>
      </trkpt>
      <trkpt lat="42.991300" lon="0.227210">
        <ele>791.108</ele>
        <time>2020-07-13T21:20:11Z</time>
      </trkpt>
      <trkpt lat="42.992030" lon="0.225630">
        <ele>792.733</ele>
        <time>2020-07-13T21:20:31Z</time>
      </trkpt>
      <trkpt lat="42.991120" lon="0.224790">
        <ele>801.210</ele>
        <time>2020-07-13T21:20:51Z</time>
      </trkpt>
      <trkpt lat="42.990680" lon="0.225380">
        <ele>808.755</ele>
        <time>2020-07-13T21:21:11Z</time>
      </trkpt>
      <trkpt lat="42.986830" lon="0.227060">
        <ele>835.788</ele>
        <time>2020-07-13T21:22:31Z</time>
      </trkpt>
      <trkpt lat="42.984600" lon="0.227520">
        <ele>846.273</ele>
        <time>2020-07-13T21:23:11Z</time>
      </trkpt>
      <trkpt lat="42.984460" lon="0.227090">
        <ele>850.815</ele>
        <time>2020-07-13T21:23:31Z</time>
      </trkpt>
      <trkpt lat="42.983240" lon="0.226820">
        <ele>860.659</ele>
        <time>2020-07-13T21:23:51Z</time>
      </trkpt>
      <trkpt lat="42.980710" lon="0.227240">
        <ele>870.767</ele>
        <time>2020-07-13T21:24:11Z</time>
      </trkpt>
      <trkpt lat="42.977480" lon="0.228410">
        <ele>883.684</ele>
        <time>2020-07-13T21:24:51Z</time>
      </trkpt>
      <trkpt lat="42.975830" lon="0.228270">
        <ele>894.907</ele>
        <time>2020-07-13T21:25:11Z</time>
      </trkpt>
      <trkpt lat="42.973310" lon="0.230010">
        <ele>909.117</ele>
        <time>2020-07-13T21:25:51Z</time>
      </trkpt>
      <trkpt lat="42.972110" lon="0.230200">
        <ele>912.908</ele>
        <time>2020-07-13T21:26:11Z</time>
      </trkpt>
      <trkpt lat="42.970650" lon="0.231180">
        <ele>921.473</ele>
        <time>2020-07-13T21:26:31Z</time>
      </trkpt>
      <trkpt lat="42.967690" lon="0.230200">
        <ele>937.350</ele>
        <time>2020-07-13T21:27:31Z</time>
      </trkpt>
      <trkpt lat="42.962680" lon="0.230430">
        <ele>938.545</ele>
        <time>2020-07-13T21:28:31Z</time>
      </trkpt>
      <trkpt lat="42.960360" lon="0.230110">
        <ele>949.348</ele>
        <time>2020-07-13T21:28:51Z</time>
      </trkpt>
      <trkpt lat="42.958590" lon="0.228760">
        <ele>956.733</ele>
        <time>2020-07-13T21:29:11Z</time>
      </trkpt>
      <trkpt lat="42.956080" lon="0.227890">
        <ele>969.655</ele>
        <time>2020-07-13T21:29:51Z</time>
      </trkpt>
      <trkpt lat="42.953720" lon="0.227840">
        <ele>979.989</ele>
        <time>2020-07-13T21:30:31Z</time>
      </trkpt>
      <trkpt lat="42.949480" lon="0.225480">
        <ele>997.597</ele>
        <time>2020-07-13T21:31:31Z</time>
      </trkpt>
      <trkpt lat="42.948900" lon="0.224620">
        <ele>1001.499</ele>
        <time>2020-07-13T21:31:51Z</time>
      </trkpt>
      <trkpt lat="42.947310" lon="0.223620">
        <ele>1013.207</ele>
        <time>2020-07-13T21:32:31Z</time>
      </trkpt>
      <trkpt lat="42.946480" lon="0.221520">
        <ele>1033.327</ele>
        <time>2020-07-13T21:33:11Z</time>
      </trkpt>
      <trkpt lat="42.945820" lon="0.221210">
        <ele>1038.408</ele>
        <time>2020-07-13T21:33:31Z</time>
      </trkpt>
      <trkpt lat="42.941830" lon="0.216230">
        <ele>1081.684</ele>
        <time>2020-07-13T21:35:11Z</time>
      </trkpt>
      <trkpt lat="42.941350" lon="0.214970">
        <ele>1095.221</ele>
        <time>2020-07-13T21:35:31Z</time>
      </trkpt>
      <trkpt lat="42.936640" lon="0.209290">
        <ele>1142.836</ele>
        <time>2020-07-13T21:36:51Z</time>
      </trkpt>
      <trkpt lat="42.936460" lon="0.208620">
        <ele>1153.179</ele>
        <time>2020-07-13T21:37:11Z</time>
      </trkpt>
      <trkpt lat="42.935980" lon="0.208790">
        <ele>1149.194</ele>
        <time>2020-07-13T21:37:31Z</time>
      </trkpt>
      <trkpt lat="42.935090" lon="0.208150">
        <ele>1160.116</ele>
        <time>2020-07-13T21:38:11Z</time>
      </trkpt>
      <trkpt lat="42.933690" lon="0.205890">
        <ele>1182.070</ele>
        <time>2020-07-13T21:39:11Z</time>
      </trkpt>
      <trkpt lat="42.931090" lon="0.203740">
        <ele>1208.058</ele>
        <time>2020-07-13T21:39:51Z</time>
      </trkpt>
      <trkpt lat="42.930280" lon="0.202440">
        <ele>1219.581</ele>
        <time>2020-07-13T21:40:11Z</time>
      </trkpt>
      <trkpt lat="42.928840" lon="0.201310">
        <ele>1235.861</ele>
        <time>2020-07-13T21:40:31Z</time>
      </trkpt>
      <trkpt lat="42.926000" lon="0.197110">
        <ele>1282.417</ele>
        <time>2020-07-13T21:41:51Z</time>
      </trkpt>
      <trkpt lat="42.924740" lon="0.197830">
        <ele>1293.108</ele>
        <time>2020-07-13T21:42:11Z</time>
      </trkpt>
      <trkpt lat="42.924720" lon="0.200710">
        <ele>1318.973</ele>
        <time>2020-07-13T21:42:31Z</time>
      </trkpt>
      <trkpt lat="42.924370" lon="0.202790">
        <ele>1332.830</ele>
        <time>2020-07-13T21:42:51Z</time>
      </trkpt>
      <trkpt lat="42.922960" lon="0.205550">
        <ele>1350.225</ele>
        <time>2020-07-13T21:43:31Z</time>
      </trkpt>
      <trkpt lat="42.918950" lon="0.208440">
        <ele>1393.328</ele>
        <time>2020-07-13T21:43:51Z</time>
      </trkpt>
      <trkpt lat="42.918220" lon="0.208520">
        <ele>1398.063</ele>
        <time>2020-07-13T21:44:11Z</time>
      </trkpt>
      <trkpt lat="42.916990" lon="0.209480">
        <ele>1416.965</ele>
        <time>2020-07-13T21:44:51Z</time>
      </trkpt>
      <trkpt lat="42.921590" lon="0.203790">
        <ele>1471.229</ele>
        <time>2020-07-13T21:46:51Z</time>
      </trkpt>
      <trkpt lat="42.922460" lon="0.201220">
        <ele>1488.237</ele>
        <time>2020-07-13T21:47:11Z</time>
      </trkpt>
      <trkpt lat="42.919890" lon="0.194440">
        <ele>1563.558</ele>
        <time>2020-07-13T21:48:31Z</time>
      </trkpt>
      <trkpt lat="42.919350" lon="0.191080">
        <ele>1586.252</ele>
        <time>2020-07-13T21:49:11Z</time>
      </trkpt>
      <trkpt lat="42.916290" lon="0.187950">
        <ele>1632.117</ele>
        <time>2020-07-13T21:50:11Z</time>
      </trkpt>
      <trkpt lat="42.915890" lon="0.187050">
        <ele>1635.808</ele>
        <time>2020-07-13T21:50:31Z</time>
      </trkpt>
      <trkpt lat="42.915120" lon="0.187100">
        <ele>1653.370</ele>
        <time>2020-07-13T21:51:11Z</time>
      </trkpt>
      <trkpt lat="42.914150" lon="0.186520">
        <ele>1661.037</ele>
        <time>2020-07-13T21:51:31Z</time>
      </trkpt>
      <trkpt lat="42.913530" lon="0.186600">
        <ele>1672.592</ele>
        <time>2020-07-13T21:51:51Z</time>
      </trkpt>
      <trkpt lat="42.912880" lon="0.184700">
        <ele>1680.085</ele>
        <time>2020-07-13T21:52:11Z</time>
      </trkpt>
      <trkpt lat="42.911330" lon="0.183570">
        <ele>1705.250</ele>
        <time>2020-07-13T21:53:11Z</time>
      </trkpt>
      <trkpt lat="42.910330" lon="0.181310">
        <ele>1721.132</ele>
        <time>2020-07-13T21:53:51Z</time>
      </trkpt>
      <trkpt lat="42.910070" lon="0.179620">
        <ele>1735.456</ele>
        <time>2020-07-13T21:54:11Z</time>
      </trkpt>
      <trkpt lat="42.911000" lon="0.178740">
        <ele>1747.124</ele>
        <time>2020-07-13T21:54:51Z</time>
      </trkpt>
      <trkpt lat="42.910990" lon="0.177230">
        <ele>1755.169</ele>
        <time>2020-07-13T21:55:31Z</time>
      </trkpt>
      <trkpt lat="42.910560" lon="0.175920">
        <ele>1763.204</ele>
        <time>2020-07-13T21:55:51Z</time>
      </trkpt>
      <trkpt lat="42.910190" lon="0.169350">
        <ele>1814.824</ele>
        <time>2020-07-13T21:56:51Z</time>
      </trkpt>
      <trkpt lat="42.909430" lon="0.167120">
        <ele>1827.908</ele>
        <time>2020-07-13T21:57:11Z</time>
      </trkpt>
      <trkpt lat="42.909640" lon="0.164260">
        <ele>1854.181</ele>
        <time>2020-07-13T21:57:51Z</time>
      </trkpt>
      <trkpt lat="42.908480" lon="0.159580">
        <ele>1888.598</ele>
        <time>2020-07-13T21:58:51Z</time>
      </trkpt>
      <trkpt lat="42.906690" lon="0.156060">
        <ele>1916.683</ele>
        <time>2020-07-13T21:59:31Z</time>
      </trkpt>
      <trkpt lat="42.906590" lon="0.153940">
        <ele>1931.356</ele>
        <time>2020-07-13T22:00:11Z</time>
      </trkpt>
      <trkpt lat="42.906810" lon="0.154830">
        <ele>1938.541</ele>
        <time>2020-07-13T22:00:51Z</time>
      </trkpt>
      <trkpt lat="42.908080" lon="0.156250">
        <ele>1957.053</ele>
        <time>2020-07-13T22:01:11Z</time>
      </trkpt>
      <trkpt lat="42.908890" lon="0.156420">
        <ele>1967.357</ele>
        <time>2020-07-13T22:01:31Z</time>
      </trkpt>
      <trkpt lat="42.910150" lon="0.156010">
        <ele>1984.715</ele>
        <time>2020-07-13T22:02:31Z</time>
      </trkpt>
      <trkpt lat="42.908700" lon="0.154470">
        <ele>1997.538</ele>
        <time>2020-07-13T22:03:11Z</time>
      </trkpt>
      <trkpt lat="42.908400" lon="0.153610">
        <ele>2003.970</ele>
        <time>2020-07-13T22:03:31Z</time>
      </trkpt>
      <trkpt lat="42.909000" lon="0.151290">
        <ele>2027.617</ele>
        <time>2020-07-13T22:03:51Z</time>
      </trkpt>
      <trkpt lat="42.908590" lon="0.149790">
        <ele>2033.308</ele>
        <time>2020-07-13T22:04:11Z</time>
      </trkpt>
      <trkpt lat="42.908690" lon="0.148990">
        <ele>2047.288</ele>
        <time>2020-07-13T22:04:31Z</time>
      </trkpt>
      <trkpt lat="42.906020" lon="0.148220">
        <ele>2070.375</ele>
        <time>2020-07-13T22:05:51Z</time>
      </trkpt>
      <trkpt lat="42.907330" lon="0.147630">
        <ele>2083.430</ele>
        <time>2020-07-13T22:06:31Z</time>
      </trkpt>
      <trkpt lat="42.908610" lon="0.145990">
        <ele>2105.663</ele>
        <time>2020-07-13T22:07:11Z</time>
      </trkpt>
      <trkpt lat="42.908190" lon="0.145130">
        <ele>2119.898</ele>
        <time>2020-07-13T22:07:51Z</time>
      </trkpt>
      <trkpt lat="42.906870" lon="0.145270">
        <ele>2106.180</ele>
        <time>2020-07-13T22:08:11Z</time>
      </trkpt>
      <trkpt lat="42.905180" lon="0.146680">
        <ele>2081.414</ele>
        <time>2020-07-13T22:08:51Z</time>
      </trkpt>
      <trkpt lat="42.905750" lon="0.146130">
        <ele>2077.382</ele>
        <time>2020-07-13T22:09:11Z</time>
      </trkpt>
      <trkpt lat="42.906330" lon="0.144650">
        <ele>2059.972</ele>
        <time>2020-07-13T22:09:31Z</time>
      </trkpt>
      <trkpt lat="42.907450" lon="0.143810">
        <ele>2049.413</ele>
        <time>2020-07-13T22:09:51Z</time>
      </trkpt>
      <trkpt lat="42.907180" lon="0.142470">
        <ele>2022.614</ele>
        <time>2020-07-13T22:10:31Z</time>
      </trkpt>
      <trkpt lat="42.907470" lon="0.141230">
        <ele>2024.108</ele>
        <time>2020-07-13T22:11:11Z</time>
      </trkpt>
      <trkpt lat="42.909240" lon="0.139360">
        <ele>2012.412</ele>
        <time>2020-07-13T22:11:51Z</time>
      </trkpt>
      <trkpt lat="42.911220" lon="0.139520">
        <ele>1995.029</ele>
        <time>2020-07-13T22:12:31Z</time>
      </trkpt>
      <trkpt lat="42.911730" lon="0.138520">
        <ele>1973.974</ele>
        <time>2020-07-13T22:12:51Z</time>
      </trkpt>
      <trkpt lat="42.912510" lon="0.138160">
        <ele>1969.577</ele>
        <time>2020-07-13T22:13:11Z</time>
      </trkpt>
      <trkpt lat="42.913380" lon="0.136910">
        <ele>1945.592</ele>
        <time>2020-07-13T22:14:11Z</time>
      </trkpt>
      <trkpt lat="42.913070" lon="0.136800">
        <ele>1942.914</ele>
        <time>2020-07-13T22:14:51Z</time>
      </trkpt>
      <trkpt lat="42.912550" lon="0.137670">
        <ele>1949.918</ele>
        <time>2020-07-13T22:15:11Z</time>
      </trkpt>
      <trkpt lat="42.911620" lon="0.137890">
        <ele>1944.156</ele>
        <time>2020-07-13T22:15:51Z</time>
      </trkpt>
      <trkpt lat="42.911020" lon="0.138580">
        <ele>1949.383</ele>
        <time>2020-07-13T22:16:11Z</time>
      </trkpt>
      <trkpt lat="42.910620" lon="0.138070">
        <ele>1936.425</ele>
        <time>2020-07-13T22:16:31Z</time>
      </trkpt>
      <trkpt lat="42.908480" lon="0.137800">
        <ele>1919.117</ele>
        <time>2020-07-13T22:16:51Z</time>
      </trkpt>
      <trkpt lat="42.907420" lon="0.138580">
        <ele>1909.908</ele>
        <time>2020-07-13T22:17:31Z</time>
      </trkpt>
      <trkpt lat="42.906480" lon="0.138720">
        <ele>1900.213</ele>
        <time>2020-07-13T22:17:51Z</time>
      </trkpt>
      <trkpt lat="42.904940" lon="0.137100">
        <ele>1872.990</ele>
        <time>2020-07-13T22:18:31Z</time>
      </trkpt>
      <trkpt lat="42.903700" lon="0.136810">
        <ele>1861.865</ele>
        <time>2020-07-13T22:19:11Z</time>
      </trkpt>
      <trkpt lat="42.902910" lon="0.136020">
        <ele>1852.548</ele>
        <time>2020-07-13T22:19:51Z</time>
      </trkpt>
      <trkpt lat="42.902790" lon="0.134570">
        <ele>1836.893</ele>
        <time>2020-07-13T22:20:31Z</time>
      </trkpt>
      <trkpt lat="42.902260" lon="0.133940">
        <ele>1837.645</ele>
        <time>2020-07-13T22:21:11Z</time>
      </trkpt>
      <trkpt lat="42.901990" lon="0.132430">
        <ele>1822.179</ele>
        <time>2020-07-13T22:21:51Z</time>
      </trkpt>
      <trkpt lat="42.902780" lon="0.132130">
        <ele>1812.917</ele>
        <time>2020-07-13T22:22:11Z</time>
      </trkpt>
      <trkpt lat="42.903340" lon="0.131290">
        <ele>1805.717</ele>
        <time>2020-07-13T22:22:31Z</time>
      </trkpt>
      <trkpt lat="42.903780" lon="0.128710">
        <ele>1785.287</ele>
        <time>2020-07-13T22:23:31Z</time>
      </trkpt>
      <trkpt lat="42.903560" lon="0.127930">
        <ele>1782.015</ele>
        <time>2020-07-13T22:23:51Z</time>
      </trkpt>
      <trkpt lat="42.903900" lon="0.126430">
        <ele>1769.408</ele>
        <time>2020-07-13T22:24:11Z</time>
      </trkpt>
      <trkpt lat="42.904630" lon="0.129820">
        <ele>1750.926</ele>
        <time>2020-07-13T22:25:31Z</time>
      </trkpt>
      <trkpt lat="42.905460" lon="0.130540">
        <ele>1740.553</ele>
        <time>2020-07-13T22:25:51Z</time>
      </trkpt>
      <trkpt lat="42.905860" lon="0.131610">
        <ele>1730.768</ele>
        <time>2020-07-13T22:26:31Z</time>
      </trkpt>
      <trkpt lat="42.906500" lon="0.131320">
        <ele>1734.411</ele>
        <time>2020-07-13T22:27:11Z</time>
      </trkpt>
      <trkpt lat="42.906940" lon="0.129640">
        <ele>1728.936</ele>
        <time>2020-07-13T22:27:31Z</time>
      </trkpt>
      <trkpt lat="42.907150" lon="0.120090">
        <ele>1663.728</ele>
        <time>2020-07-13T22:28:11Z</time>
      </trkpt>
      <trkpt lat="42.907530" lon="0.117180">
        <ele>1641.472</ele>
        <time>2020-07-13T22:28:31Z</time>
      </trkpt>
      <trkpt lat="42.908150" lon="0.115660">
        <ele>1633.210</ele>
        <time>2020-07-13T22:28:51Z</time>
      </trkpt>
      <trkpt lat="42.907180" lon="0.116220">
        <ele>1622.448</ele>
        <time>2020-07-13T22:29:51Z</time>
      </trkpt>
      <trkpt lat="42.907220" lon="0.112020">
        <ele>1592.261</ele>
        <time>2020-07-13T22:30:31Z</time>
      </trkpt>
      <trkpt lat="42.906560" lon="0.109600">
        <ele>1573.217</ele>
        <time>2020-07-13T22:30:51Z</time>
      </trkpt>
      <trkpt lat="42.906160" lon="0.105930">
        <ele>1544.208</ele>
        <time>2020-07-13T22:31:11Z</time>
      </trkpt>
      <trkpt lat="42.906610" lon="0.102020">
        <ele>1528.119</ele>
        <time>2020-07-13T22:31:31Z</time>
      </trkpt>
      <trkpt lat="42.906400" lon="0.101930">
        <ele>1518.586</ele>
        <time>2020-07-13T22:31:51Z</time>
      </trkpt>
      <trkpt lat="42.905550" lon="0.104510">
        <ele>1507.311</ele>
        <time>2020-07-13T22:32:51Z</time>
      </trkpt>
      <trkpt lat="42.905220" lon="0.104480">
        <ele>1499.154</ele>
        <time>2020-07-13T22:33:31Z</time>
      </trkpt>
      <trkpt lat="42.905680" lon="0.102590">
        <ele>1491.419</ele>
        <time>2020-07-13T22:34:11Z</time>
      </trkpt>
      <trkpt lat="42.905520" lon="0.101610">
        <ele>1483.531</ele>
        <time>2020-07-13T22:34:31Z</time>
      </trkpt>
      <trkpt lat="42.905160" lon="0.102690">
        <ele>1475.065</ele>
        <time>2020-07-13T22:35:11Z</time>
      </trkpt>
      <trkpt lat="42.904330" lon="0.103640">
        <ele>1463.233</ele>
        <time>2020-07-13T22:35:31Z</time>
      </trkpt>
      <trkpt lat="42.903880" lon="0.103570">
        <ele>1462.316</ele>
        <time>2020-07-13T22:35:51Z</time>
      </trkpt>
      <trkpt lat="42.903430" lon="0.102750">
        <ele>1454.576</ele>
        <time>2020-07-13T22:36:11Z</time>
      </trkpt>
      <trkpt lat="42.903140" lon="0.100870">
        <ele>1448.713</ele>
        <time>2020-07-13T22:36:51Z</time>
      </trkpt>
      <trkpt lat="42.903590" lon="0.099930">
        <ele>1441.208</ele>
        <time>2020-07-13T22:37:11Z</time>
      </trkpt>
      <trkpt lat="42.903280" lon="0.094200">
        <ele>1420.446</ele>
        <time>2020-07-13T22:37:31Z</time>
      </trkpt>
      <trkpt lat="42.902680" lon="0.091400">
        <ele>1409.833</ele>
        <time>2020-07-13T22:37:51Z</time>
      </trkpt>
      <trkpt lat="42.902690" lon="0.089930">
        <ele>1399.868</ele>
        <time>2020-07-13T22:38:11Z</time>
      </trkpt>
      <trkpt lat="42.901870" lon="0.086930">
        <ele>1405.811</ele>
        <time>2020-07-13T22:38:31Z</time>
      </trkpt>
      <trkpt lat="42.901550" lon="0.083280">
        <ele>1364.226</ele>
        <time>2020-07-13T22:38:51Z</time>
      </trkpt>
      <trkpt lat="42.899790" lon="0.078280">
        <ele>1323.038</ele>
        <time>2020-07-13T22:39:31Z</time>
      </trkpt>
      <trkpt lat="42.899390" lon="0.076190">
        <ele>1305.192</ele>
        <time>2020-07-13T22:39:51Z</time>
      </trkpt>
      <trkpt lat="42.898660" lon="0.074660">
        <ele>1296.590</ele>
        <time>2020-07-13T22:40:11Z</time>
      </trkpt>
      <trkpt lat="42.897720" lon="0.067500">
        <ele>1235.857</ele>
        <time>2020-07-13T22:40:51Z</time>
      </trkpt>
      <trkpt lat="42.897120" lon="0.065780">
        <ele>1225.100</ele>
        <time>2020-07-13T22:41:11Z</time>
      </trkpt>
      <trkpt lat="42.897310" lon="0.065420">
        <ele>1223.420</ele>
        <time>2020-07-13T22:41:31Z</time>
      </trkpt>
      <trkpt lat="42.896600" lon="0.062990">
        <ele>1207.808</ele>
        <time>2020-07-13T22:42:11Z</time>
      </trkpt>
      <trkpt lat="42.896190" lon="0.062900">
        <ele>1209.860</ele>
        <time>2020-07-13T22:42:31Z</time>
      </trkpt>
      <trkpt lat="42.895920" lon="0.059730">
        <ele>1188.517</ele>
        <time>2020-07-13T22:42:51Z</time>
      </trkpt>
      <trkpt lat="42.894910" lon="0.059310">
        <ele>1187.082</ele>
        <time>2020-07-13T22:43:51Z</time>
      </trkpt>
      <trkpt lat="42.895610" lon="0.058700">
        <ele>1175.075</ele>
        <time>2020-07-13T22:44:51Z</time>
      </trkpt>
      <trkpt lat="42.894980" lon="0.058190">
        <ele>1169.640</ele>
        <time>2020-07-13T22:45:11Z</time>
      </trkpt>
      <trkpt lat="42.892050" lon="0.051070">
        <ele>1111.222</ele>
        <time>2020-07-13T22:46:31Z</time>
      </trkpt>
      <trkpt lat="42.890640" lon="0.049730">
        <ele>1098.616</ele>
        <time>2020-07-13T22:47:11Z</time>
      </trkpt>
      <trkpt lat="42.890160" lon="0.048080">
        <ele>1087.024</ele>
        <time>2020-07-13T22:48:11Z</time>
      </trkpt>
      <trkpt lat="42.890990" lon="0.048870">
        <ele>1086.529</ele>
        <time>2020-07-13T22:48:51Z</time>
      </trkpt>
      <trkpt lat="42.891190" lon="0.048650">
        <ele>1082.100</ele>
        <time>2020-07-13T22:49:31Z</time>
      </trkpt>
      <trkpt lat="42.890100" lon="0.047050">
        <ele>1067.120</ele>
        <time>2020-07-13T22:50:11Z</time>
      </trkpt>
      <trkpt lat="42.888040" lon="0.046040">
        <ele>1040.308</ele>
        <time>2020-07-13T22:50:31Z</time>
      </trkpt>
      <trkpt lat="42.886230" lon="0.044410">
        <ele>1029.897</ele>
        <time>2020-07-13T22:50:51Z</time>
      </trkpt>
      <trkpt lat="42.883110" lon="0.040040">
        <ele>987.964</ele>
        <time>2020-07-13T22:51:11Z</time>
      </trkpt>
      <trkpt lat="42.882600" lon="0.039770">
        <ele>987.129</ele>
        <time>2020-07-13T22:51:31Z</time>
      </trkpt>
      <trkpt lat="42.882780" lon="0.039490">
        <ele>981.622</ele>
        <time>2020-07-13T22:52:11Z</time>
      </trkpt>
      <trkpt lat="42.883770" lon="0.040300">
        <ele>979.747</ele>
        <time>2020-07-13T22:53:11Z</time>
      </trkpt>
      <trkpt lat="42.882680" lon="0.036780">
        <ele>952.929</ele>
        <time>2020-07-13T22:54:11Z</time>
      </trkpt>
      <trkpt lat="42.883320" lon="0.031550">
        <ele>915.443</ele>
        <time>2020-07-13T22:55:31Z</time>
      </trkpt>
      <trkpt lat="42.883070" lon="0.030420">
        <ele>904.231</ele>
        <time>2020-07-13T22:56:11Z</time>
      </trkpt>
      <trkpt lat="42.879340" lon="0.025950">
        <ele>861.662</ele>
        <time>2020-07-13T22:56:51Z</time>
      </trkpt>
      <trkpt lat="42.878570" lon="0.022530">
        <ele>847.083</ele>
        <time>2020-07-13T22:57:11Z</time>
      </trkpt>
      <trkpt lat="42.878080" lon="0.012760">
        <ele>786.511</ele>
        <time>2020-07-13T22:57:31Z</time>
      </trkpt>
      <trkpt lat="42.876790" lon="0.009010">
        <ele>767.108</ele>
        <time>2020-07-13T22:57:51Z</time>
      </trkpt>
      <trkpt lat="42.874180" lon="0.005090">
        <ele>744.341</ele>
        <time>2020-07-13T22:58:11Z</time>
      </trkpt>
      <trkpt lat="42.872300" lon="-0.001770">
        <ele>721.928</ele>
        <time>2020-07-13T22:58:31Z</time>
      </trkpt>
      <trkpt lat="42.873170" lon="-0.003180">
        <ele>711.143</ele>
        <time>2020-07-13T22:58:51Z</time>
      </trkpt>
      <trkpt lat="42.874260" lon="-0.003110">
        <ele>707.956</ele>
        <time>2020-07-13T22:59:11Z</time>
      </trkpt>
      <trkpt lat="42.880150" lon="-0.011570">
        <ele>673.211</ele>
        <time>2020-07-13T22:59:51Z</time>
      </trkpt>
      <trkpt lat="42.885210" lon="-0.015470">
        <ele>649.023</ele>
        <time>2020-07-13T23:00:11Z</time>
      </trkpt>
      <trkpt lat="42.885570" lon="-0.016570">
        <ele>645.957</ele>
        <time>2020-07-13T23:00:31Z</time>
      </trkpt>
      <trkpt lat="42.888360" lon="-0.019120">
        <ele>645.635</ele>
        <time>2020-07-13T23:00:51Z</time>
      </trkpt>
      <trkpt lat="42.891180" lon="-0.023550">
        <ele>630.267</ele>
        <time>2020-07-13T23:01:51Z</time>
      </trkpt>
      <trkpt lat="42.903380" lon="-0.031500">
        <ele>616.881</ele>
        <time>2020-07-13T23:02:51Z</time>
      </trkpt>
      <trkpt lat="42.904090" lon="-0.031420">
        <ele>613.619</ele>
        <time>2020-07-13T23:03:31Z</time>
      </trkpt>
      <trkpt lat="42.905970" lon="-0.034650">
        <ele>602.908</ele>
        <time>2020-07-13T23:04:11Z</time>
      </trkpt>
      <trkpt lat="42.906450" lon="-0.034560">
        <ele>606.771</ele>
        <time>2020-07-13T23:04:31Z</time>
      </trkpt>
      <trkpt lat="42.909540" lon="-0.036610">
        <ele>617.448</ele>
        <time>2020-07-13T23:05:31Z</time>
      </trkpt>
      <trkpt lat="42.912380" lon="-0.037420">
        <ele>614.943</ele>
        <time>2020-07-13T23:06:11Z</time>
      </trkpt>
      <trkpt lat="42.914120" lon="-0.037000">
        <ele>620.666</ele>
        <time>2020-07-13T23:06:31Z</time>
      </trkpt>
      <trkpt lat="42.916390" lon="-0.038210">
        <ele>627.231</ele>
        <time>2020-07-13T23:06:51Z</time>
      </trkpt>
      <trkpt lat="42.917440" lon="-0.039780">
        <ele>613.593</ele>
        <time>2020-07-13T23:07:11Z</time>
      </trkpt>
      <trkpt lat="42.918650" lon="-0.040400">
        <ele>610.097</ele>
        <time>2020-07-13T23:07:51Z</time>
      </trkpt>
      <trkpt lat="42.920010" lon="-0.040240">
        <ele>631.515</ele>
        <time>2020-07-13T23:08:31Z</time>
      </trkpt>
      <trkpt lat="42.920720" lon="-0.040890">
        <ele>632.346</ele>
        <time>2020-07-13T23:08:51Z</time>
      </trkpt>
      <trkpt lat="42.923930" lon="-0.040830">
        <ele>617.988</ele>
        <time>2020-07-13T23:10:11Z</time>
      </trkpt>
      <trkpt lat="42.925480" lon="-0.042140">
        <ele>596.916</ele>
        <time>2020-07-13T23:10:31Z</time>
      </trkpt>
      <trkpt lat="42.926370" lon="-0.041600">
        <ele>593.508</ele>
        <time>2020-07-13T23:11:11Z</time>
      </trkpt>
      <trkpt lat="42.927950" lon="-0.041970">
        <ele>586.779</ele>
        <time>2020-07-13T23:11:31Z</time>
      </trkpt>
      <trkpt lat="42.929660" lon="-0.043660">
        <ele>589.916</ele>
        <time>2020-07-13T23:12:11Z</time>
      </trkpt>
      <trkpt lat="42.930900" lon="-0.046020">
        <ele>544.211</ele>
        <time>2020-07-13T23:12:51Z</time>
      </trkpt>
      <trkpt lat="42.932000" lon="-0.046100">
        <ele>541.584</ele>
        <time>2020-07-13T23:13:31Z</time>
      </trkpt>
      <trkpt lat="42.934190" lon="-0.047490">
        <ele>547.749</ele>
        <time>2020-07-13T23:14:11Z</time>
      </trkpt>
      <trkpt lat="42.934860" lon="-0.048660">
        <ele>515.861</ele>
        <time>2020-07-13T23:14:31Z</time>
      </trkpt>
      <trkpt lat="42.936620" lon="-0.048520">
        <ele>512.765</ele>
        <time>2020-07-13T23:15:11Z</time>
      </trkpt>
      <trkpt lat="42.937290" lon="-0.049450">
        <ele>511.263</ele>
        <time>2020-07-13T23:15:31Z</time>
      </trkpt>
      <trkpt lat="42.938900" lon="-0.050370">
        <ele>513.189</ele>
        <time>2020-07-13T23:15:51Z</time>
      </trkpt>
      <trkpt lat="42.939990" lon="-0.053190">
        <ele>502.606</ele>
        <time>2020-07-13T23:16:51Z</time>
      </trkpt>
      <trkpt lat="42.940440" lon="-0.053290">
        <ele>500.726</ele>
        <time>2020-07-13T23:17:11Z</time>
      </trkpt>
      <trkpt lat="42.941900" lon="-0.052090">
        <ele>503.508</ele>
        <time>2020-07-13T23:17:51Z</time>
      </trkpt>
      <trkpt lat="42.943940" lon="-0.053680">
        <ele>500.433</ele>
        <time>2020-07-13T23:18:31Z</time>
      </trkpt>
      <trkpt lat="42.946840" lon="-0.057110">
        <ele>498.670</ele>
        <time>2020-07-13T23:18:51Z</time>
      </trkpt>
      <trkpt lat="42.947570" lon="-0.059650">
        <ele>493.085</ele>
        <time>2020-07-13T23:19:11Z</time>
      </trkpt>
      <trkpt lat="42.949590" lon="-0.063320">
        <ele>488.118</ele>
        <time>2020-07-13T23:19:31Z</time>
      </trkpt>
      <trkpt lat="42.950560" lon="-0.067160">
        <ele>480.073</ele>
        <time>2020-07-13T23:19:51Z</time>
      </trkpt>
      <trkpt lat="42.951020" lon="-0.067440">
        <ele>480.085</ele>
        <time>2020-07-13T23:20:31Z</time>
      </trkpt>
      <trkpt lat="42.951000" lon="-0.068110">
        <ele>480.039</ele>
        <time>2020-07-13T23:20:51Z</time>
      </trkpt>
      <trkpt lat="42.951660" lon="-0.069650">
        <ele>480.137</ele>
        <time>2020-07-13T23:21:11Z</time>
      </trkpt>
      <trkpt lat="42.954900" lon="-0.071470">
        <ele>480.589</ele>
        <time>2020-07-13T23:21:51Z</time>
      </trkpt>
      <trkpt lat="42.956940" lon="-0.075030">
        <ele>492.306</ele>
        <time>2020-07-13T23:22:31Z</time>
      </trkpt>
      <trkpt lat="42.958700" lon="-0.074550">
        <ele>480.826</ele>
        <time>2020-07-13T23:23:11Z</time>
      </trkpt>
      <trkpt lat="42.963370" lon="-0.074510">
        <ele>469.008</ele>
        <time>2020-07-13T23:23:51Z</time>
      </trkpt>
      <trkpt lat="42.965700" lon="-0.073830">
        <ele>464.343</ele>
        <time>2020-07-13T23:24:11Z</time>
      </trkpt>
      <trkpt lat="42.966160" lon="-0.073250">
        <ele>460.470</ele>
        <time>2020-07-13T23:24:31Z</time>
      </trkpt>
      <trkpt lat="42.973550" lon="-0.075950">
        <ele>440.915</ele>
        <time>2020-07-13T23:25:31Z</time>
      </trkpt>
      <trkpt lat="42.974380" lon="-0.076800">
        <ele>440.078</ele>
        <time>2020-07-13T23:25:51Z</time>
      </trkpt>
      <trkpt lat="42.976000" lon="-0.079850">
        <ele>438.053</ele>
        <time>2020-07-13T23:26:31Z</time>
      </trkpt>
      <trkpt lat="42.983970" lon="-0.087180">
        <ele>437.755</ele>
        <time>2020-07-13T23:27:11Z</time>
      </trkpt>
      <trkpt lat="42.986550" lon="-0.088500">
        <ele>430.029</ele>
        <time>2020-07-13T23:27:31Z</time>
      </trkpt>
      <trkpt lat="42.996590" lon="-0.092110">
        <ele>437.687</ele>
        <time>2020-07-13T23:29:31Z</time>
      </trkpt>
      <trkpt lat="43.001610" lon="-0.099180">
        <ele>448.218</ele>
        <time>2020-07-13T23:30:11Z</time>
      </trkpt>
      <trkpt lat="43.002730" lon="-0.101730">
        <ele>451.698</ele>
        <time>2020-07-13T23:30:51Z</time>
      </trkpt>
      <trkpt lat="43.004940" lon="-0.100810">
        <ele>454.417</ele>
        <time>2020-07-13T23:31:31Z</time>
      </trkpt>
      <trkpt lat="43.005100" lon="-0.101560">
        <ele>460.208</ele>
        <time>2020-07-13T23:31:51Z</time>
      </trkpt>
      <trkpt lat="43.005890" lon="-0.101780">
        <ele>465.436</ele>
        <time>2020-07-13T23:32:11Z</time>
      </trkpt>
      <trkpt lat="43.004970" lon="-0.103070">
        <ele>477.783</ele>
        <time>2020-07-13T23:32:31Z</time>
      </trkpt>
      <trkpt lat="43.004800" lon="-0.104100">
        <ele>486.688</ele>
        <time>2020-07-13T23:32:51Z</time>
      </trkpt>
      <trkpt lat="43.003650" lon="-0.105720">
        <ele>500.691</ele>
        <time>2020-07-13T23:33:31Z</time>
      </trkpt>
      <trkpt lat="43.000930" lon="-0.108290">
        <ele>532.256</ele>
        <time>2020-07-13T23:33:51Z</time>
      </trkpt>
      <trkpt lat="42.999260" lon="-0.109000">
        <ele>544.428</ele>
        <time>2020-07-13T23:34:51Z</time>
      </trkpt>
      <trkpt lat="42.999070" lon="-0.111310">
        <ele>567.282</ele>
        <time>2020-07-13T23:35:11Z</time>
      </trkpt>
      <trkpt lat="42.999290" lon="-0.111930">
        <ele>579.410</ele>
        <time>2020-07-13T23:35:31Z</time>
      </trkpt>
      <trkpt lat="42.998640" lon="-0.113320">
        <ele>581.914</ele>
        <time>2020-07-13T23:35:51Z</time>
      </trkpt>
      <trkpt lat="42.998340" lon="-0.116000">
        <ele>597.654</ele>
        <time>2020-07-13T23:36:31Z</time>
      </trkpt>
      <trkpt lat="42.997660" lon="-0.117090">
        <ele>606.809</ele>
        <time>2020-07-13T23:36:51Z</time>
      </trkpt>
      <trkpt lat="42.995500" lon="-0.117790">
        <ele>619.808</ele>
        <time>2020-07-13T23:37:11Z</time>
      </trkpt>
      <trkpt lat="42.994880" lon="-0.120020">
        <ele>637.296</ele>
        <time>2020-07-13T23:37:51Z</time>
      </trkpt>
      <trkpt lat="42.995110" lon="-0.121460">
        <ele>652.663</ele>
        <time>2020-07-13T23:38:11Z</time>
      </trkpt>
      <trkpt lat="42.994220" lon="-0.123960">
        <ele>668.018</ele>
        <time>2020-07-13T23:38:51Z</time>
      </trkpt>
      <trkpt lat="42.992910" lon="-0.125430">
        <ele>687.191</ele>
        <time>2020-07-13T23:39:31Z</time>
      </trkpt>
      <trkpt lat="42.991690" lon="-0.129530">
        <ele>706.456</ele>
        <time>2020-07-13T23:40:31Z</time>
      </trkpt>
      <trkpt lat="42.990220" lon="-0.131370">
        <ele>719.228</ele>
        <time>2020-07-13T23:41:11Z</time>
      </trkpt>
      <trkpt lat="42.989180" lon="-0.133370">
        <ele>724.472</ele>
        <time>2020-07-13T23:41:51Z</time>
      </trkpt>
      <trkpt lat="42.985370" lon="-0.143490">
        <ele>753.370</ele>
        <time>2020-07-13T23:43:11Z</time>
      </trkpt>
      <trkpt lat="42.983730" lon="-0.146100">
        <ele>760.865</ele>
        <time>2020-07-13T23:43:31Z</time>
      </trkpt>
      <trkpt lat="42.983410" lon="-0.148390">
        <ele>761.868</ele>
        <time>2020-07-13T23:43:51Z</time>
      </trkpt>
      <trkpt lat="42.982460" lon="-0.151550">
        <ele>765.514</ele>
        <time>2020-07-13T23:44:31Z</time>
      </trkpt>
      <trkpt lat="42.980900" lon="-0.154570">
        <ele>777.708</ele>
        <time>2020-07-13T23:44:51Z</time>
      </trkpt>
      <trkpt lat="42.979770" lon="-0.159690">
        <ele>805.151</ele>
        <time>2020-07-13T23:45:11Z</time>
      </trkpt>
      <trkpt lat="42.979580" lon="-0.162320">
        <ele>817.898</ele>
        <time>2020-07-13T23:45:31Z</time>
      </trkpt>
      <trkpt lat="42.979780" lon="-0.167940">
        <ele>838.093</ele>
        <time>2020-07-13T23:46:31Z</time>
      </trkpt>
      <trkpt lat="42.978270" lon="-0.172990">
        <ele>833.756</ele>
        <time>2020-07-13T23:47:31Z</time>
      </trkpt>
      <trkpt lat="42.978260" lon="-0.176470">
        <ele>826.051</ele>
        <time>2020-07-13T23:47:51Z</time>
      </trkpt>
      <trkpt lat="42.977430" lon="-0.180590">
        <ele>838.413</ele>
        <time>2020-07-13T23:48:31Z</time>
      </trkpt>
      <trkpt lat="42.974540" lon="-0.187650">
        <ele>846.547</ele>
        <time>2020-07-13T23:50:11Z</time>
      </trkpt>
      <trkpt lat="42.974810" lon="-0.189440">
        <ele>853.655</ele>
        <time>2020-07-13T23:50:31Z</time>
      </trkpt>
      <trkpt lat="42.974020" lon="-0.192070">
        <ele>862.945</ele>
        <time>2020-07-13T23:51:11Z</time>
      </trkpt>
      <trkpt lat="42.973380" lon="-0.192860">
        <ele>862.547</ele>
        <time>2020-07-13T23:51:31Z</time>
      </trkpt>
      <trkpt lat="42.972540" lon="-0.194980">
        <ele>860.411</ele>
        <time>2020-07-13T23:51:51Z</time>
      </trkpt>
      <trkpt lat="42.970140" lon="-0.198430">
        <ele>854.008</ele>
        <time>2020-07-13T23:52:11Z</time>
      </trkpt>
      <trkpt lat="42.969430" lon="-0.200260">
        <ele>854.959</ele>
        <time>2020-07-13T23:52:31Z</time>
      </trkpt>
      <trkpt lat="42.968260" lon="-0.201810">
        <ele>858.466</ele>
        <time>2020-07-13T23:52:51Z</time>
      </trkpt>
      <trkpt lat="42.966600" lon="-0.202520">
        <ele>859.161</ele>
        <time>2020-07-13T23:53:31Z</time>
      </trkpt>
      <trkpt lat="42.965200" lon="-0.201690">
        <ele>858.174</ele>
        <time>2020-07-13T23:54:11Z</time>
      </trkpt>
      <trkpt lat="42.963650" lon="-0.201590">
        <ele>857.069</ele>
        <time>2020-07-13T23:55:11Z</time>
      </trkpt>
      <trkpt lat="42.961300" lon="-0.202920">
        <ele>861.241</ele>
        <time>2020-07-13T23:55:51Z</time>
      </trkpt>
      <trkpt lat="42.959970" lon="-0.206230">
        <ele>864.975</ele>
        <time>2020-07-13T23:56:11Z</time>
      </trkpt>
      <trkpt lat="42.957100" lon="-0.211060">
        <ele>870.433</ele>
        <time>2020-07-13T23:56:31Z</time>
      </trkpt>
      <trkpt lat="42.956150" lon="-0.214250">
        <ele>876.478</ele>
        <time>2020-07-13T23:57:51Z</time>
      </trkpt>
      <trkpt lat="42.956470" lon="-0.215140">
        <ele>879.733</ele>
        <time>2020-07-13T23:58:11Z</time>
      </trkpt>
      <trkpt lat="42.957390" lon="-0.215620">
        <ele>887.826</ele>
        <time>2020-07-13T23:58:51Z</time>
      </trkpt>
      <trkpt lat="42.958130" lon="-0.215030">
        <ele>896.008</ele>
        <time>2020-07-13T23:59:11Z</time>
      </trkpt>
      <trkpt lat="42.958610" lon="-0.213590">
        <ele>902.822</ele>
        <time>2020-07-13T23:59:51Z</time>
      </trkpt>
      <trkpt lat="42.960550" lon="-0.211250">
        <ele>924.959</ele>
        <time>2020-07-14T00:00:51Z</time>
      </trkpt>
      <trkpt lat="42.960540" lon="-0.213830">
        <ele>941.654</ele>
        <time>2020-07-14T00:01:31Z</time>
      </trkpt>
      <trkpt lat="42.960970" lon="-0.214600">
        <ele>950.917</ele>
        <time>2020-07-14T00:01:51Z</time>
      </trkpt>
      <trkpt lat="42.960650" lon="-0.219040">
        <ele>979.052</ele>
        <time>2020-07-14T00:02:51Z</time>
      </trkpt>
      <trkpt lat="42.961050" lon="-0.220520">
        <ele>986.194</ele>
        <time>2020-07-14T00:03:31Z</time>
      </trkpt>
      <trkpt lat="42.961290" lon="-0.219320">
        <ele>996.828</ele>
        <time>2020-07-14T00:04:31Z</time>
      </trkpt>
      <trkpt lat="42.962300" lon="-0.219260">
        <ele>1010.846</ele>
        <time>2020-07-14T00:05:31Z</time>
      </trkpt>
      <trkpt lat="42.962420" lon="-0.217980">
        <ele>1016.452</ele>
        <time>2020-07-14T00:06:11Z</time>
      </trkpt>
      <trkpt lat="42.962790" lon="-0.217960">
        <ele>1018.353</ele>
        <time>2020-07-14T00:06:31Z</time>
      </trkpt>
      <trkpt lat="42.962960" lon="-0.218690">
        <ele>1024.308</ele>
        <time>2020-07-14T00:06:51Z</time>
      </trkpt>
      <trkpt lat="42.963290" lon="-0.218760">
        <ele>1029.608</ele>
        <time>2020-07-14T00:07:11Z</time>
      </trkpt>
      <trkpt lat="42.966440" lon="-0.215280">
        <ele>1063.190</ele>
        <time>2020-07-14T00:08:31Z</time>
      </trkpt>
      <trkpt lat="42.965520" lon="-0.220650">
        <ele>1106.887</ele>
        <time>2020-07-14T00:09:51Z</time>
      </trkpt>
      <trkpt lat="42.965620" lon="-0.221980">
        <ele>1116.432</ele>
        <time>2020-07-14T00:10:11Z</time>
      </trkpt>
      <trkpt lat="42.965080" lon="-0.223690">
        <ele>1127.885</ele>
        <time>2020-07-14T00:10:31Z</time>
      </trkpt>
      <trkpt lat="42.965290" lon="-0.223990">
        <ele>1130.250</ele>
        <time>2020-07-14T00:10:51Z</time>
      </trkpt>
      <trkpt lat="42.966640" lon="-0.223940">
        <ele>1140.012</ele>
        <time>2020-07-14T00:11:31Z</time>
      </trkpt>
      <trkpt lat="42.967300" lon="-0.225100">
        <ele>1144.726</ele>
        <time>2020-07-14T00:12:11Z</time>
      </trkpt>
      <trkpt lat="42.967120" lon="-0.227480">
        <ele>1160.534</ele>
        <time>2020-07-14T00:12:51Z</time>
      </trkpt>
      <trkpt lat="42.966600" lon="-0.227950">
        <ele>1165.984</ele>
        <time>2020-07-14T00:13:11Z</time>
      </trkpt>
      <trkpt lat="42.965510" lon="-0.227720">
        <ele>1177.807</ele>
        <time>2020-07-14T00:13:51Z</time>
      </trkpt>
      <trkpt lat="42.964170" lon="-0.230740">
        <ele>1205.717</ele>
        <time>2020-07-14T00:14:51Z</time>
      </trkpt>
      <trkpt lat="42.962850" lon="-0.231530">
        <ele>1219.908</ele>
        <time>2020-07-14T00:15:51Z</time>
      </trkpt>
      <trkpt lat="42.962370" lon="-0.233590">
        <ele>1232.583</ele>
        <time>2020-07-14T00:16:31Z</time>
      </trkpt>
      <trkpt lat="42.964020" lon="-0.238370">
        <ele>1279.160</ele>
        <time>2020-07-14T00:16:51Z</time>
      </trkpt>
      <trkpt lat="42.964170" lon="-0.240160">
        <ele>1285.715</ele>
        <time>2020-07-14T00:17:31Z</time>
      </trkpt>
      <trkpt lat="42.963700" lon="-0.240990">
        <ele>1294.458</ele>
        <time>2020-07-14T00:17:51Z</time>
      </trkpt>
      <trkpt lat="42.962740" lon="-0.241530">
        <ele>1301.583</ele>
        <time>2020-07-14T00:18:31Z</time>
      </trkpt>
      <trkpt lat="42.962840" lon="-0.242200">
        <ele>1309.165</ele>
        <time>2020-07-14T00:18:51Z</time>
      </trkpt>
      <trkpt lat="42.963480" lon="-0.242830">
        <ele>1320.139</ele>
        <time>2020-07-14T00:19:31Z</time>
      </trkpt>
      <trkpt lat="42.962510" lon="-0.244740">
        <ele>1344.817</ele>
        <time>2020-07-14T00:19:51Z</time>
      </trkpt>
      <trkpt lat="42.961260" lon="-0.246040">
        <ele>1349.475</ele>
        <time>2020-07-14T00:20:11Z</time>
      </trkpt>
      <trkpt lat="42.960080" lon="-0.249320">
        <ele>1376.228</ele>
        <time>2020-07-14T00:20:51Z</time>
      </trkpt>
      <trkpt lat="42.960260" lon="-0.250260">
        <ele>1375.920</ele>
        <time>2020-07-14T00:21:31Z</time>
      </trkpt>
      <trkpt lat="42.961130" lon="-0.250600">
        <ele>1389.808</ele>
        <time>2020-07-14T00:22:11Z</time>
      </trkpt>
      <trkpt lat="42.960940" lon="-0.251730">
        <ele>1396.762</ele>
        <time>2020-07-14T00:22:31Z</time>
      </trkpt>
      <trkpt lat="42.961250" lon="-0.252350">
        <ele>1406.689</ele>
        <time>2020-07-14T00:22:51Z</time>
      </trkpt>
      <trkpt lat="42.961150" lon="-0.253830">
        <ele>1415.724</ele>
        <time>2020-07-14T00:23:11Z</time>
      </trkpt>
      <trkpt lat="42.960450" lon="-0.254530">
        <ele>1422.457</ele>
        <time>2020-07-14T00:23:31Z</time>
      </trkpt>
      <trkpt lat="42.960300" lon="-0.255660">
        <ele>1424.762</ele>
        <time>2020-07-14T00:24:11Z</time>
      </trkpt>
      <trkpt lat="42.960810" lon="-0.256430">
        <ele>1440.114</ele>
        <time>2020-07-14T00:24:31Z</time>
      </trkpt>
      <trkpt lat="42.960330" lon="-0.259340">
        <ele>1458.428</ele>
        <time>2020-07-14T00:25:11Z</time>
      </trkpt>
      <trkpt lat="42.960610" lon="-0.260200">
        <ele>1468.526</ele>
        <time>2020-07-14T00:25:31Z</time>
      </trkpt>
      <trkpt lat="42.960390" lon="-0.263800">
        <ele>1459.519</ele>
        <time>2020-07-14T00:26:11Z</time>
      </trkpt>
      <trkpt lat="42.959910" lon="-0.264980">
        <ele>1450.609</ele>
        <time>2020-07-14T00:26:31Z</time>
      </trkpt>
      <trkpt lat="42.959320" lon="-0.268510">
        <ele>1442.719</ele>
        <time>2020-07-14T00:26:51Z</time>
      </trkpt>
      <trkpt lat="42.958290" lon="-0.270600">
        <ele>1439.708</ele>
        <time>2020-07-14T00:27:31Z</time>
      </trkpt>
      <trkpt lat="42.958050" lon="-0.272870">
        <ele>1433.066</ele>
        <time>2020-07-14T00:28:11Z</time>
      </trkpt>
      <trkpt lat="42.958450" lon="-0.274350">
        <ele>1435.133</ele>
        <time>2020-07-14T00:28:31Z</time>
      </trkpt>
      <trkpt lat="42.957720" lon="-0.276610">
        <ele>1418.118</ele>
        <time>2020-07-14T00:29:11Z</time>
      </trkpt>
      <trkpt lat="42.956460" lon="-0.276200">
        <ele>1412.471</ele>
        <time>2020-07-14T00:29:51Z</time>
      </trkpt>
      <trkpt lat="42.955340" lon="-0.277270">
        <ele>1393.976</ele>
        <time>2020-07-14T00:30:11Z</time>
      </trkpt>
      <trkpt lat="42.955350" lon="-0.279210">
        <ele>1380.078</ele>
        <time>2020-07-14T00:30:31Z</time>
      </trkpt>
      <trkpt lat="42.954880" lon="-0.281120">
        <ele>1367.292</ele>
        <time>2020-07-14T00:31:11Z</time>
      </trkpt>
      <trkpt lat="42.955060" lon="-0.284090">
        <ele>1351.520</ele>
        <time>2020-07-14T00:32:11Z</time>
      </trkpt>
      <trkpt lat="42.953920" lon="-0.286830">
        <ele>1354.046</ele>
        <time>2020-07-14T00:32:31Z</time>
      </trkpt>
      <trkpt lat="42.955060" lon="-0.289710">
        <ele>1349.388</ele>
        <time>2020-07-14T00:33:31Z</time>
      </trkpt>
      <trkpt lat="42.956230" lon="-0.290720">
        <ele>1400.016</ele>
        <time>2020-07-14T00:34:11Z</time>
      </trkpt>
      <trkpt lat="42.957420" lon="-0.290580">
        <ele>1332.208</ele>
        <time>2020-07-14T00:34:31Z</time>
      </trkpt>
      <trkpt lat="42.958030" lon="-0.291100">
        <ele>1325.589</ele>
        <time>2020-07-14T00:35:11Z</time>
      </trkpt>
      <trkpt lat="42.958330" lon="-0.292990">
        <ele>1355.266</ele>
        <time>2020-07-14T00:36:11Z</time>
      </trkpt>
      <trkpt lat="42.959370" lon="-0.294500">
        <ele>1352.831</ele>
        <time>2020-07-14T00:36:31Z</time>
      </trkpt>
      <trkpt lat="42.959560" lon="-0.295350">
        <ele>1381.394</ele>
        <time>2020-07-14T00:36:51Z</time>
      </trkpt>
      <trkpt lat="42.960370" lon="-0.296020">
        <ele>1353.829</ele>
        <time>2020-07-14T00:37:11Z</time>
      </trkpt>
      <trkpt lat="42.960990" lon="-0.297370">
        <ele>1362.671</ele>
        <time>2020-07-14T00:37:31Z</time>
      </trkpt>
      <trkpt lat="42.961740" lon="-0.297940">
        <ele>1354.355</ele>
        <time>2020-07-14T00:37:51Z</time>
      </trkpt>
      <trkpt lat="42.962590" lon="-0.299430">
        <ele>1364.653</ele>
        <time>2020-07-14T00:38:11Z</time>
      </trkpt>
      <trkpt lat="42.963760" lon="-0.303290">
        <ele>1388.348</ele>
        <time>2020-07-14T00:38:31Z</time>
      </trkpt>
      <trkpt lat="42.965900" lon="-0.301840">
        <ele>1399.961</ele>
        <time>2020-07-14T00:39:31Z</time>
      </trkpt>
      <trkpt lat="42.966480" lon="-0.302670">
        <ele>1403.117</ele>
        <time>2020-07-14T00:40:11Z</time>
      </trkpt>
      <trkpt lat="42.968360" lon="-0.302080">
        <ele>1407.908</ele>
        <time>2020-07-14T00:41:11Z</time>
      </trkpt>
      <trkpt lat="42.969960" lon="-0.300630">
        <ele>1417.239</ele>
        <time>2020-07-14T00:41:51Z</time>
      </trkpt>
      <trkpt lat="42.972670" lon="-0.304410">
        <ele>1440.516</ele>
        <time>2020-07-14T00:42:51Z</time>
      </trkpt>
      <trkpt lat="42.973870" lon="-0.304720">
        <ele>1438.291</ele>
        <time>2020-07-14T00:43:11Z</time>
      </trkpt>
      <trkpt lat="42.974770" lon="-0.305680">
        <ele>1444.574</ele>
        <time>2020-07-14T00:43:31Z</time>
      </trkpt>
      <trkpt lat="42.974500" lon="-0.308000">
        <ele>1452.649</ele>
        <time>2020-07-14T00:44:11Z</time>
      </trkpt>
      <trkpt lat="42.976190" lon="-0.310550">
        <ele>1465.261</ele>
        <time>2020-07-14T00:44:51Z</time>
      </trkpt>
      <trkpt lat="42.975620" lon="-0.312930">
        <ele>1481.695</ele>
        <time>2020-07-14T00:45:11Z</time>
      </trkpt>
      <trkpt lat="42.975700" lon="-0.316810">
        <ele>1496.273</ele>
        <time>2020-07-14T00:46:11Z</time>
      </trkpt>
      <trkpt lat="42.975330" lon="-0.317670">
        <ele>1505.954</ele>
        <time>2020-07-14T00:46:31Z</time>
      </trkpt>
      <trkpt lat="42.974480" lon="-0.318270">
        <ele>1508.156</ele>
        <time>2020-07-14T00:46:51Z</time>
      </trkpt>
      <trkpt lat="42.972570" lon="-0.318160">
        <ele>1535.611</ele>
        <time>2020-07-14T00:47:51Z</time>
      </trkpt>
      <trkpt lat="42.972250" lon="-0.321080">
        <ele>1547.008</ele>
        <time>2020-07-14T00:48:11Z</time>
      </trkpt>
      <trkpt lat="42.971430" lon="-0.322350">
        <ele>1569.160</ele>
        <time>2020-07-14T00:48:51Z</time>
      </trkpt>
      <trkpt lat="42.971390" lon="-0.323490">
        <ele>1573.587</ele>
        <time>2020-07-14T00:49:11Z</time>
      </trkpt>
      <trkpt lat="42.970880" lon="-0.323980">
        <ele>1583.072</ele>
        <time>2020-07-14T00:49:31Z</time>
      </trkpt>
      <trkpt lat="42.971340" lon="-0.324510">
        <ele>1585.955</ele>
        <time>2020-07-14T00:50:11Z</time>
      </trkpt>
      <trkpt lat="42.972300" lon="-0.324610">
        <ele>1592.680</ele>
        <time>2020-07-14T00:50:31Z</time>
      </trkpt>
      <trkpt lat="42.972480" lon="-0.325260">
        <ele>1600.552</ele>
        <time>2020-07-14T00:50:51Z</time>
      </trkpt>
      <trkpt lat="42.971150" lon="-0.327500">
        <ele>1609.996</ele>
        <time>2020-07-14T00:52:11Z</time>
      </trkpt>
      <trkpt lat="42.971560" lon="-0.328220">
        <ele>1610.724</ele>
        <time>2020-07-14T00:52:31Z</time>
      </trkpt>
      <trkpt lat="42.971700" lon="-0.330000">
        <ele>1624.676</ele>
        <time>2020-07-14T00:53:11Z</time>
      </trkpt>
      <trkpt lat="42.972230" lon="-0.331030">
        <ele>1628.190</ele>
        <time>2020-07-14T00:53:31Z</time>
      </trkpt>
      <trkpt lat="42.972180" lon="-0.331940">
        <ele>1640.519</ele>
        <time>2020-07-14T00:53:51Z</time>
      </trkpt>
      <trkpt lat="42.973230" lon="-0.332000">
        <ele>1646.308</ele>
        <time>2020-07-14T00:54:11Z</time>
      </trkpt>
      <trkpt lat="42.973880" lon="-0.332610">
        <ele>1650.682</ele>
        <time>2020-07-14T00:54:31Z</time>
      </trkpt>
      <trkpt lat="42.974920" lon="-0.334830">
        <ele>1669.099</ele>
        <time>2020-07-14T00:55:11Z</time>
      </trkpt>
      <trkpt lat="42.975200" lon="-0.337120">
        <ele>1687.944</ele>
        <time>2020-07-14T00:55:31Z</time>
      </trkpt>
      <trkpt lat="42.976210" lon="-0.338170">
        <ele>1698.397</ele>
        <time>2020-07-14T00:55:51Z</time>
      </trkpt>
      <trkpt lat="42.976630" lon="-0.339520">
        <ele>1704.932</ele>
        <time>2020-07-14T00:56:11Z</time>
      </trkpt>
      <trkpt lat="42.976290" lon="-0.340290">
        <ele>1706.254</ele>
        <time>2020-07-14T00:56:31Z</time>
      </trkpt>
      <trkpt lat="42.977110" lon="-0.343010">
        <ele>1685.198</ele>
        <time>2020-07-14T00:57:51Z</time>
      </trkpt>
      <trkpt lat="42.977540" lon="-0.343230">
        <ele>1681.496</ele>
        <time>2020-07-14T00:58:31Z</time>
      </trkpt>
      <trkpt lat="42.978940" lon="-0.342800">
        <ele>1672.395</ele>
        <time>2020-07-14T00:59:31Z</time>
      </trkpt>
      <trkpt lat="42.978220" lon="-0.343050">
        <ele>1667.649</ele>
        <time>2020-07-14T01:00:11Z</time>
      </trkpt>
      <trkpt lat="42.977080" lon="-0.345270">
        <ele>1643.223</ele>
        <time>2020-07-14T01:00:51Z</time>
      </trkpt>
      <trkpt lat="42.976150" lon="-0.344810">
        <ele>1637.108</ele>
        <time>2020-07-14T01:01:31Z</time>
      </trkpt>
      <trkpt lat="42.975500" lon="-0.345290">
        <ele>1626.334</ele>
        <time>2020-07-14T01:02:11Z</time>
      </trkpt>
      <trkpt lat="42.974490" lon="-0.344400">
        <ele>1616.171</ele>
        <time>2020-07-14T01:02:51Z</time>
      </trkpt>
      <trkpt lat="42.973650" lon="-0.345480">
        <ele>1608.116</ele>
        <time>2020-07-14T01:03:51Z</time>
      </trkpt>
      <trkpt lat="42.973580" lon="-0.346440">
        <ele>1597.089</ele>
        <time>2020-07-14T01:04:11Z</time>
      </trkpt>
      <trkpt lat="42.972790" lon="-0.346430">
        <ele>1587.044</ele>
        <time>2020-07-14T01:04:31Z</time>
      </trkpt>
      <trkpt lat="42.972450" lon="-0.345780">
        <ele>1582.346</ele>
        <time>2020-07-14T01:04:51Z</time>
      </trkpt>
      <trkpt lat="42.972000" lon="-0.345800">
        <ele>1581.360</ele>
        <time>2020-07-14T01:05:11Z</time>
      </trkpt>
      <trkpt lat="42.971670" lon="-0.346810">
        <ele>1566.948</ele>
        <time>2020-07-14T01:06:11Z</time>
      </trkpt>
      <trkpt lat="42.971460" lon="-0.345770">
        <ele>1570.258</ele>
        <time>2020-07-14T01:06:31Z</time>
      </trkpt>
      <trkpt lat="42.969860" lon="-0.343630">
        <ele>1542.652</ele>
        <time>2020-07-14T01:07:31Z</time>
      </trkpt>
      <trkpt lat="42.969900" lon="-0.342740">
        <ele>1539.717</ele>
        <time>2020-07-14T01:07:51Z</time>
      </trkpt>
      <trkpt lat="42.969270" lon="-0.341310">
        <ele>1520.108</ele>
        <time>2020-07-14T01:08:11Z</time>
      </trkpt>
      <trkpt lat="42.969470" lon="-0.340620">
        <ele>1522.710</ele>
        <time>2020-07-14T01:08:31Z</time>
      </trkpt>
      <trkpt lat="42.968880" lon="-0.338240">
        <ele>1499.547</ele>
        <time>2020-07-14T01:09:11Z</time>
      </trkpt>
      <trkpt lat="42.968900" lon="-0.336730">
        <ele>1490.792</ele>
        <time>2020-07-14T01:09:31Z</time>
      </trkpt>
      <trkpt lat="42.966510" lon="-0.335310">
        <ele>1460.955</ele>
        <time>2020-07-14T01:10:31Z</time>
      </trkpt>
      <trkpt lat="42.966190" lon="-0.334400">
        <ele>1460.080</ele>
        <time>2020-07-14T01:10:51Z</time>
      </trkpt>
      <trkpt lat="42.965460" lon="-0.334400">
        <ele>1445.842</ele>
        <time>2020-07-14T01:11:11Z</time>
      </trkpt>
      <trkpt lat="42.964930" lon="-0.332280">
        <ele>1433.336</ele>
        <time>2020-07-14T01:11:51Z</time>
      </trkpt>
      <trkpt lat="42.962730" lon="-0.330340">
        <ele>1402.184</ele>
        <time>2020-07-14T01:13:11Z</time>
      </trkpt>
      <trkpt lat="42.960450" lon="-0.331250">
        <ele>1380.632</ele>
        <time>2020-07-14T01:14:11Z</time>
      </trkpt>
      <trkpt lat="42.959580" lon="-0.332580">
        <ele>1362.292</ele>
        <time>2020-07-14T01:14:31Z</time>
      </trkpt>
      <trkpt lat="42.958740" lon="-0.332670">
        <ele>1356.511</ele>
        <time>2020-07-14T01:14:51Z</time>
      </trkpt>
      <trkpt lat="42.958280" lon="-0.332290">
        <ele>1359.008</ele>
        <time>2020-07-14T01:15:11Z</time>
      </trkpt>
      <trkpt lat="42.958090" lon="-0.332530">
        <ele>1352.248</ele>
        <time>2020-07-14T01:15:31Z</time>
      </trkpt>
      <trkpt lat="42.958340" lon="-0.332910">
        <ele>1349.125</ele>
        <time>2020-07-14T01:15:51Z</time>
      </trkpt>
      <trkpt lat="42.961080" lon="-0.333050">
        <ele>1320.390</ele>
        <time>2020-07-14T01:17:11Z</time>
      </trkpt>
      <trkpt lat="42.961710" lon="-0.332640">
        <ele>1314.583</ele>
        <time>2020-07-14T01:17:31Z</time>
      </trkpt>
      <trkpt lat="42.963150" lon="-0.333400">
        <ele>1306.298</ele>
        <time>2020-07-14T01:18:11Z</time>
      </trkpt>
      <trkpt lat="42.964230" lon="-0.335540">
        <ele>1301.750</ele>
        <time>2020-07-14T01:18:51Z</time>
      </trkpt>
      <trkpt lat="42.965080" lon="-0.343240">
        <ele>1233.164</ele>
        <time>2020-07-14T01:19:31Z</time>
      </trkpt>
      <trkpt lat="42.964870" lon="-0.343460">
        <ele>1228.072</ele>
        <time>2020-07-14T01:19:51Z</time>
      </trkpt>
      <trkpt lat="42.964190" lon="-0.341290">
        <ele>1218.531</ele>
        <time>2020-07-14T01:20:31Z</time>
      </trkpt>
      <trkpt lat="42.964060" lon="-0.339590">
        <ele>1206.761</ele>
        <time>2020-07-14T01:20:51Z</time>
      </trkpt>
      <trkpt lat="42.963190" lon="-0.339400">
        <ele>1188.807</ele>
        <time>2020-07-14T01:21:31Z</time>
      </trkpt>
      <trkpt lat="42.963020" lon="-0.339830">
        <ele>1182.608</ele>
        <time>2020-07-14T01:21:51Z</time>
      </trkpt>
      <trkpt lat="42.963500" lon="-0.341180">
        <ele>1178.548</ele>
        <time>2020-07-14T01:22:11Z</time>
      </trkpt>
      <trkpt lat="42.963020" lon="-0.345460">
        <ele>1141.265</ele>
        <time>2020-07-14T01:23:11Z</time>
      </trkpt>
      <trkpt lat="42.962640" lon="-0.345630">
        <ele>1134.870</ele>
        <time>2020-07-14T01:23:31Z</time>
      </trkpt>
      <trkpt lat="42.962270" lon="-0.349630">
        <ele>1109.763</ele>
        <time>2020-07-14T01:24:51Z</time>
      </trkpt>
      <trkpt lat="42.962750" lon="-0.347770">
        <ele>1103.288</ele>
        <time>2020-07-14T01:25:51Z</time>
      </trkpt>
      <trkpt lat="42.963980" lon="-0.346090">
        <ele>1093.310</ele>
        <time>2020-07-14T01:26:51Z</time>
      </trkpt>
      <trkpt lat="42.964320" lon="-0.348550">
        <ele>1076.724</ele>
        <time>2020-07-14T01:28:11Z</time>
      </trkpt>
      <trkpt lat="42.963420" lon="-0.351180">
        <ele>1052.992</ele>
        <time>2020-07-14T01:29:11Z</time>
      </trkpt>
      <trkpt lat="42.963460" lon="-0.352650">
        <ele>1050.638</ele>
        <time>2020-07-14T01:29:31Z</time>
      </trkpt>
      <trkpt lat="42.964240" lon="-0.354360">
        <ele>1029.970</ele>
        <time>2020-07-14T01:30:11Z</time>
      </trkpt>
      <trkpt lat="42.965770" lon="-0.356390">
        <ele>1017.117</ele>
        <time>2020-07-14T01:30:31Z</time>
      </trkpt>
      <trkpt lat="42.967790" lon="-0.367920">
        <ele>933.908</ele>
        <time>2020-07-14T01:32:11Z</time>
      </trkpt>
      <trkpt lat="42.968850" lon="-0.370490">
        <ele>911.878</ele>
        <time>2020-07-14T01:32:51Z</time>
      </trkpt>
      <trkpt lat="42.969080" lon="-0.372150">
        <ele>893.385</ele>
        <time>2020-07-14T01:33:31Z</time>
      </trkpt>
      <trkpt lat="42.968500" lon="-0.372610">
        <ele>890.050</ele>
        <time>2020-07-14T01:34:11Z</time>
      </trkpt>
      <trkpt lat="42.967780" lon="-0.371660">
        <ele>880.193</ele>
        <time>2020-07-14T01:34:31Z</time>
      </trkpt>
      <trkpt lat="42.967400" lon="-0.371850">
        <ele>872.918</ele>
        <time>2020-07-14T01:35:11Z</time>
      </trkpt>
      <trkpt lat="42.967690" lon="-0.375330">
        <ele>848.490</ele>
        <time>2020-07-14T01:35:51Z</time>
      </trkpt>
      <trkpt lat="42.968010" lon="-0.375850">
        <ele>843.814</ele>
        <time>2020-07-14T01:36:11Z</time>
      </trkpt>
      <trkpt lat="42.967570" lon="-0.376400">
        <ele>833.772</ele>
        <time>2020-07-14T01:36:31Z</time>
      </trkpt>
      <trkpt lat="42.968210" lon="-0.379280">
        <ele>830.674</ele>
        <time>2020-07-14T01:37:31Z</time>
      </trkpt>
      <trkpt lat="42.968820" lon="-0.379640">
        <ele>810.556</ele>
        <time>2020-07-14T01:37:51Z</time>
      </trkpt>
      <trkpt lat="42.968690" lon="-0.380700">
        <ele>823.421</ele>
        <time>2020-07-14T01:38:11Z</time>
      </trkpt>
      <trkpt lat="42.969360" lon="-0.380960">
        <ele>813.108</ele>
        <time>2020-07-14T01:38:51Z</time>
      </trkpt>
      <trkpt lat="42.969960" lon="-0.382460">
        <ele>811.272</ele>
        <time>2020-07-14T01:39:31Z</time>
      </trkpt>
      <trkpt lat="42.969760" lon="-0.380550">
        <ele>797.599</ele>
        <time>2020-07-14T01:40:31Z</time>
      </trkpt>
      <trkpt lat="42.970280" lon="-0.382160">
        <ele>794.344</ele>
        <time>2020-07-14T01:40:51Z</time>
      </trkpt>
      <trkpt lat="42.971080" lon="-0.382930">
        <ele>781.817</ele>
        <time>2020-07-14T01:41:11Z</time>
      </trkpt>
      <trkpt lat="42.971860" lon="-0.384870">
        <ele>766.162</ele>
        <time>2020-07-14T01:41:31Z</time>
      </trkpt>
      <trkpt lat="42.971760" lon="-0.386350">
        <ele>759.494</ele>
        <time>2020-07-14T01:41:51Z</time>
      </trkpt>
      <trkpt lat="42.973240" lon="-0.391180">
        <ele>721.138</ele>
        <time>2020-07-14T01:42:31Z</time>
      </trkpt>
      <trkpt lat="42.972720" lon="-0.392090">
        <ele>729.946</ele>
        <time>2020-07-14T01:43:11Z</time>
      </trkpt>
      <trkpt lat="42.973920" lon="-0.393880">
        <ele>708.027</ele>
        <time>2020-07-14T01:43:31Z</time>
      </trkpt>
      <trkpt lat="42.974320" lon="-0.395480">
        <ele>693.068</ele>
        <time>2020-07-14T01:44:11Z</time>
      </trkpt>
      <trkpt lat="42.974000" lon="-0.397260">
        <ele>693.814</ele>
        <time>2020-07-14T01:44:31Z</time>
      </trkpt>
      <trkpt lat="42.974450" lon="-0.397990">
        <ele>673.908</ele>
        <time>2020-07-14T01:44:51Z</time>
      </trkpt>
      <trkpt lat="42.974890" lon="-0.402610">
        <ele>655.387</ele>
        <time>2020-07-14T01:45:31Z</time>
      </trkpt>
      <trkpt lat="42.975330" lon="-0.402830">
        <ele>646.014</ele>
        <time>2020-07-14T01:45:51Z</time>
      </trkpt>
      <trkpt lat="42.975430" lon="-0.403720">
        <ele>648.129</ele>
        <time>2020-07-14T01:46:31Z</time>
      </trkpt>
      <trkpt lat="42.975710" lon="-0.403010">
        <ele>634.332</ele>
        <time>2020-07-14T01:47:31Z</time>
      </trkpt>
      <trkpt lat="42.976890" lon="-0.404600">
        <ele>611.777</ele>
        <time>2020-07-14T01:48:11Z</time>
      </trkpt>
      <trkpt lat="42.977950" lon="-0.404650">
        <ele>598.169</ele>
        <time>2020-07-14T01:48:51Z</time>
      </trkpt>
      <trkpt lat="42.977820" lon="-0.405150">
        <ele>594.353</ele>
        <time>2020-07-14T01:49:11Z</time>
      </trkpt>
      <trkpt lat="42.978380" lon="-0.406500">
        <ele>601.331</ele>
        <time>2020-07-14T01:49:51Z</time>
      </trkpt>
      <trkpt lat="42.979500" lon="-0.407180">
        <ele>609.846</ele>
        <time>2020-07-14T01:50:51Z</time>
      </trkpt>
      <trkpt lat="42.980500" lon="-0.409420">
        <ele>603.088</ele>
        <time>2020-07-14T01:51:31Z</time>
      </trkpt>
      <trkpt lat="42.982300" lon="-0.409800">
        <ele>602.016</ele>
        <time>2020-07-14T01:52:11Z</time>
      </trkpt>
      <trkpt lat="42.983380" lon="-0.411500">
        <ele>579.108</ele>
        <time>2020-07-14T01:53:11Z</time>
      </trkpt>
      <trkpt lat="42.984080" lon="-0.411350">
        <ele>581.779</ele>
        <time>2020-07-14T01:53:51Z</time>
      </trkpt>
      <trkpt lat="42.986110" lon="-0.413910">
        <ele>558.636</ele>
        <time>2020-07-14T01:55:11Z</time>
      </trkpt>
      <trkpt lat="42.986830" lon="-0.414080">
        <ele>558.631</ele>
        <time>2020-07-14T01:55:31Z</time>
      </trkpt>
      <trkpt lat="42.987680" lon="-0.415300">
        <ele>540.254</ele>
        <time>2020-07-14T01:56:11Z</time>
      </trkpt>
      <trkpt lat="42.988670" lon="-0.414560">
        <ele>535.329</ele>
        <time>2020-07-14T01:56:51Z</time>
      </trkpt>
      <trkpt lat="42.989390" lon="-0.412670">
        <ele>532.771</ele>
        <time>2020-07-14T01:57:51Z</time>
      </trkpt>
      <trkpt lat="42.990000" lon="-0.412610">
        <ele>529.255</ele>
        <time>2020-07-14T01:58:11Z</time>
      </trkpt>
      <trkpt lat="42.993310" lon="-0.414250">
        <ele>522.633</ele>
        <time>2020-07-14T01:58:51Z</time>
      </trkpt>
      <trkpt lat="42.993110" lon="-0.415550">
        <ele>513.057</ele>
        <time>2020-07-14T01:59:11Z</time>
      </trkpt>
      <trkpt lat="42.992500" lon="-0.416770">
        <ele>505.100</ele>
        <time>2020-07-14T01:59:31Z</time>
      </trkpt>
      <trkpt lat="42.993690" lon="-0.418010">
        <ele>491.820</ele>
        <time>2020-07-14T01:59:51Z</time>
      </trkpt>
      <trkpt lat="42.993610" lon="-0.420480">
        <ele>489.008</ele>
        <time>2020-07-14T02:00:11Z</time>
      </trkpt>
      <trkpt lat="42.994180" lon="-0.422160">
        <ele>489.060</ele>
        <time>2020-07-14T02:00:31Z</time>
      </trkpt>
      <trkpt lat="42.997200" lon="-0.421820">
        <ele>487.677</ele>
        <time>2020-07-14T02:00:51Z</time>
      </trkpt>
      <trkpt lat="43.001600" lon="-0.420080">
        <ele>482.912</ele>
        <time>2020-07-14T02:01:11Z</time>
      </trkpt>
      <trkpt lat="43.004920" lon="-0.421520">
        <ele>479.365</ele>
        <time>2020-07-14T02:02:11Z</time>
      </trkpt>
      <trkpt lat="43.007020" lon="-0.420850">
        <ele>478.480</ele>
        <time>2020-07-14T02:02:51Z</time>
      </trkpt>
      <trkpt lat="43.008720" lon="-0.421210">
        <ele>471.612</ele>
        <time>2020-07-14T02:03:31Z</time>
      </trkpt>
      <trkpt lat="43.012560" lon="-0.423050">
        <ele>470.066</ele>
        <time>2020-07-14T02:04:11Z</time>
      </trkpt>
      <trkpt lat="43.019890" lon="-0.422980">
        <ele>465.874</ele>
        <time>2020-07-14T02:05:31Z</time>
      </trkpt>
      <trkpt lat="43.023930" lon="-0.421470">
        <ele>459.053</ele>
        <time>2020-07-14T02:06:11Z</time>
      </trkpt>
      <trkpt lat="43.032920" lon="-0.421850">
        <ele>449.704</ele>
        <time>2020-07-14T02:06:51Z</time>
      </trkpt>
      <trkpt lat="43.037160" lon="-0.423210">
        <ele>443.414</ele>
        <time>2020-07-14T02:07:31Z</time>
      </trkpt>
      <trkpt lat="43.037340" lon="-0.423950">
        <ele>445.808</ele>
        <time>2020-07-14T02:07:51Z</time>
      </trkpt>
      <trkpt lat="43.043510" lon="-0.426480">
        <ele>440.780</ele>
        <time>2020-07-14T02:08:51Z</time>
      </trkpt>
      <trkpt lat="43.047290" lon="-0.429310">
        <ele>440.047</ele>
        <time>2020-07-14T02:09:51Z</time>
      </trkpt>
      <trkpt lat="43.054990" lon="-0.431390">
        <ele>453.012</ele>
        <time>2020-07-14T02:10:31Z</time>
      </trkpt>
      <trkpt lat="43.055090" lon="-0.431770">
        <ele>453.415</ele>
        <time>2020-07-14T02:11:11Z</time>
      </trkpt>
      <trkpt lat="43.055090" lon="-0.431770">
        <ele>453.481</ele>
        <time>2020-07-13T21:18:06Z</time>
      </trkpt>
      <trkpt lat="43.054990" lon="-0.431390">
        <ele>453.061</ele>
        <time>2020-07-13T21:18:46Z</time>
      </trkpt>
      <trkpt lat="43.057690" lon="-0.429730">
        <ele>449.017</ele>
        <time>2020-07-13T21:19:46Z</time>
      </trkpt>
      <trkpt lat="43.058070" lon="-0.431070">
        <ele>453.808</ele>
        <time>2020-07-13T21:20:06Z</time>
      </trkpt>
      <trkpt lat="43.057980" lon="-0.434920">
        <ele>466.753</ele>
        <time>2020-07-13T21:20:46Z</time>
      </trkpt>
      <trkpt lat="43.057200" lon="-0.437220">
        <ele>482.940</ele>
        <time>2020-07-13T21:21:06Z</time>
      </trkpt>
      <trkpt lat="43.057670" lon="-0.439830">
        <ele>506.955</ele>
        <time>2020-07-13T21:21:26Z</time>
      </trkpt>
      <trkpt lat="43.059230" lon="-0.438160">
        <ele>528.278</ele>
        <time>2020-07-13T21:22:06Z</time>
      </trkpt>
      <trkpt lat="43.061730" lon="-0.437670">
        <ele>559.543</ele>
        <time>2020-07-13T21:23:06Z</time>
      </trkpt>
      <trkpt lat="43.060430" lon="-0.439530">
        <ele>575.875</ele>
        <time>2020-07-13T21:23:26Z</time>
      </trkpt>
      <trkpt lat="43.060650" lon="-0.445090">
        <ele>619.834</ele>
        <time>2020-07-13T21:25:06Z</time>
      </trkpt>
      <trkpt lat="43.061790" lon="-0.443170">
        <ele>639.983</ele>
        <time>2020-07-13T21:25:46Z</time>
      </trkpt>
      <trkpt lat="43.062340" lon="-0.440460">
        <ele>646.254</ele>
        <time>2020-07-13T21:26:26Z</time>
      </trkpt>
      <trkpt lat="43.062630" lon="-0.440420">
        <ele>658.056</ele>
        <time>2020-07-13T21:27:06Z</time>
      </trkpt>
      <trkpt lat="43.062840" lon="-0.450740">
        <ele>718.911</ele>
        <time>2020-07-13T21:28:26Z</time>
      </trkpt>
      <trkpt lat="43.061920" lon="-0.452440">
        <ele>730.308</ele>
        <time>2020-07-13T21:28:46Z</time>
      </trkpt>
      <trkpt lat="43.058590" lon="-0.454660">
        <ele>767.020</ele>
        <time>2020-07-13T21:30:06Z</time>
      </trkpt>
      <trkpt lat="43.062010" lon="-0.455810">
        <ele>803.077</ele>
        <time>2020-07-13T21:30:46Z</time>
      </trkpt>
      <trkpt lat="43.062160" lon="-0.456300">
        <ele>809.792</ele>
        <time>2020-07-13T21:31:06Z</time>
      </trkpt>
      <trkpt lat="43.061550" lon="-0.457380">
        <ele>821.945</ele>
        <time>2020-07-13T21:32:06Z</time>
      </trkpt>
      <trkpt lat="43.063450" lon="-0.457790">
        <ele>834.580</ele>
        <time>2020-07-13T21:33:26Z</time>
      </trkpt>
      <trkpt lat="43.065410" lon="-0.458940">
        <ele>855.752</ele>
        <time>2020-07-13T21:34:26Z</time>
      </trkpt>
      <trkpt lat="43.066280" lon="-0.460180">
        <ele>863.881</ele>
        <time>2020-07-13T21:35:26Z</time>
      </trkpt>
      <trkpt lat="43.066320" lon="-0.461410">
        <ele>864.530</ele>
        <time>2020-07-13T21:35:46Z</time>
      </trkpt>
      <trkpt lat="43.065370" lon="-0.464120">
        <ele>869.128</ele>
        <time>2020-07-13T21:36:06Z</time>
      </trkpt>
      <trkpt lat="43.065080" lon="-0.470450">
        <ele>875.089</ele>
        <time>2020-07-13T21:37:26Z</time>
      </trkpt>
      <trkpt lat="43.064290" lon="-0.471380">
        <ele>875.017</ele>
        <time>2020-07-13T21:37:46Z</time>
      </trkpt>
      <trkpt lat="43.063470" lon="-0.473820">
        <ele>876.408</ele>
        <time>2020-07-13T21:38:06Z</time>
      </trkpt>
      <trkpt lat="43.062760" lon="-0.474170">
        <ele>878.057</ele>
        <time>2020-07-13T21:38:26Z</time>
      </trkpt>
      <trkpt lat="43.061110" lon="-0.478810">
        <ele>880.074</ele>
        <time>2020-07-13T21:39:26Z</time>
      </trkpt>
      <trkpt lat="43.060000" lon="-0.485700">
        <ele>902.019</ele>
        <time>2020-07-13T21:40:06Z</time>
      </trkpt>
      <trkpt lat="43.058980" lon="-0.489330">
        <ele>939.142</ele>
        <time>2020-07-13T21:40:46Z</time>
      </trkpt>
      <trkpt lat="43.060510" lon="-0.488310">
        <ele>955.667</ele>
        <time>2020-07-13T21:41:46Z</time>
      </trkpt>
      <trkpt lat="43.058340" lon="-0.493230">
        <ele>1000.589</ele>
        <time>2020-07-13T21:42:26Z</time>
      </trkpt>
      <trkpt lat="43.059130" lon="-0.493400">
        <ele>1008.218</ele>
        <time>2020-07-13T21:43:06Z</time>
      </trkpt>
      <trkpt lat="43.059480" lon="-0.491520">
        <ele>998.637</ele>
        <time>2020-07-13T21:43:26Z</time>
      </trkpt>
      <trkpt lat="43.060040" lon="-0.490860">
        <ele>1010.641</ele>
        <time>2020-07-13T21:44:06Z</time>
      </trkpt>
      <trkpt lat="43.060620" lon="-0.492580">
        <ele>1001.581</ele>
        <time>2020-07-13T21:44:26Z</time>
      </trkpt>
      <trkpt lat="43.059980" lon="-0.494420">
        <ele>1008.009</ele>
        <time>2020-07-13T21:44:46Z</time>
      </trkpt>
      <trkpt lat="43.060420" lon="-0.496150">
        <ele>1008.408</ele>
        <time>2020-07-13T21:45:06Z</time>
      </trkpt>
      <trkpt lat="43.061860" lon="-0.496580">
        <ele>1000.829</ele>
        <time>2020-07-13T21:45:46Z</time>
      </trkpt>
      <trkpt lat="43.063830" lon="-0.498730">
        <ele>1000.836</ele>
        <time>2020-07-13T21:46:46Z</time>
      </trkpt>
      <trkpt lat="43.064960" lon="-0.498330">
        <ele>999.951</ele>
        <time>2020-07-13T21:47:46Z</time>
      </trkpt>
      <trkpt lat="43.065230" lon="-0.499370">
        <ele>997.584</ele>
        <time>2020-07-13T21:48:06Z</time>
      </trkpt>
      <trkpt lat="43.064980" lon="-0.502140">
        <ele>997.919</ele>
        <time>2020-07-13T21:48:46Z</time>
      </trkpt>
      <trkpt lat="43.067050" lon="-0.500450">
        <ele>994.651</ele>
        <time>2020-07-13T21:49:46Z</time>
      </trkpt>
      <trkpt lat="43.068380" lon="-0.500930">
        <ele>1004.330</ele>
        <time>2020-07-13T21:50:26Z</time>
      </trkpt>
      <trkpt lat="43.069300" lon="-0.502140">
        <ele>1007.689</ele>
        <time>2020-07-13T21:50:46Z</time>
      </trkpt>
      <trkpt lat="43.069150" lon="-0.505060">
        <ele>1024.725</ele>
        <time>2020-07-13T21:51:26Z</time>
      </trkpt>
      <trkpt lat="43.070180" lon="-0.506580">
        <ele>1033.026</ele>
        <time>2020-07-13T21:52:06Z</time>
      </trkpt>
      <trkpt lat="43.070470" lon="-0.507820">
        <ele>1031.008</ele>
        <time>2020-07-13T21:52:26Z</time>
      </trkpt>
      <trkpt lat="43.068420" lon="-0.510140">
        <ele>1010.208</ele>
        <time>2020-07-13T21:53:26Z</time>
      </trkpt>
      <trkpt lat="43.069990" lon="-0.510790">
        <ele>978.777</ele>
        <time>2020-07-13T21:53:46Z</time>
      </trkpt>
      <trkpt lat="43.070780" lon="-0.513210">
        <ele>946.674</ele>
        <time>2020-07-13T21:54:46Z</time>
      </trkpt>
      <trkpt lat="43.070010" lon="-0.519380">
        <ele>884.389</ele>
        <time>2020-07-13T21:55:46Z</time>
      </trkpt>
      <trkpt lat="43.070090" lon="-0.523010">
        <ele>861.642</ele>
        <time>2020-07-13T21:56:06Z</time>
      </trkpt>
      <trkpt lat="43.071530" lon="-0.527990">
        <ele>810.687</ele>
        <time>2020-07-13T21:56:46Z</time>
      </trkpt>
      <trkpt lat="43.072250" lon="-0.528400">
        <ele>799.849</ele>
        <time>2020-07-13T21:57:06Z</time>
      </trkpt>
      <trkpt lat="43.073470" lon="-0.530510">
        <ele>775.718</ele>
        <time>2020-07-13T21:57:46Z</time>
      </trkpt>
      <trkpt lat="43.072830" lon="-0.532760">
        <ele>754.997</ele>
        <time>2020-07-13T21:58:26Z</time>
      </trkpt>
      <trkpt lat="43.073330" lon="-0.535030">
        <ele>720.055</ele>
        <time>2020-07-13T21:59:06Z</time>
      </trkpt>
      <trkpt lat="43.073400" lon="-0.538950">
        <ele>680.707</ele>
        <time>2020-07-13T22:00:06Z</time>
      </trkpt>
      <trkpt lat="43.074600" lon="-0.541840">
        <ele>647.717</ele>
        <time>2020-07-13T22:00:46Z</time>
      </trkpt>
      <trkpt lat="43.074520" lon="-0.545340">
        <ele>618.408</ele>
        <time>2020-07-13T22:01:46Z</time>
      </trkpt>
      <trkpt lat="43.075250" lon="-0.552390">
        <ele>557.590</ele>
        <time>2020-07-13T22:02:46Z</time>
      </trkpt>
      <trkpt lat="43.076110" lon="-0.553970">
        <ele>545.877</ele>
        <time>2020-07-13T22:03:26Z</time>
      </trkpt>
      <trkpt lat="43.077350" lon="-0.559890">
        <ele>515.852</ele>
        <time>2020-07-13T22:04:26Z</time>
      </trkpt>
      <trkpt lat="43.077960" lon="-0.560930">
        <ele>505.765</ele>
        <time>2020-07-13T22:04:46Z</time>
      </trkpt>
      <trkpt lat="43.078240" lon="-0.562950">
        <ele>505.330</ele>
        <time>2020-07-13T22:05:06Z</time>
      </trkpt>
      <trkpt lat="43.079900" lon="-0.563940">
        <ele>490.632</ele>
        <time>2020-07-13T22:06:06Z</time>
      </trkpt>
      <trkpt lat="43.080230" lon="-0.565660">
        <ele>481.311</ele>
        <time>2020-07-13T22:06:26Z</time>
      </trkpt>
      <trkpt lat="43.080010" lon="-0.567370">
        <ele>470.490</ele>
        <time>2020-07-13T22:06:46Z</time>
      </trkpt>
      <trkpt lat="43.080450" lon="-0.570490">
        <ele>462.083</ele>
        <time>2020-07-13T22:07:26Z</time>
      </trkpt>
      <trkpt lat="43.081160" lon="-0.572140">
        <ele>449.425</ele>
        <time>2020-07-13T22:08:06Z</time>
      </trkpt>
      <trkpt lat="43.080390" lon="-0.575510">
        <ele>441.617</ele>
        <time>2020-07-13T22:09:06Z</time>
      </trkpt>
      <trkpt lat="43.081050" lon="-0.576720">
        <ele>429.008</ele>
        <time>2020-07-13T22:09:26Z</time>
      </trkpt>
      <trkpt lat="43.080730" lon="-0.579100">
        <ele>435.883</ele>
        <time>2020-07-13T22:10:06Z</time>
      </trkpt>
      <trkpt lat="43.080270" lon="-0.579140">
        <ele>443.610</ele>
        <time>2020-07-13T22:10:26Z</time>
      </trkpt>
      <trkpt lat="43.079760" lon="-0.578220">
        <ele>420.235</ele>
        <time>2020-07-13T22:11:06Z</time>
      </trkpt>
      <trkpt lat="43.079030" lon="-0.579180">
        <ele>407.988</ele>
        <time>2020-07-13T22:11:26Z</time>
      </trkpt>
      <trkpt lat="43.078530" lon="-0.582530">
        <ele>389.343</ele>
        <time>2020-07-13T22:12:06Z</time>
      </trkpt>
      <trkpt lat="43.078950" lon="-0.586230">
        <ele>381.015</ele>
        <time>2020-07-13T22:13:06Z</time>
      </trkpt>
      <trkpt lat="43.078420" lon="-0.588550">
        <ele>370.264</ele>
        <time>2020-07-13T22:13:26Z</time>
      </trkpt>
      <trkpt lat="43.078400" lon="-0.592880">
        <ele>363.043</ele>
        <time>2020-07-13T22:14:26Z</time>
      </trkpt>
      <trkpt lat="43.077900" lon="-0.595930">
        <ele>352.813</ele>
        <time>2020-07-13T22:15:06Z</time>
      </trkpt>
      <trkpt lat="43.077250" lon="-0.597340">
        <ele>342.943</ele>
        <time>2020-07-13T22:15:26Z</time>
      </trkpt>
      <trkpt lat="43.076690" lon="-0.606180">
        <ele>333.907</ele>
        <time>2020-07-13T22:17:06Z</time>
      </trkpt>
      <trkpt lat="43.075910" lon="-0.605230">
        <ele>328.708</ele>
        <time>2020-07-13T22:17:46Z</time>
      </trkpt>
      <trkpt lat="43.074980" lon="-0.606910">
        <ele>330.266</ele>
        <time>2020-07-13T22:18:46Z</time>
      </trkpt>
      <trkpt lat="43.073220" lon="-0.606200">
        <ele>324.383</ele>
        <time>2020-07-13T22:19:06Z</time>
      </trkpt>
      <trkpt lat="43.071900" lon="-0.606330">
        <ele>312.038</ele>
        <time>2020-07-13T22:19:26Z</time>
      </trkpt>
      <trkpt lat="43.070970" lon="-0.605830">
        <ele>314.291</ele>
        <time>2020-07-13T22:20:06Z</time>
      </trkpt>
      <trkpt lat="43.069630" lon="-0.605980">
        <ele>325.696</ele>
        <time>2020-07-13T22:20:46Z</time>
      </trkpt>
      <trkpt lat="43.067760" lon="-0.602990">
        <ele>320.038</ele>
        <time>2020-07-13T22:21:46Z</time>
      </trkpt>
      <trkpt lat="43.065310" lon="-0.601410">
        <ele>338.377</ele>
        <time>2020-07-13T22:22:06Z</time>
      </trkpt>
      <trkpt lat="43.063640" lon="-0.599400">
        <ele>331.486</ele>
        <time>2020-07-13T22:22:26Z</time>
      </trkpt>
      <trkpt lat="43.061510" lon="-0.598980">
        <ele>350.114</ele>
        <time>2020-07-13T22:23:06Z</time>
      </trkpt>
      <trkpt lat="43.057270" lon="-0.597070">
        <ele>348.454</ele>
        <time>2020-07-13T22:23:26Z</time>
      </trkpt>
      <trkpt lat="43.055220" lon="-0.596900">
        <ele>342.809</ele>
        <time>2020-07-13T22:24:06Z</time>
      </trkpt>
      <trkpt lat="43.052110" lon="-0.599550">
        <ele>340.808</ele>
        <time>2020-07-13T22:24:46Z</time>
      </trkpt>
      <trkpt lat="43.051230" lon="-0.601090">
        <ele>340.476</ele>
        <time>2020-07-13T22:25:06Z</time>
      </trkpt>
      <trkpt lat="43.050430" lon="-0.601490">
        <ele>340.583</ele>
        <time>2020-07-13T22:25:46Z</time>
      </trkpt>
      <trkpt lat="43.045520" lon="-0.601440">
        <ele>362.858</ele>
        <time>2020-07-13T22:26:46Z</time>
      </trkpt>
      <trkpt lat="43.044280" lon="-0.600510">
        <ele>374.711</ele>
        <time>2020-07-13T22:27:26Z</time>
      </trkpt>
      <trkpt lat="43.041130" lon="-0.601350">
        <ele>379.996</ele>
        <time>2020-07-13T22:28:26Z</time>
      </trkpt>
      <trkpt lat="43.040410" lon="-0.602140">
        <ele>374.558</ele>
        <time>2020-07-13T22:28:46Z</time>
      </trkpt>
      <trkpt lat="43.039480" lon="-0.604940">
        <ele>363.257</ele>
        <time>2020-07-13T22:29:26Z</time>
      </trkpt>
      <trkpt lat="43.037990" lon="-0.606110">
        <ele>370.776</ele>
        <time>2020-07-13T22:30:06Z</time>
      </trkpt>
      <trkpt lat="43.034730" lon="-0.606310">
        <ele>368.447</ele>
        <time>2020-07-13T22:30:46Z</time>
      </trkpt>
      <trkpt lat="43.028400" lon="-0.603040">
        <ele>383.529</ele>
        <time>2020-07-13T22:31:26Z</time>
      </trkpt>
      <trkpt lat="43.023810" lon="-0.601390">
        <ele>379.721</ele>
        <time>2020-07-13T22:32:06Z</time>
      </trkpt>
      <trkpt lat="43.017930" lon="-0.602940">
        <ele>394.808</ele>
        <time>2020-07-13T22:33:26Z</time>
      </trkpt>
      <trkpt lat="43.015280" lon="-0.605490">
        <ele>390.069</ele>
        <time>2020-07-13T22:34:26Z</time>
      </trkpt>
      <trkpt lat="43.011750" lon="-0.602940">
        <ele>391.196</ele>
        <time>2020-07-13T22:35:26Z</time>
      </trkpt>
      <trkpt lat="43.010830" lon="-0.603320">
        <ele>391.131</ele>
        <time>2020-07-13T22:36:06Z</time>
      </trkpt>
      <trkpt lat="43.005760" lon="-0.602900">
        <ele>400.054</ele>
        <time>2020-07-13T22:37:26Z</time>
      </trkpt>
      <trkpt lat="42.999980" lon="-0.604730">
        <ele>402.169</ele>
        <time>2020-07-13T22:38:26Z</time>
      </trkpt>
      <trkpt lat="42.995820" lon="-0.612780">
        <ele>430.771</ele>
        <time>2020-07-13T22:39:46Z</time>
      </trkpt>
      <trkpt lat="42.994990" lon="-0.615350">
        <ele>428.920</ele>
        <time>2020-07-13T22:40:06Z</time>
      </trkpt>
      <trkpt lat="42.995130" lon="-0.617060">
        <ele>435.449</ele>
        <time>2020-07-13T22:41:06Z</time>
      </trkpt>
      <trkpt lat="42.986500" lon="-0.617830">
        <ele>429.276</ele>
        <time>2020-07-13T22:42:26Z</time>
      </trkpt>
      <trkpt lat="42.985910" lon="-0.617440">
        <ele>435.390</ele>
        <time>2020-07-13T22:42:46Z</time>
      </trkpt>
      <trkpt lat="42.980520" lon="-0.626550">
        <ele>497.419</ele>
        <time>2020-07-13T22:44:06Z</time>
      </trkpt>
      <trkpt lat="42.979710" lon="-0.628650">
        <ele>519.008</ele>
        <time>2020-07-13T22:44:26Z</time>
      </trkpt>
      <trkpt lat="42.980200" lon="-0.630650">
        <ele>538.122</ele>
        <time>2020-07-13T22:44:46Z</time>
      </trkpt>
      <trkpt lat="42.981090" lon="-0.631740">
        <ele>549.349</ele>
        <time>2020-07-13T22:45:06Z</time>
      </trkpt>
      <trkpt lat="42.981780" lon="-0.634160">
        <ele>553.964</ele>
        <time>2020-07-13T22:45:26Z</time>
      </trkpt>
      <trkpt lat="42.984080" lon="-0.637360">
        <ele>560.597</ele>
        <time>2020-07-13T22:46:06Z</time>
      </trkpt>
      <trkpt lat="42.985450" lon="-0.641760">
        <ele>574.742</ele>
        <time>2020-07-13T22:46:26Z</time>
      </trkpt>
      <trkpt lat="42.986510" lon="-0.648040">
        <ele>593.164</ele>
        <time>2020-07-13T22:47:06Z</time>
      </trkpt>
      <trkpt lat="42.985080" lon="-0.650450">
        <ele>623.753</ele>
        <time>2020-07-13T22:48:06Z</time>
      </trkpt>
      <trkpt lat="42.985770" lon="-0.653730">
        <ele>654.142</ele>
        <time>2020-07-13T22:49:26Z</time>
      </trkpt>
      <trkpt lat="42.986510" lon="-0.655140">
        <ele>670.687</ele>
        <time>2020-07-13T22:50:06Z</time>
      </trkpt>
      <trkpt lat="42.986110" lon="-0.653530">
        <ele>669.942</ele>
        <time>2020-07-13T22:51:06Z</time>
      </trkpt>
      <trkpt lat="42.986910" lon="-0.651290">
        <ele>692.526</ele>
        <time>2020-07-13T22:52:06Z</time>
      </trkpt>
      <trkpt lat="42.986670" lon="-0.653590">
        <ele>698.508</ele>
        <time>2020-07-13T22:53:06Z</time>
      </trkpt>
      <trkpt lat="42.987080" lon="-0.654470">
        <ele>704.463</ele>
        <time>2020-07-13T22:53:26Z</time>
      </trkpt>
      <trkpt lat="42.988520" lon="-0.655350">
        <ele>731.860</ele>
        <time>2020-07-13T22:54:26Z</time>
      </trkpt>
      <trkpt lat="42.988840" lon="-0.657080">
        <ele>736.785</ele>
        <time>2020-07-13T22:55:06Z</time>
      </trkpt>
      <trkpt lat="42.991170" lon="-0.659300">
        <ele>765.568</ele>
        <time>2020-07-13T22:56:26Z</time>
      </trkpt>
      <trkpt lat="42.992620" lon="-0.659340">
        <ele>786.983</ele>
        <time>2020-07-13T22:56:46Z</time>
      </trkpt>
      <trkpt lat="42.991810" lon="-0.660690">
        <ele>794.025</ele>
        <time>2020-07-13T22:57:46Z</time>
      </trkpt>
      <trkpt lat="42.992240" lon="-0.662460">
        <ele>802.344</ele>
        <time>2020-07-13T22:58:26Z</time>
      </trkpt>
      <trkpt lat="42.993630" lon="-0.664230">
        <ele>818.653</ele>
        <time>2020-07-13T22:59:06Z</time>
      </trkpt>
      <trkpt lat="42.997370" lon="-0.664010">
        <ele>844.663</ele>
        <time>2020-07-13T23:00:46Z</time>
      </trkpt>
      <trkpt lat="42.999260" lon="-0.662320">
        <ele>864.344</ele>
        <time>2020-07-13T23:01:06Z</time>
      </trkpt>
      <trkpt lat="42.999370" lon="-0.662760">
        <ele>870.518</ele>
        <time>2020-07-13T23:01:26Z</time>
      </trkpt>
      <trkpt lat="42.997750" lon="-0.665580">
        <ele>897.408</ele>
        <time>2020-07-13T23:02:26Z</time>
      </trkpt>
      <trkpt lat="42.999740" lon="-0.666450">
        <ele>925.191</ele>
        <time>2020-07-13T23:03:06Z</time>
      </trkpt>
      <trkpt lat="43.001270" lon="-0.668130">
        <ele>947.688</ele>
        <time>2020-07-13T23:03:46Z</time>
      </trkpt>
      <trkpt lat="43.002400" lon="-0.667390">
        <ele>964.073</ele>
        <time>2020-07-13T23:04:46Z</time>
      </trkpt>
      <trkpt lat="43.004970" lon="-0.668390">
        <ele>999.676</ele>
        <time>2020-07-13T23:05:46Z</time>
      </trkpt>
      <trkpt lat="43.002760" lon="-0.677890">
        <ele>992.491</ele>
        <time>2020-07-13T23:07:26Z</time>
      </trkpt>
      <trkpt lat="43.001830" lon="-0.679220">
        <ele>995.443</ele>
        <time>2020-07-13T23:08:06Z</time>
      </trkpt>
      <trkpt lat="43.002090" lon="-0.683640">
        <ele>961.682</ele>
        <time>2020-07-13T23:08:26Z</time>
      </trkpt>
      <trkpt lat="42.999640" lon="-0.685700">
        <ele>948.841</ele>
        <time>2020-07-13T23:09:46Z</time>
      </trkpt>
      <trkpt lat="42.999720" lon="-0.686820">
        <ele>939.364</ele>
        <time>2020-07-13T23:10:06Z</time>
      </trkpt>
      <trkpt lat="43.000380" lon="-0.687940">
        <ele>935.806</ele>
        <time>2020-07-13T23:10:26Z</time>
      </trkpt>
      <trkpt lat="43.000890" lon="-0.690600">
        <ele>931.416</ele>
        <time>2020-07-13T23:11:06Z</time>
      </trkpt>
      <trkpt lat="42.999900" lon="-0.693200">
        <ele>930.208</ele>
        <time>2020-07-13T23:11:46Z</time>
      </trkpt>
      <trkpt lat="42.998120" lon="-0.694610">
        <ele>905.331</ele>
        <time>2020-07-13T23:12:46Z</time>
      </trkpt>
      <trkpt lat="42.996400" lon="-0.694340">
        <ele>930.378</ele>
        <time>2020-07-13T23:13:26Z</time>
      </trkpt>
      <trkpt lat="42.997270" lon="-0.697260">
        <ele>901.763</ele>
        <time>2020-07-13T23:14:06Z</time>
      </trkpt>
      <trkpt lat="42.999180" lon="-0.699470">
        <ele>882.226</ele>
        <time>2020-07-13T23:15:06Z</time>
      </trkpt>
      <trkpt lat="42.999080" lon="-0.702530">
        <ele>889.371</ele>
        <time>2020-07-13T23:16:06Z</time>
      </trkpt>
      <trkpt lat="43.000580" lon="-0.701540">
        <ele>886.483</ele>
        <time>2020-07-13T23:17:06Z</time>
      </trkpt>
      <trkpt lat="43.001780" lon="-0.703780">
        <ele>884.142</ele>
        <time>2020-07-13T23:18:26Z</time>
      </trkpt>
      <trkpt lat="43.002190" lon="-0.703870">
        <ele>887.631</ele>
        <time>2020-07-13T23:19:06Z</time>
      </trkpt>
      <trkpt lat="43.002620" lon="-0.702920">
        <ele>868.263</ele>
        <time>2020-07-13T23:19:26Z</time>
      </trkpt>
      <trkpt lat="43.003060" lon="-0.703370">
        <ele>876.344</ele>
        <time>2020-07-13T23:20:06Z</time>
      </trkpt>
      <trkpt lat="43.002990" lon="-0.705740">
        <ele>891.818</ele>
        <time>2020-07-13T23:21:06Z</time>
      </trkpt>
      <trkpt lat="43.002420" lon="-0.707860">
        <ele>901.908</ele>
        <time>2020-07-13T23:22:06Z</time>
      </trkpt>
      <trkpt lat="43.002370" lon="-0.710540">
        <ele>909.981</ele>
        <time>2020-07-13T23:22:46Z</time>
      </trkpt>
      <trkpt lat="43.002040" lon="-0.709950">
        <ele>912.838</ele>
        <time>2020-07-13T23:23:06Z</time>
      </trkpt>
      <trkpt lat="43.001470" lon="-0.710130">
        <ele>929.433</ele>
        <time>2020-07-13T23:23:26Z</time>
      </trkpt>
      <trkpt lat="43.001520" lon="-0.712110">
        <ele>933.336</ele>
        <time>2020-07-13T23:23:46Z</time>
      </trkpt>
      <trkpt lat="43.000580" lon="-0.712320">
        <ele>957.571</ele>
        <time>2020-07-13T23:24:46Z</time>
      </trkpt>
      <trkpt lat="43.001160" lon="-0.713980">
        <ele>965.893</ele>
        <time>2020-07-13T23:25:06Z</time>
      </trkpt>
      <trkpt lat="43.000470" lon="-0.714510">
        <ele>981.342</ele>
        <time>2020-07-13T23:25:46Z</time>
      </trkpt>
      <trkpt lat="43.000570" lon="-0.715870">
        <ele>994.411</ele>
        <time>2020-07-13T23:26:26Z</time>
      </trkpt>
      <trkpt lat="43.001230" lon="-0.717180">
        <ele>1000.161</ele>
        <time>2020-07-13T23:27:06Z</time>
      </trkpt>
      <trkpt lat="43.002340" lon="-0.716610">
        <ele>1010.721</ele>
        <time>2020-07-13T23:28:26Z</time>
      </trkpt>
      <trkpt lat="43.002160" lon="-0.715630">
        <ele>1010.013</ele>
        <time>2020-07-13T23:29:06Z</time>
      </trkpt>
      <trkpt lat="43.002910" lon="-0.714490">
        <ele>1034.908</ele>
        <time>2020-07-13T23:29:46Z</time>
      </trkpt>
      <trkpt lat="43.003940" lon="-0.713980">
        <ele>1054.151</ele>
        <time>2020-07-13T23:30:26Z</time>
      </trkpt>
      <trkpt lat="43.004930" lon="-0.712640">
        <ele>1061.438</ele>
        <time>2020-07-13T23:31:06Z</time>
      </trkpt>
      <trkpt lat="43.006390" lon="-0.712110">
        <ele>1083.693</ele>
        <time>2020-07-13T23:31:46Z</time>
      </trkpt>
      <trkpt lat="43.007860" lon="-0.710320">
        <ele>1093.666</ele>
        <time>2020-07-13T23:32:06Z</time>
      </trkpt>
      <trkpt lat="43.006600" lon="-0.713790">
        <ele>1130.691</ele>
        <time>2020-07-13T23:33:06Z</time>
      </trkpt>
      <trkpt lat="43.005420" lon="-0.714200">
        <ele>1138.413</ele>
        <time>2020-07-13T23:33:46Z</time>
      </trkpt>
      <trkpt lat="43.004810" lon="-0.716540">
        <ele>1159.422</ele>
        <time>2020-07-13T23:34:26Z</time>
      </trkpt>
      <trkpt lat="43.005360" lon="-0.715350">
        <ele>1165.111</ele>
        <time>2020-07-13T23:34:46Z</time>
      </trkpt>
      <trkpt lat="43.006240" lon="-0.715260">
        <ele>1173.759</ele>
        <time>2020-07-13T23:35:06Z</time>
      </trkpt>
      <trkpt lat="43.005590" lon="-0.715880">
        <ele>1180.803</ele>
        <time>2020-07-13T23:35:46Z</time>
      </trkpt>
      <trkpt lat="43.005300" lon="-0.717280">
        <ele>1187.023</ele>
        <time>2020-07-13T23:36:26Z</time>
      </trkpt>
      <trkpt lat="43.006330" lon="-0.716370">
        <ele>1201.008</ele>
        <time>2020-07-13T23:37:06Z</time>
      </trkpt>
      <trkpt lat="43.005860" lon="-0.717740">
        <ele>1209.040</ele>
        <time>2020-07-13T23:37:46Z</time>
      </trkpt>
      <trkpt lat="43.006040" lon="-0.718580">
        <ele>1215.497</ele>
        <time>2020-07-13T23:38:06Z</time>
      </trkpt>
      <trkpt lat="43.005490" lon="-0.719160">
        <ele>1219.332</ele>
        <time>2020-07-13T23:38:26Z</time>
      </trkpt>
      <trkpt lat="43.006020" lon="-0.720120">
        <ele>1247.195</ele>
        <time>2020-07-13T23:38:46Z</time>
      </trkpt>
      <trkpt lat="43.005960" lon="-0.722510">
        <ele>1254.610</ele>
        <time>2020-07-13T23:39:46Z</time>
      </trkpt>
      <trkpt lat="43.005110" lon="-0.723970">
        <ele>1270.722</ele>
        <time>2020-07-13T23:40:26Z</time>
      </trkpt>
      <trkpt lat="43.004060" lon="-0.724730">
        <ele>1279.081</ele>
        <time>2020-07-13T23:41:06Z</time>
      </trkpt>
      <trkpt lat="43.003290" lon="-0.724500">
        <ele>1282.350</ele>
        <time>2020-07-13T23:41:26Z</time>
      </trkpt>
      <trkpt lat="43.002390" lon="-0.725190">
        <ele>1288.224</ele>
        <time>2020-07-13T23:41:46Z</time>
      </trkpt>
      <trkpt lat="43.003750" lon="-0.725180">
        <ele>1293.904</ele>
        <time>2020-07-13T23:42:26Z</time>
      </trkpt>
      <trkpt lat="43.003410" lon="-0.726360">
        <ele>1304.914</ele>
        <time>2020-07-13T23:43:06Z</time>
      </trkpt>
      <trkpt lat="43.005700" lon="-0.727590">
        <ele>1324.308</ele>
        <time>2020-07-13T23:43:46Z</time>
      </trkpt>
      <trkpt lat="43.005540" lon="-0.728440">
        <ele>1327.137</ele>
        <time>2020-07-13T23:44:26Z</time>
      </trkpt>
      <trkpt lat="43.004170" lon="-0.729220">
        <ele>1341.124</ele>
        <time>2020-07-13T23:45:26Z</time>
      </trkpt>
      <trkpt lat="43.003630" lon="-0.731420">
        <ele>1349.169</ele>
        <time>2020-07-13T23:46:26Z</time>
      </trkpt>
      <trkpt lat="43.001770" lon="-0.733300">
        <ele>1373.882</ele>
        <time>2020-07-13T23:47:06Z</time>
      </trkpt>
      <trkpt lat="43.000870" lon="-0.735980">
        <ele>1389.677</ele>
        <time>2020-07-13T23:47:26Z</time>
      </trkpt>
      <trkpt lat="42.997310" lon="-0.740040">
        <ele>1388.989</ele>
        <time>2020-07-13T23:48:46Z</time>
      </trkpt>
      <trkpt lat="42.994410" lon="-0.740060">
        <ele>1395.828</ele>
        <time>2020-07-13T23:49:26Z</time>
      </trkpt>
      <trkpt lat="42.990520" lon="-0.738350">
        <ele>1429.287</ele>
        <time>2020-07-13T23:50:06Z</time>
      </trkpt>
      <trkpt lat="42.989600" lon="-0.739850">
        <ele>1438.693</ele>
        <time>2020-07-13T23:50:46Z</time>
      </trkpt>
      <trkpt lat="42.988630" lon="-0.740210">
        <ele>1450.565</ele>
        <time>2020-07-13T23:51:06Z</time>
      </trkpt>
      <trkpt lat="42.988100" lon="-0.741660">
        <ele>1450.521</ele>
        <time>2020-07-13T23:51:46Z</time>
      </trkpt>
      <trkpt lat="42.986960" lon="-0.741860">
        <ele>1452.608</ele>
        <time>2020-07-13T23:52:46Z</time>
      </trkpt>
      <trkpt lat="42.986550" lon="-0.743140">
        <ele>1465.034</ele>
        <time>2020-07-13T23:53:06Z</time>
      </trkpt>
      <trkpt lat="42.985730" lon="-0.743730">
        <ele>1466.551</ele>
        <time>2020-07-13T23:54:06Z</time>
      </trkpt>
      <trkpt lat="42.984360" lon="-0.742680">
        <ele>1472.026</ele>
        <time>2020-07-13T23:54:46Z</time>
      </trkpt>
      <trkpt lat="42.983800" lon="-0.744050">
        <ele>1483.599</ele>
        <time>2020-07-13T23:55:26Z</time>
      </trkpt>
      <trkpt lat="42.985800" lon="-0.748440">
        <ele>1511.154</ele>
        <time>2020-07-13T23:56:46Z</time>
      </trkpt>
      <trkpt lat="42.986270" lon="-0.752130">
        <ele>1523.166</ele>
        <time>2020-07-13T23:57:06Z</time>
      </trkpt>
      <trkpt lat="42.987100" lon="-0.754240">
        <ele>1537.835</ele>
        <time>2020-07-13T23:57:26Z</time>
      </trkpt>
      <trkpt lat="42.986720" lon="-0.754660">
        <ele>1532.974</ele>
        <time>2020-07-13T23:58:06Z</time>
      </trkpt>
      <trkpt lat="42.989090" lon="-0.757520">
        <ele>1507.644</ele>
        <time>2020-07-13T23:59:26Z</time>
      </trkpt>
      <trkpt lat="42.989340" lon="-0.759690">
        <ele>1488.905</ele>
        <time>2020-07-13T23:59:46Z</time>
      </trkpt>
      <trkpt lat="42.989070" lon="-0.762150">
        <ele>1471.515</ele>
        <time>2020-07-14T00:00:06Z</time>
      </trkpt>
      <trkpt lat="42.989740" lon="-0.765650">
        <ele>1443.508</ele>
        <time>2020-07-14T00:00:26Z</time>
      </trkpt>
      <trkpt lat="42.988120" lon="-0.763850">
        <ele>1422.279</ele>
        <time>2020-07-14T00:01:26Z</time>
      </trkpt>
      <trkpt lat="42.989400" lon="-0.767910">
        <ele>1388.176</ele>
        <time>2020-07-14T00:02:26Z</time>
      </trkpt>
      <trkpt lat="42.990610" lon="-0.769680">
        <ele>1388.461</ele>
        <time>2020-07-14T00:02:46Z</time>
      </trkpt>
      <trkpt lat="42.992520" lon="-0.767990">
        <ele>1357.724</ele>
        <time>2020-07-14T00:03:26Z</time>
      </trkpt>
      <trkpt lat="42.993790" lon="-0.765210">
        <ele>1323.119</ele>
        <time>2020-07-14T00:03:46Z</time>
      </trkpt>
      <trkpt lat="42.994820" lon="-0.760360">
        <ele>1279.491</ele>
        <time>2020-07-14T00:04:26Z</time>
      </trkpt>
      <trkpt lat="42.994810" lon="-0.758700">
        <ele>1267.460</ele>
        <time>2020-07-14T00:05:06Z</time>
      </trkpt>
      <trkpt lat="42.994010" lon="-0.757460">
        <ele>1267.279</ele>
        <time>2020-07-14T00:05:26Z</time>
      </trkpt>
      <trkpt lat="42.996160" lon="-0.758160">
        <ele>1243.671</ele>
        <time>2020-07-14T00:06:06Z</time>
      </trkpt>
      <trkpt lat="42.996590" lon="-0.756330">
        <ele>1231.541</ele>
        <time>2020-07-14T00:06:46Z</time>
      </trkpt>
      <trkpt lat="42.998190" lon="-0.752990">
        <ele>1213.715</ele>
        <time>2020-07-14T00:07:46Z</time>
      </trkpt>
      <trkpt lat="43.000030" lon="-0.758590">
        <ele>1163.508</ele>
        <time>2020-07-14T00:08:46Z</time>
      </trkpt>
      <trkpt lat="43.000190" lon="-0.762800">
        <ele>1119.722</ele>
        <time>2020-07-14T00:09:26Z</time>
      </trkpt>
      <trkpt lat="42.998680" lon="-0.767340">
        <ele>1072.189</ele>
        <time>2020-07-14T00:10:26Z</time>
      </trkpt>
      <trkpt lat="42.998250" lon="-0.773850">
        <ele>1037.074</ele>
        <time>2020-07-14T00:11:06Z</time>
      </trkpt>
      <trkpt lat="42.999120" lon="-0.776140">
        <ele>988.447</ele>
        <time>2020-07-14T00:11:46Z</time>
      </trkpt>
      <trkpt lat="43.000820" lon="-0.775790">
        <ele>979.752</ele>
        <time>2020-07-14T00:12:26Z</time>
      </trkpt>
      <trkpt lat="43.002140" lon="-0.777110">
        <ele>953.314</ele>
        <time>2020-07-14T00:13:06Z</time>
      </trkpt>
      <trkpt lat="43.003070" lon="-0.776980">
        <ele>946.613</ele>
        <time>2020-07-14T00:13:46Z</time>
      </trkpt>
      <trkpt lat="43.003250" lon="-0.777760">
        <ele>946.242</ele>
        <time>2020-07-14T00:14:26Z</time>
      </trkpt>
      <trkpt lat="43.000700" lon="-0.777660">
        <ele>930.695</ele>
        <time>2020-07-14T00:15:06Z</time>
      </trkpt>
      <trkpt lat="42.999440" lon="-0.778320">
        <ele>930.349</ele>
        <time>2020-07-14T00:15:26Z</time>
      </trkpt>
      <trkpt lat="42.998410" lon="-0.777560">
        <ele>930.423</ele>
        <time>2020-07-14T00:16:26Z</time>
      </trkpt>
      <trkpt lat="42.998620" lon="-0.779220">
        <ele>918.508</ele>
        <time>2020-07-14T00:16:46Z</time>
      </trkpt>
      <trkpt lat="42.996300" lon="-0.782410">
        <ele>907.234</ele>
        <time>2020-07-14T00:18:06Z</time>
      </trkpt>
      <trkpt lat="42.995410" lon="-0.782280">
        <ele>910.861</ele>
        <time>2020-07-14T00:18:46Z</time>
      </trkpt>
      <trkpt lat="42.995220" lon="-0.783800">
        <ele>901.796</ele>
        <time>2020-07-14T00:19:26Z</time>
      </trkpt>
      <trkpt lat="42.993180" lon="-0.786070">
        <ele>880.879</ele>
        <time>2020-07-14T00:20:06Z</time>
      </trkpt>
      <trkpt lat="42.991800" lon="-0.786300">
        <ele>870.964</ele>
        <time>2020-07-14T00:20:46Z</time>
      </trkpt>
      <trkpt lat="42.993410" lon="-0.786980">
        <ele>851.676</ele>
        <time>2020-07-14T00:21:46Z</time>
      </trkpt>
      <trkpt lat="42.992740" lon="-0.789810">
        <ele>838.045</ele>
        <time>2020-07-14T00:22:46Z</time>
      </trkpt>
      <trkpt lat="42.993120" lon="-0.794120">
        <ele>801.324</ele>
        <time>2020-07-14T00:23:26Z</time>
      </trkpt>
      <trkpt lat="42.995410" lon="-0.797820">
        <ele>758.994</ele>
        <time>2020-07-14T00:24:46Z</time>
      </trkpt>
      <trkpt lat="42.996470" lon="-0.798580">
        <ele>737.857</ele>
        <time>2020-07-14T00:25:26Z</time>
      </trkpt>
      <trkpt lat="42.996030" lon="-0.799220">
        <ele>732.122</ele>
        <time>2020-07-14T00:26:26Z</time>
      </trkpt>
      <trkpt lat="42.996510" lon="-0.803580">
        <ele>708.208</ele>
        <time>2020-07-14T00:27:06Z</time>
      </trkpt>
      <trkpt lat="42.995920" lon="-0.804660">
        <ele>684.094</ele>
        <time>2020-07-14T00:27:26Z</time>
      </trkpt>
      <trkpt lat="42.996900" lon="-0.807630">
        <ele>666.931</ele>
        <time>2020-07-14T00:28:06Z</time>
      </trkpt>
      <trkpt lat="42.996440" lon="-0.808560">
        <ele>667.786</ele>
        <time>2020-07-14T00:28:26Z</time>
      </trkpt>
      <trkpt lat="42.996190" lon="-0.811430">
        <ele>646.539</ele>
        <time>2020-07-14T00:28:46Z</time>
      </trkpt>
      <trkpt lat="42.995420" lon="-0.812320">
        <ele>636.194</ele>
        <time>2020-07-14T00:29:06Z</time>
      </trkpt>
      <trkpt lat="42.995210" lon="-0.813350">
        <ele>631.436</ele>
        <time>2020-07-14T00:29:26Z</time>
      </trkpt>
      <trkpt lat="42.995590" lon="-0.816330">
        <ele>620.995</ele>
        <time>2020-07-14T00:29:46Z</time>
      </trkpt>
      <trkpt lat="42.996230" lon="-0.817490">
        <ele>621.194</ele>
        <time>2020-07-14T00:30:06Z</time>
      </trkpt>
      <trkpt lat="42.996380" lon="-0.819480">
        <ele>620.525</ele>
        <time>2020-07-14T00:30:26Z</time>
      </trkpt>
      <trkpt lat="42.995940" lon="-0.820350">
        <ele>611.826</ele>
        <time>2020-07-14T00:30:46Z</time>
      </trkpt>
      <trkpt lat="42.996020" lon="-0.821640">
        <ele>601.208</ele>
        <time>2020-07-14T00:31:06Z</time>
      </trkpt>
      <trkpt lat="42.997260" lon="-0.823630">
        <ele>590.808</ele>
        <time>2020-07-14T00:32:06Z</time>
      </trkpt>
      <trkpt lat="42.994760" lon="-0.826470">
        <ele>579.787</ele>
        <time>2020-07-14T00:33:26Z</time>
      </trkpt>
      <trkpt lat="42.993850" lon="-0.826530">
        <ele>569.564</ele>
        <time>2020-07-14T00:33:46Z</time>
      </trkpt>
      <trkpt lat="42.993380" lon="-0.827380">
        <ele>560.239</ele>
        <time>2020-07-14T00:34:06Z</time>
      </trkpt>
      <trkpt lat="42.994840" lon="-0.830360">
        <ele>551.322</ele>
        <time>2020-07-14T00:35:06Z</time>
      </trkpt>
      <trkpt lat="42.994430" lon="-0.832920">
        <ele>539.017</ele>
        <time>2020-07-14T00:35:46Z</time>
      </trkpt>
      <trkpt lat="42.995960" lon="-0.835710">
        <ele>536.549</ele>
        <time>2020-07-14T00:36:46Z</time>
      </trkpt>
      <trkpt lat="42.995850" lon="-0.837170">
        <ele>529.128</ele>
        <time>2020-07-14T00:37:06Z</time>
      </trkpt>
      <trkpt lat="42.997080" lon="-0.838880">
        <ele>511.817</ele>
        <time>2020-07-14T00:37:46Z</time>
      </trkpt>
      <trkpt lat="42.998270" lon="-0.838460">
        <ele>509.684</ele>
        <time>2020-07-14T00:38:06Z</time>
      </trkpt>
      <trkpt lat="42.999200" lon="-0.839000">
        <ele>504.207</ele>
        <time>2020-07-14T00:38:26Z</time>
      </trkpt>
      <trkpt lat="42.998700" lon="-0.841710">
        <ele>490.717</ele>
        <time>2020-07-14T00:39:46Z</time>
      </trkpt>
      <trkpt lat="42.999110" lon="-0.842800">
        <ele>487.408</ele>
        <time>2020-07-14T00:40:06Z</time>
      </trkpt>
      <trkpt lat="43.001130" lon="-0.843460">
        <ele>467.483</ele>
        <time>2020-07-14T00:41:06Z</time>
      </trkpt>
      <trkpt lat="43.001670" lon="-0.845390">
        <ele>464.910</ele>
        <time>2020-07-14T00:41:26Z</time>
      </trkpt>
      <trkpt lat="43.003660" lon="-0.847010">
        <ele>463.685</ele>
        <time>2020-07-14T00:42:06Z</time>
      </trkpt>
      <trkpt lat="43.003990" lon="-0.848780">
        <ele>451.348</ele>
        <time>2020-07-14T00:42:26Z</time>
      </trkpt>
      <trkpt lat="43.005940" lon="-0.849420">
        <ele>439.733</ele>
        <time>2020-07-14T00:42:46Z</time>
      </trkpt>
      <trkpt lat="43.007700" lon="-0.850710">
        <ele>449.875</ele>
        <time>2020-07-14T00:43:06Z</time>
      </trkpt>
      <trkpt lat="43.008030" lon="-0.851700">
        <ele>440.974</ele>
        <time>2020-07-14T00:43:26Z</time>
      </trkpt>
      <trkpt lat="43.012400" lon="-0.853810">
        <ele>428.273</ele>
        <time>2020-07-14T00:44:26Z</time>
      </trkpt>
      <trkpt lat="43.013370" lon="-0.853750">
        <ele>435.934</ele>
        <time>2020-07-14T00:44:46Z</time>
      </trkpt>
      <trkpt lat="43.013900" lon="-0.854320">
        <ele>426.155</ele>
        <time>2020-07-14T00:45:26Z</time>
      </trkpt>
      <trkpt lat="43.013670" lon="-0.854970">
        <ele>429.810</ele>
        <time>2020-07-14T00:45:46Z</time>
      </trkpt>
      <trkpt lat="43.015780" lon="-0.856880">
        <ele>424.508</ele>
        <time>2020-07-14T00:47:26Z</time>
      </trkpt>
      <trkpt lat="43.016500" lon="-0.860210">
        <ele>400.778</ele>
        <time>2020-07-14T00:48:06Z</time>
      </trkpt>
      <trkpt lat="43.018330" lon="-0.863520">
        <ele>398.595</ele>
        <time>2020-07-14T00:48:46Z</time>
      </trkpt>
      <trkpt lat="43.019640" lon="-0.863850">
        <ele>393.260</ele>
        <time>2020-07-14T00:49:26Z</time>
      </trkpt>
      <trkpt lat="43.021640" lon="-0.862330">
        <ele>384.333</ele>
        <time>2020-07-14T00:50:06Z</time>
      </trkpt>
      <trkpt lat="43.023500" lon="-0.862240">
        <ele>376.638</ele>
        <time>2020-07-14T00:51:06Z</time>
      </trkpt>
      <trkpt lat="43.026010" lon="-0.867720">
        <ele>352.770</ele>
        <time>2020-07-14T00:51:46Z</time>
      </trkpt>
      <trkpt lat="43.029050" lon="-0.869940">
        <ele>356.029</ele>
        <time>2020-07-14T00:52:46Z</time>
      </trkpt>
      <trkpt lat="43.030000" lon="-0.869920">
        <ele>350.528</ele>
        <time>2020-07-14T00:53:06Z</time>
      </trkpt>
      <trkpt lat="43.033120" lon="-0.873800">
        <ele>335.961</ele>
        <time>2020-07-14T00:53:46Z</time>
      </trkpt>
      <trkpt lat="43.035010" lon="-0.875110">
        <ele>332.221</ele>
        <time>2020-07-14T00:54:06Z</time>
      </trkpt>
      <trkpt lat="43.036200" lon="-0.877710">
        <ele>322.513</ele>
        <time>2020-07-14T00:55:06Z</time>
      </trkpt>
      <trkpt lat="43.039330" lon="-0.878340">
        <ele>317.108</ele>
        <time>2020-07-14T00:56:06Z</time>
      </trkpt>
      <trkpt lat="43.045000" lon="-0.883820">
        <ele>314.281</ele>
        <time>2020-07-14T00:57:46Z</time>
      </trkpt>
      <trkpt lat="43.047670" lon="-0.884940">
        <ele>312.198</ele>
        <time>2020-07-14T00:58:26Z</time>
      </trkpt>
      <trkpt lat="43.049200" lon="-0.884020">
        <ele>312.123</ele>
        <time>2020-07-14T00:58:46Z</time>
      </trkpt>
      <trkpt lat="43.050190" lon="-0.882290">
        <ele>306.496</ele>
        <time>2020-07-14T00:59:46Z</time>
      </trkpt>
      <trkpt lat="43.049040" lon="-0.885640">
        <ele>288.251</ele>
        <time>2020-07-14T01:01:06Z</time>
      </trkpt>
      <trkpt lat="43.048110" lon="-0.886210">
        <ele>290.163</ele>
        <time>2020-07-14T01:01:26Z</time>
      </trkpt>
      <trkpt lat="43.046960" lon="-0.889460">
        <ele>290.722</ele>
        <time>2020-07-14T01:02:06Z</time>
      </trkpt>
      <trkpt lat="43.044850" lon="-0.890190">
        <ele>291.031</ele>
        <time>2020-07-14T01:03:06Z</time>
      </trkpt>
      <trkpt lat="43.044270" lon="-0.893350">
        <ele>292.536</ele>
        <time>2020-07-14T01:04:06Z</time>
      </trkpt>
      <trkpt lat="43.043220" lon="-0.893870">
        <ele>300.017</ele>
        <time>2020-07-14T01:04:26Z</time>
      </trkpt>
      <trkpt lat="43.041410" lon="-0.897290">
        <ele>311.118</ele>
        <time>2020-07-14T01:04:46Z</time>
      </trkpt>
      <trkpt lat="43.039830" lon="-0.898940">
        <ele>314.208</ele>
        <time>2020-07-14T01:05:46Z</time>
      </trkpt>
      <trkpt lat="43.038980" lon="-0.899130">
        <ele>311.578</ele>
        <time>2020-07-14T01:06:26Z</time>
      </trkpt>
      <trkpt lat="43.038040" lon="-0.901100">
        <ele>310.115</ele>
        <time>2020-07-14T01:07:06Z</time>
      </trkpt>
      <trkpt lat="43.038120" lon="-0.902880">
        <ele>314.590</ele>
        <time>2020-07-14T01:07:26Z</time>
      </trkpt>
      <trkpt lat="43.037570" lon="-0.903820">
        <ele>321.893</ele>
        <time>2020-07-14T01:08:06Z</time>
      </trkpt>
      <trkpt lat="43.035610" lon="-0.904400">
        <ele>320.088</ele>
        <time>2020-07-14T01:08:46Z</time>
      </trkpt>
      <trkpt lat="43.034890" lon="-0.907860">
        <ele>324.220</ele>
        <time>2020-07-14T01:09:26Z</time>
      </trkpt>
      <trkpt lat="43.033250" lon="-0.909960">
        <ele>334.819</ele>
        <time>2020-07-14T01:09:46Z</time>
      </trkpt>
      <trkpt lat="43.032810" lon="-0.911440">
        <ele>332.778</ele>
        <time>2020-07-14T01:10:06Z</time>
      </trkpt>
      <trkpt lat="43.031720" lon="-0.912450">
        <ele>331.874</ele>
        <time>2020-07-14T01:10:26Z</time>
      </trkpt>
      <trkpt lat="43.031450" lon="-0.913410">
        <ele>332.756</ele>
        <time>2020-07-14T01:10:46Z</time>
      </trkpt>
      <trkpt lat="43.030660" lon="-0.913950">
        <ele>338.221</ele>
        <time>2020-07-14T01:11:06Z</time>
      </trkpt>
      <trkpt lat="43.030600" lon="-0.915380">
        <ele>339.408</ele>
        <time>2020-07-14T01:11:26Z</time>
      </trkpt>
      <trkpt lat="43.029770" lon="-0.916500">
        <ele>341.112</ele>
        <time>2020-07-14T01:11:46Z</time>
      </trkpt>
      <trkpt lat="43.029450" lon="-0.919740">
        <ele>345.989</ele>
        <time>2020-07-14T01:12:26Z</time>
      </trkpt>
      <trkpt lat="43.026510" lon="-0.924930">
        <ele>361.174</ele>
        <time>2020-07-14T01:13:26Z</time>
      </trkpt>
      <trkpt lat="43.025820" lon="-0.925320">
        <ele>360.667</ele>
        <time>2020-07-14T01:14:06Z</time>
      </trkpt>
      <trkpt lat="43.022480" lon="-0.923660">
        <ele>360.092</ele>
        <time>2020-07-14T01:15:26Z</time>
      </trkpt>
      <trkpt lat="43.021200" lon="-0.925050">
        <ele>370.524</ele>
        <time>2020-07-14T01:16:06Z</time>
      </trkpt>
      <trkpt lat="43.019530" lon="-0.924900">
        <ele>370.083</ele>
        <time>2020-07-14T01:17:06Z</time>
      </trkpt>
      <trkpt lat="43.019260" lon="-0.926820">
        <ele>375.262</ele>
        <time>2020-07-14T01:17:46Z</time>
      </trkpt>
      <trkpt lat="43.018340" lon="-0.927600">
        <ele>380.051</ele>
        <time>2020-07-14T01:18:26Z</time>
      </trkpt>
      <trkpt lat="43.018630" lon="-0.928730">
        <ele>381.901</ele>
        <time>2020-07-14T01:18:46Z</time>
      </trkpt>
      <trkpt lat="43.018180" lon="-0.929920">
        <ele>397.111</ele>
        <time>2020-07-14T01:19:06Z</time>
      </trkpt>
      <trkpt lat="43.018620" lon="-0.930730">
        <ele>388.908</ele>
        <time>2020-07-14T01:19:26Z</time>
      </trkpt>
      <trkpt lat="43.018480" lon="-0.931680">
        <ele>403.260</ele>
        <time>2020-07-14T01:19:46Z</time>
      </trkpt>
      <trkpt lat="43.018970" lon="-0.932740">
        <ele>410.787</ele>
        <time>2020-07-14T01:20:06Z</time>
      </trkpt>
      <trkpt lat="43.018430" lon="-0.937580">
        <ele>455.692</ele>
        <time>2020-07-14T01:21:26Z</time>
      </trkpt>
      <trkpt lat="43.019270" lon="-0.937950">
        <ele>456.965</ele>
        <time>2020-07-14T01:22:06Z</time>
      </trkpt>
      <trkpt lat="43.019490" lon="-0.940110">
        <ele>483.220</ele>
        <time>2020-07-14T01:22:46Z</time>
      </trkpt>
      <trkpt lat="43.018820" lon="-0.941200">
        <ele>490.522</ele>
        <time>2020-07-14T01:23:06Z</time>
      </trkpt>
      <trkpt lat="43.018960" lon="-0.943640">
        <ele>512.231</ele>
        <time>2020-07-14T01:24:06Z</time>
      </trkpt>
      <trkpt lat="43.019380" lon="-0.944170">
        <ele>519.280</ele>
        <time>2020-07-14T01:24:26Z</time>
      </trkpt>
      <trkpt lat="43.019270" lon="-0.944940">
        <ele>524.288</ele>
        <time>2020-07-14T01:25:06Z</time>
      </trkpt>
      <trkpt lat="43.018520" lon="-0.945540">
        <ele>538.624</ele>
        <time>2020-07-14T01:25:46Z</time>
      </trkpt>
      <trkpt lat="43.018740" lon="-0.946740">
        <ele>549.926</ele>
        <time>2020-07-14T01:26:06Z</time>
      </trkpt>
      <trkpt lat="43.018170" lon="-0.948810">
        <ele>578.108</ele>
        <time>2020-07-14T01:26:26Z</time>
      </trkpt>
      <trkpt lat="43.018480" lon="-0.950820">
        <ele>591.883</ele>
        <time>2020-07-14T01:27:06Z</time>
      </trkpt>
      <trkpt lat="43.017580" lon="-0.951630">
        <ele>606.240</ele>
        <time>2020-07-14T01:27:46Z</time>
      </trkpt>
      <trkpt lat="43.018100" lon="-0.953590">
        <ele>623.115</ele>
        <time>2020-07-14T01:28:06Z</time>
      </trkpt>
      <trkpt lat="43.017640" lon="-0.954650">
        <ele>624.728</ele>
        <time>2020-07-14T01:28:46Z</time>
      </trkpt>
      <trkpt lat="43.018900" lon="-0.955030">
        <ele>623.263</ele>
        <time>2020-07-14T01:29:46Z</time>
      </trkpt>
      <trkpt lat="43.019380" lon="-0.956230">
        <ele>617.145</ele>
        <time>2020-07-14T01:30:26Z</time>
      </trkpt>
      <trkpt lat="43.018870" lon="-0.957680">
        <ele>619.784</ele>
        <time>2020-07-14T01:30:46Z</time>
      </trkpt>
      <trkpt lat="43.018770" lon="-0.960030">
        <ele>637.153</ele>
        <time>2020-07-14T01:31:06Z</time>
      </trkpt>
      <trkpt lat="43.017600" lon="-0.961100">
        <ele>657.843</ele>
        <time>2020-07-14T01:32:06Z</time>
      </trkpt>
      <trkpt lat="43.017850" lon="-0.960340">
        <ele>667.064</ele>
        <time>2020-07-14T01:32:46Z</time>
      </trkpt>
      <trkpt lat="43.017480" lon="-0.958990">
        <ele>679.910</ele>
        <time>2020-07-14T01:33:46Z</time>
      </trkpt>
      <trkpt lat="43.016440" lon="-0.959570">
        <ele>694.308</ele>
        <time>2020-07-14T01:34:26Z</time>
      </trkpt>
      <trkpt lat="43.016170" lon="-0.960540">
        <ele>695.959</ele>
        <time>2020-07-14T01:34:46Z</time>
      </trkpt>
      <trkpt lat="43.014770" lon="-0.961300">
        <ele>716.086</ele>
        <time>2020-07-14T01:35:06Z</time>
      </trkpt>
      <trkpt lat="43.015980" lon="-0.962910">
        <ele>718.811</ele>
        <time>2020-07-14T01:35:26Z</time>
      </trkpt>
      <trkpt lat="43.015520" lon="-0.964810">
        <ele>742.274</ele>
        <time>2020-07-14T01:35:46Z</time>
      </trkpt>
      <trkpt lat="43.015850" lon="-0.967490">
        <ele>751.019</ele>
        <time>2020-07-14T01:36:26Z</time>
      </trkpt>
      <trkpt lat="43.015140" lon="-0.965880">
        <ele>771.781</ele>
        <time>2020-07-14T01:37:26Z</time>
      </trkpt>
      <trkpt lat="43.013510" lon="-0.964800">
        <ele>793.210</ele>
        <time>2020-07-14T01:38:06Z</time>
      </trkpt>
      <trkpt lat="43.013070" lon="-0.963380">
        <ele>809.579</ele>
        <time>2020-07-14T01:38:46Z</time>
      </trkpt>
      <trkpt lat="43.012350" lon="-0.965220">
        <ele>828.621</ele>
        <time>2020-07-14T01:39:26Z</time>
      </trkpt>
      <trkpt lat="43.011580" lon="-0.965240">
        <ele>837.741</ele>
        <time>2020-07-14T01:39:46Z</time>
      </trkpt>
      <trkpt lat="43.010740" lon="-0.964070">
        <ele>856.005</ele>
        <time>2020-07-14T01:40:46Z</time>
      </trkpt>
      <trkpt lat="43.010280" lon="-0.966120">
        <ele>855.608</ele>
        <time>2020-07-14T01:41:06Z</time>
      </trkpt>
      <trkpt lat="43.009160" lon="-0.966750">
        <ele>867.117</ele>
        <time>2020-07-14T01:41:26Z</time>
      </trkpt>
      <trkpt lat="43.010210" lon="-0.967900">
        <ele>879.854</ele>
        <time>2020-07-14T01:42:26Z</time>
      </trkpt>
      <trkpt lat="43.008310" lon="-0.968150">
        <ele>908.159</ele>
        <time>2020-07-14T01:43:46Z</time>
      </trkpt>
      <trkpt lat="43.008470" lon="-0.967350">
        <ele>909.592</ele>
        <time>2020-07-14T01:44:06Z</time>
      </trkpt>
      <trkpt lat="43.007900" lon="-0.967600">
        <ele>923.287</ele>
        <time>2020-07-14T01:44:26Z</time>
      </trkpt>
      <trkpt lat="43.007930" lon="-0.966980">
        <ele>928.139</ele>
        <time>2020-07-14T01:44:46Z</time>
      </trkpt>
      <trkpt lat="43.007300" lon="-0.967190">
        <ele>940.058</ele>
        <time>2020-07-14T01:45:26Z</time>
      </trkpt>
      <trkpt lat="43.007050" lon="-0.968140">
        <ele>943.547</ele>
        <time>2020-07-14T01:45:46Z</time>
      </trkpt>
      <trkpt lat="43.005710" lon="-0.968650">
        <ele>968.476</ele>
        <time>2020-07-14T01:46:26Z</time>
      </trkpt>
      <trkpt lat="43.006050" lon="-0.970750">
        <ele>983.390</ele>
        <time>2020-07-14T01:47:26Z</time>
      </trkpt>
      <trkpt lat="43.005760" lon="-0.971630">
        <ele>1004.519</ele>
        <time>2020-07-14T01:47:46Z</time>
      </trkpt>
      <trkpt lat="43.006300" lon="-0.972610">
        <ele>1007.008</ele>
        <time>2020-07-14T01:48:26Z</time>
      </trkpt>
      <trkpt lat="43.006480" lon="-0.979300">
        <ele>1061.362</ele>
        <time>2020-07-14T01:49:46Z</time>
      </trkpt>
      <trkpt lat="43.005780" lon="-0.980370">
        <ele>1084.639</ele>
        <time>2020-07-14T01:50:06Z</time>
      </trkpt>
      <trkpt lat="43.004740" lon="-0.984130">
        <ele>1119.694</ele>
        <time>2020-07-14T01:50:46Z</time>
      </trkpt>
      <trkpt lat="43.004780" lon="-0.985250">
        <ele>1138.737</ele>
        <time>2020-07-14T01:51:26Z</time>
      </trkpt>
      <trkpt lat="43.006480" lon="-0.988270">
        <ele>1167.332</ele>
        <time>2020-07-14T01:52:46Z</time>
      </trkpt>
      <trkpt lat="43.005570" lon="-0.989330">
        <ele>1176.894</ele>
        <time>2020-07-14T01:53:26Z</time>
      </trkpt>
      <trkpt lat="43.003650" lon="-0.989980">
        <ele>1212.073</ele>
        <time>2020-07-14T01:54:26Z</time>
      </trkpt>
      <trkpt lat="43.000180" lon="-0.988330">
        <ele>1269.432</ele>
        <time>2020-07-14T01:56:06Z</time>
      </trkpt>
      <trkpt lat="43.002280" lon="-0.988100">
        <ele>1277.051</ele>
        <time>2020-07-14T01:56:46Z</time>
      </trkpt>
      <trkpt lat="43.002900" lon="-0.987230">
        <ele>1284.401</ele>
        <time>2020-07-14T01:57:26Z</time>
      </trkpt>
      <trkpt lat="43.001890" lon="-0.987630">
        <ele>1295.911</ele>
        <time>2020-07-14T01:58:26Z</time>
      </trkpt>
      <trkpt lat="42.999950" lon="-0.986350">
        <ele>1329.708</ele>
        <time>2020-07-14T01:58:46Z</time>
      </trkpt>
      <trkpt lat="42.997530" lon="-0.986010">
        <ele>1366.230</ele>
        <time>2020-07-14T01:59:26Z</time>
      </trkpt>
      <trkpt lat="42.996850" lon="-0.987200">
        <ele>1364.597</ele>
        <time>2020-07-14T02:00:06Z</time>
      </trkpt>
      <trkpt lat="42.994790" lon="-0.986550">
        <ele>1354.692</ele>
        <time>2020-07-14T02:00:26Z</time>
      </trkpt>
      <trkpt lat="42.993360" lon="-0.987010">
        <ele>1353.585</ele>
        <time>2020-07-14T02:01:06Z</time>
      </trkpt>
      <trkpt lat="42.993030" lon="-0.987920">
        <ele>1355.060</ele>
        <time>2020-07-14T02:01:46Z</time>
      </trkpt>
      <trkpt lat="42.992050" lon="-0.986990">
        <ele>1352.542</ele>
        <time>2020-07-14T02:02:06Z</time>
      </trkpt>
      <trkpt lat="42.991420" lon="-0.985300">
        <ele>1357.311</ele>
        <time>2020-07-14T02:02:26Z</time>
      </trkpt>
      <trkpt lat="42.989310" lon="-0.984510">
        <ele>1376.790</ele>
        <time>2020-07-14T02:03:06Z</time>
      </trkpt>
      <trkpt lat="42.987840" lon="-0.989120">
        <ele>1378.266</ele>
        <time>2020-07-14T02:04:06Z</time>
      </trkpt>
      <trkpt lat="42.987340" lon="-0.989430">
        <ele>1378.329</ele>
        <time>2020-07-14T02:04:26Z</time>
      </trkpt>
      <trkpt lat="42.986550" lon="-0.991360">
        <ele>1387.121</ele>
        <time>2020-07-14T02:04:46Z</time>
      </trkpt>
      <trkpt lat="42.985450" lon="-0.991600">
        <ele>1390.108</ele>
        <time>2020-07-14T02:05:26Z</time>
      </trkpt>
      <trkpt lat="42.984630" lon="-0.990460">
        <ele>1386.821</ele>
        <time>2020-07-14T02:06:06Z</time>
      </trkpt>
      <trkpt lat="42.984140" lon="-0.988520">
        <ele>1386.348</ele>
        <time>2020-07-14T02:06:46Z</time>
      </trkpt>
      <trkpt lat="42.983570" lon="-0.988160">
        <ele>1397.573</ele>
        <time>2020-07-14T02:07:06Z</time>
      </trkpt>
      <trkpt lat="42.981400" lon="-0.988740">
        <ele>1396.236</ele>
        <time>2020-07-14T02:07:46Z</time>
      </trkpt>
      <trkpt lat="42.979600" lon="-0.990540">
        <ele>1411.491</ele>
        <time>2020-07-14T02:08:06Z</time>
      </trkpt>
      <trkpt lat="42.978060" lon="-0.993090">
        <ele>1433.393</ele>
        <time>2020-07-14T02:09:06Z</time>
      </trkpt>
      <trkpt lat="42.975350" lon="-0.990200">
        <ele>1469.442</ele>
        <time>2020-07-14T02:10:06Z</time>
      </trkpt>
      <trkpt lat="42.975850" lon="-0.991910">
        <ele>1482.941</ele>
        <time>2020-07-14T02:10:26Z</time>
      </trkpt>
      <trkpt lat="42.975840" lon="-0.993750">
        <ele>1504.913</ele>
        <time>2020-07-14T02:11:26Z</time>
      </trkpt>
      <trkpt lat="42.973940" lon="-0.989930">
        <ele>1540.243</ele>
        <time>2020-07-14T02:12:06Z</time>
      </trkpt>
      <trkpt lat="42.974260" lon="-0.998040">
        <ele>1573.107</ele>
        <time>2020-07-14T02:13:46Z</time>
      </trkpt>
      <trkpt lat="42.973300" lon="-1.000600">
        <ele>1574.408</ele>
        <time>2020-07-14T02:14:46Z</time>
      </trkpt>
      <trkpt lat="42.977110" lon="-1.005780">
        <ele>1543.196</ele>
        <time>2020-07-14T02:15:46Z</time>
      </trkpt>
      <trkpt lat="42.974310" lon="-1.003790">
        <ele>1520.323</ele>
        <time>2020-07-14T02:17:26Z</time>
      </trkpt>
      <trkpt lat="42.972900" lon="-1.005370">
        <ele>1499.738</ele>
        <time>2020-07-14T02:18:06Z</time>
      </trkpt>
      <trkpt lat="42.969000" lon="-1.006770">
        <ele>1468.841</ele>
        <time>2020-07-14T02:19:06Z</time>
      </trkpt>
      <trkpt lat="42.967340" lon="-1.008920">
        <ele>1444.546</ele>
        <time>2020-07-14T02:19:46Z</time>
      </trkpt>
      <trkpt lat="42.966750" lon="-1.007560">
        <ele>1444.218</ele>
        <time>2020-07-14T02:20:06Z</time>
      </trkpt>
      <trkpt lat="42.964910" lon="-1.006500">
        <ele>1430.367</ele>
        <time>2020-07-14T02:21:06Z</time>
      </trkpt>
      <trkpt lat="42.962250" lon="-1.006390">
        <ele>1405.086</ele>
        <time>2020-07-14T02:21:26Z</time>
      </trkpt>
      <trkpt lat="42.961170" lon="-1.007380">
        <ele>1391.897</ele>
        <time>2020-07-14T02:22:06Z</time>
      </trkpt>
      <trkpt lat="42.959740" lon="-1.010900">
        <ele>1373.923</ele>
        <time>2020-07-14T02:22:46Z</time>
      </trkpt>
      <trkpt lat="42.958110" lon="-1.011550">
        <ele>1362.125</ele>
        <time>2020-07-14T02:23:26Z</time>
      </trkpt>
      <trkpt lat="42.956980" lon="-1.012790">
        <ele>1351.908</ele>
        <time>2020-07-14T02:23:46Z</time>
      </trkpt>
      <trkpt lat="42.956330" lon="-1.015130">
        <ele>1338.074</ele>
        <time>2020-07-14T02:24:06Z</time>
      </trkpt>
      <trkpt lat="42.953640" lon="-1.012150">
        <ele>1310.561</ele>
        <time>2020-07-14T02:25:06Z</time>
      </trkpt>
      <trkpt lat="42.951450" lon="-1.012380">
        <ele>1294.236</ele>
        <time>2020-07-14T02:26:06Z</time>
      </trkpt>
      <trkpt lat="42.950420" lon="-1.011560">
        <ele>1284.349</ele>
        <time>2020-07-14T02:26:46Z</time>
      </trkpt>
      <trkpt lat="42.949490" lon="-1.009130">
        <ele>1271.154</ele>
        <time>2020-07-14T02:27:06Z</time>
      </trkpt>
      <trkpt lat="42.948470" lon="-1.008730">
        <ele>1263.726</ele>
        <time>2020-07-14T02:27:46Z</time>
      </trkpt>
      <trkpt lat="42.946500" lon="-1.009540">
        <ele>1250.455</ele>
        <time>2020-07-14T02:28:26Z</time>
      </trkpt>
      <trkpt lat="42.945910" lon="-1.007860">
        <ele>1238.124</ele>
        <time>2020-07-14T02:29:26Z</time>
      </trkpt>
      <trkpt lat="42.942830" lon="-1.006610">
        <ele>1215.691</ele>
        <time>2020-07-14T02:30:06Z</time>
      </trkpt>
      <trkpt lat="42.939220" lon="-1.007580">
        <ele>1185.381</ele>
        <time>2020-07-14T02:31:26Z</time>
      </trkpt>
      <trkpt lat="42.940480" lon="-1.006310">
        <ele>1172.219</ele>
        <time>2020-07-14T02:32:06Z</time>
      </trkpt>
      <trkpt lat="42.942860" lon="-1.001980">
        <ele>1140.308</ele>
        <time>2020-07-14T02:33:26Z</time>
      </trkpt>
      <trkpt lat="42.942970" lon="-0.998620">
        <ele>1115.664</ele>
        <time>2020-07-14T02:34:26Z</time>
      </trkpt>
      <trkpt lat="42.941620" lon="-0.996190">
        <ele>1097.471</ele>
        <time>2020-07-14T02:35:46Z</time>
      </trkpt>
      <trkpt lat="42.943890" lon="-0.995930">
        <ele>1082.776</ele>
        <time>2020-07-14T02:36:26Z</time>
      </trkpt>
      <trkpt lat="42.945100" lon="-0.996690">
        <ele>1072.869</ele>
        <time>2020-07-14T02:37:06Z</time>
      </trkpt>
      <trkpt lat="42.944260" lon="-0.995480">
        <ele>1062.834</ele>
        <time>2020-07-14T02:37:46Z</time>
      </trkpt>
      <trkpt lat="42.942790" lon="-0.995290">
        <ele>1051.726</ele>
        <time>2020-07-14T02:38:26Z</time>
      </trkpt>
      <trkpt lat="42.941860" lon="-0.994270">
        <ele>1039.385</ele>
        <time>2020-07-14T02:39:06Z</time>
      </trkpt>
      <trkpt lat="42.939550" lon="-0.994360">
        <ele>1020.094</ele>
        <time>2020-07-14T02:39:46Z</time>
      </trkpt>
      <trkpt lat="42.937710" lon="-0.995180">
        <ele>1003.331</ele>
        <time>2020-07-14T02:40:06Z</time>
      </trkpt>
      <trkpt lat="42.937540" lon="-0.995780">
        <ele>1001.161</ele>
        <time>2020-07-14T02:40:26Z</time>
      </trkpt>
      <trkpt lat="42.938510" lon="-0.998310">
        <ele>981.907</ele>
        <time>2020-07-14T02:41:46Z</time>
      </trkpt>
      <trkpt lat="42.936090" lon="-0.997420">
        <ele>960.608</ele>
        <time>2020-07-14T02:42:26Z</time>
      </trkpt>
      <trkpt lat="42.936500" lon="-0.998690">
        <ele>956.018</ele>
        <time>2020-07-14T02:43:26Z</time>
      </trkpt>
      <trkpt lat="42.934080" lon="-0.999470">
        <ele>934.825</ele>
        <time>2020-07-14T02:44:26Z</time>
      </trkpt>
      <trkpt lat="42.933170" lon="-1.001270">
        <ele>925.470</ele>
        <time>2020-07-14T02:44:46Z</time>
      </trkpt>
      <trkpt lat="42.929260" lon="-1.005200">
        <ele>896.363</ele>
        <time>2020-07-14T02:46:06Z</time>
      </trkpt>
      <trkpt lat="42.922620" lon="-1.009970">
        <ele>883.198</ele>
        <time>2020-07-14T02:48:06Z</time>
      </trkpt>
      <trkpt lat="42.921880" lon="-1.011250">
        <ele>881.920</ele>
        <time>2020-07-14T02:48:26Z</time>
      </trkpt>
      <trkpt lat="42.920630" lon="-1.012180">
        <ele>877.129</ele>
        <time>2020-07-14T02:48:46Z</time>
      </trkpt>
      <trkpt lat="42.920560" lon="-1.013070">
        <ele>878.188</ele>
        <time>2020-07-14T02:49:26Z</time>
      </trkpt>
      <trkpt lat="42.921640" lon="-1.015300">
        <ele>874.032</ele>
        <time>2020-07-14T02:49:46Z</time>
      </trkpt>
      <trkpt lat="42.921890" lon="-1.016880">
        <ele>868.992</ele>
        <time>2020-07-14T02:50:06Z</time>
      </trkpt>
      <trkpt lat="42.920450" lon="-1.020010">
        <ele>861.911</ele>
        <time>2020-07-14T02:50:26Z</time>
      </trkpt>
      <trkpt lat="42.920000" lon="-1.023830">
        <ele>861.008</ele>
        <time>2020-07-14T02:50:46Z</time>
      </trkpt>
      <trkpt lat="42.918490" lon="-1.028290">
        <ele>849.718</ele>
        <time>2020-07-14T02:51:06Z</time>
      </trkpt>
      <trkpt lat="42.916950" lon="-1.029430">
        <ele>846.735</ele>
        <time>2020-07-14T02:51:46Z</time>
      </trkpt>
      <trkpt lat="42.916980" lon="-1.033730">
        <ele>838.350</ele>
        <time>2020-07-14T02:52:46Z</time>
      </trkpt>
      <trkpt lat="42.915860" lon="-1.038000">
        <ele>827.023</ele>
        <time>2020-07-14T02:53:26Z</time>
      </trkpt>
      <trkpt lat="42.916000" lon="-1.040710">
        <ele>825.488</ele>
        <time>2020-07-14T02:53:46Z</time>
      </trkpt>
      <trkpt lat="42.917260" lon="-1.044690">
        <ele>820.150</ele>
        <time>2020-07-14T02:54:26Z</time>
      </trkpt>
      <trkpt lat="42.916330" lon="-1.049160">
        <ele>820.179</ele>
        <time>2020-07-14T02:54:46Z</time>
      </trkpt>
      <trkpt lat="42.913700" lon="-1.053590">
        <ele>802.618</ele>
        <time>2020-07-14T02:55:46Z</time>
      </trkpt>
      <trkpt lat="42.913710" lon="-1.057570">
        <ele>797.143</ele>
        <time>2020-07-14T02:56:26Z</time>
      </trkpt>
      <trkpt lat="42.914800" lon="-1.060660">
        <ele>795.764</ele>
        <time>2020-07-14T02:57:06Z</time>
      </trkpt>
      <trkpt lat="42.915080" lon="-1.064350">
        <ele>793.910</ele>
        <time>2020-07-14T02:57:46Z</time>
      </trkpt>
      <trkpt lat="42.914460" lon="-1.075890">
        <ele>780.908</ele>
        <time>2020-07-14T02:59:26Z</time>
      </trkpt>
      <trkpt lat="42.912240" lon="-1.078700">
        <ele>775.389</ele>
        <time>2020-07-14T03:00:46Z</time>
      </trkpt>
      <trkpt lat="42.910600" lon="-1.084260">
        <ele>772.386</ele>
        <time>2020-07-14T03:01:26Z</time>
      </trkpt>
      <trkpt lat="42.906110" lon="-1.088950">
        <ele>755.241</ele>
        <time>2020-07-14T03:02:26Z</time>
      </trkpt>
      <trkpt lat="42.905540" lon="-1.090130">
        <ele>755.864</ele>
        <time>2020-07-14T03:03:06Z</time>
      </trkpt>
      <trkpt lat="42.905540" lon="-1.090130">
        <ele>755.899</ele>
        <time>2020-07-13T21:18:02Z</time>
      </trkpt>
      <trkpt lat="42.906110" lon="-1.088950">
        <ele>755.207</ele>
        <time>2020-07-13T21:18:42Z</time>
      </trkpt>
      <trkpt lat="42.910600" lon="-1.084260">
        <ele>772.327</ele>
        <time>2020-07-13T21:19:42Z</time>
      </trkpt>
      <trkpt lat="42.911270" lon="-1.082900">
        <ele>770.408</ele>
        <time>2020-07-13T21:20:02Z</time>
      </trkpt>
      <trkpt lat="42.912240" lon="-1.078700">
        <ele>775.364</ele>
        <time>2020-07-13T21:20:22Z</time>
      </trkpt>
      <trkpt lat="42.914460" lon="-1.075890">
        <ele>780.981</ele>
        <time>2020-07-13T21:21:42Z</time>
      </trkpt>
      <trkpt lat="42.914990" lon="-1.069540">
        <ele>785.996</ele>
        <time>2020-07-13T21:22:42Z</time>
      </trkpt>
      <trkpt lat="42.914820" lon="-1.066190">
        <ele>794.659</ele>
        <time>2020-07-13T21:23:02Z</time>
      </trkpt>
      <trkpt lat="42.915080" lon="-1.064350">
        <ele>793.964</ele>
        <time>2020-07-13T21:23:22Z</time>
      </trkpt>
      <trkpt lat="42.914800" lon="-1.060660">
        <ele>795.716</ele>
        <time>2020-07-13T21:24:02Z</time>
      </trkpt>
      <trkpt lat="42.913710" lon="-1.057570">
        <ele>797.127</ele>
        <time>2020-07-13T21:24:42Z</time>
      </trkpt>
      <trkpt lat="42.913700" lon="-1.053590">
        <ele>802.646</ele>
        <time>2020-07-13T21:25:22Z</time>
      </trkpt>
      <trkpt lat="42.916330" lon="-1.049160">
        <ele>820.193</ele>
        <time>2020-07-13T21:26:22Z</time>
      </trkpt>
      <trkpt lat="42.917260" lon="-1.044690">
        <ele>820.165</ele>
        <time>2020-07-13T21:26:42Z</time>
      </trkpt>
      <trkpt lat="42.916000" lon="-1.040710">
        <ele>825.421</ele>
        <time>2020-07-13T21:27:22Z</time>
      </trkpt>
      <trkpt lat="42.915860" lon="-1.038000">
        <ele>827.008</ele>
        <time>2020-07-13T21:27:42Z</time>
      </trkpt>
      <trkpt lat="42.916980" lon="-1.033730">
        <ele>838.314</ele>
        <time>2020-07-13T21:28:22Z</time>
      </trkpt>
      <trkpt lat="42.916950" lon="-1.029430">
        <ele>846.791</ele>
        <time>2020-07-13T21:29:22Z</time>
      </trkpt>
      <trkpt lat="42.918490" lon="-1.028290">
        <ele>849.796</ele>
        <time>2020-07-13T21:30:02Z</time>
      </trkpt>
      <trkpt lat="42.920000" lon="-1.023830">
        <ele>861.099</ele>
        <time>2020-07-13T21:30:22Z</time>
      </trkpt>
      <trkpt lat="42.920450" lon="-1.020010">
        <ele>861.954</ele>
        <time>2020-07-13T21:30:42Z</time>
      </trkpt>
      <trkpt lat="42.921890" lon="-1.016880">
        <ele>868.996</ele>
        <time>2020-07-13T21:31:02Z</time>
      </trkpt>
      <trkpt lat="42.920520" lon="-1.012440">
        <ele>877.687</ele>
        <time>2020-07-13T21:32:02Z</time>
      </trkpt>
      <trkpt lat="42.921880" lon="-1.011250">
        <ele>881.976</ele>
        <time>2020-07-13T21:32:42Z</time>
      </trkpt>
      <trkpt lat="42.922620" lon="-1.009970">
        <ele>883.198</ele>
        <time>2020-07-13T21:33:02Z</time>
      </trkpt>
      <trkpt lat="42.929260" lon="-1.005200">
        <ele>896.315</ele>
        <time>2020-07-13T21:35:02Z</time>
      </trkpt>
      <trkpt lat="42.930580" lon="-1.003640">
        <ele>902.226</ele>
        <time>2020-07-13T21:35:22Z</time>
      </trkpt>
      <trkpt lat="42.931320" lon="-1.003370">
        <ele>907.408</ele>
        <time>2020-07-13T21:35:42Z</time>
      </trkpt>
      <trkpt lat="42.933170" lon="-1.001270">
        <ele>925.434</ele>
        <time>2020-07-13T21:36:22Z</time>
      </trkpt>
      <trkpt lat="42.934080" lon="-0.999470">
        <ele>934.821</ele>
        <time>2020-07-13T21:36:42Z</time>
      </trkpt>
      <trkpt lat="42.936500" lon="-0.998690">
        <ele>956.046</ele>
        <time>2020-07-13T21:37:42Z</time>
      </trkpt>
      <trkpt lat="42.936090" lon="-0.997420">
        <ele>960.679</ele>
        <time>2020-07-13T21:38:42Z</time>
      </trkpt>
      <trkpt lat="42.938510" lon="-0.998310">
        <ele>981.944</ele>
        <time>2020-07-13T21:39:22Z</time>
      </trkpt>
      <trkpt lat="42.937560" lon="-0.995850">
        <ele>1001.146</ele>
        <time>2020-07-13T21:40:42Z</time>
      </trkpt>
      <trkpt lat="42.937710" lon="-0.995180">
        <ele>1003.347</ele>
        <time>2020-07-13T21:41:22Z</time>
      </trkpt>
      <trkpt lat="42.939550" lon="-0.994360">
        <ele>1020.066</ele>
        <time>2020-07-13T21:41:42Z</time>
      </trkpt>
      <trkpt lat="42.942080" lon="-0.994340">
        <ele>1040.634</ele>
        <time>2020-07-13T21:42:42Z</time>
      </trkpt>
      <trkpt lat="42.942790" lon="-0.995290">
        <ele>1051.755</ele>
        <time>2020-07-13T21:43:02Z</time>
      </trkpt>
      <trkpt lat="42.944260" lon="-0.995480">
        <ele>1062.810</ele>
        <time>2020-07-13T21:43:42Z</time>
      </trkpt>
      <trkpt lat="42.945110" lon="-0.996630">
        <ele>1071.508</ele>
        <time>2020-07-13T21:44:02Z</time>
      </trkpt>
      <trkpt lat="42.943890" lon="-0.995930">
        <ele>1082.758</ele>
        <time>2020-07-13T21:45:02Z</time>
      </trkpt>
      <trkpt lat="42.941620" lon="-0.996190">
        <ele>1097.485</ele>
        <time>2020-07-13T21:45:42Z</time>
      </trkpt>
      <trkpt lat="42.942970" lon="-0.998620">
        <ele>1115.660</ele>
        <time>2020-07-13T21:47:02Z</time>
      </trkpt>
      <trkpt lat="42.942860" lon="-1.001980">
        <ele>1140.343</ele>
        <time>2020-07-13T21:48:02Z</time>
      </trkpt>
      <trkpt lat="42.940480" lon="-1.006310">
        <ele>1172.218</ele>
        <time>2020-07-13T21:49:22Z</time>
      </trkpt>
      <trkpt lat="42.939220" lon="-1.007580">
        <ele>1185.320</ele>
        <time>2020-07-13T21:50:02Z</time>
      </trkpt>
      <trkpt lat="42.942830" lon="-1.006610">
        <ele>1215.681</ele>
        <time>2020-07-13T21:51:22Z</time>
      </trkpt>
      <trkpt lat="42.945910" lon="-1.007860">
        <ele>1238.160</ele>
        <time>2020-07-13T21:52:02Z</time>
      </trkpt>
      <trkpt lat="42.946500" lon="-1.009540">
        <ele>1250.468</ele>
        <time>2020-07-13T21:53:02Z</time>
      </trkpt>
      <trkpt lat="42.948470" lon="-1.008730">
        <ele>1263.742</ele>
        <time>2020-07-13T21:53:42Z</time>
      </trkpt>
      <trkpt lat="42.949490" lon="-1.009130">
        <ele>1271.126</ele>
        <time>2020-07-13T21:54:22Z</time>
      </trkpt>
      <trkpt lat="42.950420" lon="-1.011560">
        <ele>1284.308</ele>
        <time>2020-07-13T21:54:42Z</time>
      </trkpt>
      <trkpt lat="42.951450" lon="-1.012380">
        <ele>1294.281</ele>
        <time>2020-07-13T21:55:22Z</time>
      </trkpt>
      <trkpt lat="42.953640" lon="-1.012150">
        <ele>1310.568</ele>
        <time>2020-07-13T21:56:22Z</time>
      </trkpt>
      <trkpt lat="42.956280" lon="-1.015140">
        <ele>1337.083</ele>
        <time>2020-07-13T21:57:22Z</time>
      </trkpt>
      <trkpt lat="42.956980" lon="-1.012790">
        <ele>1351.956</ele>
        <time>2020-07-13T21:58:22Z</time>
      </trkpt>
      <trkpt lat="42.958110" lon="-1.011550">
        <ele>1362.191</ele>
        <time>2020-07-13T21:58:42Z</time>
      </trkpt>
      <trkpt lat="42.959740" lon="-1.010900">
        <ele>1373.933</ele>
        <time>2020-07-13T21:59:22Z</time>
      </trkpt>
      <trkpt lat="42.961170" lon="-1.007380">
        <ele>1391.864</ele>
        <time>2020-07-13T22:00:02Z</time>
      </trkpt>
      <trkpt lat="42.962250" lon="-1.006390">
        <ele>1405.073</ele>
        <time>2020-07-13T22:00:42Z</time>
      </trkpt>
      <trkpt lat="42.964910" lon="-1.006500">
        <ele>1430.316</ele>
        <time>2020-07-13T22:01:02Z</time>
      </trkpt>
      <trkpt lat="42.966750" lon="-1.007560">
        <ele>1444.276</ele>
        <time>2020-07-13T22:02:02Z</time>
      </trkpt>
      <trkpt lat="42.967340" lon="-1.008920">
        <ele>1444.513</ele>
        <time>2020-07-13T22:02:22Z</time>
      </trkpt>
      <trkpt lat="42.969000" lon="-1.006770">
        <ele>1468.808</ele>
        <time>2020-07-13T22:03:02Z</time>
      </trkpt>
      <trkpt lat="42.972900" lon="-1.005370">
        <ele>1499.746</ele>
        <time>2020-07-13T22:04:02Z</time>
      </trkpt>
      <trkpt lat="42.974310" lon="-1.003790">
        <ele>1520.313</ele>
        <time>2020-07-13T22:04:42Z</time>
      </trkpt>
      <trkpt lat="42.976630" lon="-1.005110">
        <ele>1539.998</ele>
        <time>2020-07-13T22:05:42Z</time>
      </trkpt>
      <trkpt lat="42.977060" lon="-1.005830">
        <ele>1541.391</ele>
        <time>2020-07-13T22:06:22Z</time>
      </trkpt>
      <trkpt lat="42.976660" lon="-1.004800">
        <ele>1547.956</ele>
        <time>2020-07-13T22:07:02Z</time>
      </trkpt>
      <trkpt lat="42.973300" lon="-1.000600">
        <ele>1574.448</ele>
        <time>2020-07-13T22:07:42Z</time>
      </trkpt>
      <trkpt lat="42.974260" lon="-0.998040">
        <ele>1573.149</ele>
        <time>2020-07-13T22:08:42Z</time>
      </trkpt>
      <trkpt lat="42.974240" lon="-0.991370">
        <ele>1552.758</ele>
        <time>2020-07-13T22:10:02Z</time>
      </trkpt>
      <trkpt lat="42.973930" lon="-0.989940">
        <ele>1540.959</ele>
        <time>2020-07-13T22:10:22Z</time>
      </trkpt>
      <trkpt lat="42.975840" lon="-0.993750">
        <ele>1504.903</ele>
        <time>2020-07-13T22:11:22Z</time>
      </trkpt>
      <trkpt lat="42.975610" lon="-0.992790">
        <ele>1493.823</ele>
        <time>2020-07-13T22:12:02Z</time>
      </trkpt>
      <trkpt lat="42.975850" lon="-0.991910">
        <ele>1482.908</ele>
        <time>2020-07-13T22:12:22Z</time>
      </trkpt>
      <trkpt lat="42.975350" lon="-0.990200">
        <ele>1469.470</ele>
        <time>2020-07-13T22:12:42Z</time>
      </trkpt>
      <trkpt lat="42.978060" lon="-0.993090">
        <ele>1433.347</ele>
        <time>2020-07-13T22:13:42Z</time>
      </trkpt>
      <trkpt lat="42.979190" lon="-0.991730">
        <ele>1420.812</ele>
        <time>2020-07-13T22:14:22Z</time>
      </trkpt>
      <trkpt lat="42.979600" lon="-0.990540">
        <ele>1411.445</ele>
        <time>2020-07-13T22:14:42Z</time>
      </trkpt>
      <trkpt lat="42.981400" lon="-0.988740">
        <ele>1396.290</ele>
        <time>2020-07-13T22:15:02Z</time>
      </trkpt>
      <trkpt lat="42.983570" lon="-0.988160">
        <ele>1397.572</ele>
        <time>2020-07-13T22:15:42Z</time>
      </trkpt>
      <trkpt lat="42.984140" lon="-0.988520">
        <ele>1386.383</ele>
        <time>2020-07-13T22:16:02Z</time>
      </trkpt>
      <trkpt lat="42.984630" lon="-0.990460">
        <ele>1386.862</ele>
        <time>2020-07-13T22:16:42Z</time>
      </trkpt>
      <trkpt lat="42.985450" lon="-0.991600">
        <ele>1390.188</ele>
        <time>2020-07-13T22:17:22Z</time>
      </trkpt>
      <trkpt lat="42.986550" lon="-0.991360">
        <ele>1387.124</ele>
        <time>2020-07-13T22:18:02Z</time>
      </trkpt>
      <trkpt lat="42.987340" lon="-0.989430">
        <ele>1378.326</ele>
        <time>2020-07-13T22:18:22Z</time>
      </trkpt>
      <trkpt lat="42.987840" lon="-0.989120">
        <ele>1378.208</ele>
        <time>2020-07-13T22:18:42Z</time>
      </trkpt>
      <trkpt lat="42.989310" lon="-0.984510">
        <ele>1376.743</ele>
        <time>2020-07-13T22:19:42Z</time>
      </trkpt>
      <trkpt lat="42.989680" lon="-0.984310">
        <ele>1375.470</ele>
        <time>2020-07-13T22:20:02Z</time>
      </trkpt>
      <trkpt lat="42.991420" lon="-0.985300">
        <ele>1357.335</ele>
        <time>2020-07-13T22:20:22Z</time>
      </trkpt>
      <trkpt lat="42.992050" lon="-0.986990">
        <ele>1352.518</ele>
        <time>2020-07-13T22:20:42Z</time>
      </trkpt>
      <trkpt lat="42.993030" lon="-0.987920">
        <ele>1355.073</ele>
        <time>2020-07-13T22:21:02Z</time>
      </trkpt>
      <trkpt lat="42.993360" lon="-0.987010">
        <ele>1353.545</ele>
        <time>2020-07-13T22:21:42Z</time>
      </trkpt>
      <trkpt lat="42.994790" lon="-0.986550">
        <ele>1354.676</ele>
        <time>2020-07-13T22:22:22Z</time>
      </trkpt>
      <trkpt lat="42.996850" lon="-0.987200">
        <ele>1364.585</ele>
        <time>2020-07-13T22:22:42Z</time>
      </trkpt>
      <trkpt lat="42.997320" lon="-0.986910">
        <ele>1367.515</ele>
        <time>2020-07-13T22:23:02Z</time>
      </trkpt>
      <trkpt lat="42.997530" lon="-0.986010">
        <ele>1366.265</ele>
        <time>2020-07-13T22:23:22Z</time>
      </trkpt>
      <trkpt lat="42.999950" lon="-0.986350">
        <ele>1329.711</ele>
        <time>2020-07-13T22:24:02Z</time>
      </trkpt>
      <trkpt lat="43.001890" lon="-0.987630">
        <ele>1295.908</ele>
        <time>2020-07-13T22:24:22Z</time>
      </trkpt>
      <trkpt lat="43.002920" lon="-0.987250">
        <ele>1283.746</ele>
        <time>2020-07-13T22:25:22Z</time>
      </trkpt>
      <trkpt lat="43.002400" lon="-0.988040">
        <ele>1277.573</ele>
        <time>2020-07-13T22:26:02Z</time>
      </trkpt>
      <trkpt lat="43.000160" lon="-0.988450">
        <ele>1267.128</ele>
        <time>2020-07-13T22:26:42Z</time>
      </trkpt>
      <trkpt lat="43.003700" lon="-0.989990">
        <ele>1210.531</ele>
        <time>2020-07-13T22:28:02Z</time>
      </trkpt>
      <trkpt lat="43.005570" lon="-0.989330">
        <ele>1176.876</ele>
        <time>2020-07-13T22:29:02Z</time>
      </trkpt>
      <trkpt lat="43.006480" lon="-0.988030">
        <ele>1165.318</ele>
        <time>2020-07-13T22:29:42Z</time>
      </trkpt>
      <trkpt lat="43.004780" lon="-0.985250">
        <ele>1138.759</ele>
        <time>2020-07-13T22:30:42Z</time>
      </trkpt>
      <trkpt lat="43.004740" lon="-0.984130">
        <ele>1119.648</ele>
        <time>2020-07-13T22:31:22Z</time>
      </trkpt>
      <trkpt lat="43.005780" lon="-0.980370">
        <ele>1084.674</ele>
        <time>2020-07-13T22:32:02Z</time>
      </trkpt>
      <trkpt lat="43.006480" lon="-0.979300">
        <ele>1061.356</ele>
        <time>2020-07-13T22:32:22Z</time>
      </trkpt>
      <trkpt lat="43.006300" lon="-0.972610">
        <ele>1007.021</ele>
        <time>2020-07-13T22:33:42Z</time>
      </trkpt>
      <trkpt lat="43.005760" lon="-0.971630">
        <ele>1004.508</ele>
        <time>2020-07-13T22:34:22Z</time>
      </trkpt>
      <trkpt lat="43.006050" lon="-0.970750">
        <ele>983.362</ele>
        <time>2020-07-13T22:34:42Z</time>
      </trkpt>
      <trkpt lat="43.005710" lon="-0.968650">
        <ele>968.459</ele>
        <time>2020-07-13T22:35:42Z</time>
      </trkpt>
      <trkpt lat="43.007050" lon="-0.968140">
        <ele>943.544</ele>
        <time>2020-07-13T22:36:22Z</time>
      </trkpt>
      <trkpt lat="43.007300" lon="-0.967190">
        <ele>940.047</ele>
        <time>2020-07-13T22:36:42Z</time>
      </trkpt>
      <trkpt lat="43.007930" lon="-0.966980">
        <ele>928.142</ele>
        <time>2020-07-13T22:37:22Z</time>
      </trkpt>
      <trkpt lat="43.007900" lon="-0.967600">
        <ele>923.284</ele>
        <time>2020-07-13T22:37:42Z</time>
      </trkpt>
      <trkpt lat="43.008470" lon="-0.967350">
        <ele>909.595</ele>
        <time>2020-07-13T22:38:02Z</time>
      </trkpt>
      <trkpt lat="43.008310" lon="-0.968150">
        <ele>908.124</ele>
        <time>2020-07-13T22:38:22Z</time>
      </trkpt>
      <trkpt lat="43.010210" lon="-0.967900">
        <ele>879.887</ele>
        <time>2020-07-13T22:39:42Z</time>
      </trkpt>
      <trkpt lat="43.009160" lon="-0.966750">
        <ele>867.142</ele>
        <time>2020-07-13T22:40:42Z</time>
      </trkpt>
      <trkpt lat="43.010280" lon="-0.966120">
        <ele>855.626</ele>
        <time>2020-07-13T22:41:02Z</time>
      </trkpt>
      <trkpt lat="43.010740" lon="-0.964070">
        <ele>856.008</ele>
        <time>2020-07-13T22:41:22Z</time>
      </trkpt>
      <trkpt lat="43.011580" lon="-0.965240">
        <ele>837.763</ele>
        <time>2020-07-13T22:42:22Z</time>
      </trkpt>
      <trkpt lat="43.012350" lon="-0.965220">
        <ele>828.610</ele>
        <time>2020-07-13T22:42:42Z</time>
      </trkpt>
      <trkpt lat="43.013070" lon="-0.963380">
        <ele>809.545</ele>
        <time>2020-07-13T22:43:22Z</time>
      </trkpt>
      <trkpt lat="43.013510" lon="-0.964800">
        <ele>793.268</ele>
        <time>2020-07-13T22:44:02Z</time>
      </trkpt>
      <trkpt lat="43.015140" lon="-0.965880">
        <ele>771.733</ele>
        <time>2020-07-13T22:44:42Z</time>
      </trkpt>
      <trkpt lat="43.015890" lon="-0.967460">
        <ele>751.015</ele>
        <time>2020-07-13T22:45:42Z</time>
      </trkpt>
      <trkpt lat="43.015520" lon="-0.964810">
        <ele>742.296</ele>
        <time>2020-07-13T22:46:02Z</time>
      </trkpt>
      <trkpt lat="43.015980" lon="-0.962910">
        <ele>718.885</ele>
        <time>2020-07-13T22:46:22Z</time>
      </trkpt>
      <trkpt lat="43.014770" lon="-0.961300">
        <ele>716.046</ele>
        <time>2020-07-13T22:46:42Z</time>
      </trkpt>
      <trkpt lat="43.016170" lon="-0.960540">
        <ele>695.988</ele>
        <time>2020-07-13T22:47:02Z</time>
      </trkpt>
      <trkpt lat="43.016440" lon="-0.959570">
        <ele>694.316</ele>
        <time>2020-07-13T22:47:22Z</time>
      </trkpt>
      <trkpt lat="43.017480" lon="-0.958990">
        <ele>679.908</ele>
        <time>2020-07-13T22:48:02Z</time>
      </trkpt>
      <trkpt lat="43.017880" lon="-0.960150">
        <ele>668.179</ele>
        <time>2020-07-13T22:48:42Z</time>
      </trkpt>
      <trkpt lat="43.017580" lon="-0.961080">
        <ele>658.426</ele>
        <time>2020-07-13T22:49:22Z</time>
      </trkpt>
      <trkpt lat="43.018770" lon="-0.960030">
        <ele>637.111</ele>
        <time>2020-07-13T22:50:22Z</time>
      </trkpt>
      <trkpt lat="43.018870" lon="-0.957700">
        <ele>619.724</ele>
        <time>2020-07-13T22:50:42Z</time>
      </trkpt>
      <trkpt lat="43.019730" lon="-0.960290">
        <ele>610.749</ele>
        <time>2020-07-13T22:51:22Z</time>
      </trkpt>
      <trkpt lat="43.018880" lon="-0.961670">
        <ele>601.451</ele>
        <time>2020-07-13T22:52:02Z</time>
      </trkpt>
      <trkpt lat="43.019510" lon="-0.962430">
        <ele>599.572</ele>
        <time>2020-07-13T22:52:22Z</time>
      </trkpt>
      <trkpt lat="43.019200" lon="-0.964510">
        <ele>588.711</ele>
        <time>2020-07-13T22:53:22Z</time>
      </trkpt>
      <trkpt lat="43.019400" lon="-0.965390">
        <ele>583.094</ele>
        <time>2020-07-13T22:53:42Z</time>
      </trkpt>
      <trkpt lat="43.021250" lon="-0.967540">
        <ele>558.357</ele>
        <time>2020-07-13T22:54:42Z</time>
      </trkpt>
      <trkpt lat="43.022490" lon="-0.967780">
        <ele>547.422</ele>
        <time>2020-07-13T22:55:42Z</time>
      </trkpt>
      <trkpt lat="43.021890" lon="-0.969920">
        <ele>533.908</ele>
        <time>2020-07-13T22:56:42Z</time>
      </trkpt>
      <trkpt lat="43.022920" lon="-0.969480">
        <ele>513.314</ele>
        <time>2020-07-13T22:57:02Z</time>
      </trkpt>
      <trkpt lat="43.025130" lon="-0.971890">
        <ele>490.941</ele>
        <time>2020-07-13T22:58:02Z</time>
      </trkpt>
      <trkpt lat="43.026180" lon="-0.974660">
        <ele>495.476</ele>
        <time>2020-07-13T22:58:42Z</time>
      </trkpt>
      <trkpt lat="43.027230" lon="-0.976130">
        <ele>496.339</ele>
        <time>2020-07-13T22:59:22Z</time>
      </trkpt>
      <trkpt lat="43.027160" lon="-0.977530">
        <ele>504.784</ele>
        <time>2020-07-13T22:59:42Z</time>
      </trkpt>
      <trkpt lat="43.025640" lon="-0.979310">
        <ele>513.086</ele>
        <time>2020-07-13T23:00:22Z</time>
      </trkpt>
      <trkpt lat="43.025260" lon="-0.981490">
        <ele>517.347</ele>
        <time>2020-07-13T23:00:42Z</time>
      </trkpt>
      <trkpt lat="43.023030" lon="-0.985000">
        <ele>539.626</ele>
        <time>2020-07-13T23:01:42Z</time>
      </trkpt>
      <trkpt lat="43.023070" lon="-0.986210">
        <ele>540.684</ele>
        <time>2020-07-13T23:02:22Z</time>
      </trkpt>
      <trkpt lat="43.023680" lon="-0.987140">
        <ele>543.407</ele>
        <time>2020-07-13T23:02:42Z</time>
      </trkpt>
      <trkpt lat="43.022610" lon="-0.990690">
        <ele>566.117</ele>
        <time>2020-07-13T23:03:42Z</time>
      </trkpt>
      <trkpt lat="43.021120" lon="-0.992380">
        <ele>583.108</ele>
        <time>2020-07-13T23:04:22Z</time>
      </trkpt>
      <trkpt lat="43.020580" lon="-0.995530">
        <ele>595.713</ele>
        <time>2020-07-13T23:05:02Z</time>
      </trkpt>
      <trkpt lat="43.021840" lon="-0.998230">
        <ele>621.840</ele>
        <time>2020-07-13T23:05:22Z</time>
      </trkpt>
      <trkpt lat="43.022620" lon="-1.001450">
        <ele>641.415</ele>
        <time>2020-07-13T23:06:22Z</time>
      </trkpt>
      <trkpt lat="43.023640" lon="-1.003470">
        <ele>653.188</ele>
        <time>2020-07-13T23:06:42Z</time>
      </trkpt>
      <trkpt lat="43.023760" lon="-1.004530">
        <ele>670.473</ele>
        <time>2020-07-13T23:07:22Z</time>
      </trkpt>
      <trkpt lat="43.024180" lon="-1.002840">
        <ele>677.515</ele>
        <time>2020-07-13T23:08:02Z</time>
      </trkpt>
      <trkpt lat="43.023530" lon="-1.000840">
        <ele>687.276</ele>
        <time>2020-07-13T23:09:02Z</time>
      </trkpt>
      <trkpt lat="43.023700" lon="-0.996330">
        <ele>701.255</ele>
        <time>2020-07-13T23:10:42Z</time>
      </trkpt>
      <trkpt lat="43.024340" lon="-0.998200">
        <ele>725.295</ele>
        <time>2020-07-13T23:11:42Z</time>
      </trkpt>
      <trkpt lat="43.024370" lon="-0.999750">
        <ele>737.349</ele>
        <time>2020-07-13T23:12:02Z</time>
      </trkpt>
      <trkpt lat="43.025440" lon="-1.001060">
        <ele>751.623</ele>
        <time>2020-07-13T23:12:22Z</time>
      </trkpt>
      <trkpt lat="43.025200" lon="-1.001720">
        <ele>753.908</ele>
        <time>2020-07-13T23:13:02Z</time>
      </trkpt>
      <trkpt lat="43.025870" lon="-1.001200">
        <ele>772.714</ele>
        <time>2020-07-13T23:13:22Z</time>
      </trkpt>
      <trkpt lat="43.025160" lon="-0.999500">
        <ele>779.841</ele>
        <time>2020-07-13T23:13:42Z</time>
      </trkpt>
      <trkpt lat="43.025690" lon="-0.997660">
        <ele>804.076</ele>
        <time>2020-07-13T23:14:22Z</time>
      </trkpt>
      <trkpt lat="43.025450" lon="-0.996530">
        <ele>806.829</ele>
        <time>2020-07-13T23:14:42Z</time>
      </trkpt>
      <trkpt lat="43.026370" lon="-0.995070">
        <ele>821.344</ele>
        <time>2020-07-13T23:15:22Z</time>
      </trkpt>
      <trkpt lat="43.026220" lon="-0.996730">
        <ele>843.326</ele>
        <time>2020-07-13T23:15:42Z</time>
      </trkpt>
      <trkpt lat="43.026720" lon="-0.997770">
        <ele>861.147</ele>
        <time>2020-07-13T23:16:02Z</time>
      </trkpt>
      <trkpt lat="43.026540" lon="-0.999030">
        <ele>870.946</ele>
        <time>2020-07-13T23:16:42Z</time>
      </trkpt>
      <trkpt lat="43.027490" lon="-0.999890">
        <ele>890.653</ele>
        <time>2020-07-13T23:17:02Z</time>
      </trkpt>
      <trkpt lat="43.028440" lon="-0.999910">
        <ele>907.404</ele>
        <time>2020-07-13T23:17:22Z</time>
      </trkpt>
      <trkpt lat="43.029250" lon="-1.001070">
        <ele>929.014</ele>
        <time>2020-07-13T23:17:42Z</time>
      </trkpt>
      <trkpt lat="43.029530" lon="-1.003750">
        <ele>951.408</ele>
        <time>2020-07-13T23:18:02Z</time>
      </trkpt>
      <trkpt lat="43.030410" lon="-1.005300">
        <ele>974.650</ele>
        <time>2020-07-13T23:18:22Z</time>
      </trkpt>
      <trkpt lat="43.030310" lon="-1.006770">
        <ele>985.827</ele>
        <time>2020-07-13T23:18:42Z</time>
      </trkpt>
      <trkpt lat="43.031220" lon="-1.010670">
        <ele>1023.192</ele>
        <time>2020-07-13T23:19:42Z</time>
      </trkpt>
      <trkpt lat="43.032170" lon="-1.012000">
        <ele>1039.995</ele>
        <time>2020-07-13T23:20:22Z</time>
      </trkpt>
      <trkpt lat="43.032020" lon="-1.010400">
        <ele>1055.580</ele>
        <time>2020-07-13T23:21:22Z</time>
      </trkpt>
      <trkpt lat="43.033090" lon="-1.008000">
        <ele>1081.622</ele>
        <time>2020-07-13T23:21:42Z</time>
      </trkpt>
      <trkpt lat="43.033970" lon="-1.009080">
        <ele>1093.453</ele>
        <time>2020-07-13T23:22:42Z</time>
      </trkpt>
      <trkpt lat="43.033450" lon="-1.009880">
        <ele>1115.342</ele>
        <time>2020-07-13T23:23:02Z</time>
      </trkpt>
      <trkpt lat="43.033520" lon="-1.011290">
        <ele>1133.479</ele>
        <time>2020-07-13T23:23:22Z</time>
      </trkpt>
      <trkpt lat="43.034310" lon="-1.013240">
        <ele>1161.305</ele>
        <time>2020-07-13T23:23:42Z</time>
      </trkpt>
      <trkpt lat="43.035190" lon="-1.017590">
        <ele>1201.425</ele>
        <time>2020-07-13T23:24:02Z</time>
      </trkpt>
      <trkpt lat="43.034330" lon="-1.020200">
        <ele>1226.108</ele>
        <time>2020-07-13T23:24:42Z</time>
      </trkpt>
      <trkpt lat="43.033720" lon="-1.020770">
        <ele>1228.432</ele>
        <time>2020-07-13T23:25:02Z</time>
      </trkpt>
      <trkpt lat="43.034460" lon="-1.022900">
        <ele>1253.189</ele>
        <time>2020-07-13T23:26:02Z</time>
      </trkpt>
      <trkpt lat="43.033060" lon="-1.024190">
        <ele>1262.424</ele>
        <time>2020-07-13T23:26:42Z</time>
      </trkpt>
      <trkpt lat="43.033160" lon="-1.024510">
        <ele>1268.557</ele>
        <time>2020-07-13T23:27:22Z</time>
      </trkpt>
      <trkpt lat="43.035330" lon="-1.022920">
        <ele>1286.422</ele>
        <time>2020-07-13T23:29:02Z</time>
      </trkpt>
      <trkpt lat="43.035700" lon="-1.024320">
        <ele>1285.914</ele>
        <time>2020-07-13T23:29:22Z</time>
      </trkpt>
      <trkpt lat="43.038160" lon="-1.026670">
        <ele>1327.235</ele>
        <time>2020-07-13T23:29:42Z</time>
      </trkpt>
      <trkpt lat="43.035850" lon="-1.032160">
        <ele>1315.334</ele>
        <time>2020-07-13T23:31:22Z</time>
      </trkpt>
      <trkpt lat="43.035860" lon="-1.033840">
        <ele>1315.168</ele>
        <time>2020-07-13T23:31:42Z</time>
      </trkpt>
      <trkpt lat="43.036550" lon="-1.035130">
        <ele>1317.842</ele>
        <time>2020-07-13T23:32:22Z</time>
      </trkpt>
      <trkpt lat="43.035680" lon="-1.037590">
        <ele>1299.526</ele>
        <time>2020-07-13T23:33:02Z</time>
      </trkpt>
      <trkpt lat="43.036800" lon="-1.036890">
        <ele>1292.308</ele>
        <time>2020-07-13T23:33:42Z</time>
      </trkpt>
      <trkpt lat="43.035540" lon="-1.039670">
        <ele>1263.971</ele>
        <time>2020-07-13T23:34:42Z</time>
      </trkpt>
      <trkpt lat="43.036460" lon="-1.038920">
        <ele>1252.848</ele>
        <time>2020-07-13T23:35:42Z</time>
      </trkpt>
      <trkpt lat="43.034990" lon="-1.043850">
        <ele>1200.013</ele>
        <time>2020-07-13T23:37:02Z</time>
      </trkpt>
      <trkpt lat="43.034550" lon="-1.044200">
        <ele>1199.966</ele>
        <time>2020-07-13T23:37:22Z</time>
      </trkpt>
      <trkpt lat="43.035750" lon="-1.043890">
        <ele>1182.481</ele>
        <time>2020-07-13T23:38:02Z</time>
      </trkpt>
      <trkpt lat="43.035650" lon="-1.045210">
        <ele>1178.363</ele>
        <time>2020-07-13T23:38:22Z</time>
      </trkpt>
      <trkpt lat="43.037050" lon="-1.047710">
        <ele>1162.654</ele>
        <time>2020-07-13T23:38:42Z</time>
      </trkpt>
      <trkpt lat="43.037620" lon="-1.050520">
        <ele>1148.163</ele>
        <time>2020-07-13T23:39:22Z</time>
      </trkpt>
      <trkpt lat="43.037880" lon="-1.055640">
        <ele>1138.252</ele>
        <time>2020-07-13T23:40:22Z</time>
      </trkpt>
      <trkpt lat="43.041140" lon="-1.058520">
        <ele>1118.753</ele>
        <time>2020-07-13T23:41:42Z</time>
      </trkpt>
      <trkpt lat="43.041960" lon="-1.058130">
        <ele>1112.108</ele>
        <time>2020-07-13T23:42:02Z</time>
      </trkpt>
      <trkpt lat="43.043260" lon="-1.055470">
        <ele>1098.308</ele>
        <time>2020-07-13T23:42:22Z</time>
      </trkpt>
      <trkpt lat="43.045560" lon="-1.054710">
        <ele>1071.150</ele>
        <time>2020-07-13T23:43:22Z</time>
      </trkpt>
      <trkpt lat="43.047150" lon="-1.056390">
        <ele>1079.657</ele>
        <time>2020-07-13T23:44:02Z</time>
      </trkpt>
      <trkpt lat="43.047860" lon="-1.058520">
        <ele>1074.442</ele>
        <time>2020-07-13T23:44:22Z</time>
      </trkpt>
      <trkpt lat="43.048760" lon="-1.059230">
        <ele>1074.885</ele>
        <time>2020-07-13T23:45:02Z</time>
      </trkpt>
      <trkpt lat="43.048690" lon="-1.062870">
        <ele>1061.660</ele>
        <time>2020-07-13T23:46:22Z</time>
      </trkpt>
      <trkpt lat="43.050140" lon="-1.063460">
        <ele>1046.072</ele>
        <time>2020-07-13T23:47:22Z</time>
      </trkpt>
      <trkpt lat="43.051290" lon="-1.066490">
        <ele>1027.273</ele>
        <time>2020-07-13T23:48:02Z</time>
      </trkpt>
      <trkpt lat="43.050310" lon="-1.068230">
        <ele>1023.162</ele>
        <time>2020-07-13T23:48:42Z</time>
      </trkpt>
      <trkpt lat="43.050520" lon="-1.069510">
        <ele>1027.071</ele>
        <time>2020-07-13T23:49:02Z</time>
      </trkpt>
      <trkpt lat="43.049260" lon="-1.071510">
        <ele>1025.441</ele>
        <time>2020-07-13T23:49:42Z</time>
      </trkpt>
      <trkpt lat="43.046900" lon="-1.073210">
        <ele>1010.015</ele>
        <time>2020-07-13T23:51:02Z</time>
      </trkpt>
      <trkpt lat="43.047270" lon="-1.073330">
        <ele>1010.008</ele>
        <time>2020-07-13T23:51:22Z</time>
      </trkpt>
      <trkpt lat="43.044360" lon="-1.072640">
        <ele>1000.662</ele>
        <time>2020-07-13T23:52:02Z</time>
      </trkpt>
      <trkpt lat="43.041910" lon="-1.074920">
        <ele>1014.039</ele>
        <time>2020-07-13T23:53:02Z</time>
      </trkpt>
      <trkpt lat="43.042090" lon="-1.075340">
        <ele>1018.054</ele>
        <time>2020-07-13T23:53:22Z</time>
      </trkpt>
      <trkpt lat="43.043010" lon="-1.075410">
        <ele>1021.687</ele>
        <time>2020-07-13T23:53:42Z</time>
      </trkpt>
      <trkpt lat="43.043660" lon="-1.076160">
        <ele>1028.922</ele>
        <time>2020-07-13T23:54:22Z</time>
      </trkpt>
      <trkpt lat="43.043910" lon="-1.077870">
        <ele>1037.144</ele>
        <time>2020-07-13T23:55:02Z</time>
      </trkpt>
      <trkpt lat="43.043440" lon="-1.078810">
        <ele>1048.485</ele>
        <time>2020-07-13T23:55:22Z</time>
      </trkpt>
      <trkpt lat="43.043150" lon="-1.081760">
        <ele>1055.014</ele>
        <time>2020-07-13T23:56:02Z</time>
      </trkpt>
      <trkpt lat="43.043630" lon="-1.085800">
        <ele>1073.615</ele>
        <time>2020-07-13T23:56:22Z</time>
      </trkpt>
      <trkpt lat="43.044970" lon="-1.087540">
        <ele>1065.565</ele>
        <time>2020-07-13T23:57:22Z</time>
      </trkpt>
      <trkpt lat="43.044990" lon="-1.089890">
        <ele>1081.111</ele>
        <time>2020-07-13T23:58:02Z</time>
      </trkpt>
      <trkpt lat="43.047860" lon="-1.092840">
        <ele>1103.008</ele>
        <time>2020-07-13T23:59:42Z</time>
      </trkpt>
      <trkpt lat="43.048260" lon="-1.095080">
        <ele>1119.626</ele>
        <time>2020-07-14T00:00:22Z</time>
      </trkpt>
      <trkpt lat="43.046840" lon="-1.097150">
        <ele>1134.083</ele>
        <time>2020-07-14T00:01:42Z</time>
      </trkpt>
      <trkpt lat="43.047560" lon="-1.097390">
        <ele>1134.248</ele>
        <time>2020-07-14T00:02:42Z</time>
      </trkpt>
      <trkpt lat="43.048310" lon="-1.098810">
        <ele>1140.191</ele>
        <time>2020-07-14T00:03:22Z</time>
      </trkpt>
      <trkpt lat="43.049250" lon="-1.097540">
        <ele>1135.226</ele>
        <time>2020-07-14T00:04:22Z</time>
      </trkpt>
      <trkpt lat="43.049770" lon="-1.099980">
        <ele>1111.728</ele>
        <time>2020-07-14T00:05:22Z</time>
      </trkpt>
      <trkpt lat="43.049240" lon="-1.103500">
        <ele>1098.519</ele>
        <time>2020-07-14T00:06:22Z</time>
      </trkpt>
      <trkpt lat="43.049440" lon="-1.104060">
        <ele>1086.228</ele>
        <time>2020-07-14T00:06:42Z</time>
      </trkpt>
      <trkpt lat="43.048750" lon="-1.105710">
        <ele>1086.863</ele>
        <time>2020-07-14T00:07:22Z</time>
      </trkpt>
      <trkpt lat="43.051250" lon="-1.106950">
        <ele>1063.644</ele>
        <time>2020-07-14T00:09:02Z</time>
      </trkpt>
      <trkpt lat="43.051370" lon="-1.110250">
        <ele>1051.818</ele>
        <time>2020-07-14T00:09:42Z</time>
      </trkpt>
      <trkpt lat="43.053460" lon="-1.112640">
        <ele>1060.008</ele>
        <time>2020-07-14T00:10:42Z</time>
      </trkpt>
      <trkpt lat="43.053570" lon="-1.115970">
        <ele>1033.911</ele>
        <time>2020-07-14T00:11:22Z</time>
      </trkpt>
      <trkpt lat="43.052820" lon="-1.116530">
        <ele>1042.968</ele>
        <time>2020-07-14T00:12:02Z</time>
      </trkpt>
      <trkpt lat="43.052510" lon="-1.118080">
        <ele>1023.913</ele>
        <time>2020-07-14T00:12:22Z</time>
      </trkpt>
      <trkpt lat="43.051910" lon="-1.118350">
        <ele>1032.716</ele>
        <time>2020-07-14T00:12:42Z</time>
      </trkpt>
      <trkpt lat="43.052310" lon="-1.119280">
        <ele>1015.741</ele>
        <time>2020-07-14T00:13:02Z</time>
      </trkpt>
      <trkpt lat="43.052020" lon="-1.120720">
        <ele>1024.873</ele>
        <time>2020-07-14T00:13:22Z</time>
      </trkpt>
      <trkpt lat="43.052400" lon="-1.121780">
        <ele>1027.534</ele>
        <time>2020-07-14T00:14:02Z</time>
      </trkpt>
      <trkpt lat="43.052860" lon="-1.122010">
        <ele>1017.323</ele>
        <time>2020-07-14T00:14:42Z</time>
      </trkpt>
      <trkpt lat="43.052590" lon="-1.124880">
        <ele>1024.034</ele>
        <time>2020-07-14T00:15:22Z</time>
      </trkpt>
      <trkpt lat="43.055350" lon="-1.129720">
        <ele>1019.655</ele>
        <time>2020-07-14T00:15:42Z</time>
      </trkpt>
      <trkpt lat="43.056020" lon="-1.135430">
        <ele>1027.410</ele>
        <time>2020-07-14T00:16:22Z</time>
      </trkpt>
      <trkpt lat="43.055680" lon="-1.136190">
        <ele>1020.208</ele>
        <time>2020-07-14T00:17:02Z</time>
      </trkpt>
      <trkpt lat="43.054950" lon="-1.135830">
        <ele>1033.858</ele>
        <time>2020-07-14T00:17:22Z</time>
      </trkpt>
      <trkpt lat="43.053750" lon="-1.136480">
        <ele>1046.665</ele>
        <time>2020-07-14T00:17:42Z</time>
      </trkpt>
      <trkpt lat="43.052360" lon="-1.135740">
        <ele>1052.890</ele>
        <time>2020-07-14T00:18:42Z</time>
      </trkpt>
      <trkpt lat="43.052380" lon="-1.137810">
        <ele>1048.413</ele>
        <time>2020-07-14T00:19:42Z</time>
      </trkpt>
      <trkpt lat="43.050740" lon="-1.139960">
        <ele>1033.478</ele>
        <time>2020-07-14T00:20:22Z</time>
      </trkpt>
      <trkpt lat="43.050710" lon="-1.141590">
        <ele>1019.670</ele>
        <time>2020-07-14T00:21:02Z</time>
      </trkpt>
      <trkpt lat="43.051670" lon="-1.143170">
        <ele>1004.581</ele>
        <time>2020-07-14T00:21:22Z</time>
      </trkpt>
      <trkpt lat="43.051380" lon="-1.145570">
        <ele>983.710</ele>
        <time>2020-07-14T00:22:02Z</time>
      </trkpt>
      <trkpt lat="43.048890" lon="-1.146400">
        <ele>1022.213</ele>
        <time>2020-07-14T00:22:42Z</time>
      </trkpt>
      <trkpt lat="43.047890" lon="-1.145170">
        <ele>1035.543</ele>
        <time>2020-07-14T00:23:42Z</time>
      </trkpt>
      <trkpt lat="43.046700" lon="-1.145770">
        <ele>1052.607</ele>
        <time>2020-07-14T00:24:22Z</time>
      </trkpt>
      <trkpt lat="43.046110" lon="-1.145430">
        <ele>1052.808</ele>
        <time>2020-07-14T00:25:02Z</time>
      </trkpt>
      <trkpt lat="43.045480" lon="-1.142960">
        <ele>1060.726</ele>
        <time>2020-07-14T00:25:42Z</time>
      </trkpt>
      <trkpt lat="43.044930" lon="-1.142720">
        <ele>1065.963</ele>
        <time>2020-07-14T00:26:22Z</time>
      </trkpt>
      <trkpt lat="43.044640" lon="-1.144590">
        <ele>1079.158</ele>
        <time>2020-07-14T00:26:42Z</time>
      </trkpt>
      <trkpt lat="43.043410" lon="-1.145450">
        <ele>1089.161</ele>
        <time>2020-07-14T00:27:22Z</time>
      </trkpt>
      <trkpt lat="43.042890" lon="-1.146520">
        <ele>1097.586</ele>
        <time>2020-07-14T00:27:42Z</time>
      </trkpt>
      <trkpt lat="43.043330" lon="-1.149210">
        <ele>1105.658</ele>
        <time>2020-07-14T00:28:42Z</time>
      </trkpt>
      <trkpt lat="43.043090" lon="-1.148930">
        <ele>1113.199</ele>
        <time>2020-07-14T00:29:22Z</time>
      </trkpt>
      <trkpt lat="43.043330" lon="-1.150230">
        <ele>1125.128</ele>
        <time>2020-07-14T00:29:42Z</time>
      </trkpt>
      <trkpt lat="43.042860" lon="-1.149580">
        <ele>1134.782</ele>
        <time>2020-07-14T00:30:02Z</time>
      </trkpt>
      <trkpt lat="43.043190" lon="-1.151730">
        <ele>1147.143</ele>
        <time>2020-07-14T00:30:42Z</time>
      </trkpt>
      <trkpt lat="43.044800" lon="-1.154930">
        <ele>1134.217</ele>
        <time>2020-07-14T00:32:02Z</time>
      </trkpt>
      <trkpt lat="43.046840" lon="-1.157860">
        <ele>1123.208</ele>
        <time>2020-07-14T00:32:42Z</time>
      </trkpt>
      <trkpt lat="43.048470" lon="-1.159040">
        <ele>1119.113</ele>
        <time>2020-07-14T00:33:22Z</time>
      </trkpt>
      <trkpt lat="43.049860" lon="-1.161440">
        <ele>1112.320</ele>
        <time>2020-07-14T00:34:02Z</time>
      </trkpt>
      <trkpt lat="43.050750" lon="-1.159950">
        <ele>1086.835</ele>
        <time>2020-07-14T00:34:42Z</time>
      </trkpt>
      <trkpt lat="43.052980" lon="-1.159050">
        <ele>1039.128</ele>
        <time>2020-07-14T00:35:22Z</time>
      </trkpt>
      <trkpt lat="43.054420" lon="-1.159130">
        <ele>1034.443</ele>
        <time>2020-07-14T00:36:02Z</time>
      </trkpt>
      <trkpt lat="43.053800" lon="-1.159590">
        <ele>1025.175</ele>
        <time>2020-07-14T00:36:42Z</time>
      </trkpt>
      <trkpt lat="43.056140" lon="-1.158750">
        <ele>992.066</ele>
        <time>2020-07-14T00:37:42Z</time>
      </trkpt>
      <trkpt lat="43.057780" lon="-1.159770">
        <ele>997.225</ele>
        <time>2020-07-14T00:38:22Z</time>
      </trkpt>
      <trkpt lat="43.059530" lon="-1.162520">
        <ele>981.754</ele>
        <time>2020-07-14T00:39:02Z</time>
      </trkpt>
      <trkpt lat="43.059690" lon="-1.159200">
        <ele>953.856</ele>
        <time>2020-07-14T00:39:42Z</time>
      </trkpt>
      <trkpt lat="43.060050" lon="-1.158600">
        <ele>939.211</ele>
        <time>2020-07-14T00:40:02Z</time>
      </trkpt>
      <trkpt lat="43.060820" lon="-1.158610">
        <ele>939.808</ele>
        <time>2020-07-14T00:40:42Z</time>
      </trkpt>
      <trkpt lat="43.060240" lon="-1.159240">
        <ele>931.860</ele>
        <time>2020-07-14T00:41:02Z</time>
      </trkpt>
      <trkpt lat="43.063360" lon="-1.167770">
        <ele>826.137</ele>
        <time>2020-07-14T00:42:42Z</time>
      </trkpt>
      <trkpt lat="43.063220" lon="-1.168270">
        <ele>823.592</ele>
        <time>2020-07-14T00:43:02Z</time>
      </trkpt>
      <trkpt lat="43.064340" lon="-1.168700">
        <ele>800.745</ele>
        <time>2020-07-14T00:43:42Z</time>
      </trkpt>
      <trkpt lat="43.065360" lon="-1.172140">
        <ele>769.190</ele>
        <time>2020-07-14T00:44:02Z</time>
      </trkpt>
      <trkpt lat="43.065860" lon="-1.179670">
        <ele>685.632</ele>
        <time>2020-07-14T00:46:02Z</time>
      </trkpt>
      <trkpt lat="43.067060" lon="-1.181030">
        <ele>665.843</ele>
        <time>2020-07-14T00:47:02Z</time>
      </trkpt>
      <trkpt lat="43.066770" lon="-1.178350">
        <ele>649.192</ele>
        <time>2020-07-14T00:47:42Z</time>
      </trkpt>
      <trkpt lat="43.067120" lon="-1.177470">
        <ele>638.318</ele>
        <time>2020-07-14T00:48:02Z</time>
      </trkpt>
      <trkpt lat="43.068360" lon="-1.176350">
        <ele>620.098</ele>
        <time>2020-07-14T00:48:22Z</time>
      </trkpt>
      <trkpt lat="43.070070" lon="-1.175870">
        <ele>590.917</ele>
        <time>2020-07-14T00:49:02Z</time>
      </trkpt>
      <trkpt lat="43.069590" lon="-1.177490">
        <ele>581.708</ele>
        <time>2020-07-14T00:50:02Z</time>
      </trkpt>
      <trkpt lat="43.068900" lon="-1.178130">
        <ele>572.616</ele>
        <time>2020-07-14T00:50:42Z</time>
      </trkpt>
      <trkpt lat="43.070150" lon="-1.181670">
        <ele>518.933</ele>
        <time>2020-07-14T00:51:42Z</time>
      </trkpt>
      <trkpt lat="43.069920" lon="-1.182080">
        <ele>523.118</ele>
        <time>2020-07-14T00:52:22Z</time>
      </trkpt>
      <trkpt lat="43.070640" lon="-1.180120">
        <ele>497.531</ele>
        <time>2020-07-14T00:53:22Z</time>
      </trkpt>
      <trkpt lat="43.070400" lon="-1.179100">
        <ele>502.236</ele>
        <time>2020-07-14T00:53:42Z</time>
      </trkpt>
      <trkpt lat="43.072500" lon="-1.179180">
        <ele>458.948</ele>
        <time>2020-07-14T00:54:42Z</time>
      </trkpt>
      <trkpt lat="43.072530" lon="-1.178440">
        <ele>452.419</ele>
        <time>2020-07-14T00:55:02Z</time>
      </trkpt>
      <trkpt lat="43.072850" lon="-1.179120">
        <ele>441.258</ele>
        <time>2020-07-14T00:55:42Z</time>
      </trkpt>
      <trkpt lat="43.072870" lon="-1.178380">
        <ele>433.172</ele>
        <time>2020-07-14T00:56:02Z</time>
      </trkpt>
      <trkpt lat="43.072980" lon="-1.179590">
        <ele>430.213</ele>
        <time>2020-07-14T00:56:42Z</time>
      </trkpt>
      <trkpt lat="43.073570" lon="-1.179640">
        <ele>412.314</ele>
        <time>2020-07-14T00:57:22Z</time>
      </trkpt>
      <trkpt lat="43.073120" lon="-1.180050">
        <ele>417.108</ele>
        <time>2020-07-14T00:58:22Z</time>
      </trkpt>
      <trkpt lat="43.074230" lon="-1.179800">
        <ele>391.422</ele>
        <time>2020-07-14T00:59:22Z</time>
      </trkpt>
      <trkpt lat="43.074970" lon="-1.181900">
        <ele>388.859</ele>
        <time>2020-07-14T01:00:02Z</time>
      </trkpt>
      <trkpt lat="43.074430" lon="-1.183860">
        <ele>367.964</ele>
        <time>2020-07-14T01:00:22Z</time>
      </trkpt>
      <trkpt lat="43.074720" lon="-1.186640">
        <ele>354.877</ele>
        <time>2020-07-14T01:01:42Z</time>
      </trkpt>
      <trkpt lat="43.076880" lon="-1.189770">
        <ele>308.292</ele>
        <time>2020-07-14T01:02:42Z</time>
      </trkpt>
      <trkpt lat="43.079310" lon="-1.191110">
        <ele>280.094</ele>
        <time>2020-07-14T01:03:22Z</time>
      </trkpt>
      <trkpt lat="43.081300" lon="-1.190610">
        <ele>288.325</ele>
        <time>2020-07-14T01:04:22Z</time>
      </trkpt>
      <trkpt lat="43.083090" lon="-1.191930">
        <ele>278.774</ele>
        <time>2020-07-14T01:04:42Z</time>
      </trkpt>
      <trkpt lat="43.085050" lon="-1.192380">
        <ele>280.434</ele>
        <time>2020-07-14T01:05:22Z</time>
      </trkpt>
      <trkpt lat="43.087500" lon="-1.194500">
        <ele>278.655</ele>
        <time>2020-07-14T01:06:02Z</time>
      </trkpt>
      <trkpt lat="43.089850" lon="-1.194460">
        <ele>280.610</ele>
        <time>2020-07-14T01:07:02Z</time>
      </trkpt>
      <trkpt lat="43.091890" lon="-1.195810">
        <ele>255.408</ele>
        <time>2020-07-14T01:07:22Z</time>
      </trkpt>
      <trkpt lat="43.094630" lon="-1.196600">
        <ele>256.418</ele>
        <time>2020-07-14T01:08:22Z</time>
      </trkpt>
      <trkpt lat="43.095100" lon="-1.197350">
        <ele>253.895</ele>
        <time>2020-07-14T01:08:42Z</time>
      </trkpt>
      <trkpt lat="43.098550" lon="-1.198450">
        <ele>240.020</ele>
        <time>2020-07-14T01:09:42Z</time>
      </trkpt>
      <trkpt lat="43.102580" lon="-1.195510">
        <ele>245.533</ele>
        <time>2020-07-14T01:11:22Z</time>
      </trkpt>
      <trkpt lat="43.103710" lon="-1.195990">
        <ele>236.848</ele>
        <time>2020-07-14T01:12:02Z</time>
      </trkpt>
      <trkpt lat="43.104490" lon="-1.195700">
        <ele>230.060</ele>
        <time>2020-07-14T01:12:22Z</time>
      </trkpt>
      <trkpt lat="43.106220" lon="-1.196610">
        <ele>241.291</ele>
        <time>2020-07-14T01:13:02Z</time>
      </trkpt>
      <trkpt lat="43.109420" lon="-1.201460">
        <ele>240.140</ele>
        <time>2020-07-14T01:14:02Z</time>
      </trkpt>
      <trkpt lat="43.112300" lon="-1.204510">
        <ele>234.569</ele>
        <time>2020-07-14T01:14:42Z</time>
      </trkpt>
      <trkpt lat="43.112990" lon="-1.206700">
        <ele>227.304</ele>
        <time>2020-07-14T01:15:22Z</time>
      </trkpt>
      <trkpt lat="43.114370" lon="-1.208570">
        <ele>230.924</ele>
        <time>2020-07-14T01:16:02Z</time>
      </trkpt>
      <trkpt lat="43.114490" lon="-1.211810">
        <ele>226.108</ele>
        <time>2020-07-14T01:16:42Z</time>
      </trkpt>
      <trkpt lat="43.115700" lon="-1.213160">
        <ele>223.231</ele>
        <time>2020-07-14T01:17:22Z</time>
      </trkpt>
      <trkpt lat="43.116830" lon="-1.213510">
        <ele>227.698</ele>
        <time>2020-07-14T01:17:42Z</time>
      </trkpt>
      <trkpt lat="43.118230" lon="-1.215540">
        <ele>219.183</ele>
        <time>2020-07-14T01:18:22Z</time>
      </trkpt>
      <trkpt lat="43.119450" lon="-1.215860">
        <ele>218.056</ele>
        <time>2020-07-14T01:18:42Z</time>
      </trkpt>
      <trkpt lat="43.123050" lon="-1.214990">
        <ele>203.241</ele>
        <time>2020-07-14T01:19:22Z</time>
      </trkpt>
      <trkpt lat="43.124840" lon="-1.213480">
        <ele>209.623</ele>
        <time>2020-07-14T01:19:42Z</time>
      </trkpt>
      <trkpt lat="43.126290" lon="-1.213320">
        <ele>213.274</ele>
        <time>2020-07-14T01:20:22Z</time>
      </trkpt>
      <trkpt lat="43.129020" lon="-1.214590">
        <ele>201.873</ele>
        <time>2020-07-14T01:21:22Z</time>
      </trkpt>
      <trkpt lat="43.133000" lon="-1.217380">
        <ele>198.148</ele>
        <time>2020-07-14T01:22:02Z</time>
      </trkpt>
      <trkpt lat="43.134610" lon="-1.219280">
        <ele>194.261</ele>
        <time>2020-07-14T01:22:42Z</time>
      </trkpt>
      <trkpt lat="43.136100" lon="-1.222820">
        <ele>192.817</ele>
        <time>2020-07-14T01:23:22Z</time>
      </trkpt>
      <trkpt lat="43.138300" lon="-1.224490">
        <ele>198.708</ele>
        <time>2020-07-14T01:24:02Z</time>
      </trkpt>
      <trkpt lat="43.141140" lon="-1.228150">
        <ele>192.849</ele>
        <time>2020-07-14T01:25:02Z</time>
      </trkpt>
      <trkpt lat="43.143110" lon="-1.229030">
        <ele>197.346</ele>
        <time>2020-07-14T01:25:42Z</time>
      </trkpt>
      <trkpt lat="43.144270" lon="-1.230110">
        <ele>196.411</ele>
        <time>2020-07-14T01:26:02Z</time>
      </trkpt>
      <trkpt lat="43.146780" lon="-1.230680">
        <ele>194.754</ele>
        <time>2020-07-14T01:26:22Z</time>
      </trkpt>
      <trkpt lat="43.152050" lon="-1.234820">
        <ele>186.829</ele>
        <time>2020-07-14T01:27:22Z</time>
      </trkpt>
      <trkpt lat="43.157310" lon="-1.237120">
        <ele>191.321</ele>
        <time>2020-07-14T01:29:02Z</time>
      </trkpt>
      <trkpt lat="43.159040" lon="-1.238790">
        <ele>186.732</ele>
        <time>2020-07-14T01:29:22Z</time>
      </trkpt>
      <trkpt lat="43.160400" lon="-1.238360">
        <ele>175.291</ele>
        <time>2020-07-14T01:30:02Z</time>
      </trkpt>
      <trkpt lat="43.160830" lon="-1.239410">
        <ele>174.948</ele>
        <time>2020-07-14T01:30:22Z</time>
      </trkpt>
      <trkpt lat="43.161970" lon="-1.238770">
        <ele>168.361</ele>
        <time>2020-07-14T01:31:02Z</time>
      </trkpt>
      <trkpt lat="43.163820" lon="-1.241370">
        <ele>159.517</ele>
        <time>2020-07-14T01:32:02Z</time>
      </trkpt>
      <trkpt lat="43.164110" lon="-1.242450">
        <ele>160.208</ele>
        <time>2020-07-14T01:32:22Z</time>
      </trkpt>
      <trkpt lat="43.166740" lon="-1.246020">
        <ele>156.519</ele>
        <time>2020-07-14T01:32:42Z</time>
      </trkpt>
      <trkpt lat="43.166720" lon="-1.247210">
        <ele>155.866</ele>
        <time>2020-07-14T01:33:02Z</time>
      </trkpt>
      <trkpt lat="43.165650" lon="-1.249730">
        <ele>160.061</ele>
        <time>2020-07-14T01:33:42Z</time>
      </trkpt>
      <trkpt lat="43.164830" lon="-1.250520">
        <ele>166.754</ele>
        <time>2020-07-14T01:34:22Z</time>
      </trkpt>
      <trkpt lat="43.167690" lon="-1.252350">
        <ele>188.929</ele>
        <time>2020-07-14T01:35:22Z</time>
      </trkpt>
      <trkpt lat="43.168120" lon="-1.254260">
        <ele>175.711</ele>
        <time>2020-07-14T01:35:42Z</time>
      </trkpt>
      <trkpt lat="43.168000" lon="-1.259720">
        <ele>182.032</ele>
        <time>2020-07-14T01:36:02Z</time>
      </trkpt>
      <trkpt lat="43.168530" lon="-1.262310">
        <ele>189.351</ele>
        <time>2020-07-14T01:36:22Z</time>
      </trkpt>
      <trkpt lat="43.169970" lon="-1.264930">
        <ele>186.529</ele>
        <time>2020-07-14T01:36:42Z</time>
      </trkpt>
      <trkpt lat="43.170440" lon="-1.267020">
        <ele>177.000</ele>
        <time>2020-07-14T01:37:22Z</time>
      </trkpt>
      <trkpt lat="43.173030" lon="-1.269130">
        <ele>178.120</ele>
        <time>2020-07-14T01:38:22Z</time>
      </trkpt>
      <trkpt lat="43.172890" lon="-1.277640">
        <ele>177.908</ele>
        <time>2020-07-14T01:38:42Z</time>
      </trkpt>
      <trkpt lat="43.173200" lon="-1.278340">
        <ele>174.917</ele>
        <time>2020-07-14T01:39:02Z</time>
      </trkpt>
      <trkpt lat="43.174170" lon="-1.278920">
        <ele>175.054</ele>
        <time>2020-07-14T01:39:42Z</time>
      </trkpt>
      <trkpt lat="43.176510" lon="-1.297830">
        <ele>200.979</ele>
        <time>2020-07-14T01:40:42Z</time>
      </trkpt>
      <trkpt lat="43.176360" lon="-1.300890">
        <ele>209.732</ele>
        <time>2020-07-14T01:41:02Z</time>
      </trkpt>
      <trkpt lat="43.176680" lon="-1.301380">
        <ele>210.187</ele>
        <time>2020-07-14T01:41:22Z</time>
      </trkpt>
      <trkpt lat="43.177510" lon="-1.301360">
        <ele>216.979</ele>
        <time>2020-07-14T01:41:42Z</time>
      </trkpt>
      <trkpt lat="43.178620" lon="-1.303200">
        <ele>230.030</ele>
        <time>2020-07-14T01:42:22Z</time>
      </trkpt>
      <trkpt lat="43.179170" lon="-1.306890">
        <ele>246.219</ele>
        <time>2020-07-14T01:43:02Z</time>
      </trkpt>
      <trkpt lat="43.178200" lon="-1.311240">
        <ele>221.379</ele>
        <time>2020-07-14T01:43:22Z</time>
      </trkpt>
      <trkpt lat="43.178270" lon="-1.313030">
        <ele>224.305</ele>
        <time>2020-07-14T01:43:42Z</time>
      </trkpt>
      <trkpt lat="43.179160" lon="-1.316420">
        <ele>201.725</ele>
        <time>2020-07-14T01:44:22Z</time>
      </trkpt>
      <trkpt lat="43.180770" lon="-1.319540">
        <ele>172.208</ele>
        <time>2020-07-14T01:45:42Z</time>
      </trkpt>
      <trkpt lat="43.181830" lon="-1.320780">
        <ele>179.862</ele>
        <time>2020-07-14T01:46:22Z</time>
      </trkpt>
      <trkpt lat="43.180950" lon="-1.322970">
        <ele>168.859</ele>
        <time>2020-07-14T01:47:22Z</time>
      </trkpt>
      <trkpt lat="43.182000" lon="-1.326670">
        <ele>175.624</ele>
        <time>2020-07-14T01:48:02Z</time>
      </trkpt>
      <trkpt lat="43.183880" lon="-1.328460">
        <ele>165.047</ele>
        <time>2020-07-14T01:48:22Z</time>
      </trkpt>
      <trkpt lat="43.184250" lon="-1.329440">
        <ele>162.342</ele>
        <time>2020-07-14T01:48:42Z</time>
      </trkpt>
      <trkpt lat="43.184040" lon="-1.332220">
        <ele>145.584</ele>
        <time>2020-07-14T01:49:22Z</time>
      </trkpt>
      <trkpt lat="43.182550" lon="-1.335310">
        <ele>147.795</ele>
        <time>2020-07-14T01:50:22Z</time>
      </trkpt>
      <trkpt lat="43.181610" lon="-1.334820">
        <ele>155.154</ele>
        <time>2020-07-14T01:50:42Z</time>
      </trkpt>
      <trkpt lat="43.180800" lon="-1.335740">
        <ele>161.398</ele>
        <time>2020-07-14T01:51:02Z</time>
      </trkpt>
      <trkpt lat="43.178460" lon="-1.336520">
        <ele>155.615</ele>
        <time>2020-07-14T01:51:22Z</time>
      </trkpt>
      <trkpt lat="43.177590" lon="-1.337360">
        <ele>154.426</ele>
        <time>2020-07-14T01:51:42Z</time>
      </trkpt>
      <trkpt lat="43.174660" lon="-1.345200">
        <ele>161.208</ele>
        <time>2020-07-14T01:52:42Z</time>
      </trkpt>
      <trkpt lat="43.175820" lon="-1.345860">
        <ele>156.054</ele>
        <time>2020-07-14T01:53:42Z</time>
      </trkpt>
      <trkpt lat="43.175090" lon="-1.347290">
        <ele>159.011</ele>
        <time>2020-07-14T01:54:02Z</time>
      </trkpt>
      <trkpt lat="43.175880" lon="-1.348640">
        <ele>163.466</ele>
        <time>2020-07-14T01:54:42Z</time>
      </trkpt>
      <trkpt lat="43.175120" lon="-1.349930">
        <ele>167.359</ele>
        <time>2020-07-14T01:55:02Z</time>
      </trkpt>
      <trkpt lat="43.176560" lon="-1.349240">
        <ele>183.434</ele>
        <time>2020-07-14T01:56:02Z</time>
      </trkpt>
      <trkpt lat="43.177080" lon="-1.350310">
        <ele>189.396</ele>
        <time>2020-07-14T01:56:22Z</time>
      </trkpt>
      <trkpt lat="43.177570" lon="-1.350360">
        <ele>190.247</ele>
        <time>2020-07-14T01:56:42Z</time>
      </trkpt>
      <trkpt lat="43.177830" lon="-1.350960">
        <ele>194.456</ele>
        <time>2020-07-14T01:57:02Z</time>
      </trkpt>
      <trkpt lat="43.176900" lon="-1.350660">
        <ele>201.028</ele>
        <time>2020-07-14T01:57:42Z</time>
      </trkpt>
      <trkpt lat="43.176120" lon="-1.351250">
        <ele>203.289</ele>
        <time>2020-07-14T01:58:02Z</time>
      </trkpt>
      <trkpt lat="43.175880" lon="-1.353530">
        <ele>220.417</ele>
        <time>2020-07-14T01:58:42Z</time>
      </trkpt>
      <trkpt lat="43.174760" lon="-1.354230">
        <ele>220.108</ele>
        <time>2020-07-14T01:59:42Z</time>
      </trkpt>
      <trkpt lat="43.173800" lon="-1.357350">
        <ele>242.057</ele>
        <time>2020-07-14T02:00:02Z</time>
      </trkpt>
      <trkpt lat="43.174100" lon="-1.358200">
        <ele>247.124</ele>
        <time>2020-07-14T02:00:42Z</time>
      </trkpt>
      <trkpt lat="43.176160" lon="-1.358310">
        <ele>266.149</ele>
        <time>2020-07-14T02:01:22Z</time>
      </trkpt>
      <trkpt lat="43.177130" lon="-1.359400">
        <ele>273.872</ele>
        <time>2020-07-14T02:02:02Z</time>
      </trkpt>
      <trkpt lat="43.177580" lon="-1.362080">
        <ele>293.247</ele>
        <time>2020-07-14T02:03:02Z</time>
      </trkpt>
      <trkpt lat="43.176930" lon="-1.364060">
        <ele>291.929</ele>
        <time>2020-07-14T02:03:42Z</time>
      </trkpt>
      <trkpt lat="43.178080" lon="-1.364990">
        <ele>307.750</ele>
        <time>2020-07-14T02:04:42Z</time>
      </trkpt>
      <trkpt lat="43.177300" lon="-1.367010">
        <ele>317.429</ele>
        <time>2020-07-14T02:05:22Z</time>
      </trkpt>
      <trkpt lat="43.177270" lon="-1.370130">
        <ele>335.634</ele>
        <time>2020-07-14T02:06:02Z</time>
      </trkpt>
      <trkpt lat="43.180090" lon="-1.370650">
        <ele>365.455</ele>
        <time>2020-07-14T02:07:02Z</time>
      </trkpt>
      <trkpt lat="43.180520" lon="-1.371430">
        <ele>370.810</ele>
        <time>2020-07-14T02:07:22Z</time>
      </trkpt>
      <trkpt lat="43.180610" lon="-1.373370">
        <ele>379.308</ele>
        <time>2020-07-14T02:07:42Z</time>
      </trkpt>
      <trkpt lat="43.181220" lon="-1.373740">
        <ele>388.198</ele>
        <time>2020-07-14T02:08:02Z</time>
      </trkpt>
      <trkpt lat="43.181390" lon="-1.374440">
        <ele>390.195</ele>
        <time>2020-07-14T02:08:22Z</time>
      </trkpt>
      <trkpt lat="43.183430" lon="-1.375800">
        <ele>406.220</ele>
        <time>2020-07-14T02:09:42Z</time>
      </trkpt>
      <trkpt lat="43.180730" lon="-1.376550">
        <ele>425.223</ele>
        <time>2020-07-14T02:10:42Z</time>
      </trkpt>
      <trkpt lat="43.178750" lon="-1.375340">
        <ele>436.858</ele>
        <time>2020-07-14T02:11:22Z</time>
      </trkpt>
      <trkpt lat="43.178000" lon="-1.375860">
        <ele>443.360</ele>
        <time>2020-07-14T02:11:42Z</time>
      </trkpt>
      <trkpt lat="43.178500" lon="-1.378020">
        <ele>455.761</ele>
        <time>2020-07-14T02:12:22Z</time>
      </trkpt>
      <trkpt lat="43.180960" lon="-1.379110">
        <ele>477.580</ele>
        <time>2020-07-14T02:13:22Z</time>
      </trkpt>
      <trkpt lat="43.182090" lon="-1.380710">
        <ele>488.966</ele>
        <time>2020-07-14T02:14:02Z</time>
      </trkpt>
      <trkpt lat="43.181820" lon="-1.381370">
        <ele>492.329</ele>
        <time>2020-07-14T02:14:42Z</time>
      </trkpt>
      <trkpt lat="43.181070" lon="-1.381750">
        <ele>496.021</ele>
        <time>2020-07-14T02:15:02Z</time>
      </trkpt>
      <trkpt lat="43.179040" lon="-1.384200">
        <ele>517.208</ele>
        <time>2020-07-14T02:15:42Z</time>
      </trkpt>
      <trkpt lat="43.178930" lon="-1.386530">
        <ele>527.571</ele>
        <time>2020-07-14T02:16:22Z</time>
      </trkpt>
      <trkpt lat="43.179610" lon="-1.386770">
        <ele>532.568</ele>
        <time>2020-07-14T02:17:02Z</time>
      </trkpt>
      <trkpt lat="43.180840" lon="-1.386310">
        <ele>544.963</ele>
        <time>2020-07-14T02:17:22Z</time>
      </trkpt>
      <trkpt lat="43.181530" lon="-1.387090">
        <ele>550.376</ele>
        <time>2020-07-14T02:17:42Z</time>
      </trkpt>
      <trkpt lat="43.183290" lon="-1.387760">
        <ele>567.011</ele>
        <time>2020-07-14T02:18:22Z</time>
      </trkpt>
      <trkpt lat="43.182040" lon="-1.389750">
        <ele>576.553</ele>
        <time>2020-07-14T02:19:02Z</time>
      </trkpt>
      <trkpt lat="43.182260" lon="-1.391520">
        <ele>590.874</ele>
        <time>2020-07-14T02:19:42Z</time>
      </trkpt>
      <trkpt lat="43.181430" lon="-1.392180">
        <ele>594.563</ele>
        <time>2020-07-14T02:20:22Z</time>
      </trkpt>
      <trkpt lat="43.181320" lon="-1.394240">
        <ele>609.025</ele>
        <time>2020-07-14T02:20:42Z</time>
      </trkpt>
      <trkpt lat="43.180050" lon="-1.396040">
        <ele>621.926</ele>
        <time>2020-07-14T02:21:22Z</time>
      </trkpt>
      <trkpt lat="43.178260" lon="-1.396650">
        <ele>631.108</ele>
        <time>2020-07-14T02:21:42Z</time>
      </trkpt>
      <trkpt lat="43.176660" lon="-1.400980">
        <ele>663.008</ele>
        <time>2020-07-14T02:22:02Z</time>
      </trkpt>
      <trkpt lat="43.175820" lon="-1.401640">
        <ele>667.367</ele>
        <time>2020-07-14T02:22:22Z</time>
      </trkpt>
      <trkpt lat="43.175650" lon="-1.402420">
        <ele>671.344</ele>
        <time>2020-07-14T02:22:42Z</time>
      </trkpt>
      <trkpt lat="43.177370" lon="-1.406430">
        <ele>643.129</ele>
        <time>2020-07-14T02:23:42Z</time>
      </trkpt>
      <trkpt lat="43.180340" lon="-1.406760">
        <ele>628.552</ele>
        <time>2020-07-14T02:25:02Z</time>
      </trkpt>
      <trkpt lat="43.178390" lon="-1.406820">
        <ele>621.757</ele>
        <time>2020-07-14T02:26:02Z</time>
      </trkpt>
      <trkpt lat="43.177040" lon="-1.408300">
        <ele>610.789</ele>
        <time>2020-07-14T02:26:42Z</time>
      </trkpt>
      <trkpt lat="43.176260" lon="-1.406050">
        <ele>604.010</ele>
        <time>2020-07-14T02:27:42Z</time>
      </trkpt>
      <trkpt lat="43.176690" lon="-1.409160">
        <ele>586.229</ele>
        <time>2020-07-14T02:28:02Z</time>
      </trkpt>
      <trkpt lat="43.179000" lon="-1.408340">
        <ele>572.859</ele>
        <time>2020-07-14T02:29:42Z</time>
      </trkpt>
      <trkpt lat="43.180020" lon="-1.409520">
        <ele>564.203</ele>
        <time>2020-07-14T02:30:22Z</time>
      </trkpt>
      <trkpt lat="43.182310" lon="-1.409660">
        <ele>552.423</ele>
        <time>2020-07-14T02:31:02Z</time>
      </trkpt>
      <trkpt lat="43.180200" lon="-1.410260">
        <ele>538.108</ele>
        <time>2020-07-14T02:32:02Z</time>
      </trkpt>
      <trkpt lat="43.178490" lon="-1.409500">
        <ele>529.720</ele>
        <time>2020-07-14T02:33:02Z</time>
      </trkpt>
      <trkpt lat="43.176540" lon="-1.411800">
        <ele>512.317</ele>
        <time>2020-07-14T02:33:42Z</time>
      </trkpt>
      <trkpt lat="43.178450" lon="-1.410230">
        <ele>505.042</ele>
        <time>2020-07-14T02:34:42Z</time>
      </trkpt>
      <trkpt lat="43.179500" lon="-1.412550">
        <ele>487.155</ele>
        <time>2020-07-14T02:35:22Z</time>
      </trkpt>
      <trkpt lat="43.181190" lon="-1.412240">
        <ele>480.390</ele>
        <time>2020-07-14T02:36:42Z</time>
      </trkpt>
      <trkpt lat="43.180300" lon="-1.415050">
        <ele>460.332</ele>
        <time>2020-07-14T02:37:42Z</time>
      </trkpt>
      <trkpt lat="43.182060" lon="-1.415350">
        <ele>452.313</ele>
        <time>2020-07-14T02:38:42Z</time>
      </trkpt>
      <trkpt lat="43.180760" lon="-1.417350">
        <ele>437.522</ele>
        <time>2020-07-14T02:40:22Z</time>
      </trkpt>
      <trkpt lat="43.181290" lon="-1.415760">
        <ele>437.395</ele>
        <time>2020-07-14T02:41:22Z</time>
      </trkpt>
      <trkpt lat="43.179370" lon="-1.416910">
        <ele>416.549</ele>
        <time>2020-07-14T02:42:42Z</time>
      </trkpt>
      <trkpt lat="43.180340" lon="-1.416910">
        <ele>413.623</ele>
        <time>2020-07-14T02:43:22Z</time>
      </trkpt>
      <trkpt lat="43.179850" lon="-1.417620">
        <ele>405.808</ele>
        <time>2020-07-14T02:44:02Z</time>
      </trkpt>
      <trkpt lat="43.180130" lon="-1.420600">
        <ele>391.094</ele>
        <time>2020-07-14T02:44:42Z</time>
      </trkpt>
      <trkpt lat="43.181270" lon="-1.423140">
        <ele>378.621</ele>
        <time>2020-07-14T02:45:22Z</time>
      </trkpt>
      <trkpt lat="43.180710" lon="-1.422440">
        <ele>375.116</ele>
        <time>2020-07-14T02:45:42Z</time>
      </trkpt>
      <trkpt lat="43.182860" lon="-1.427060">
        <ele>355.299</ele>
        <time>2020-07-14T02:46:22Z</time>
      </trkpt>
      <trkpt lat="43.181100" lon="-1.429870">
        <ele>343.454</ele>
        <time>2020-07-14T02:47:22Z</time>
      </trkpt>
      <trkpt lat="43.181520" lon="-1.432590">
        <ele>336.436</ele>
        <time>2020-07-14T02:48:02Z</time>
      </trkpt>
      <trkpt lat="43.181170" lon="-1.438780">
        <ele>323.187</ele>
        <time>2020-07-14T02:49:02Z</time>
      </trkpt>
      <trkpt lat="43.181790" lon="-1.440310">
        <ele>319.926</ele>
        <time>2020-07-14T02:49:22Z</time>
      </trkpt>
      <trkpt lat="43.181570" lon="-1.443650">
        <ele>318.222</ele>
        <time>2020-07-14T02:50:02Z</time>
      </trkpt>
      <trkpt lat="43.180170" lon="-1.445690">
        <ele>315.362</ele>
        <time>2020-07-14T02:50:22Z</time>
      </trkpt>
      <trkpt lat="43.180860" lon="-1.448730">
        <ele>304.208</ele>
        <time>2020-07-14T02:50:42Z</time>
      </trkpt>
      <trkpt lat="43.180830" lon="-1.451770">
        <ele>297.008</ele>
        <time>2020-07-14T02:51:02Z</time>
      </trkpt>
      <trkpt lat="43.180310" lon="-1.453850">
        <ele>293.017</ele>
        <time>2020-07-14T02:51:22Z</time>
      </trkpt>
      <trkpt lat="43.180560" lon="-1.455330">
        <ele>290.054</ele>
        <time>2020-07-14T02:52:02Z</time>
      </trkpt>
      <trkpt lat="43.181510" lon="-1.457040">
        <ele>287.789</ele>
        <time>2020-07-14T02:53:02Z</time>
      </trkpt>
      <trkpt lat="43.182310" lon="-1.456790">
        <ele>289.992</ele>
        <time>2020-07-14T02:53:22Z</time>
      </trkpt>
      <trkpt lat="43.182310" lon="-1.456790">
        <ele>289.979</ele>
        <time>2020-07-13T21:17:56Z</time>
      </trkpt>
      <trkpt lat="43.181510" lon="-1.457040">
        <ele>287.705</ele>
        <time>2020-07-13T21:18:16Z</time>
      </trkpt>
      <trkpt lat="43.183570" lon="-1.459330">
        <ele>283.825</ele>
        <time>2020-07-13T21:19:16Z</time>
      </trkpt>
      <trkpt lat="43.184230" lon="-1.466150">
        <ele>284.708</ele>
        <time>2020-07-13T21:20:36Z</time>
      </trkpt>
      <trkpt lat="43.184070" lon="-1.467160">
        <ele>286.032</ele>
        <time>2020-07-13T21:20:56Z</time>
      </trkpt>
      <trkpt lat="43.179630" lon="-1.478330">
        <ele>257.739</ele>
        <time>2020-07-13T21:21:56Z</time>
      </trkpt>
      <trkpt lat="43.180500" lon="-1.482350">
        <ele>253.624</ele>
        <time>2020-07-13T21:22:56Z</time>
      </trkpt>
      <trkpt lat="43.180020" lon="-1.486730">
        <ele>247.857</ele>
        <time>2020-07-13T21:23:36Z</time>
      </trkpt>
      <trkpt lat="43.180700" lon="-1.490560">
        <ele>243.012</ele>
        <time>2020-07-13T21:24:16Z</time>
      </trkpt>
      <trkpt lat="43.175780" lon="-1.492980">
        <ele>238.755</ele>
        <time>2020-07-13T21:24:56Z</time>
      </trkpt>
      <trkpt lat="43.172260" lon="-1.493400">
        <ele>233.698</ele>
        <time>2020-07-13T21:25:16Z</time>
      </trkpt>
      <trkpt lat="43.167470" lon="-1.492030">
        <ele>230.730</ele>
        <time>2020-07-13T21:25:56Z</time>
      </trkpt>
      <trkpt lat="43.166340" lon="-1.493110">
        <ele>231.892</ele>
        <time>2020-07-13T21:26:16Z</time>
      </trkpt>
      <trkpt lat="43.164840" lon="-1.496330">
        <ele>227.273</ele>
        <time>2020-07-13T21:27:16Z</time>
      </trkpt>
      <trkpt lat="43.163950" lon="-1.496640">
        <ele>225.620</ele>
        <time>2020-07-13T21:27:56Z</time>
      </trkpt>
      <trkpt lat="43.161530" lon="-1.495860">
        <ele>222.508</ele>
        <time>2020-07-13T21:28:36Z</time>
      </trkpt>
      <trkpt lat="43.159690" lon="-1.498290">
        <ele>220.714</ele>
        <time>2020-07-13T21:28:56Z</time>
      </trkpt>
      <trkpt lat="43.158710" lon="-1.500280">
        <ele>220.781</ele>
        <time>2020-07-13T21:29:16Z</time>
      </trkpt>
      <trkpt lat="43.155680" lon="-1.501940">
        <ele>222.096</ele>
        <time>2020-07-13T21:29:56Z</time>
      </trkpt>
      <trkpt lat="43.153900" lon="-1.503460">
        <ele>224.099</ele>
        <time>2020-07-13T21:30:16Z</time>
      </trkpt>
      <trkpt lat="43.152140" lon="-1.505830">
        <ele>218.964</ele>
        <time>2020-07-13T21:30:56Z</time>
      </trkpt>
      <trkpt lat="43.151840" lon="-1.507120">
        <ele>213.057</ele>
        <time>2020-07-13T21:31:16Z</time>
      </trkpt>
      <trkpt lat="43.152120" lon="-1.510150">
        <ele>219.480</ele>
        <time>2020-07-13T21:32:36Z</time>
      </trkpt>
      <trkpt lat="43.153260" lon="-1.513130">
        <ele>218.162</ele>
        <time>2020-07-13T21:32:56Z</time>
      </trkpt>
      <trkpt lat="43.153470" lon="-1.516480">
        <ele>225.826</ele>
        <time>2020-07-13T21:33:36Z</time>
      </trkpt>
      <trkpt lat="43.152910" lon="-1.518880">
        <ele>231.947</ele>
        <time>2020-07-13T21:33:56Z</time>
      </trkpt>
      <trkpt lat="43.150520" lon="-1.520950">
        <ele>217.611</ele>
        <time>2020-07-13T21:34:56Z</time>
      </trkpt>
      <trkpt lat="43.149380" lon="-1.524100">
        <ele>219.608</ele>
        <time>2020-07-13T21:35:36Z</time>
      </trkpt>
      <trkpt lat="43.148370" lon="-1.525900">
        <ele>218.827</ele>
        <time>2020-07-13T21:36:16Z</time>
      </trkpt>
      <trkpt lat="43.144730" lon="-1.529580">
        <ele>227.114</ele>
        <time>2020-07-13T21:37:16Z</time>
      </trkpt>
      <trkpt lat="43.143440" lon="-1.532650">
        <ele>220.269</ele>
        <time>2020-07-13T21:37:56Z</time>
      </trkpt>
      <trkpt lat="43.142290" lon="-1.538280">
        <ele>208.442</ele>
        <time>2020-07-13T21:38:56Z</time>
      </trkpt>
      <trkpt lat="43.141680" lon="-1.539130">
        <ele>209.427</ele>
        <time>2020-07-13T21:39:16Z</time>
      </trkpt>
      <trkpt lat="43.140700" lon="-1.542000">
        <ele>205.650</ele>
        <time>2020-07-13T21:39:36Z</time>
      </trkpt>
      <trkpt lat="43.139160" lon="-1.544570">
        <ele>187.813</ele>
        <time>2020-07-13T21:39:56Z</time>
      </trkpt>
      <trkpt lat="43.138710" lon="-1.546100">
        <ele>181.325</ele>
        <time>2020-07-13T21:40:16Z</time>
      </trkpt>
      <trkpt lat="43.138670" lon="-1.548340">
        <ele>180.837</ele>
        <time>2020-07-13T21:40:36Z</time>
      </trkpt>
      <trkpt lat="43.139420" lon="-1.552140">
        <ele>175.849</ele>
        <time>2020-07-13T21:40:56Z</time>
      </trkpt>
      <trkpt lat="43.139720" lon="-1.557200">
        <ele>182.813</ele>
        <time>2020-07-13T21:41:16Z</time>
      </trkpt>
      <trkpt lat="43.140630" lon="-1.561100">
        <ele>178.708</ele>
        <time>2020-07-13T21:41:36Z</time>
      </trkpt>
      <trkpt lat="43.141430" lon="-1.562300">
        <ele>175.838</ele>
        <time>2020-07-13T21:42:36Z</time>
      </trkpt>
      <trkpt lat="43.141290" lon="-1.563830">
        <ele>170.765</ele>
        <time>2020-07-13T21:43:16Z</time>
      </trkpt>
      <trkpt lat="43.142560" lon="-1.566130">
        <ele>168.070</ele>
        <time>2020-07-13T21:43:36Z</time>
      </trkpt>
      <trkpt lat="43.142840" lon="-1.567410">
        <ele>170.633</ele>
        <time>2020-07-13T21:43:56Z</time>
      </trkpt>
      <trkpt lat="43.142760" lon="-1.570060">
        <ele>175.118</ele>
        <time>2020-07-13T21:44:16Z</time>
      </trkpt>
      <trkpt lat="43.141180" lon="-1.572500">
        <ele>167.261</ele>
        <time>2020-07-13T21:44:56Z</time>
      </trkpt>
      <trkpt lat="43.140450" lon="-1.574360">
        <ele>164.264</ele>
        <time>2020-07-13T21:45:16Z</time>
      </trkpt>
      <trkpt lat="43.140300" lon="-1.578010">
        <ele>166.016</ele>
        <time>2020-07-13T21:45:56Z</time>
      </trkpt>
      <trkpt lat="43.140830" lon="-1.579430">
        <ele>163.189</ele>
        <time>2020-07-13T21:46:16Z</time>
      </trkpt>
      <trkpt lat="43.142750" lon="-1.582160">
        <ele>164.306</ele>
        <time>2020-07-13T21:46:36Z</time>
      </trkpt>
      <trkpt lat="43.143000" lon="-1.585710">
        <ele>164.126</ele>
        <time>2020-07-13T21:47:16Z</time>
      </trkpt>
      <trkpt lat="43.140470" lon="-1.592770">
        <ele>158.408</ele>
        <time>2020-07-13T21:48:16Z</time>
      </trkpt>
      <trkpt lat="43.140510" lon="-1.598420">
        <ele>236.853</ele>
        <time>2020-07-13T21:48:56Z</time>
      </trkpt>
      <trkpt lat="43.139970" lon="-1.600830">
        <ele>176.980</ele>
        <time>2020-07-13T21:49:36Z</time>
      </trkpt>
      <trkpt lat="43.137340" lon="-1.605370">
        <ele>161.415</ele>
        <time>2020-07-13T21:49:56Z</time>
      </trkpt>
      <trkpt lat="43.136590" lon="-1.608120">
        <ele>159.718</ele>
        <time>2020-07-13T21:50:16Z</time>
      </trkpt>
      <trkpt lat="43.135500" lon="-1.609130">
        <ele>156.693</ele>
        <time>2020-07-13T21:51:16Z</time>
      </trkpt>
      <trkpt lat="43.133770" lon="-1.608320">
        <ele>160.056</ele>
        <time>2020-07-13T21:51:36Z</time>
      </trkpt>
      <trkpt lat="43.133390" lon="-1.608710">
        <ele>158.439</ele>
        <time>2020-07-13T21:52:16Z</time>
      </trkpt>
      <trkpt lat="43.135310" lon="-1.613220">
        <ele>198.781</ele>
        <time>2020-07-13T21:53:16Z</time>
      </trkpt>
      <trkpt lat="43.135650" lon="-1.614850">
        <ele>205.817</ele>
        <time>2020-07-13T21:53:36Z</time>
      </trkpt>
      <trkpt lat="43.135630" lon="-1.617370">
        <ele>159.587</ele>
        <time>2020-07-13T21:53:56Z</time>
      </trkpt>
      <trkpt lat="43.134740" lon="-1.619890">
        <ele>152.215</ele>
        <time>2020-07-13T21:54:36Z</time>
      </trkpt>
      <trkpt lat="43.132440" lon="-1.622700">
        <ele>152.008</ele>
        <time>2020-07-13T21:54:56Z</time>
      </trkpt>
      <trkpt lat="43.130650" lon="-1.626670">
        <ele>152.376</ele>
        <time>2020-07-13T21:55:36Z</time>
      </trkpt>
      <trkpt lat="43.130310" lon="-1.629200">
        <ele>152.773</ele>
        <time>2020-07-13T21:55:56Z</time>
      </trkpt>
      <trkpt lat="43.130420" lon="-1.636090">
        <ele>140.028</ele>
        <time>2020-07-13T21:56:36Z</time>
      </trkpt>
      <trkpt lat="43.131160" lon="-1.638510">
        <ele>133.271</ele>
        <time>2020-07-13T21:56:56Z</time>
      </trkpt>
      <trkpt lat="43.132230" lon="-1.639840">
        <ele>132.796</ele>
        <time>2020-07-13T21:57:16Z</time>
      </trkpt>
      <trkpt lat="43.131400" lon="-1.653070">
        <ele>137.459</ele>
        <time>2020-07-13T21:57:36Z</time>
      </trkpt>
      <trkpt lat="43.131640" lon="-1.655530">
        <ele>130.812</ele>
        <time>2020-07-13T21:57:56Z</time>
      </trkpt>
      <trkpt lat="43.132400" lon="-1.658650">
        <ele>133.074</ele>
        <time>2020-07-13T21:58:16Z</time>
      </trkpt>
      <trkpt lat="43.133540" lon="-1.660920">
        <ele>128.699</ele>
        <time>2020-07-13T21:58:36Z</time>
      </trkpt>
      <trkpt lat="43.134050" lon="-1.663490">
        <ele>126.607</ele>
        <time>2020-07-13T21:58:56Z</time>
      </trkpt>
      <trkpt lat="43.134650" lon="-1.664410">
        <ele>125.527</ele>
        <time>2020-07-13T21:59:36Z</time>
      </trkpt>
      <trkpt lat="43.132870" lon="-1.666520">
        <ele>119.408</ele>
        <time>2020-07-13T22:00:16Z</time>
      </trkpt>
      <trkpt lat="43.131490" lon="-1.671870">
        <ele>123.224</ele>
        <time>2020-07-13T22:01:16Z</time>
      </trkpt>
      <trkpt lat="43.132170" lon="-1.672150">
        <ele>122.991</ele>
        <time>2020-07-13T22:01:56Z</time>
      </trkpt>
      <trkpt lat="43.133190" lon="-1.675430">
        <ele>127.746</ele>
        <time>2020-07-13T22:02:36Z</time>
      </trkpt>
      <trkpt lat="43.136550" lon="-1.680810">
        <ele>132.639</ele>
        <time>2020-07-13T22:03:16Z</time>
      </trkpt>
      <trkpt lat="43.138450" lon="-1.682780">
        <ele>136.284</ele>
        <time>2020-07-13T22:03:56Z</time>
      </trkpt>
      <trkpt lat="43.138930" lon="-1.684840">
        <ele>141.337</ele>
        <time>2020-07-13T22:04:16Z</time>
      </trkpt>
      <trkpt lat="43.139090" lon="-1.687400">
        <ele>142.770</ele>
        <time>2020-07-13T22:04:36Z</time>
      </trkpt>
      <trkpt lat="43.138200" lon="-1.689870">
        <ele>142.942</ele>
        <time>2020-07-13T22:05:16Z</time>
      </trkpt>
      <trkpt lat="43.137040" lon="-1.690540">
        <ele>143.496</ele>
        <time>2020-07-13T22:05:56Z</time>
      </trkpt>
      <trkpt lat="43.135550" lon="-1.690240">
        <ele>143.331</ele>
        <time>2020-07-13T22:06:16Z</time>
      </trkpt>
      <trkpt lat="43.134610" lon="-1.690560">
        <ele>145.724</ele>
        <time>2020-07-13T22:06:56Z</time>
      </trkpt>
      <trkpt lat="43.133480" lon="-1.692670">
        <ele>146.908</ele>
        <time>2020-07-13T22:07:36Z</time>
      </trkpt>
      <trkpt lat="43.133650" lon="-1.694790">
        <ele>149.664</ele>
        <time>2020-07-13T22:07:56Z</time>
      </trkpt>
      <trkpt lat="43.132900" lon="-1.698670">
        <ele>150.661</ele>
        <time>2020-07-13T22:08:16Z</time>
      </trkpt>
      <trkpt lat="43.131710" lon="-1.701260">
        <ele>149.326</ele>
        <time>2020-07-13T22:08:36Z</time>
      </trkpt>
      <trkpt lat="43.129860" lon="-1.703690">
        <ele>151.589</ele>
        <time>2020-07-13T22:08:56Z</time>
      </trkpt>
      <trkpt lat="43.128970" lon="-1.707550">
        <ele>156.144</ele>
        <time>2020-07-13T22:09:36Z</time>
      </trkpt>
      <trkpt lat="43.129200" lon="-1.709310">
        <ele>157.127</ele>
        <time>2020-07-13T22:09:56Z</time>
      </trkpt>
      <trkpt lat="43.129490" lon="-1.709630">
        <ele>158.220</ele>
        <time>2020-07-13T22:10:16Z</time>
      </trkpt>
      <trkpt lat="43.130290" lon="-1.716590">
        <ele>173.792</ele>
        <time>2020-07-13T22:11:36Z</time>
      </trkpt>
      <trkpt lat="43.130060" lon="-1.718190">
        <ele>178.422</ele>
        <time>2020-07-13T22:11:56Z</time>
      </trkpt>
      <trkpt lat="43.131390" lon="-1.720380">
        <ele>190.662</ele>
        <time>2020-07-13T22:12:36Z</time>
      </trkpt>
      <trkpt lat="43.133160" lon="-1.722440">
        <ele>184.408</ele>
        <time>2020-07-13T22:12:56Z</time>
      </trkpt>
      <trkpt lat="43.133000" lon="-1.723460">
        <ele>183.308</ele>
        <time>2020-07-13T22:13:16Z</time>
      </trkpt>
      <trkpt lat="43.133250" lon="-1.725100">
        <ele>183.317</ele>
        <time>2020-07-13T22:13:36Z</time>
      </trkpt>
      <trkpt lat="43.132670" lon="-1.725960">
        <ele>184.174</ele>
        <time>2020-07-13T22:13:56Z</time>
      </trkpt>
      <trkpt lat="43.130870" lon="-1.727140">
        <ele>184.929</ele>
        <time>2020-07-13T22:14:36Z</time>
      </trkpt>
      <trkpt lat="43.129580" lon="-1.730030">
        <ele>184.052</ele>
        <time>2020-07-13T22:14:56Z</time>
      </trkpt>
      <trkpt lat="43.129450" lon="-1.731050">
        <ele>187.547</ele>
        <time>2020-07-13T22:15:16Z</time>
      </trkpt>
      <trkpt lat="43.128030" lon="-1.732910">
        <ele>191.570</ele>
        <time>2020-07-13T22:15:36Z</time>
      </trkpt>
      <trkpt lat="43.126520" lon="-1.736610">
        <ele>195.773</ele>
        <time>2020-07-13T22:16:16Z</time>
      </trkpt>
      <trkpt lat="43.126620" lon="-1.737990">
        <ele>194.135</ele>
        <time>2020-07-13T22:16:36Z</time>
      </trkpt>
      <trkpt lat="43.126250" lon="-1.739660">
        <ele>200.341</ele>
        <time>2020-07-13T22:16:56Z</time>
      </trkpt>
      <trkpt lat="43.126090" lon="-1.744890">
        <ele>208.181</ele>
        <time>2020-07-13T22:17:16Z</time>
      </trkpt>
      <trkpt lat="43.126320" lon="-1.747190">
        <ele>222.809</ele>
        <time>2020-07-13T22:17:36Z</time>
      </trkpt>
      <trkpt lat="43.126090" lon="-1.748680">
        <ele>226.108</ele>
        <time>2020-07-13T22:17:56Z</time>
      </trkpt>
      <trkpt lat="43.123570" lon="-1.752380">
        <ele>244.959</ele>
        <time>2020-07-13T22:18:56Z</time>
      </trkpt>
      <trkpt lat="43.123460" lon="-1.753180">
        <ele>252.486</ele>
        <time>2020-07-13T22:19:16Z</time>
      </trkpt>
      <trkpt lat="43.122770" lon="-1.753090">
        <ele>255.621</ele>
        <time>2020-07-13T22:19:36Z</time>
      </trkpt>
      <trkpt lat="43.121040" lon="-1.754200">
        <ele>270.624</ele>
        <time>2020-07-13T22:20:16Z</time>
      </trkpt>
      <trkpt lat="43.119030" lon="-1.754490">
        <ele>282.229</ele>
        <time>2020-07-13T22:20:56Z</time>
      </trkpt>
      <trkpt lat="43.117520" lon="-1.757700">
        <ele>260.242</ele>
        <time>2020-07-13T22:21:36Z</time>
      </trkpt>
      <trkpt lat="43.114300" lon="-1.759220">
        <ele>271.475</ele>
        <time>2020-07-13T22:22:36Z</time>
      </trkpt>
      <trkpt lat="43.112670" lon="-1.761680">
        <ele>288.337</ele>
        <time>2020-07-13T22:23:16Z</time>
      </trkpt>
      <trkpt lat="43.110240" lon="-1.764040">
        <ele>307.748</ele>
        <time>2020-07-13T22:24:16Z</time>
      </trkpt>
      <trkpt lat="43.109570" lon="-1.765440">
        <ele>312.761</ele>
        <time>2020-07-13T22:24:36Z</time>
      </trkpt>
      <trkpt lat="43.108430" lon="-1.766050">
        <ele>316.117</ele>
        <time>2020-07-13T22:24:56Z</time>
      </trkpt>
      <trkpt lat="43.107530" lon="-1.767090">
        <ele>313.808</ele>
        <time>2020-07-13T22:25:16Z</time>
      </trkpt>
      <trkpt lat="43.104700" lon="-1.766820">
        <ele>312.179</ele>
        <time>2020-07-13T22:26:36Z</time>
      </trkpt>
      <trkpt lat="43.101990" lon="-1.767630">
        <ele>315.476</ele>
        <time>2020-07-13T22:27:16Z</time>
      </trkpt>
      <trkpt lat="43.101540" lon="-1.768130">
        <ele>320.051</ele>
        <time>2020-07-13T22:27:36Z</time>
      </trkpt>
      <trkpt lat="43.099010" lon="-1.774860">
        <ele>333.334</ele>
        <time>2020-07-13T22:28:56Z</time>
      </trkpt>
      <trkpt lat="43.099100" lon="-1.777310">
        <ele>335.219</ele>
        <time>2020-07-13T22:29:56Z</time>
      </trkpt>
      <trkpt lat="43.098120" lon="-1.778140">
        <ele>334.762</ele>
        <time>2020-07-13T22:30:16Z</time>
      </trkpt>
      <trkpt lat="43.097720" lon="-1.779530">
        <ele>337.625</ele>
        <time>2020-07-13T22:30:36Z</time>
      </trkpt>
      <trkpt lat="43.096810" lon="-1.780370">
        <ele>339.217</ele>
        <time>2020-07-13T22:30:56Z</time>
      </trkpt>
      <trkpt lat="43.096610" lon="-1.782300">
        <ele>346.336</ele>
        <time>2020-07-13T22:31:36Z</time>
      </trkpt>
      <trkpt lat="43.094870" lon="-1.783000">
        <ele>353.217</ele>
        <time>2020-07-13T22:32:36Z</time>
      </trkpt>
      <trkpt lat="43.095020" lon="-1.784830">
        <ele>363.718</ele>
        <time>2020-07-13T22:33:36Z</time>
      </trkpt>
      <trkpt lat="43.094120" lon="-1.787120">
        <ele>366.708</ele>
        <time>2020-07-13T22:33:56Z</time>
      </trkpt>
      <trkpt lat="43.092310" lon="-1.789020">
        <ele>375.648</ele>
        <time>2020-07-13T22:34:36Z</time>
      </trkpt>
      <trkpt lat="43.091410" lon="-1.789460">
        <ele>378.995</ele>
        <time>2020-07-13T22:34:56Z</time>
      </trkpt>
      <trkpt lat="43.091100" lon="-1.790590">
        <ele>388.090</ele>
        <time>2020-07-13T22:35:16Z</time>
      </trkpt>
      <trkpt lat="43.090060" lon="-1.791780">
        <ele>388.023</ele>
        <time>2020-07-13T22:35:36Z</time>
      </trkpt>
      <trkpt lat="43.090110" lon="-1.792760">
        <ele>395.638</ele>
        <time>2020-07-13T22:35:56Z</time>
      </trkpt>
      <trkpt lat="43.088900" lon="-1.791870">
        <ele>395.261</ele>
        <time>2020-07-13T22:36:56Z</time>
      </trkpt>
      <trkpt lat="43.088600" lon="-1.792080">
        <ele>396.034</ele>
        <time>2020-07-13T22:37:16Z</time>
      </trkpt>
      <trkpt lat="43.088290" lon="-1.794610">
        <ele>407.226</ele>
        <time>2020-07-13T22:37:36Z</time>
      </trkpt>
      <trkpt lat="43.087140" lon="-1.798260">
        <ele>411.074</ele>
        <time>2020-07-13T22:38:36Z</time>
      </trkpt>
      <trkpt lat="43.086800" lon="-1.798580">
        <ele>411.456</ele>
        <time>2020-07-13T22:38:56Z</time>
      </trkpt>
      <trkpt lat="43.087220" lon="-1.799820">
        <ele>417.121</ele>
        <time>2020-07-13T22:39:16Z</time>
      </trkpt>
      <trkpt lat="43.087070" lon="-1.800870">
        <ele>416.808</ele>
        <time>2020-07-13T22:39:36Z</time>
      </trkpt>
      <trkpt lat="43.086090" lon="-1.801550">
        <ele>420.562</ele>
        <time>2020-07-13T22:40:36Z</time>
      </trkpt>
      <trkpt lat="43.085650" lon="-1.803350">
        <ele>429.319</ele>
        <time>2020-07-13T22:41:16Z</time>
      </trkpt>
      <trkpt lat="43.086370" lon="-1.804300">
        <ele>437.194</ele>
        <time>2020-07-13T22:41:36Z</time>
      </trkpt>
      <trkpt lat="43.086480" lon="-1.805240">
        <ele>438.747</ele>
        <time>2020-07-13T22:41:56Z</time>
      </trkpt>
      <trkpt lat="43.086240" lon="-1.805390">
        <ele>441.072</ele>
        <time>2020-07-13T22:42:16Z</time>
      </trkpt>
      <trkpt lat="43.085700" lon="-1.804680">
        <ele>440.395</ele>
        <time>2020-07-13T22:42:36Z</time>
      </trkpt>
      <trkpt lat="43.085350" lon="-1.804790">
        <ele>445.268</ele>
        <time>2020-07-13T22:42:56Z</time>
      </trkpt>
      <trkpt lat="43.084830" lon="-1.806540">
        <ele>452.980</ele>
        <time>2020-07-13T22:43:16Z</time>
      </trkpt>
      <trkpt lat="43.084480" lon="-1.811680">
        <ele>474.666</ele>
        <time>2020-07-13T22:43:36Z</time>
      </trkpt>
      <trkpt lat="43.083450" lon="-1.813950">
        <ele>488.829</ele>
        <time>2020-07-13T22:44:16Z</time>
      </trkpt>
      <trkpt lat="43.082460" lon="-1.814120">
        <ele>483.421</ele>
        <time>2020-07-13T22:44:56Z</time>
      </trkpt>
      <trkpt lat="43.082950" lon="-1.816180">
        <ele>491.508</ele>
        <time>2020-07-13T22:45:36Z</time>
      </trkpt>
      <trkpt lat="43.082920" lon="-1.817640">
        <ele>495.011</ele>
        <time>2020-07-13T22:45:56Z</time>
      </trkpt>
      <trkpt lat="43.083680" lon="-1.820650">
        <ele>507.978</ele>
        <time>2020-07-13T22:46:36Z</time>
      </trkpt>
      <trkpt lat="43.084350" lon="-1.821030">
        <ele>514.183</ele>
        <time>2020-07-13T22:47:16Z</time>
      </trkpt>
      <trkpt lat="43.084760" lon="-1.824490">
        <ele>519.246</ele>
        <time>2020-07-13T22:48:16Z</time>
      </trkpt>
      <trkpt lat="43.084250" lon="-1.828120">
        <ele>518.361</ele>
        <time>2020-07-13T22:49:16Z</time>
      </trkpt>
      <trkpt lat="43.084550" lon="-1.829400">
        <ele>521.674</ele>
        <time>2020-07-13T22:49:56Z</time>
      </trkpt>
      <trkpt lat="43.085310" lon="-1.829870">
        <ele>527.327</ele>
        <time>2020-07-13T22:50:56Z</time>
      </trkpt>
      <trkpt lat="43.084320" lon="-1.831450">
        <ele>535.979</ele>
        <time>2020-07-13T22:51:56Z</time>
      </trkpt>
      <trkpt lat="43.084540" lon="-1.832450">
        <ele>541.821</ele>
        <time>2020-07-13T22:52:16Z</time>
      </trkpt>
      <trkpt lat="43.085000" lon="-1.832750">
        <ele>548.641</ele>
        <time>2020-07-13T22:52:36Z</time>
      </trkpt>
      <trkpt lat="43.085020" lon="-1.833260">
        <ele>549.305</ele>
        <time>2020-07-13T22:52:56Z</time>
      </trkpt>
      <trkpt lat="43.083180" lon="-1.832630">
        <ele>557.108</ele>
        <time>2020-07-13T22:53:36Z</time>
      </trkpt>
      <trkpt lat="43.082490" lon="-1.833470">
        <ele>568.827</ele>
        <time>2020-07-13T22:54:16Z</time>
      </trkpt>
      <trkpt lat="43.082370" lon="-1.834130">
        <ele>571.724</ele>
        <time>2020-07-13T22:54:56Z</time>
      </trkpt>
      <trkpt lat="43.083440" lon="-1.835500">
        <ele>577.789</ele>
        <time>2020-07-13T22:55:16Z</time>
      </trkpt>
      <trkpt lat="43.082600" lon="-1.836510">
        <ele>580.062</ele>
        <time>2020-07-13T22:56:16Z</time>
      </trkpt>
      <trkpt lat="43.082640" lon="-1.839620">
        <ele>587.067</ele>
        <time>2020-07-13T22:57:36Z</time>
      </trkpt>
      <trkpt lat="43.083110" lon="-1.841200">
        <ele>593.120</ele>
        <time>2020-07-13T22:57:56Z</time>
      </trkpt>
      <trkpt lat="43.084370" lon="-1.843250">
        <ele>599.853</ele>
        <time>2020-07-13T22:58:36Z</time>
      </trkpt>
      <trkpt lat="43.085020" lon="-1.843590">
        <ele>603.295</ele>
        <time>2020-07-13T22:58:56Z</time>
      </trkpt>
      <trkpt lat="43.086520" lon="-1.846110">
        <ele>619.248</ele>
        <time>2020-07-13T22:59:56Z</time>
      </trkpt>
      <trkpt lat="43.086050" lon="-1.845520">
        <ele>615.661</ele>
        <time>2020-07-13T23:00:16Z</time>
      </trkpt>
      <trkpt lat="43.085180" lon="-1.845580">
        <ele>618.917</ele>
        <time>2020-07-13T23:00:56Z</time>
      </trkpt>
      <trkpt lat="43.084750" lon="-1.851540">
        <ele>645.108</ele>
        <time>2020-07-13T23:01:36Z</time>
      </trkpt>
      <trkpt lat="43.084010" lon="-1.850240">
        <ele>648.139</ele>
        <time>2020-07-13T23:02:16Z</time>
      </trkpt>
      <trkpt lat="43.083740" lon="-1.851220">
        <ele>656.386</ele>
        <time>2020-07-13T23:02:36Z</time>
      </trkpt>
      <trkpt lat="43.082970" lon="-1.851390">
        <ele>659.511</ele>
        <time>2020-07-13T23:02:56Z</time>
      </trkpt>
      <trkpt lat="43.082570" lon="-1.852240">
        <ele>662.484</ele>
        <time>2020-07-13T23:03:36Z</time>
      </trkpt>
      <trkpt lat="43.082780" lon="-1.854050">
        <ele>668.339</ele>
        <time>2020-07-13T23:03:56Z</time>
      </trkpt>
      <trkpt lat="43.083550" lon="-1.855280">
        <ele>672.222</ele>
        <time>2020-07-13T23:04:16Z</time>
      </trkpt>
      <trkpt lat="43.083680" lon="-1.856170">
        <ele>672.375</ele>
        <time>2020-07-13T23:04:36Z</time>
      </trkpt>
      <trkpt lat="43.082770" lon="-1.861010">
        <ele>676.847</ele>
        <time>2020-07-13T23:04:56Z</time>
      </trkpt>
      <trkpt lat="43.083480" lon="-1.862040">
        <ele>675.584</ele>
        <time>2020-07-13T23:05:16Z</time>
      </trkpt>
      <trkpt lat="43.083690" lon="-1.864800">
        <ele>678.207</ele>
        <time>2020-07-13T23:06:16Z</time>
      </trkpt>
      <trkpt lat="43.085050" lon="-1.865090">
        <ele>677.517</ele>
        <time>2020-07-13T23:06:56Z</time>
      </trkpt>
      <trkpt lat="43.084620" lon="-1.866510">
        <ele>678.808</ele>
        <time>2020-07-13T23:07:36Z</time>
      </trkpt>
      <trkpt lat="43.085200" lon="-1.867470">
        <ele>681.093</ele>
        <time>2020-07-13T23:07:56Z</time>
      </trkpt>
      <trkpt lat="43.085200" lon="-1.868640">
        <ele>681.920</ele>
        <time>2020-07-13T23:08:16Z</time>
      </trkpt>
      <trkpt lat="43.086010" lon="-1.869420">
        <ele>683.515</ele>
        <time>2020-07-13T23:08:56Z</time>
      </trkpt>
      <trkpt lat="43.086010" lon="-1.870300">
        <ele>683.958</ele>
        <time>2020-07-13T23:09:36Z</time>
      </trkpt>
      <trkpt lat="43.085490" lon="-1.871120">
        <ele>685.073</ele>
        <time>2020-07-13T23:09:56Z</time>
      </trkpt>
      <trkpt lat="43.084000" lon="-1.871810">
        <ele>687.926</ele>
        <time>2020-07-13T23:10:16Z</time>
      </trkpt>
      <trkpt lat="43.083930" lon="-1.874390">
        <ele>689.839</ele>
        <time>2020-07-13T23:10:36Z</time>
      </trkpt>
      <trkpt lat="43.084530" lon="-1.876640">
        <ele>693.181</ele>
        <time>2020-07-13T23:11:16Z</time>
      </trkpt>
      <trkpt lat="43.084500" lon="-1.878000">
        <ele>694.343</ele>
        <time>2020-07-13T23:11:36Z</time>
      </trkpt>
      <trkpt lat="43.085680" lon="-1.880500">
        <ele>692.664</ele>
        <time>2020-07-13T23:11:56Z</time>
      </trkpt>
      <trkpt lat="43.086330" lon="-1.884770">
        <ele>673.110</ele>
        <time>2020-07-13T23:12:56Z</time>
      </trkpt>
      <trkpt lat="43.086750" lon="-1.885290">
        <ele>669.508</ele>
        <time>2020-07-13T23:13:16Z</time>
      </trkpt>
      <trkpt lat="43.087650" lon="-1.885520">
        <ele>664.189</ele>
        <time>2020-07-13T23:13:56Z</time>
      </trkpt>
      <trkpt lat="43.088240" lon="-1.888150">
        <ele>649.876</ele>
        <time>2020-07-13T23:14:36Z</time>
      </trkpt>
      <trkpt lat="43.089370" lon="-1.888970">
        <ele>638.891</ele>
        <time>2020-07-13T23:15:36Z</time>
      </trkpt>
      <trkpt lat="43.089840" lon="-1.887610">
        <ele>638.414</ele>
        <time>2020-07-13T23:15:56Z</time>
      </trkpt>
      <trkpt lat="43.090110" lon="-1.887640">
        <ele>635.649</ele>
        <time>2020-07-13T23:16:16Z</time>
      </trkpt>
      <trkpt lat="43.090680" lon="-1.890500">
        <ele>619.942</ele>
        <time>2020-07-13T23:17:16Z</time>
      </trkpt>
      <trkpt lat="43.090310" lon="-1.891310">
        <ele>615.765</ele>
        <time>2020-07-13T23:17:36Z</time>
      </trkpt>
      <trkpt lat="43.090380" lon="-1.892130">
        <ele>610.767</ele>
        <time>2020-07-13T23:18:16Z</time>
      </trkpt>
      <trkpt lat="43.090790" lon="-1.892320">
        <ele>611.281</ele>
        <time>2020-07-13T23:18:56Z</time>
      </trkpt>
      <trkpt lat="43.090450" lon="-1.894240">
        <ele>599.361</ele>
        <time>2020-07-13T23:19:56Z</time>
      </trkpt>
      <trkpt lat="43.091130" lon="-1.895430">
        <ele>593.817</ele>
        <time>2020-07-13T23:20:36Z</time>
      </trkpt>
      <trkpt lat="43.089820" lon="-1.895670">
        <ele>588.708</ele>
        <time>2020-07-13T23:21:36Z</time>
      </trkpt>
      <trkpt lat="43.089540" lon="-1.896680">
        <ele>584.753</ele>
        <time>2020-07-13T23:22:16Z</time>
      </trkpt>
      <trkpt lat="43.089720" lon="-1.898230">
        <ele>578.320</ele>
        <time>2020-07-13T23:22:36Z</time>
      </trkpt>
      <trkpt lat="43.089170" lon="-1.898720">
        <ele>573.925</ele>
        <time>2020-07-13T23:22:56Z</time>
      </trkpt>
      <trkpt lat="43.088770" lon="-1.900540">
        <ele>566.268</ele>
        <time>2020-07-13T23:23:36Z</time>
      </trkpt>
      <trkpt lat="43.089290" lon="-1.901850">
        <ele>559.283</ele>
        <time>2020-07-13T23:24:36Z</time>
      </trkpt>
      <trkpt lat="43.088130" lon="-1.902040">
        <ele>548.516</ele>
        <time>2020-07-13T23:25:16Z</time>
      </trkpt>
      <trkpt lat="43.087120" lon="-1.903130">
        <ele>539.699</ele>
        <time>2020-07-13T23:25:36Z</time>
      </trkpt>
      <trkpt lat="43.087020" lon="-1.903790">
        <ele>538.461</ele>
        <time>2020-07-13T23:25:56Z</time>
      </trkpt>
      <trkpt lat="43.087550" lon="-1.904160">
        <ele>536.052</ele>
        <time>2020-07-13T23:26:36Z</time>
      </trkpt>
      <trkpt lat="43.086560" lon="-1.904210">
        <ele>526.753</ele>
        <time>2020-07-13T23:27:16Z</time>
      </trkpt>
      <trkpt lat="43.085910" lon="-1.903370">
        <ele>520.308</ele>
        <time>2020-07-13T23:27:36Z</time>
      </trkpt>
      <trkpt lat="43.085460" lon="-1.903490">
        <ele>516.408</ele>
        <time>2020-07-13T23:28:16Z</time>
      </trkpt>
      <trkpt lat="43.085600" lon="-1.904280">
        <ele>511.280</ele>
        <time>2020-07-13T23:28:36Z</time>
      </trkpt>
      <trkpt lat="43.087010" lon="-1.905290">
        <ele>501.317</ele>
        <time>2020-07-13T23:29:16Z</time>
      </trkpt>
      <trkpt lat="43.086540" lon="-1.906150">
        <ele>496.752</ele>
        <time>2020-07-13T23:29:36Z</time>
      </trkpt>
      <trkpt lat="43.086220" lon="-1.908290">
        <ele>489.255</ele>
        <time>2020-07-13T23:29:56Z</time>
      </trkpt>
      <trkpt lat="43.085640" lon="-1.908970">
        <ele>486.080</ele>
        <time>2020-07-13T23:30:16Z</time>
      </trkpt>
      <trkpt lat="43.083980" lon="-1.909360">
        <ele>477.933</ele>
        <time>2020-07-13T23:30:56Z</time>
      </trkpt>
      <trkpt lat="43.083410" lon="-1.911960">
        <ele>470.336</ele>
        <time>2020-07-13T23:31:16Z</time>
      </trkpt>
      <trkpt lat="43.081530" lon="-1.913840">
        <ele>465.788</ele>
        <time>2020-07-13T23:31:56Z</time>
      </trkpt>
      <trkpt lat="43.081200" lon="-1.914670">
        <ele>464.794</ele>
        <time>2020-07-13T23:32:16Z</time>
      </trkpt>
      <trkpt lat="43.080370" lon="-1.915320">
        <ele>465.957</ele>
        <time>2020-07-13T23:32:56Z</time>
      </trkpt>
      <trkpt lat="43.082120" lon="-1.915670">
        <ele>464.422</ele>
        <time>2020-07-13T23:33:36Z</time>
      </trkpt>
      <trkpt lat="43.084400" lon="-1.920480">
        <ele>463.708</ele>
        <time>2020-07-13T23:33:56Z</time>
      </trkpt>
      <trkpt lat="43.086320" lon="-1.921440">
        <ele>463.414</ele>
        <time>2020-07-13T23:34:36Z</time>
      </trkpt>
      <trkpt lat="43.087440" lon="-1.923590">
        <ele>461.271</ele>
        <time>2020-07-13T23:34:56Z</time>
      </trkpt>
      <trkpt lat="43.090620" lon="-1.926380">
        <ele>450.056</ele>
        <time>2020-07-13T23:35:36Z</time>
      </trkpt>
      <trkpt lat="43.090720" lon="-1.927840">
        <ele>446.689</ele>
        <time>2020-07-13T23:35:56Z</time>
      </trkpt>
      <trkpt lat="43.090200" lon="-1.930940">
        <ele>443.934</ele>
        <time>2020-07-13T23:36:16Z</time>
      </trkpt>
      <trkpt lat="43.090060" lon="-1.934860">
        <ele>440.147</ele>
        <time>2020-07-13T23:36:56Z</time>
      </trkpt>
      <trkpt lat="43.090620" lon="-1.938110">
        <ele>439.830</ele>
        <time>2020-07-13T23:37:56Z</time>
      </trkpt>
      <trkpt lat="43.090140" lon="-1.940180">
        <ele>435.632</ele>
        <time>2020-07-13T23:38:16Z</time>
      </trkpt>
      <trkpt lat="43.090440" lon="-1.941470">
        <ele>444.097</ele>
        <time>2020-07-13T23:38:56Z</time>
      </trkpt>
      <trkpt lat="43.092600" lon="-1.942310">
        <ele>456.123</ele>
        <time>2020-07-13T23:39:16Z</time>
      </trkpt>
      <trkpt lat="43.095140" lon="-1.942460">
        <ele>433.625</ele>
        <time>2020-07-13T23:39:56Z</time>
      </trkpt>
      <trkpt lat="43.098380" lon="-1.944310">
        <ele>464.408</ele>
        <time>2020-07-13T23:40:56Z</time>
      </trkpt>
      <trkpt lat="43.101710" lon="-1.944380">
        <ele>433.134</ele>
        <time>2020-07-13T23:41:36Z</time>
      </trkpt>
      <trkpt lat="43.103320" lon="-1.945370">
        <ele>422.921</ele>
        <time>2020-07-13T23:42:16Z</time>
      </trkpt>
      <trkpt lat="43.104280" lon="-1.946560">
        <ele>471.886</ele>
        <time>2020-07-13T23:42:36Z</time>
      </trkpt>
      <trkpt lat="43.105750" lon="-1.950010">
        <ele>483.169</ele>
        <time>2020-07-13T23:42:56Z</time>
      </trkpt>
      <trkpt lat="43.108470" lon="-1.953820">
        <ele>495.394</ele>
        <time>2020-07-13T23:43:36Z</time>
      </trkpt>
      <trkpt lat="43.111450" lon="-1.956600">
        <ele>514.857</ele>
        <time>2020-07-13T23:43:56Z</time>
      </trkpt>
      <trkpt lat="43.113520" lon="-1.959920">
        <ele>531.290</ele>
        <time>2020-07-13T23:44:16Z</time>
      </trkpt>
      <trkpt lat="43.116040" lon="-1.962820">
        <ele>540.262</ele>
        <time>2020-07-13T23:44:56Z</time>
      </trkpt>
      <trkpt lat="43.115710" lon="-1.964230">
        <ele>530.813</ele>
        <time>2020-07-13T23:45:36Z</time>
      </trkpt>
      <trkpt lat="43.116370" lon="-1.965610">
        <ele>520.643</ele>
        <time>2020-07-13T23:45:56Z</time>
      </trkpt>
      <trkpt lat="43.117150" lon="-1.966380">
        <ele>513.707</ele>
        <time>2020-07-13T23:46:16Z</time>
      </trkpt>
      <trkpt lat="43.118670" lon="-1.966990">
        <ele>504.908</ele>
        <time>2020-07-13T23:46:36Z</time>
      </trkpt>
      <trkpt lat="43.120040" lon="-1.968720">
        <ele>491.226</ele>
        <time>2020-07-13T23:47:16Z</time>
      </trkpt>
      <trkpt lat="43.121190" lon="-1.968750">
        <ele>478.933</ele>
        <time>2020-07-13T23:48:16Z</time>
      </trkpt>
      <trkpt lat="43.121720" lon="-1.970110">
        <ele>467.728</ele>
        <time>2020-07-13T23:48:36Z</time>
      </trkpt>
      <trkpt lat="43.121750" lon="-1.972800">
        <ele>448.661</ele>
        <time>2020-07-13T23:48:56Z</time>
      </trkpt>
      <trkpt lat="43.122860" lon="-1.975230">
        <ele>429.666</ele>
        <time>2020-07-13T23:49:36Z</time>
      </trkpt>
      <trkpt lat="43.124250" lon="-1.975320">
        <ele>420.729</ele>
        <time>2020-07-13T23:50:36Z</time>
      </trkpt>
      <trkpt lat="43.124700" lon="-1.978750">
        <ele>411.032</ele>
        <time>2020-07-13T23:51:16Z</time>
      </trkpt>
      <trkpt lat="43.125730" lon="-1.979170">
        <ele>409.564</ele>
        <time>2020-07-13T23:51:36Z</time>
      </trkpt>
      <trkpt lat="43.127050" lon="-1.981100">
        <ele>408.722</ele>
        <time>2020-07-13T23:51:56Z</time>
      </trkpt>
      <trkpt lat="43.128510" lon="-1.982430">
        <ele>408.962</ele>
        <time>2020-07-13T23:52:16Z</time>
      </trkpt>
      <trkpt lat="43.130600" lon="-1.985460">
        <ele>410.708</ele>
        <time>2020-07-13T23:52:36Z</time>
      </trkpt>
      <trkpt lat="43.132540" lon="-1.987580">
        <ele>398.208</ele>
        <time>2020-07-13T23:52:56Z</time>
      </trkpt>
      <trkpt lat="43.135030" lon="-1.986930">
        <ele>384.917</ele>
        <time>2020-07-13T23:53:56Z</time>
      </trkpt>
      <trkpt lat="43.135340" lon="-1.986220">
        <ele>384.354</ele>
        <time>2020-07-13T23:54:16Z</time>
      </trkpt>
      <trkpt lat="43.135780" lon="-1.986080">
        <ele>378.559</ele>
        <time>2020-07-13T23:54:36Z</time>
      </trkpt>
      <trkpt lat="43.137500" lon="-1.988400">
        <ele>364.882</ele>
        <time>2020-07-13T23:54:56Z</time>
      </trkpt>
      <trkpt lat="43.138580" lon="-1.988770">
        <ele>356.377</ele>
        <time>2020-07-13T23:55:16Z</time>
      </trkpt>
      <trkpt lat="43.139560" lon="-1.987980">
        <ele>354.970</ele>
        <time>2020-07-13T23:55:56Z</time>
      </trkpt>
      <trkpt lat="43.140110" lon="-1.988360">
        <ele>345.493</ele>
        <time>2020-07-13T23:56:16Z</time>
      </trkpt>
      <trkpt lat="43.140330" lon="-1.989230">
        <ele>342.355</ele>
        <time>2020-07-13T23:56:36Z</time>
      </trkpt>
      <trkpt lat="43.140180" lon="-1.990830">
        <ele>329.185</ele>
        <time>2020-07-13T23:56:56Z</time>
      </trkpt>
      <trkpt lat="43.140770" lon="-1.991550">
        <ele>323.889</ele>
        <time>2020-07-13T23:57:16Z</time>
      </trkpt>
      <trkpt lat="43.140880" lon="-1.996590">
        <ele>293.717</ele>
        <time>2020-07-13T23:58:36Z</time>
      </trkpt>
      <trkpt lat="43.140600" lon="-1.997700">
        <ele>282.508</ele>
        <time>2020-07-13T23:58:56Z</time>
      </trkpt>
      <trkpt lat="43.141180" lon="-1.998170">
        <ele>279.093</ele>
        <time>2020-07-13T23:59:36Z</time>
      </trkpt>
      <trkpt lat="43.140890" lon="-1.999960">
        <ele>266.690</ele>
        <time>2020-07-14T00:00:16Z</time>
      </trkpt>
      <trkpt lat="43.141630" lon="-2.000870">
        <ele>258.445</ele>
        <time>2020-07-14T00:00:56Z</time>
      </trkpt>
      <trkpt lat="43.141370" lon="-2.001560">
        <ele>252.548</ele>
        <time>2020-07-14T00:01:16Z</time>
      </trkpt>
      <trkpt lat="43.141650" lon="-2.002860">
        <ele>243.613</ele>
        <time>2020-07-14T00:01:36Z</time>
      </trkpt>
      <trkpt lat="43.142420" lon="-2.003570">
        <ele>238.396</ele>
        <time>2020-07-14T00:01:56Z</time>
      </trkpt>
      <trkpt lat="43.142860" lon="-2.004680">
        <ele>233.429</ele>
        <time>2020-07-14T00:02:56Z</time>
      </trkpt>
      <trkpt lat="43.143400" lon="-2.004480">
        <ele>228.171</ele>
        <time>2020-07-14T00:03:36Z</time>
      </trkpt>
      <trkpt lat="43.143450" lon="-2.006290">
        <ele>212.985</ele>
        <time>2020-07-14T00:03:56Z</time>
      </trkpt>
      <trkpt lat="43.144050" lon="-2.007430">
        <ele>206.489</ele>
        <time>2020-07-14T00:04:16Z</time>
      </trkpt>
      <trkpt lat="43.144110" lon="-2.009170">
        <ele>197.217</ele>
        <time>2020-07-14T00:04:36Z</time>
      </trkpt>
      <trkpt lat="43.143680" lon="-2.010530">
        <ele>187.208</ele>
        <time>2020-07-14T00:05:16Z</time>
      </trkpt>
      <trkpt lat="43.142680" lon="-2.011380">
        <ele>182.833</ele>
        <time>2020-07-14T00:05:56Z</time>
      </trkpt>
      <trkpt lat="43.143410" lon="-2.018630">
        <ele>164.620</ele>
        <time>2020-07-14T00:06:36Z</time>
      </trkpt>
      <trkpt lat="43.145410" lon="-2.025410">
        <ele>159.545</ele>
        <time>2020-07-14T00:07:36Z</time>
      </trkpt>
      <trkpt lat="43.146040" lon="-2.030670">
        <ele>148.558</ele>
        <time>2020-07-14T00:08:36Z</time>
      </trkpt>
      <trkpt lat="43.145660" lon="-2.031860">
        <ele>145.823</ele>
        <time>2020-07-14T00:08:56Z</time>
      </trkpt>
      <trkpt lat="43.144610" lon="-2.032150">
        <ele>143.376</ele>
        <time>2020-07-14T00:09:36Z</time>
      </trkpt>
      <trkpt lat="43.143660" lon="-2.034360">
        <ele>139.499</ele>
        <time>2020-07-14T00:10:16Z</time>
      </trkpt>
      <trkpt lat="43.142500" lon="-2.035400">
        <ele>134.991</ele>
        <time>2020-07-14T00:10:36Z</time>
      </trkpt>
      <trkpt lat="43.141820" lon="-2.037120">
        <ele>132.811</ele>
        <time>2020-07-14T00:10:56Z</time>
      </trkpt>
      <trkpt lat="43.142500" lon="-2.041440">
        <ele>120.021</ele>
        <time>2020-07-14T00:11:36Z</time>
      </trkpt>
      <trkpt lat="43.139590" lon="-2.055090">
        <ele>105.503</ele>
        <time>2020-07-14T00:12:16Z</time>
      </trkpt>
      <trkpt lat="43.137090" lon="-2.057080">
        <ele>102.408</ele>
        <time>2020-07-14T00:13:16Z</time>
      </trkpt>
      <trkpt lat="43.136010" lon="-2.057080">
        <ele>100.976</ele>
        <time>2020-07-14T00:13:36Z</time>
      </trkpt>
      <trkpt lat="43.133660" lon="-2.058740">
        <ele>97.463</ele>
        <time>2020-07-14T00:14:16Z</time>
      </trkpt>
      <trkpt lat="43.133170" lon="-2.059680">
        <ele>98.318</ele>
        <time>2020-07-14T00:14:36Z</time>
      </trkpt>
      <trkpt lat="43.132400" lon="-2.063000">
        <ele>93.131</ele>
        <time>2020-07-14T00:14:56Z</time>
      </trkpt>
      <trkpt lat="43.132230" lon="-2.066190">
        <ele>88.816</ele>
        <time>2020-07-14T00:15:36Z</time>
      </trkpt>
      <trkpt lat="43.134300" lon="-2.071920">
        <ele>78.499</ele>
        <time>2020-07-14T00:16:16Z</time>
      </trkpt>
      <trkpt lat="43.135120" lon="-2.072490">
        <ele>76.782</ele>
        <time>2020-07-14T00:16:36Z</time>
      </trkpt>
      <trkpt lat="43.136800" lon="-2.071940">
        <ele>74.174</ele>
        <time>2020-07-14T00:16:56Z</time>
      </trkpt>
      <trkpt lat="43.137400" lon="-2.070390">
        <ele>77.512</ele>
        <time>2020-07-14T00:17:36Z</time>
      </trkpt>
      <trkpt lat="43.138390" lon="-2.069930">
        <ele>76.132</ele>
        <time>2020-07-14T00:18:16Z</time>
      </trkpt>
      <trkpt lat="43.140970" lon="-2.071520">
        <ele>71.405</ele>
        <time>2020-07-14T00:18:56Z</time>
      </trkpt>
      <trkpt lat="43.140420" lon="-2.072240">
        <ele>72.508</ele>
        <time>2020-07-14T00:19:16Z</time>
      </trkpt>
      <trkpt lat="43.143500" lon="-2.072890">
        <ele>72.396</ele>
        <time>2020-07-14T00:19:56Z</time>
      </trkpt>
      <trkpt lat="43.146070" lon="-2.072320">
        <ele>69.873</ele>
        <time>2020-07-14T00:20:16Z</time>
      </trkpt>
      <trkpt lat="43.149390" lon="-2.072470">
        <ele>69.578</ele>
        <time>2020-07-14T00:20:36Z</time>
      </trkpt>
      <trkpt lat="43.151430" lon="-2.072010">
        <ele>71.311</ele>
        <time>2020-07-14T00:21:16Z</time>
      </trkpt>
      <trkpt lat="43.156650" lon="-2.068530">
        <ele>67.756</ele>
        <time>2020-07-14T00:21:36Z</time>
      </trkpt>
      <trkpt lat="43.157880" lon="-2.068240">
        <ele>68.369</ele>
        <time>2020-07-14T00:21:56Z</time>
      </trkpt>
      <trkpt lat="43.160590" lon="-2.068790">
        <ele>67.992</ele>
        <time>2020-07-14T00:22:36Z</time>
      </trkpt>
      <trkpt lat="43.161330" lon="-2.069370">
        <ele>69.594</ele>
        <time>2020-07-14T00:22:56Z</time>
      </trkpt>
      <trkpt lat="43.161950" lon="-2.069320">
        <ele>70.234</ele>
        <time>2020-07-14T00:23:16Z</time>
      </trkpt>
      <trkpt lat="43.161980" lon="-2.070680">
        <ele>75.255</ele>
        <time>2020-07-14T00:23:36Z</time>
      </trkpt>
      <trkpt lat="43.163910" lon="-2.072680">
        <ele>66.610</ele>
        <time>2020-07-14T00:23:56Z</time>
      </trkpt>
      <trkpt lat="43.164040" lon="-2.073530">
        <ele>75.008</ele>
        <time>2020-07-14T00:24:16Z</time>
      </trkpt>
      <trkpt lat="43.163560" lon="-2.075840">
        <ele>77.038</ele>
        <time>2020-07-14T00:24:56Z</time>
      </trkpt>
      <trkpt lat="43.163870" lon="-2.077590">
        <ele>87.695</ele>
        <time>2020-07-14T00:25:36Z</time>
      </trkpt>
      <trkpt lat="43.166620" lon="-2.079200">
        <ele>129.390</ele>
        <time>2020-07-14T00:26:56Z</time>
      </trkpt>
      <trkpt lat="43.166850" lon="-2.078680">
        <ele>134.663</ele>
        <time>2020-07-14T00:27:16Z</time>
      </trkpt>
      <trkpt lat="43.167570" lon="-2.078920">
        <ele>145.388</ele>
        <time>2020-07-14T00:27:36Z</time>
      </trkpt>
      <trkpt lat="43.169140" lon="-2.080440">
        <ele>173.211</ele>
        <time>2020-07-14T00:28:16Z</time>
      </trkpt>
      <trkpt lat="43.171500" lon="-2.081400">
        <ele>206.814</ele>
        <time>2020-07-14T00:28:56Z</time>
      </trkpt>
      <trkpt lat="43.172060" lon="-2.082320">
        <ele>207.396</ele>
        <time>2020-07-14T00:29:36Z</time>
      </trkpt>
      <trkpt lat="43.173280" lon="-2.082130">
        <ele>212.784</ele>
        <time>2020-07-14T00:30:16Z</time>
      </trkpt>
      <trkpt lat="43.174730" lon="-2.084300">
        <ele>214.307</ele>
        <time>2020-07-14T00:30:56Z</time>
      </trkpt>
      <trkpt lat="43.175820" lon="-2.084420">
        <ele>210.517</ele>
        <time>2020-07-14T00:31:36Z</time>
      </trkpt>
      <trkpt lat="43.176520" lon="-2.083790">
        <ele>208.808</ele>
        <time>2020-07-14T00:31:56Z</time>
      </trkpt>
      <trkpt lat="43.177060" lon="-2.083850">
        <ele>211.753</ele>
        <time>2020-07-14T00:32:16Z</time>
      </trkpt>
      <trkpt lat="43.177380" lon="-2.082840">
        <ele>210.620</ele>
        <time>2020-07-14T00:32:36Z</time>
      </trkpt>
      <trkpt lat="43.178780" lon="-2.082530">
        <ele>205.885</ele>
        <time>2020-07-14T00:33:16Z</time>
      </trkpt>
      <trkpt lat="43.179810" lon="-2.081470">
        <ele>191.568</ele>
        <time>2020-07-14T00:33:56Z</time>
      </trkpt>
      <trkpt lat="43.180810" lon="-2.081040">
        <ele>177.553</ele>
        <time>2020-07-14T00:34:16Z</time>
      </trkpt>
      <trkpt lat="43.181630" lon="-2.081880">
        <ele>165.066</ele>
        <time>2020-07-14T00:34:56Z</time>
      </trkpt>
      <trkpt lat="43.181410" lon="-2.083080">
        <ele>159.689</ele>
        <time>2020-07-14T00:35:16Z</time>
      </trkpt>
      <trkpt lat="43.181810" lon="-2.084140">
        <ele>150.071</ele>
        <time>2020-07-14T00:35:36Z</time>
      </trkpt>
      <trkpt lat="43.182300" lon="-2.083050">
        <ele>137.545</ele>
        <time>2020-07-14T00:35:56Z</time>
      </trkpt>
      <trkpt lat="43.184910" lon="-2.082970">
        <ele>122.847</ele>
        <time>2020-07-14T00:36:56Z</time>
      </trkpt>
      <trkpt lat="43.186980" lon="-2.082100">
        <ele>101.811</ele>
        <time>2020-07-14T00:37:16Z</time>
      </trkpt>
      <trkpt lat="43.189050" lon="-2.082790">
        <ele>84.808</ele>
        <time>2020-07-14T00:37:56Z</time>
      </trkpt>
      <trkpt lat="43.189510" lon="-2.083760">
        <ele>78.089</ele>
        <time>2020-07-14T00:38:16Z</time>
      </trkpt>
      <trkpt lat="43.190750" lon="-2.084640">
        <ele>78.226</ele>
        <time>2020-07-14T00:38:36Z</time>
      </trkpt>
      <trkpt lat="43.190280" lon="-2.086990">
        <ele>86.771</ele>
        <time>2020-07-14T00:38:56Z</time>
      </trkpt>
      <trkpt lat="43.191830" lon="-2.090680">
        <ele>93.114</ele>
        <time>2020-07-14T00:39:16Z</time>
      </trkpt>
      <trkpt lat="43.192420" lon="-2.093520">
        <ele>96.669</ele>
        <time>2020-07-14T00:39:36Z</time>
      </trkpt>
      <trkpt lat="43.193690" lon="-2.094410">
        <ele>99.012</ele>
        <time>2020-07-14T00:39:56Z</time>
      </trkpt>
      <trkpt lat="43.195890" lon="-2.099100">
        <ele>122.595</ele>
        <time>2020-07-14T00:40:56Z</time>
      </trkpt>
      <trkpt lat="43.197840" lon="-2.099840">
        <ele>133.167</ele>
        <time>2020-07-14T00:41:36Z</time>
      </trkpt>
      <trkpt lat="43.197420" lon="-2.101550">
        <ele>140.993</ele>
        <time>2020-07-14T00:42:16Z</time>
      </trkpt>
      <trkpt lat="43.198100" lon="-2.102800">
        <ele>149.765</ele>
        <time>2020-07-14T00:42:56Z</time>
      </trkpt>
      <trkpt lat="43.200560" lon="-2.103280">
        <ele>168.321</ele>
        <time>2020-07-14T00:43:36Z</time>
      </trkpt>
      <trkpt lat="43.201500" lon="-2.102520">
        <ele>174.308</ele>
        <time>2020-07-14T00:44:16Z</time>
      </trkpt>
      <trkpt lat="43.201690" lon="-2.102810">
        <ele>175.884</ele>
        <time>2020-07-14T00:44:36Z</time>
      </trkpt>
      <trkpt lat="43.201430" lon="-2.103860">
        <ele>180.781</ele>
        <time>2020-07-14T00:44:56Z</time>
      </trkpt>
      <trkpt lat="43.201930" lon="-2.104550">
        <ele>184.586</ele>
        <time>2020-07-14T00:45:36Z</time>
      </trkpt>
      <trkpt lat="43.202530" lon="-2.104230">
        <ele>189.149</ele>
        <time>2020-07-14T00:45:56Z</time>
      </trkpt>
      <trkpt lat="43.202890" lon="-2.104470">
        <ele>192.774</ele>
        <time>2020-07-14T00:46:16Z</time>
      </trkpt>
      <trkpt lat="43.202890" lon="-2.108770">
        <ele>212.517</ele>
        <time>2020-07-14T00:47:16Z</time>
      </trkpt>
      <trkpt lat="43.204610" lon="-2.109530">
        <ele>227.280</ele>
        <time>2020-07-14T00:48:16Z</time>
      </trkpt>
      <trkpt lat="43.204280" lon="-2.110660">
        <ele>229.562</ele>
        <time>2020-07-14T00:48:56Z</time>
      </trkpt>
      <trkpt lat="43.205370" lon="-2.112300">
        <ele>238.876</ele>
        <time>2020-07-14T00:49:36Z</time>
      </trkpt>
      <trkpt lat="43.206150" lon="-2.112350">
        <ele>244.590</ele>
        <time>2020-07-14T00:49:56Z</time>
      </trkpt>
      <trkpt lat="43.206190" lon="-2.113780">
        <ele>247.319</ele>
        <time>2020-07-14T00:50:16Z</time>
      </trkpt>
      <trkpt lat="43.206910" lon="-2.114240">
        <ele>252.908</ele>
        <time>2020-07-14T00:50:36Z</time>
      </trkpt>
      <trkpt lat="43.207010" lon="-2.114990">
        <ele>258.382</ele>
        <time>2020-07-14T00:50:56Z</time>
      </trkpt>
      <trkpt lat="43.207660" lon="-2.115810">
        <ele>264.489</ele>
        <time>2020-07-14T00:51:16Z</time>
      </trkpt>
      <trkpt lat="43.207460" lon="-2.116540">
        <ele>269.384</ele>
        <time>2020-07-14T00:51:56Z</time>
      </trkpt>
      <trkpt lat="43.206780" lon="-2.116450">
        <ele>270.887</ele>
        <time>2020-07-14T00:52:16Z</time>
      </trkpt>
      <trkpt lat="43.205240" lon="-2.117340">
        <ele>283.332</ele>
        <time>2020-07-14T00:52:36Z</time>
      </trkpt>
      <trkpt lat="43.203990" lon="-2.117060">
        <ele>293.185</ele>
        <time>2020-07-14T00:52:56Z</time>
      </trkpt>
      <trkpt lat="43.203330" lon="-2.116190">
        <ele>298.178</ele>
        <time>2020-07-14T00:53:16Z</time>
      </trkpt>
      <trkpt lat="43.201610" lon="-2.115990">
        <ele>309.780</ele>
        <time>2020-07-14T00:53:56Z</time>
      </trkpt>
      <trkpt lat="43.200790" lon="-2.115440">
        <ele>313.694</ele>
        <time>2020-07-14T00:54:16Z</time>
      </trkpt>
      <trkpt lat="43.199670" lon="-2.116250">
        <ele>323.657</ele>
        <time>2020-07-14T00:54:36Z</time>
      </trkpt>
      <trkpt lat="43.200030" lon="-2.117030">
        <ele>328.722</ele>
        <time>2020-07-14T00:55:16Z</time>
      </trkpt>
      <trkpt lat="43.202060" lon="-2.118770">
        <ele>349.908</ele>
        <time>2020-07-14T00:55:56Z</time>
      </trkpt>
      <trkpt lat="43.202480" lon="-2.120020">
        <ele>353.994</ele>
        <time>2020-07-14T00:56:16Z</time>
      </trkpt>
      <trkpt lat="43.203390" lon="-2.121090">
        <ele>363.571</ele>
        <time>2020-07-14T00:56:36Z</time>
      </trkpt>
      <trkpt lat="43.205040" lon="-2.125890">
        <ele>394.076</ele>
        <time>2020-07-14T00:57:36Z</time>
      </trkpt>
      <trkpt lat="43.204010" lon="-2.126990">
        <ele>398.839</ele>
        <time>2020-07-14T00:58:16Z</time>
      </trkpt>
      <trkpt lat="43.203520" lon="-2.129670">
        <ele>414.864</ele>
        <time>2020-07-14T00:58:36Z</time>
      </trkpt>
      <trkpt lat="43.202660" lon="-2.130760">
        <ele>420.427</ele>
        <time>2020-07-14T00:58:56Z</time>
      </trkpt>
      <trkpt lat="43.202540" lon="-2.135450">
        <ele>436.510</ele>
        <time>2020-07-14T00:59:56Z</time>
      </trkpt>
      <trkpt lat="43.201880" lon="-2.137350">
        <ele>429.692</ele>
        <time>2020-07-14T01:00:16Z</time>
      </trkpt>
      <trkpt lat="43.202320" lon="-2.138590">
        <ele>428.616</ele>
        <time>2020-07-14T01:00:36Z</time>
      </trkpt>
      <trkpt lat="43.202190" lon="-2.142900">
        <ele>417.676</ele>
        <time>2020-07-14T01:01:16Z</time>
      </trkpt>
      <trkpt lat="43.202600" lon="-2.143050">
        <ele>417.813</ele>
        <time>2020-07-14T01:01:36Z</time>
      </trkpt>
      <trkpt lat="43.204580" lon="-2.141470">
        <ele>411.808</ele>
        <time>2020-07-14T01:01:56Z</time>
      </trkpt>
      <trkpt lat="43.206450" lon="-2.142270">
        <ele>408.896</ele>
        <time>2020-07-14T01:02:56Z</time>
      </trkpt>
      <trkpt lat="43.207440" lon="-2.145390">
        <ele>409.343</ele>
        <time>2020-07-14T01:04:16Z</time>
      </trkpt>
      <trkpt lat="43.208190" lon="-2.144570">
        <ele>405.258</ele>
        <time>2020-07-14T01:04:36Z</time>
      </trkpt>
      <trkpt lat="43.208720" lon="-2.143240">
        <ele>402.991</ele>
        <time>2020-07-14T01:04:56Z</time>
      </trkpt>
      <trkpt lat="43.209720" lon="-2.141940">
        <ele>400.936</ele>
        <time>2020-07-14T01:05:16Z</time>
      </trkpt>
      <trkpt lat="43.210390" lon="-2.142400">
        <ele>400.469</ele>
        <time>2020-07-14T01:05:56Z</time>
      </trkpt>
      <trkpt lat="43.210940" lon="-2.143550">
        <ele>402.482</ele>
        <time>2020-07-14T01:06:36Z</time>
      </trkpt>
      <trkpt lat="43.212250" lon="-2.142210">
        <ele>398.954</ele>
        <time>2020-07-14T01:06:56Z</time>
      </trkpt>
      <trkpt lat="43.213400" lon="-2.142490">
        <ele>396.415</ele>
        <time>2020-07-14T01:07:36Z</time>
      </trkpt>
      <trkpt lat="43.213890" lon="-2.144400">
        <ele>396.565</ele>
        <time>2020-07-14T01:08:36Z</time>
      </trkpt>
      <trkpt lat="43.215010" lon="-2.145230">
        <ele>394.911</ele>
        <time>2020-07-14T01:08:56Z</time>
      </trkpt>
      <trkpt lat="43.215760" lon="-2.146720">
        <ele>394.208</ele>
        <time>2020-07-14T01:09:36Z</time>
      </trkpt>
      <trkpt lat="43.214230" lon="-2.147760">
        <ele>393.096</ele>
        <time>2020-07-14T01:10:36Z</time>
      </trkpt>
      <trkpt lat="43.214150" lon="-2.149310">
        <ele>391.573</ele>
        <time>2020-07-14T01:10:56Z</time>
      </trkpt>
      <trkpt lat="43.212760" lon="-2.152660">
        <ele>387.368</ele>
        <time>2020-07-14T01:11:36Z</time>
      </trkpt>
      <trkpt lat="43.212820" lon="-2.154130">
        <ele>389.531</ele>
        <time>2020-07-14T01:11:56Z</time>
      </trkpt>
      <trkpt lat="43.213170" lon="-2.154950">
        <ele>389.716</ele>
        <time>2020-07-14T01:12:16Z</time>
      </trkpt>
      <trkpt lat="43.214890" lon="-2.155650">
        <ele>383.929</ele>
        <time>2020-07-14T01:13:36Z</time>
      </trkpt>
      <trkpt lat="43.215210" lon="-2.156870">
        <ele>386.212</ele>
        <time>2020-07-14T01:13:56Z</time>
      </trkpt>
      <trkpt lat="43.215870" lon="-2.157410">
        <ele>382.814</ele>
        <time>2020-07-14T01:14:36Z</time>
      </trkpt>
      <trkpt lat="43.218760" lon="-2.155360">
        <ele>376.344</ele>
        <time>2020-07-14T01:15:36Z</time>
      </trkpt>
      <trkpt lat="43.219760" lon="-2.156010">
        <ele>375.205</ele>
        <time>2020-07-14T01:15:56Z</time>
      </trkpt>
      <trkpt lat="43.220300" lon="-2.156980">
        <ele>376.515</ele>
        <time>2020-07-14T01:16:16Z</time>
      </trkpt>
      <trkpt lat="43.221440" lon="-2.156960">
        <ele>375.208</ele>
        <time>2020-07-14T01:17:16Z</time>
      </trkpt>
      <trkpt lat="43.222140" lon="-2.155070">
        <ele>368.559</ele>
        <time>2020-07-14T01:18:16Z</time>
      </trkpt>
      <trkpt lat="43.223030" lon="-2.155100">
        <ele>368.626</ele>
        <time>2020-07-14T01:18:36Z</time>
      </trkpt>
      <trkpt lat="43.224010" lon="-2.154350">
        <ele>364.251</ele>
        <time>2020-07-14T01:18:56Z</time>
      </trkpt>
      <trkpt lat="43.225100" lon="-2.154570">
        <ele>362.324</ele>
        <time>2020-07-14T01:19:36Z</time>
      </trkpt>
      <trkpt lat="43.226140" lon="-2.156490">
        <ele>359.469</ele>
        <time>2020-07-14T01:19:56Z</time>
      </trkpt>
      <trkpt lat="43.227460" lon="-2.157970">
        <ele>354.482</ele>
        <time>2020-07-14T01:20:56Z</time>
      </trkpt>
      <trkpt lat="43.230330" lon="-2.154280">
        <ele>343.915</ele>
        <time>2020-07-14T01:21:36Z</time>
      </trkpt>
      <trkpt lat="43.231010" lon="-2.152720">
        <ele>340.157</ele>
        <time>2020-07-14T01:21:56Z</time>
      </trkpt>
      <trkpt lat="43.231840" lon="-2.152190">
        <ele>338.334</ele>
        <time>2020-07-14T01:22:16Z</time>
      </trkpt>
      <trkpt lat="43.232080" lon="-2.151430">
        <ele>336.755</ele>
        <time>2020-07-14T01:22:36Z</time>
      </trkpt>
      <trkpt lat="43.233060" lon="-2.150840">
        <ele>333.410</ele>
        <time>2020-07-14T01:22:56Z</time>
      </trkpt>
      <trkpt lat="43.233660" lon="-2.149370">
        <ele>327.308</ele>
        <time>2020-07-14T01:23:36Z</time>
      </trkpt>
      <trkpt lat="43.234420" lon="-2.149000">
        <ele>325.228</ele>
        <time>2020-07-14T01:23:56Z</time>
      </trkpt>
      <trkpt lat="43.236640" lon="-2.149760">
        <ele>320.055</ele>
        <time>2020-07-14T01:24:56Z</time>
      </trkpt>
      <trkpt lat="43.237060" lon="-2.151110">
        <ele>318.610</ele>
        <time>2020-07-14T01:25:36Z</time>
      </trkpt>
      <trkpt lat="43.236680" lon="-2.151660">
        <ele>321.193</ele>
        <time>2020-07-14T01:25:56Z</time>
      </trkpt>
      <trkpt lat="43.236380" lon="-2.154130">
        <ele>326.388</ele>
        <time>2020-07-14T01:26:36Z</time>
      </trkpt>
      <trkpt lat="43.237180" lon="-2.156070">
        <ele>322.271</ele>
        <time>2020-07-14T01:27:36Z</time>
      </trkpt>
      <trkpt lat="43.236710" lon="-2.158970">
        <ele>315.324</ele>
        <time>2020-07-14T01:28:36Z</time>
      </trkpt>
      <trkpt lat="43.238370" lon="-2.160470">
        <ele>311.236</ele>
        <time>2020-07-14T01:28:56Z</time>
      </trkpt>
      <trkpt lat="43.239820" lon="-2.161210">
        <ele>304.691</ele>
        <time>2020-07-14T01:29:36Z</time>
      </trkpt>
      <trkpt lat="43.239900" lon="-2.162810">
        <ele>300.381</ele>
        <time>2020-07-14T01:30:16Z</time>
      </trkpt>
      <trkpt lat="43.238340" lon="-2.166340">
        <ele>290.719</ele>
        <time>2020-07-14T01:31:16Z</time>
      </trkpt>
      <trkpt lat="43.237210" lon="-2.167480">
        <ele>286.008</ele>
        <time>2020-07-14T01:31:36Z</time>
      </trkpt>
      <trkpt lat="43.238060" lon="-2.168400">
        <ele>281.374</ele>
        <time>2020-07-14T01:32:36Z</time>
      </trkpt>
      <trkpt lat="43.238230" lon="-2.170590">
        <ele>275.991</ele>
        <time>2020-07-14T01:33:36Z</time>
      </trkpt>
      <trkpt lat="43.239010" lon="-2.170280">
        <ele>273.936</ele>
        <time>2020-07-14T01:34:16Z</time>
      </trkpt>
      <trkpt lat="43.240460" lon="-2.168650">
        <ele>264.419</ele>
        <time>2020-07-14T01:34:56Z</time>
      </trkpt>
      <trkpt lat="43.241310" lon="-2.168510">
        <ele>262.784</ele>
        <time>2020-07-14T01:35:16Z</time>
      </trkpt>
      <trkpt lat="43.242840" lon="-2.166840">
        <ele>247.977</ele>
        <time>2020-07-14T01:35:56Z</time>
      </trkpt>
      <trkpt lat="43.245310" lon="-2.165730">
        <ele>239.390</ele>
        <time>2020-07-14T01:37:16Z</time>
      </trkpt>
      <trkpt lat="43.246420" lon="-2.163320">
        <ele>230.082</ele>
        <time>2020-07-14T01:37:56Z</time>
      </trkpt>
      <trkpt lat="43.247110" lon="-2.162820">
        <ele>229.628</ele>
        <time>2020-07-14T01:38:16Z</time>
      </trkpt>
      <trkpt lat="43.247380" lon="-2.160670">
        <ele>218.489</ele>
        <time>2020-07-14T01:38:36Z</time>
      </trkpt>
      <trkpt lat="43.247780" lon="-2.160100">
        <ele>215.417</ele>
        <time>2020-07-14T01:38:56Z</time>
      </trkpt>
      <trkpt lat="43.248990" lon="-2.160440">
        <ele>204.708</ele>
        <time>2020-07-14T01:39:36Z</time>
      </trkpt>
      <trkpt lat="43.249700" lon="-2.159290">
        <ele>194.717</ele>
        <time>2020-07-14T01:40:16Z</time>
      </trkpt>
      <trkpt lat="43.250790" lon="-2.159000">
        <ele>188.384</ele>
        <time>2020-07-14T01:40:36Z</time>
      </trkpt>
      <trkpt lat="43.251870" lon="-2.159750">
        <ele>180.879</ele>
        <time>2020-07-14T01:41:16Z</time>
      </trkpt>
      <trkpt lat="43.252910" lon="-2.159860">
        <ele>171.272</ele>
        <time>2020-07-14T01:41:36Z</time>
      </trkpt>
      <trkpt lat="43.253780" lon="-2.160530">
        <ele>164.057</ele>
        <time>2020-07-14T01:42:16Z</time>
      </trkpt>
      <trkpt lat="43.254110" lon="-2.158120">
        <ele>148.540</ele>
        <time>2020-07-14T01:43:16Z</time>
      </trkpt>
      <trkpt lat="43.255060" lon="-2.158510">
        <ele>138.273</ele>
        <time>2020-07-14T01:44:16Z</time>
      </trkpt>
      <trkpt lat="43.258220" lon="-2.156030">
        <ele>129.845</ele>
        <time>2020-07-14T01:45:36Z</time>
      </trkpt>
      <trkpt lat="43.258680" lon="-2.154750">
        <ele>133.582</ele>
        <time>2020-07-14T01:45:56Z</time>
      </trkpt>
      <trkpt lat="43.259260" lon="-2.154160">
        <ele>134.343</ele>
        <time>2020-07-14T01:46:16Z</time>
      </trkpt>
      <trkpt lat="43.260010" lon="-2.149160">
        <ele>117.917</ele>
        <time>2020-07-14T01:47:36Z</time>
      </trkpt>
      <trkpt lat="43.261020" lon="-2.148880">
        <ele>110.308</ele>
        <time>2020-07-14T01:47:56Z</time>
      </trkpt>
      <trkpt lat="43.263430" lon="-2.146530">
        <ele>92.663</ele>
        <time>2020-07-14T01:48:56Z</time>
      </trkpt>
      <trkpt lat="43.264570" lon="-2.145980">
        <ele>87.260</ele>
        <time>2020-07-14T01:49:16Z</time>
      </trkpt>
      <trkpt lat="43.266030" lon="-2.143910">
        <ele>75.365</ele>
        <time>2020-07-14T01:49:56Z</time>
      </trkpt>
      <trkpt lat="43.268070" lon="-2.142440">
        <ele>79.658</ele>
        <time>2020-07-14T01:50:16Z</time>
      </trkpt>
      <trkpt lat="43.271370" lon="-2.141120">
        <ele>85.183</ele>
        <time>2020-07-14T01:50:56Z</time>
      </trkpt>
      <trkpt lat="43.272730" lon="-2.137480">
        <ele>90.426</ele>
        <time>2020-07-14T01:51:56Z</time>
      </trkpt>
      <trkpt lat="43.275550" lon="-2.141090">
        <ele>72.659</ele>
        <time>2020-07-14T01:52:56Z</time>
      </trkpt>
      <trkpt lat="43.276450" lon="-2.141010">
        <ele>71.181</ele>
        <time>2020-07-14T01:53:36Z</time>
      </trkpt>
      <trkpt lat="43.278920" lon="-2.142020">
        <ele>59.069</ele>
        <time>2020-07-14T01:54:36Z</time>
      </trkpt>
      <trkpt lat="43.281360" lon="-2.146640">
        <ele>34.904</ele>
        <time>2020-07-14T01:55:36Z</time>
      </trkpt>
      <trkpt lat="43.281380" lon="-2.148190">
        <ele>28.724</ele>
        <time>2020-07-14T01:56:16Z</time>
      </trkpt>
      <trkpt lat="43.282150" lon="-2.152090">
        <ele>15.408</ele>
        <time>2020-07-14T01:56:56Z</time>
      </trkpt>
      <trkpt lat="43.284540" lon="-2.157740">
        <ele>4.611</ele>
        <time>2020-07-14T01:58:16Z</time>
      </trkpt>
      <trkpt lat="43.285420" lon="-2.171070">
        <ele>7.578</ele>
        <time>2020-07-14T01:58:56Z</time>
      </trkpt>
      <trkpt lat="43.284580" lon="-2.171180">
        <ele>5.493</ele>
        <time>2020-07-14T01:59:16Z</time>
      </trkpt>
      <trkpt lat="43.284790" lon="-2.171580">
        <ele>4.846</ele>
        <time>2020-07-14T01:59:56Z</time>
      </trkpt>
    </trkseg>
  </trk>
</gpx>
